<?xml version="1.0" encoding="UTF-8"?>
<gpx version="1.1" creator="Garmin Connect"
  xsi:schemaLocation="http://www.topografix.com/GPX/1/1 http://www.topografix.com/GPX/1/1/gpx.xsd http://www.garmin.com/xmlschemas/GpxExtensions/v3 http://www.garmin.com/xmlschemas/GpxExtensionsv3.xsd http://www.garmin.com/xmlschemas/TrackPointExtension/v1 http://www.garmin.com/xmlschemas/TrackPointExtensionv1.xsd"
  xmlns="http://www.topografix.com/GPX/1/1"
  xmlns:gpxtpx="http://www.garmin.com/xmlschemas/TrackPointExtension/v1"
  xmlns:gpxx="http://www.garmin.com/xmlschemas/GpxExtensions/v3" xmlns:xsi="http://www.w3.org/2001/XMLSchema-instance">
  <metadata>
    <link href="connect.garmin.com">
      <text>Garmin Connect</text>
    </link>
    <time>2013-09-23T08:51:53.000Z</time>
  </metadata>
  <trk>
    <name>Untitled</name>
    <trkseg>
      <trkpt lon="7.803798448294401" lat="48.04651695303619">
        <ele>211.0</ele>
        <time>2013-09-23T08:51:53.000Z</time>
      </trkpt>
      <trkpt lon="7.803796352818608" lat="48.0465336330235">
        <ele>211.0</ele>
        <time>2013-09-23T08:51:54.000Z</time>
      </trkpt>
      <trkpt lon="7.80377933755517" lat="48.046689284965396">
        <ele>210.8000030517578</ele>
        <time>2013-09-23T08:51:58.000Z</time>
      </trkpt>
      <trkpt lon="7.803695686161518" lat="48.04698667488992">
        <ele>210.1999969482422</ele>
        <time>2013-09-23T08:52:04.000Z</time>
      </trkpt>
      <trkpt lon="7.8036310616880655" lat="48.04723444394767">
        <ele>209.60000610351562</ele>
        <time>2013-09-23T08:52:09.000Z</time>
      </trkpt>
      <trkpt lon="7.803714880719781" lat="48.0474369507283">
        <ele>209.0</ele>
        <time>2013-09-23T08:52:13.000Z</time>
      </trkpt>
      <trkpt lon="7.80373876914382" lat="48.04761389270425">
        <ele>209.1999969482422</ele>
        <time>2013-09-23T08:52:17.000Z</time>
      </trkpt>
      <trkpt lon="7.803696859627962" lat="48.04766586050391">
        <ele>209.1999969482422</ele>
        <time>2013-09-23T08:52:18.000Z</time>
      </trkpt>
      <trkpt lon="7.803457053378224" lat="48.04793466813862">
        <ele>210.0</ele>
        <time>2013-09-23T08:52:24.000Z</time>
      </trkpt>
      <trkpt lon="7.803173242136836" lat="48.04810079745948">
        <ele>210.39999389648438</ele>
        <time>2013-09-23T08:52:28.000Z</time>
      </trkpt>
      <trkpt lon="7.8024795558303595" lat="48.048242535442114">
        <ele>210.8000030517578</ele>
        <time>2013-09-23T08:52:35.000Z</time>
      </trkpt>
      <trkpt lon="7.801821660250425" lat="48.04836264811456">
        <ele>210.0</ele>
        <time>2013-09-23T08:52:42.000Z</time>
      </trkpt>
      <trkpt lon="7.80179793946445" lat="48.04845007136464">
        <ele>209.8000030517578</ele>
        <time>2013-09-23T08:52:46.000Z</time>
      </trkpt>
      <trkpt lon="7.801821995526552" lat="48.04848175495863">
        <ele>209.8000030517578</ele>
        <time>2013-09-23T08:52:47.000Z</time>
      </trkpt>
      <trkpt lon="7.802038248628378" lat="48.04875575937331">
        <ele>209.39999389648438</ele>
        <time>2013-09-23T08:52:54.000Z</time>
      </trkpt>
      <trkpt lon="7.802240587770939" lat="48.0491447634995">
        <ele>208.1999969482422</ele>
        <time>2013-09-23T08:53:02.000Z</time>
      </trkpt>
      <trkpt lon="7.802321556955576" lat="48.0493572447449">
        <ele>208.1999969482422</ele>
        <time>2013-09-23T08:53:06.000Z</time>
      </trkpt>
      <trkpt lon="7.802219381555915" lat="48.04959428496659">
        <ele>208.60000610351562</ele>
        <time>2013-09-23T08:53:10.000Z</time>
      </trkpt>
      <trkpt lon="7.802151991054416" lat="48.04964524693787">
        <ele>208.8000030517578</ele>
        <time>2013-09-23T08:53:11.000Z</time>
      </trkpt>
      <trkpt lon="7.801968259736896" lat="48.04991338402033">
        <ele>209.60000610351562</ele>
        <time>2013-09-23T08:53:16.000Z</time>
      </trkpt>
      <trkpt lon="7.801990136504173" lat="48.050026036798954">
        <ele>209.8000030517578</ele>
        <time>2013-09-23T08:53:18.000Z</time>
      </trkpt>
      <trkpt lon="7.802075883373618" lat="48.05052559822798">
        <ele>210.60000610351562</ele>
        <time>2013-09-23T08:53:27.000Z</time>
      </trkpt>
      <trkpt lon="7.80215953476727" lat="48.050840590149164">
        <ele>211.39999389648438</ele>
        <time>2013-09-23T08:53:33.000Z</time>
      </trkpt>
      <trkpt lon="7.802152158692479" lat="48.05119413882494">
        <ele>211.60000610351562</ele>
        <time>2013-09-23T08:53:40.000Z</time>
      </trkpt>
      <trkpt lon="7.802097676321864" lat="48.051547687500715">
        <ele>211.8000030517578</ele>
        <time>2013-09-23T08:53:48.000Z</time>
      </trkpt>
      <trkpt lon="7.8022227343171835" lat="48.05200299248099">
        <ele>213.60000610351562</ele>
        <time>2013-09-23T08:53:55.000Z</time>
      </trkpt>
      <trkpt lon="7.802321640774608" lat="48.05230339989066">
        <ele>215.0</ele>
        <time>2013-09-23T08:54:02.000Z</time>
      </trkpt>
      <trkpt lon="7.802374279126525" lat="48.05233793333173">
        <ele>215.1999969482422</ele>
        <time>2013-09-23T08:54:03.000Z</time>
      </trkpt>
      <trkpt lon="7.802613750100136" lat="48.05255586281419">
        <ele>216.1999969482422</ele>
        <time>2013-09-23T08:54:09.000Z</time>
      </trkpt>
      <trkpt lon="7.802753560245037" lat="48.052654853090644">
        <ele>216.60000610351562</ele>
        <time>2013-09-23T08:54:12.000Z</time>
      </trkpt>
      <trkpt lon="7.802849784493446" lat="48.05272048339248">
        <ele>216.8000030517578</ele>
        <time>2013-09-23T08:54:14.000Z</time>
      </trkpt>
      <trkpt lon="7.8032078593969345" lat="48.05278326384723">
        <ele>217.0</ele>
        <time>2013-09-23T08:54:19.000Z</time>
      </trkpt>
      <trkpt lon="7.803642461076379" lat="48.052888037636876">
        <ele>217.39999389648438</ele>
        <time>2013-09-23T08:54:25.000Z</time>
      </trkpt>
      <trkpt lon="7.80407496728003" lat="48.05306355468929">
        <ele>218.60000610351562</ele>
        <time>2013-09-23T08:54:32.000Z</time>
      </trkpt>
      <trkpt lon="7.804432790726423" lat="48.053287435323">
        <ele>219.60000610351562</ele>
        <time>2013-09-23T08:54:39.000Z</time>
      </trkpt>
      <trkpt lon="7.804945260286331" lat="48.05367719382048">
        <ele>221.60000610351562</ele>
        <time>2013-09-23T08:54:51.000Z</time>
      </trkpt>
      <trkpt lon="7.805422190576792" lat="48.05407424457371">
        <ele>224.0</ele>
        <time>2013-09-23T08:55:02.000Z</time>
      </trkpt>
      <trkpt lon="7.805916555225849" lat="48.05439946241677">
        <ele>224.8000030517578</ele>
        <time>2013-09-23T08:55:12.000Z</time>
      </trkpt>
      <trkpt lon="7.806255854666233" lat="48.054671455174685">
        <ele>224.0</ele>
        <time>2013-09-23T08:55:18.000Z</time>
      </trkpt>
      <trkpt lon="7.8066023625433445" lat="48.05498435162008">
        <ele>222.1999969482422</ele>
        <time>2013-09-23T08:55:24.000Z</time>
      </trkpt>
      <trkpt lon="7.806958258152008" lat="48.05541015230119">
        <ele>218.1999969482422</ele>
        <time>2013-09-23T08:55:30.000Z</time>
      </trkpt>
      <trkpt lon="7.807343071326613" lat="48.05582044646144">
        <ele>214.1999969482422</ele>
        <time>2013-09-23T08:55:35.000Z</time>
      </trkpt>
      <trkpt lon="7.80790239572525" lat="48.05622596293688">
        <ele>210.8000030517578</ele>
        <time>2013-09-23T08:55:40.000Z</time>
      </trkpt>
      <trkpt lon="7.808596836403012" lat="48.05677564814687">
        <ele>207.39999389648438</ele>
        <time>2013-09-23T08:55:46.000Z</time>
      </trkpt>
      <trkpt lon="7.8088971599936485" lat="48.05701017379761">
        <ele>206.39999389648438</ele>
        <time>2013-09-23T08:55:49.000Z</time>
      </trkpt>
      <trkpt lon="7.808996066451073" lat="48.05733287706971">
        <ele>205.60000610351562</ele>
        <time>2013-09-23T08:55:53.000Z</time>
      </trkpt>
      <trkpt lon="7.808766737580299" lat="48.05751736275852">
        <ele>205.39999389648438</ele>
        <time>2013-09-23T08:55:56.000Z</time>
      </trkpt>
      <trkpt lon="7.808223757892847" lat="48.057927656918764">
        <ele>203.8000030517578</ele>
        <time>2013-09-23T08:56:03.000Z</time>
      </trkpt>
      <trkpt lon="7.807643059641123" lat="48.05835597217083">
        <ele>201.8000030517578</ele>
        <time>2013-09-23T08:56:11.000Z</time>
      </trkpt>
      <trkpt lon="7.806951552629471" lat="48.05888696573675">
        <ele>201.1999969482422</ele>
        <time>2013-09-23T08:56:21.000Z</time>
      </trkpt>
      <trkpt lon="7.806220734491944" lat="48.05946045555174">
        <ele>200.60000610351562</ele>
        <time>2013-09-23T08:56:32.000Z</time>
      </trkpt>
      <trkpt lon="7.805693596601486" lat="48.05984225124121">
        <ele>200.60000610351562</ele>
        <time>2013-09-23T08:56:40.000Z</time>
      </trkpt>
      <trkpt lon="7.80556283891201" lat="48.05993914604187">
        <ele>200.8000030517578</ele>
        <time>2013-09-23T08:56:42.000Z</time>
      </trkpt>
      <trkpt lon="7.805393440648913" lat="48.060172498226166">
        <ele>200.8000030517578</ele>
        <time>2013-09-23T08:56:46.000Z</time>
      </trkpt>
      <trkpt lon="7.805399056524038" lat="48.0602983944118">
        <ele>200.8000030517578</ele>
        <time>2013-09-23T08:56:48.000Z</time>
      </trkpt>
      <trkpt lon="7.8053380362689495" lat="48.06056326255202">
        <ele>200.60000610351562</ele>
        <time>2013-09-23T08:56:53.000Z</time>
      </trkpt>
      <trkpt lon="7.805096972733736" lat="48.06061933748424">
        <ele>200.39999389648438</ele>
        <time>2013-09-23T08:56:56.000Z</time>
      </trkpt>
      <trkpt lon="7.804617863148451" lat="48.06075663305819">
        <ele>201.39999389648438</ele>
        <time>2013-09-23T08:57:02.000Z</time>
      </trkpt>
      <trkpt lon="7.804295662790537" lat="48.06091605685651">
        <ele>202.39999389648438</ele>
        <time>2013-09-23T08:57:07.000Z</time>
      </trkpt>
      <trkpt lon="7.803976647555828" lat="48.06123163551092">
        <ele>202.60000610351562</ele>
        <time>2013-09-23T08:57:14.000Z</time>
      </trkpt>
      <trkpt lon="7.803775565698743" lat="48.06158719584346">
        <ele>202.8000030517578</ele>
        <time>2013-09-23T08:57:21.000Z</time>
      </trkpt>
      <trkpt lon="7.803732650354505" lat="48.06200176477432">
        <ele>202.1999969482422</ele>
        <time>2013-09-23T08:57:28.000Z</time>
      </trkpt>
      <trkpt lon="7.803675485774875" lat="48.06259436532855">
        <ele>200.8000030517578</ele>
        <time>2013-09-23T08:57:37.000Z</time>
      </trkpt>
      <trkpt lon="7.803517151623964" lat="48.06310658343136">
        <ele>200.8000030517578</ele>
        <time>2013-09-23T08:57:44.000Z</time>
      </trkpt>
      <trkpt lon="7.803285643458366" lat="48.06356926448643">
        <ele>200.60000610351562</ele>
        <time>2013-09-23T08:57:51.000Z</time>
      </trkpt>
      <trkpt lon="7.802878450602293" lat="48.06412138044834">
        <ele>200.0</ele>
        <time>2013-09-23T08:57:59.000Z</time>
      </trkpt>
      <trkpt lon="7.802277384325862" lat="48.06477315723896">
        <ele>198.8000030517578</ele>
        <time>2013-09-23T08:58:09.000Z</time>
      </trkpt>
      <trkpt lon="7.801583781838417" lat="48.06543775834143">
        <ele>198.39999389648438</ele>
        <time>2013-09-23T08:58:20.000Z</time>
      </trkpt>
      <trkpt lon="7.80098439194262" lat="48.066010158509016">
        <ele>198.60000610351562</ele>
        <time>2013-09-23T08:58:30.000Z</time>
      </trkpt>
      <trkpt lon="7.800483992323279" lat="48.06652086786926">
        <ele>198.39999389648438</ele>
        <time>2013-09-23T08:58:39.000Z</time>
      </trkpt>
      <trkpt lon="7.799968086183071" lat="48.06708253920078">
        <ele>199.0</ele>
        <time>2013-09-23T08:58:49.000Z</time>
      </trkpt>
      <trkpt lon="7.799744959920645" lat="48.0673682782799">
        <ele>200.0</ele>
        <time>2013-09-23T08:58:54.000Z</time>
      </trkpt>
      <trkpt lon="7.799660470336676" lat="48.06755536235869">
        <ele>200.60000610351562</ele>
        <time>2013-09-23T08:58:57.000Z</time>
      </trkpt>
      <trkpt lon="7.799450671300292" lat="48.06781779974699">
        <ele>201.8000030517578</ele>
        <time>2013-09-23T08:59:02.000Z</time>
      </trkpt>
      <trkpt lon="7.799437595531344" lat="48.06786926463246">
        <ele>201.8000030517578</ele>
        <time>2013-09-23T08:59:03.000Z</time>
      </trkpt>
      <trkpt lon="7.7993282955139875" lat="48.06823706254363">
        <ele>202.8000030517578</ele>
        <time>2013-09-23T08:59:10.000Z</time>
      </trkpt>
      <trkpt lon="7.799249840900302" lat="48.06839883327484">
        <ele>203.1999969482422</ele>
        <time>2013-09-23T08:59:13.000Z</time>
      </trkpt>
      <trkpt lon="7.799249840900302" lat="48.06839883327484">
        <ele>203.1999969482422</ele>
        <time>2013-09-23T08:59:13.000Z</time>
      </trkpt>
      <trkpt lon="7.799157053232193" lat="48.068550964817405">
        <ele>203.1999969482422</ele>
        <time>2013-09-23T08:59:16.000Z</time>
      </trkpt>
      <trkpt lon="7.79896535910666" lat="48.06889554485679">
        <ele>202.1999969482422</ele>
        <time>2013-09-23T08:59:22.000Z</time>
      </trkpt>
      <trkpt lon="7.79868439771235" lat="48.06917424313724">
        <ele>201.39999389648438</ele>
        <time>2013-09-23T08:59:27.000Z</time>
      </trkpt>
      <trkpt lon="7.798561938107014" lat="48.06934095919132">
        <ele>201.1999969482422</ele>
        <time>2013-09-23T08:59:30.000Z</time>
      </trkpt>
      <trkpt lon="7.798549951985478" lat="48.06957766413689">
        <ele>200.8000030517578</ele>
        <time>2013-09-23T08:59:34.000Z</time>
      </trkpt>
      <trkpt lon="7.798641063272953" lat="48.069661650806665">
        <ele>200.60000610351562</ele>
        <time>2013-09-23T08:59:36.000Z</time>
      </trkpt>
      <trkpt lon="7.799247996881604" lat="48.07000245898962">
        <ele>199.60000610351562</ele>
        <time>2013-09-23T08:59:45.000Z</time>
      </trkpt>
      <trkpt lon="7.799882255494595" lat="48.07035776786506">
        <ele>198.0</ele>
        <time>2013-09-23T08:59:53.000Z</time>
      </trkpt>
      <trkpt lon="7.800875259563327" lat="48.07084324769676">
        <ele>198.8000030517578</ele>
        <time>2013-09-23T09:00:04.000Z</time>
      </trkpt>
      <trkpt lon="7.801634157076478" lat="48.071171483024955">
        <ele>198.39999389648438</ele>
        <time>2013-09-23T09:00:13.000Z</time>
      </trkpt>
      <trkpt lon="7.802376374602318" lat="48.07144205085933">
        <ele>198.0</ele>
        <time>2013-09-23T09:00:21.000Z</time>
      </trkpt>
      <trkpt lon="7.80298825353384" lat="48.071540454402566">
        <ele>197.39999389648438</ele>
        <time>2013-09-23T09:00:27.000Z</time>
      </trkpt>
      <trkpt lon="7.803790653124452" lat="48.0716113653034">
        <ele>198.0</ele>
        <time>2013-09-23T09:00:35.000Z</time>
      </trkpt>
      <trkpt lon="7.804360454902053" lat="48.07167707942426">
        <ele>198.60000610351562</ele>
        <time>2013-09-23T09:00:41.000Z</time>
      </trkpt>
      <trkpt lon="7.805027570575476" lat="48.07178805582225">
        <ele>197.8000030517578</ele>
        <time>2013-09-23T09:00:49.000Z</time>
      </trkpt>
      <trkpt lon="7.805658895522356" lat="48.071901965886354">
        <ele>197.8000030517578</ele>
        <time>2013-09-23T09:00:57.000Z</time>
      </trkpt>
      <trkpt lon="7.806480238214135" lat="48.07208745740354">
        <ele>197.60000610351562</ele>
        <time>2013-09-23T09:01:08.000Z</time>
      </trkpt>
      <trkpt lon="7.8071183525025845" lat="48.07227998971939">
        <ele>198.39999389648438</ele>
        <time>2013-09-23T09:01:17.000Z</time>
      </trkpt>
      <trkpt lon="7.807636773213744" lat="48.07246657088399">
        <ele>200.0</ele>
        <time>2013-09-23T09:01:25.000Z</time>
      </trkpt>
      <trkpt lon="7.808146644383669" lat="48.07268056087196">
        <ele>200.8000030517578</ele>
        <time>2013-09-23T09:01:33.000Z</time>
      </trkpt>
      <trkpt lon="7.808615444228053" lat="48.072912488132715">
        <ele>201.39999389648438</ele>
        <time>2013-09-23T09:01:40.000Z</time>
      </trkpt>
      <trkpt lon="7.809214163571596" lat="48.073271568864584">
        <ele>202.8000030517578</ele>
        <time>2013-09-23T09:01:49.000Z</time>
      </trkpt>
      <trkpt lon="7.809748342260718" lat="48.07360399514437">
        <ele>202.8000030517578</ele>
        <time>2013-09-23T09:01:56.000Z</time>
      </trkpt>
      <trkpt lon="7.810167856514454" lat="48.07389987632632">
        <ele>202.0</ele>
        <time>2013-09-23T09:02:02.000Z</time>
      </trkpt>
      <trkpt lon="7.810642691329122" lat="48.07432299479842">
        <ele>202.1999969482422</ele>
        <time>2013-09-23T09:02:09.000Z</time>
      </trkpt>
      <trkpt lon="7.811004873365164" lat="48.07468777522445">
        <ele>200.60000610351562</ele>
        <time>2013-09-23T09:02:15.000Z</time>
      </trkpt>
      <trkpt lon="7.811602251604199" lat="48.07539445348084">
        <ele>196.60000610351562</ele>
        <time>2013-09-23T09:02:25.000Z</time>
      </trkpt>
      <trkpt lon="7.812057137489319" lat="48.075983952730894">
        <ele>195.60000610351562</ele>
        <time>2013-09-23T09:02:34.000Z</time>
      </trkpt>
      <trkpt lon="7.812255285680294" lat="48.07627237401903">
        <ele>196.1999969482422</ele>
        <time>2013-09-23T09:02:39.000Z</time>
      </trkpt>
      <trkpt lon="7.812436250969768" lat="48.076359294354916">
        <ele>196.39999389648438</ele>
        <time>2013-09-23T09:02:42.000Z</time>
      </trkpt>
      <trkpt lon="7.812585951760411" lat="48.07646985165775">
        <ele>196.60000610351562</ele>
        <time>2013-09-23T09:02:45.000Z</time>
      </trkpt>
      <trkpt lon="7.812881749123335" lat="48.07654143311083">
        <ele>196.8000030517578</ele>
        <time>2013-09-23T09:02:49.000Z</time>
      </trkpt>
      <trkpt lon="7.813685154542327" lat="48.07651008479297">
        <ele>197.0</ele>
        <time>2013-09-23T09:02:58.000Z</time>
      </trkpt>
      <trkpt lon="7.8143891505897045" lat="48.07645048946142">
        <ele>197.0</ele>
        <time>2013-09-23T09:03:06.000Z</time>
      </trkpt>
      <trkpt lon="7.815218959003687" lat="48.07635116390884">
        <ele>197.60000610351562</ele>
        <time>2013-09-23T09:03:15.000Z</time>
      </trkpt>
      <trkpt lon="7.816083133220673" lat="48.07625385001302">
        <ele>197.60000610351562</ele>
        <time>2013-09-23T09:03:24.000Z</time>
      </trkpt>
      <trkpt lon="7.816978571936488" lat="48.07617489248514">
        <ele>198.39999389648438</ele>
        <time>2013-09-23T09:03:33.000Z</time>
      </trkpt>
      <trkpt lon="7.81717068515718" lat="48.076156955212355">
        <ele>198.60000610351562</ele>
        <time>2013-09-23T09:03:35.000Z</time>
      </trkpt>
      <trkpt lon="7.817449886351824" lat="48.07606835849583">
        <ele>198.60000610351562</ele>
        <time>2013-09-23T09:03:39.000Z</time>
      </trkpt>
      <trkpt lon="7.817670246586204" lat="48.07608294300735">
        <ele>198.60000610351562</ele>
        <time>2013-09-23T09:03:43.000Z</time>
      </trkpt>
      <trkpt lon="7.817824557423592" lat="48.076237170025706">
        <ele>198.60000610351562</ele>
        <time>2013-09-23T09:03:47.000Z</time>
      </trkpt>
      <trkpt lon="7.8179803770035505" lat="48.07626684196293">
        <ele>198.60000610351562</ele>
        <time>2013-09-23T09:03:49.000Z</time>
      </trkpt>
      <trkpt lon="7.818719744682312" lat="48.07636256329715">
        <ele>199.0</ele>
        <time>2013-09-23T09:03:57.000Z</time>
      </trkpt>
      <trkpt lon="7.819617362692952" lat="48.076425259932876">
        <ele>199.39999389648438</ele>
        <time>2013-09-23T09:04:06.000Z</time>
      </trkpt>
      <trkpt lon="7.820397885516286" lat="48.07643867097795">
        <ele>200.0</ele>
        <time>2013-09-23T09:04:14.000Z</time>
      </trkpt>
      <trkpt lon="7.821156280115247" lat="48.07645275257528">
        <ele>200.1999969482422</ele>
        <time>2013-09-23T09:04:22.000Z</time>
      </trkpt>
      <trkpt lon="7.822078373283148" lat="48.0764395929873">
        <ele>200.39999389648438</ele>
        <time>2013-09-23T09:04:32.000Z</time>
      </trkpt>
      <trkpt lon="7.822786392644048" lat="48.076367089524865">
        <ele>200.60000610351562</ele>
        <time>2013-09-23T09:04:40.000Z</time>
      </trkpt>
      <trkpt lon="7.823393996804953" lat="48.07638108730316">
        <ele>200.1999969482422</ele>
        <time>2013-09-23T09:04:47.000Z</time>
      </trkpt>
      <trkpt lon="7.82429538667202" lat="48.07644395157695">
        <ele>200.1999969482422</ele>
        <time>2013-09-23T09:04:57.000Z</time>
      </trkpt>
      <trkpt lon="7.825047662481666" lat="48.07641168124974">
        <ele>199.60000610351562</ele>
        <time>2013-09-23T09:05:05.000Z</time>
      </trkpt>
      <trkpt lon="7.825567843392491" lat="48.07644906453788">
        <ele>200.0</ele>
        <time>2013-09-23T09:05:11.000Z</time>
      </trkpt>
      <trkpt lon="7.826239736750722" lat="48.076598262414336">
        <ele>201.0</ele>
        <time>2013-09-23T09:05:19.000Z</time>
      </trkpt>
      <trkpt lon="7.826818758621812" lat="48.076812252402306">
        <ele>201.8000030517578</ele>
        <time>2013-09-23T09:05:26.000Z</time>
      </trkpt>
      <trkpt lon="7.827510349452496" lat="48.07700009085238">
        <ele>201.60000610351562</ele>
        <time>2013-09-23T09:05:34.000Z</time>
      </trkpt>
      <trkpt lon="7.828062549233437" lat="48.07705675251782">
        <ele>200.8000030517578</ele>
        <time>2013-09-23T09:05:40.000Z</time>
      </trkpt>
      <trkpt lon="7.828846340999007" lat="48.077038479968905">
        <ele>200.8000030517578</ele>
        <time>2013-09-23T09:05:48.000Z</time>
      </trkpt>
      <trkpt lon="7.829805985093117" lat="48.07705423794687">
        <ele>201.39999389648438</ele>
        <time>2013-09-23T09:05:58.000Z</time>
      </trkpt>
      <trkpt lon="7.829889636486769" lat="48.07705817744136">
        <ele>201.39999389648438</ele>
        <time>2013-09-23T09:05:59.000Z</time>
      </trkpt>
      <trkpt lon="7.830047970637679" lat="48.0771803855896">
        <ele>201.1999969482422</ele>
        <time>2013-09-23T09:06:03.000Z</time>
      </trkpt>
      <trkpt lon="7.830042354762554" lat="48.07723646052182">
        <ele>201.1999969482422</ele>
        <time>2013-09-23T09:06:04.000Z</time>
      </trkpt>
      <trkpt lon="7.829970354214311" lat="48.07755799032748">
        <ele>200.8000030517578</ele>
        <time>2013-09-23T09:06:09.000Z</time>
      </trkpt>
      <trkpt lon="7.82966198399663" lat="48.077978091314435">
        <ele>200.0</ele>
        <time>2013-09-23T09:06:16.000Z</time>
      </trkpt>
      <trkpt lon="7.829215982928872" lat="48.078354271128774">
        <ele>200.8000030517578</ele>
        <time>2013-09-23T09:06:23.000Z</time>
      </trkpt>
      <trkpt lon="7.8291363548487425" lat="48.07840288616717">
        <ele>200.8000030517578</ele>
        <time>2013-09-23T09:06:24.000Z</time>
      </trkpt>
      <trkpt lon="7.8291363548487425" lat="48.07840288616717">
        <ele>200.8000030517578</ele>
        <time>2013-09-23T09:06:24.000Z</time>
      </trkpt>
      <trkpt lon="7.82858457416296" lat="48.07869323529303">
        <ele>200.60000610351562</ele>
        <time>2013-09-23T09:06:31.000Z</time>
      </trkpt>
      <trkpt lon="7.828157851472497" lat="48.07894133962691">
        <ele>200.60000610351562</ele>
        <time>2013-09-23T09:06:37.000Z</time>
      </trkpt>
      <trkpt lon="7.827863059937954" lat="48.07925675064325">
        <ele>201.0</ele>
        <time>2013-09-23T09:06:43.000Z</time>
      </trkpt>
      <trkpt lon="7.827470954507589" lat="48.07979545556009">
        <ele>201.0</ele>
        <time>2013-09-23T09:06:52.000Z</time>
      </trkpt>
      <trkpt lon="7.827107263728976" lat="48.080089492723346">
        <ele>201.8000030517578</ele>
        <time>2013-09-23T09:06:58.000Z</time>
      </trkpt>
      <trkpt lon="7.826629243791103" lat="48.08038545772433">
        <ele>202.8000030517578</ele>
        <time>2013-09-23T09:07:05.000Z</time>
      </trkpt>
      <trkpt lon="7.826416091993451" lat="48.080644039437175">
        <ele>202.8000030517578</ele>
        <time>2013-09-23T09:07:10.000Z</time>
      </trkpt>
      <trkpt lon="7.826388096436858" lat="48.08086825534701">
        <ele>203.0</ele>
        <time>2013-09-23T09:07:14.000Z</time>
      </trkpt>
      <trkpt lon="7.826391868293285" lat="48.081110743805766">
        <ele>203.1999969482422</ele>
        <time>2013-09-23T09:07:18.000Z</time>
      </trkpt>
      <trkpt lon="7.826399998739362" lat="48.081171764060855">
        <ele>203.39999389648438</ele>
        <time>2013-09-23T09:07:19.000Z</time>
      </trkpt>
      <trkpt lon="7.826244765892625" lat="48.081370163708925">
        <ele>203.60000610351562</ele>
        <time>2013-09-23T09:07:23.000Z</time>
      </trkpt>
      <trkpt lon="7.82619028352201" lat="48.08141626417637">
        <ele>203.60000610351562</ele>
        <time>2013-09-23T09:07:24.000Z</time>
      </trkpt>
      <trkpt lon="7.826166478917003" lat="48.08147267438471">
        <ele>203.60000610351562</ele>
        <time>2013-09-23T09:07:26.000Z</time>
      </trkpt>
      <trkpt lon="7.826038654893637" lat="48.08171885088086">
        <ele>203.8000030517578</ele>
        <time>2013-09-23T09:07:30.000Z</time>
      </trkpt>
      <trkpt lon="7.826140746474266" lat="48.08186838403344">
        <ele>203.8000030517578</ele>
        <time>2013-09-23T09:07:33.000Z</time>
      </trkpt>
      <trkpt lon="7.826200760900974" lat="48.08190258219838">
        <ele>203.8000030517578</ele>
        <time>2013-09-23T09:07:34.000Z</time>
      </trkpt>
      <trkpt lon="7.826585154980421" lat="48.0819898378104">
        <ele>203.8000030517578</ele>
        <time>2013-09-23T09:07:39.000Z</time>
      </trkpt>
      <trkpt lon="7.827115897089243" lat="48.082326371222734">
        <ele>202.8000030517578</ele>
        <time>2013-09-23T09:07:46.000Z</time>
      </trkpt>
      <trkpt lon="7.827611938118935" lat="48.08255528099835">
        <ele>202.1999969482422</ele>
        <time>2013-09-23T09:07:53.000Z</time>
      </trkpt>
      <trkpt lon="7.827957356348634" lat="48.08274043723941">
        <ele>203.39999389648438</ele>
        <time>2013-09-23T09:07:58.000Z</time>
      </trkpt>
      <trkpt lon="7.82827528193593" lat="48.082845294848084">
        <ele>204.39999389648438</ele>
        <time>2013-09-23T09:08:02.000Z</time>
      </trkpt>
      <trkpt lon="7.828628998249769" lat="48.08290455490351">
        <ele>203.8000030517578</ele>
        <time>2013-09-23T09:08:06.000Z</time>
      </trkpt>
      <trkpt lon="7.828908953815699" lat="48.08310714550316">
        <ele>203.1999969482422</ele>
        <time>2013-09-23T09:08:11.000Z</time>
      </trkpt>
      <trkpt lon="7.828947342932224" lat="48.08316514827311">
        <ele>203.1999969482422</ele>
        <time>2013-09-23T09:08:12.000Z</time>
      </trkpt>
      <trkpt lon="7.829274740070105" lat="48.08364023454487">
        <ele>203.1999969482422</ele>
        <time>2013-09-23T09:08:20.000Z</time>
      </trkpt>
      <trkpt lon="7.829600963741541" lat="48.0840964615345">
        <ele>203.39999389648438</ele>
        <time>2013-09-23T09:08:28.000Z</time>
      </trkpt>
      <trkpt lon="7.829921571537852" lat="48.08459593914449">
        <ele>203.0</ele>
        <time>2013-09-23T09:08:36.000Z</time>
      </trkpt>
      <trkpt lon="7.830331446602941" lat="48.0850375816226">
        <ele>203.60000610351562</ele>
        <time>2013-09-23T09:08:44.000Z</time>
      </trkpt>
      <trkpt lon="7.830607043579221" lat="48.085299683734775">
        <ele>203.39999389648438</ele>
        <time>2013-09-23T09:08:49.000Z</time>
      </trkpt>
      <trkpt lon="7.830755151808262" lat="48.08553194627166">
        <ele>202.8000030517578</ele>
        <time>2013-09-23T09:08:53.000Z</time>
      </trkpt>
      <trkpt lon="7.831110376864672" lat="48.08596394956112">
        <ele>201.8000030517578</ele>
        <time>2013-09-23T09:09:00.000Z</time>
      </trkpt>
      <trkpt lon="7.831332748755813" lat="48.08639888651669">
        <ele>201.60000610351562</ele>
        <time>2013-09-23T09:09:07.000Z</time>
      </trkpt>
      <trkpt lon="7.831525951623917" lat="48.0870561953634">
        <ele>202.1999969482422</ele>
        <time>2013-09-23T09:09:17.000Z</time>
      </trkpt>
      <trkpt lon="7.831731643527746" lat="48.08777779340744">
        <ele>202.1999969482422</ele>
        <time>2013-09-23T09:09:28.000Z</time>
      </trkpt>
      <trkpt lon="7.831995086744428" lat="48.08867054991424">
        <ele>201.60000610351562</ele>
        <time>2013-09-23T09:09:42.000Z</time>
      </trkpt>
      <trkpt lon="7.832212597131729" lat="48.08944545686245">
        <ele>202.0</ele>
        <time>2013-09-23T09:09:54.000Z</time>
      </trkpt>
      <trkpt lon="7.832305887714028" lat="48.08976656757295">
        <ele>202.0</ele>
        <time>2013-09-23T09:09:59.000Z</time>
      </trkpt>
      <trkpt lon="7.832312844693661" lat="48.09005616232753">
        <ele>201.8000030517578</ele>
        <time>2013-09-23T09:10:04.000Z</time>
      </trkpt>
      <trkpt lon="7.832342432811856" lat="48.09010955505073">
        <ele>201.8000030517578</ele>
        <time>2013-09-23T09:10:05.000Z</time>
      </trkpt>
      <trkpt lon="7.832523565739393" lat="48.090559244155884">
        <ele>202.0</ele>
        <time>2013-09-23T09:10:13.000Z</time>
      </trkpt>
      <trkpt lon="7.832758091390133" lat="48.09110725298524">
        <ele>202.8000030517578</ele>
        <time>2013-09-23T09:10:22.000Z</time>
      </trkpt>
      <trkpt lon="7.832974763587117" lat="48.09147044084966">
        <ele>204.8000030517578</ele>
        <time>2013-09-23T09:10:28.000Z</time>
      </trkpt>
      <trkpt lon="7.833328144624829" lat="48.09184695594013">
        <ele>206.60000610351562</ele>
        <time>2013-09-23T09:10:35.000Z</time>
      </trkpt>
      <trkpt lon="7.833743384107947" lat="48.092202097177505">
        <ele>208.1999969482422</ele>
        <time>2013-09-23T09:10:42.000Z</time>
      </trkpt>
      <trkpt lon="7.834007162600756" lat="48.09236194007099">
        <ele>209.39999389648438</ele>
        <time>2013-09-23T09:10:46.000Z</time>
      </trkpt>
      <trkpt lon="7.834448888897896" lat="48.092552376911044">
        <ele>211.39999389648438</ele>
        <time>2013-09-23T09:10:52.000Z</time>
      </trkpt>
      <trkpt lon="7.834875779226422" lat="48.09274666942656">
        <ele>213.39999389648438</ele>
        <time>2013-09-23T09:10:58.000Z</time>
      </trkpt>
      <trkpt lon="7.835203679278493" lat="48.092824537307024">
        <ele>213.60000610351562</ele>
        <time>2013-09-23T09:11:02.000Z</time>
      </trkpt>
      <trkpt lon="7.835866687819362" lat="48.092916989699006">
        <ele>212.39999389648438</ele>
        <time>2013-09-23T09:11:09.000Z</time>
      </trkpt>
      <trkpt lon="7.83616466447711" lat="48.09296409599483">
        <ele>211.8000030517578</ele>
        <time>2013-09-23T09:11:12.000Z</time>
      </trkpt>
      <trkpt lon="7.8367567621171474" lat="48.09305629692972">
        <ele>210.8000030517578</ele>
        <time>2013-09-23T09:11:18.000Z</time>
      </trkpt>
      <trkpt lon="7.836945941671729" lat="48.093097284436226">
        <ele>210.8000030517578</ele>
        <time>2013-09-23T09:11:20.000Z</time>
      </trkpt>
      <trkpt lon="7.837763344869018" lat="48.09322175569832">
        <ele>210.39999389648438</ele>
        <time>2013-09-23T09:11:29.000Z</time>
      </trkpt>
      <trkpt lon="7.8382201585918665" lat="48.09332258999348">
        <ele>210.0</ele>
        <time>2013-09-23T09:11:34.000Z</time>
      </trkpt>
      <trkpt lon="7.839135294780135" lat="48.09346189722419">
        <ele>209.60000610351562</ele>
        <time>2013-09-23T09:11:44.000Z</time>
      </trkpt>
      <trkpt lon="7.839587833732367" lat="48.09352643787861">
        <ele>210.0</ele>
        <time>2013-09-23T09:11:49.000Z</time>
      </trkpt>
      <trkpt lon="7.8397695533931255" lat="48.09354454278946">
        <ele>210.1999969482422</ele>
        <time>2013-09-23T09:11:51.000Z</time>
      </trkpt>
      <trkpt lon="7.840396435931325" lat="48.09364018030465">
        <ele>211.60000610351562</ele>
        <time>2013-09-23T09:11:58.000Z</time>
      </trkpt>
      <trkpt lon="7.840933967381716" lat="48.09369944036007">
        <ele>212.8000030517578</ele>
        <time>2013-09-23T09:12:04.000Z</time>
      </trkpt>
      <trkpt lon="7.841023653745651" lat="48.0937132705003">
        <ele>213.0</ele>
        <time>2013-09-23T09:12:05.000Z</time>
      </trkpt>
      <trkpt lon="7.841491363942623" lat="48.09375115670264">
        <ele>214.0</ele>
        <time>2013-09-23T09:12:10.000Z</time>
      </trkpt>
      <trkpt lon="7.842152277007699" lat="48.09384746477008">
        <ele>215.60000610351562</ele>
        <time>2013-09-23T09:12:17.000Z</time>
      </trkpt>
      <trkpt lon="7.842430053278804" lat="48.09389105066657">
        <ele>216.39999389648438</ele>
        <time>2013-09-23T09:12:20.000Z</time>
      </trkpt>
      <trkpt lon="7.843189956620336" lat="48.093980653211474">
        <ele>216.0</ele>
        <time>2013-09-23T09:12:28.000Z</time>
      </trkpt>
      <trkpt lon="7.843741485849023" lat="48.09407855384052">
        <ele>215.60000610351562</ele>
        <time>2013-09-23T09:12:34.000Z</time>
      </trkpt>
      <trkpt lon="7.8441176656633615" lat="48.094161534681916">
        <ele>215.0</ele>
        <time>2013-09-23T09:12:38.000Z</time>
      </trkpt>
      <trkpt lon="7.844918891787529" lat="48.09427318163216">
        <ele>215.1999969482422</ele>
        <time>2013-09-23T09:12:47.000Z</time>
      </trkpt>
      <trkpt lon="7.845559939742088" lat="48.09437376447022">
        <ele>215.8000030517578</ele>
        <time>2013-09-23T09:12:54.000Z</time>
      </trkpt>
      <trkpt lon="7.846282795071602" lat="48.0944680608809">
        <ele>215.0</ele>
        <time>2013-09-23T09:13:02.000Z</time>
      </trkpt>
      <trkpt lon="7.8465974517166615" lat="48.09449949301779">
        <ele>214.1999969482422</ele>
        <time>2013-09-23T09:13:06.000Z</time>
      </trkpt>
      <trkpt lon="7.846916550770402" lat="48.09449345804751">
        <ele>213.8000030517578</ele>
        <time>2013-09-23T09:13:11.000Z</time>
      </trkpt>
      <trkpt lon="7.847243947908282" lat="48.09445917606354">
        <ele>213.60000610351562</ele>
        <time>2013-09-23T09:13:16.000Z</time>
      </trkpt>
      <trkpt lon="7.847322570160031" lat="48.09447753243148">
        <ele>213.39999389648438</ele>
        <time>2013-09-23T09:13:17.000Z</time>
      </trkpt>
      <trkpt lon="7.8480281587690115" lat="48.094554394483566">
        <ele>212.0</ele>
        <time>2013-09-23T09:13:26.000Z</time>
      </trkpt>
      <trkpt lon="7.848773645237088" lat="48.09466604143381">
        <ele>210.60000610351562</ele>
        <time>2013-09-23T09:13:36.000Z</time>
      </trkpt>
      <trkpt lon="7.848995598033071" lat="48.09471105225384">
        <ele>210.0</ele>
        <time>2013-09-23T09:13:39.000Z</time>
      </trkpt>
      <trkpt lon="7.848995598033071" lat="48.09471105225384">
        <ele>210.0</ele>
        <time>2013-09-23T09:13:39.000Z</time>
      </trkpt>
      <trkpt lon="7.849436653777957" lat="48.094818256795406">
        <ele>209.39999389648438</ele>
        <time>2013-09-23T09:13:45.000Z</time>
      </trkpt>
      <trkpt lon="7.850004862993956" lat="48.094997964799404">
        <ele>209.0</ele>
        <time>2013-09-23T09:13:53.000Z</time>
      </trkpt>
      <trkpt lon="7.850491851568222" lat="48.09522855095565">
        <ele>208.8000030517578</ele>
        <time>2013-09-23T09:14:00.000Z</time>
      </trkpt>
      <trkpt lon="7.8510241862386465" lat="48.09558268636465">
        <ele>208.1999969482422</ele>
        <time>2013-09-23T09:14:08.000Z</time>
      </trkpt>
      <trkpt lon="7.851532883942127" lat="48.095963979139924">
        <ele>207.8000030517578</ele>
        <time>2013-09-23T09:14:15.000Z</time>
      </trkpt>
      <trkpt lon="7.852294966578484" lat="48.09648524969816">
        <ele>207.60000610351562</ele>
        <time>2013-09-23T09:14:24.000Z</time>
      </trkpt>
      <trkpt lon="7.852799389511347" lat="48.096861094236374">
        <ele>207.39999389648438</ele>
        <time>2013-09-23T09:14:31.000Z</time>
      </trkpt>
      <trkpt lon="7.853230135515332" lat="48.097324864938855">
        <ele>206.1999969482422</ele>
        <time>2013-09-23T09:14:39.000Z</time>
      </trkpt>
      <trkpt lon="7.853828771039844" lat="48.09802525676787">
        <ele>206.1999969482422</ele>
        <time>2013-09-23T09:14:51.000Z</time>
      </trkpt>
      <trkpt lon="7.8542225528508425" lat="48.09855164028704">
        <ele>206.60000610351562</ele>
        <time>2013-09-23T09:15:00.000Z</time>
      </trkpt>
      <trkpt lon="7.854429837316275" lat="48.09886336326599">
        <ele>207.60000610351562</ele>
        <time>2013-09-23T09:15:06.000Z</time>
      </trkpt>
      <trkpt lon="7.8547473438084126" lat="48.0992497690022">
        <ele>208.0</ele>
        <time>2013-09-23T09:15:13.000Z</time>
      </trkpt>
      <trkpt lon="7.855009362101555" lat="48.09934414923191">
        <ele>208.0</ele>
        <time>2013-09-23T09:15:17.000Z</time>
      </trkpt>
      <trkpt lon="7.855148585513234" lat="48.099238788709044">
        <ele>208.0</ele>
        <time>2013-09-23T09:15:20.000Z</time>
      </trkpt>
      <trkpt lon="7.855352768674493" lat="48.09913896024227">
        <ele>208.0</ele>
        <time>2013-09-23T09:15:23.000Z</time>
      </trkpt>
      <trkpt lon="7.855482855811715" lat="48.09903963468969">
        <ele>208.0</ele>
        <time>2013-09-23T09:15:25.000Z</time>
      </trkpt>
      <trkpt lon="7.855734396725893" lat="48.09893695637584">
        <ele>208.1999969482422</ele>
        <time>2013-09-23T09:15:28.000Z</time>
      </trkpt>
      <trkpt lon="7.855987781658769" lat="48.09870695695281">
        <ele>208.39999389648438</ele>
        <time>2013-09-23T09:15:32.000Z</time>
      </trkpt>
      <trkpt lon="7.856389693915844" lat="48.098521465435624">
        <ele>208.1999969482422</ele>
        <time>2013-09-23T09:15:37.000Z</time>
      </trkpt>
      <trkpt lon="7.856793282553554" lat="48.09825634583831">
        <ele>208.0</ele>
        <time>2013-09-23T09:15:44.000Z</time>
      </trkpt>
      <trkpt lon="7.856848351657391" lat="48.098211754113436">
        <ele>208.0</ele>
        <time>2013-09-23T09:15:45.000Z</time>
      </trkpt>
      <trkpt lon="7.85701984539628" lat="48.09809189289808">
        <ele>208.39999389648438</ele>
        <time>2013-09-23T09:15:48.000Z</time>
      </trkpt>
      <trkpt lon="7.857432067394257" lat="48.09769978746772">
        <ele>209.39999389648438</ele>
        <time>2013-09-23T09:15:56.000Z</time>
      </trkpt>
      <trkpt lon="7.8577289544045925" lat="48.09740767814219">
        <ele>210.0</ele>
        <time>2013-09-23T09:16:02.000Z</time>
      </trkpt>
      <trkpt lon="7.858034558594227" lat="48.09713149443269">
        <ele>210.39999389648438</ele>
        <time>2013-09-23T09:16:07.000Z</time>
      </trkpt>
      <trkpt lon="7.85821259021759" lat="48.09693074785173">
        <ele>210.60000610351562</ele>
        <time>2013-09-23T09:16:11.000Z</time>
      </trkpt>
      <trkpt lon="7.858457257971168" lat="48.096841061487794">
        <ele>210.8000030517578</ele>
        <time>2013-09-23T09:16:15.000Z</time>
      </trkpt>
      <trkpt lon="7.85852774977684" lat="48.09685975313187">
        <ele>210.8000030517578</ele>
        <time>2013-09-23T09:16:16.000Z</time>
      </trkpt>
      <trkpt lon="7.858725478872657" lat="48.09694994240999">
        <ele>210.8000030517578</ele>
        <time>2013-09-23T09:16:19.000Z</time>
      </trkpt>
      <trkpt lon="7.859258065000176" lat="48.09724364429712">
        <ele>210.8000030517578</ele>
        <time>2013-09-23T09:16:27.000Z</time>
      </trkpt>
      <trkpt lon="7.859853850677609" lat="48.09757908806205">
        <ele>210.0</ele>
        <time>2013-09-23T09:16:35.000Z</time>
      </trkpt>
      <trkpt lon="7.860315274447203" lat="48.09780506417155">
        <ele>209.60000610351562</ele>
        <time>2013-09-23T09:16:41.000Z</time>
      </trkpt>
      <trkpt lon="7.860825061798096" lat="48.09806406497955">
        <ele>209.8000030517578</ele>
        <time>2013-09-23T09:16:48.000Z</time>
      </trkpt>
      <trkpt lon="7.860938385128975" lat="48.09813195839524">
        <ele>209.8000030517578</ele>
        <time>2013-09-23T09:16:50.000Z</time>
      </trkpt>
      <trkpt lon="7.861080290749669" lat="48.0982047971338">
        <ele>209.8000030517578</ele>
        <time>2013-09-23T09:16:54.000Z</time>
      </trkpt>
      <trkpt lon="7.861284054815769" lat="48.098444351926446">
        <ele>209.8000030517578</ele>
        <time>2013-09-23T09:17:00.000Z</time>
      </trkpt>
      <trkpt lon="7.861503576859832" lat="48.098684744909406">
        <ele>209.39999389648438</ele>
        <time>2013-09-23T09:17:05.000Z</time>
      </trkpt>
      <trkpt lon="7.861759644001722" lat="48.09885565191507">
        <ele>209.39999389648438</ele>
        <time>2013-09-23T09:17:09.000Z</time>
      </trkpt>
      <trkpt lon="7.862126352265477" lat="48.098978362977505">
        <ele>209.8000030517578</ele>
        <time>2013-09-23T09:17:13.000Z</time>
      </trkpt>
      <trkpt lon="7.862529270350933" lat="48.09916318394244">
        <ele>210.8000030517578</ele>
        <time>2013-09-23T09:17:18.000Z</time>
      </trkpt>
      <trkpt lon="7.862578555941582" lat="48.09922085143626">
        <ele>210.8000030517578</ele>
        <time>2013-09-23T09:17:19.000Z</time>
      </trkpt>
      <trkpt lon="7.862738650292158" lat="48.0993879865855">
        <ele>210.1999969482422</ele>
        <time>2013-09-23T09:17:22.000Z</time>
      </trkpt>
      <trkpt lon="7.8631520457565784" lat="48.09992367401719">
        <ele>208.8000030517578</ele>
        <time>2013-09-23T09:17:31.000Z</time>
      </trkpt>
      <trkpt lon="7.863104939460754" lat="48.10015484690666">
        <ele>209.0</ele>
        <time>2013-09-23T09:17:35.000Z</time>
      </trkpt>
      <trkpt lon="7.862463053315878" lat="48.10066404752433">
        <ele>207.8000030517578</ele>
        <time>2013-09-23T09:17:45.000Z</time>
      </trkpt>
      <trkpt lon="7.86163835786283" lat="48.101304760202765">
        <ele>208.60000610351562</ele>
        <time>2013-09-23T09:17:57.000Z</time>
      </trkpt>
      <trkpt lon="7.861114740371704" lat="48.101700050756335">
        <ele>210.60000610351562</ele>
        <time>2013-09-23T09:18:05.000Z</time>
      </trkpt>
      <trkpt lon="7.861140053719282" lat="48.1018450576812">
        <ele>210.8000030517578</ele>
        <time>2013-09-23T09:18:08.000Z</time>
      </trkpt>
      <trkpt lon="7.861197553575039" lat="48.10188436880708">
        <ele>210.8000030517578</ele>
        <time>2013-09-23T09:18:09.000Z</time>
      </trkpt>
      <trkpt lon="7.861317750066519" lat="48.10194916091859">
        <ele>210.8000030517578</ele>
        <time>2013-09-23T09:18:11.000Z</time>
      </trkpt>
      <trkpt lon="7.861429397016764" lat="48.102130461484194">
        <ele>211.1999969482422</ele>
        <time>2013-09-23T09:18:15.000Z</time>
      </trkpt>
      <trkpt lon="7.861413387581706" lat="48.10218594968319">
        <ele>211.1999969482422</ele>
        <time>2013-09-23T09:18:16.000Z</time>
      </trkpt>
      <trkpt lon="7.861335352063179" lat="48.102560453116894">
        <ele>211.8000030517578</ele>
        <time>2013-09-23T09:18:22.000Z</time>
      </trkpt>
      <trkpt lon="7.861357564106584" lat="48.1029883492738">
        <ele>211.39999389648438</ele>
        <time>2013-09-23T09:18:29.000Z</time>
      </trkpt>
      <trkpt lon="7.8615666925907135" lat="48.103112652897835">
        <ele>211.1999969482422</ele>
        <time>2013-09-23T09:18:33.000Z</time>
      </trkpt>
      <trkpt lon="7.861653361469507" lat="48.103122459724545">
        <ele>211.1999969482422</ele>
        <time>2013-09-23T09:18:34.000Z</time>
      </trkpt>
      <trkpt lon="7.8623116761446" lat="48.10320577584207">
        <ele>210.1999969482422</ele>
        <time>2013-09-23T09:18:41.000Z</time>
      </trkpt>
      <trkpt lon="7.862880891188979" lat="48.10327366925776">
        <ele>210.8000030517578</ele>
        <time>2013-09-23T09:18:47.000Z</time>
      </trkpt>
      <trkpt lon="7.862955071032047" lat="48.1032869964838">
        <ele>211.0</ele>
        <time>2013-09-23T09:18:48.000Z</time>
      </trkpt>
      <trkpt lon="7.86365294829011" lat="48.10342035256326">
        <ele>212.1999969482422</ele>
        <time>2013-09-23T09:18:56.000Z</time>
      </trkpt>
      <trkpt lon="7.864268766716123" lat="48.10353216715157">
        <ele>212.39999389648438</ele>
        <time>2013-09-23T09:19:03.000Z</time>
      </trkpt>
      <trkpt lon="7.864449061453342" lat="48.103562174364924">
        <ele>212.1999969482422</ele>
        <time>2013-09-23T09:19:05.000Z</time>
      </trkpt>
      <trkpt lon="7.865254562348127" lat="48.10367004945874">
        <ele>212.1999969482422</ele>
        <time>2013-09-23T09:19:14.000Z</time>
      </trkpt>
      <trkpt lon="7.865785555914044" lat="48.10372947715223">
        <ele>212.8000030517578</ele>
        <time>2013-09-23T09:19:20.000Z</time>
      </trkpt>
      <trkpt lon="7.866588877514005" lat="48.10383215546608">
        <ele>213.1999969482422</ele>
        <time>2013-09-23T09:19:29.000Z</time>
      </trkpt>
      <trkpt lon="7.867035046219826" lat="48.10389803722501">
        <ele>213.60000610351562</ele>
        <time>2013-09-23T09:19:34.000Z</time>
      </trkpt>
      <trkpt lon="7.867551958188415" lat="48.10399727895856">
        <ele>214.0</ele>
        <time>2013-09-23T09:19:40.000Z</time>
      </trkpt>
      <trkpt lon="7.868072558194399" lat="48.104137256741524">
        <ele>214.0</ele>
        <time>2013-09-23T09:19:46.000Z</time>
      </trkpt>
      <trkpt lon="7.868576142936945" lat="48.10431285761297">
        <ele>213.39999389648438</ele>
        <time>2013-09-23T09:19:52.000Z</time>
      </trkpt>
      <trkpt lon="7.869153739884496" lat="48.1046340521425">
        <ele>212.8000030517578</ele>
        <time>2013-09-23T09:20:00.000Z</time>
      </trkpt>
      <trkpt lon="7.8695902694016695" lat="48.10507385060191">
        <ele>212.0</ele>
        <time>2013-09-23T09:20:08.000Z</time>
      </trkpt>
      <trkpt lon="7.869786070659757" lat="48.10534299351275">
        <ele>211.8000030517578</ele>
        <time>2013-09-23T09:20:13.000Z</time>
      </trkpt>
      <trkpt lon="7.870088992640376" lat="48.10574465431273">
        <ele>211.60000610351562</ele>
        <time>2013-09-23T09:20:20.000Z</time>
      </trkpt>
      <trkpt lon="7.870353860780597" lat="48.106148494407535">
        <ele>211.39999389648438</ele>
        <time>2013-09-23T09:20:27.000Z</time>
      </trkpt>
      <trkpt lon="7.87060615606606" lat="48.10648385435343">
        <ele>211.1999969482422</ele>
        <time>2013-09-23T09:20:33.000Z</time>
      </trkpt>
      <trkpt lon="7.870904467999935" lat="48.106799349188805">
        <ele>211.0</ele>
        <time>2013-09-23T09:20:39.000Z</time>
      </trkpt>
      <trkpt lon="7.8711814898997545" lat="48.10703756287694">
        <ele>211.39999389648438</ele>
        <time>2013-09-23T09:20:44.000Z</time>
      </trkpt>
      <trkpt lon="7.871428253129125" lat="48.1071209628135">
        <ele>211.39999389648438</ele>
        <time>2013-09-23T09:20:48.000Z</time>
      </trkpt>
      <trkpt lon="7.87158977240324" lat="48.10705474577844">
        <ele>211.39999389648438</ele>
        <time>2013-09-23T09:20:51.000Z</time>
      </trkpt>
      <trkpt lon="7.871924377977848" lat="48.10683229006827">
        <ele>211.0</ele>
        <time>2013-09-23T09:20:57.000Z</time>
      </trkpt>
      <trkpt lon="7.871982464566827" lat="48.106792056933045">
        <ele>211.0</ele>
        <time>2013-09-23T09:20:58.000Z</time>
      </trkpt>
      <trkpt lon="7.871982464566827" lat="48.106792056933045">
        <ele>211.0</ele>
        <time>2013-09-23T09:20:58.000Z</time>
      </trkpt>
      <trkpt lon="7.872370881959796" lat="48.106552585959435">
        <ele>211.0</ele>
        <time>2013-09-23T09:21:04.000Z</time>
      </trkpt>
      <trkpt lon="7.872778661549091" lat="48.10628327541053">
        <ele>211.1999969482422</ele>
        <time>2013-09-23T09:21:10.000Z</time>
      </trkpt>
      <trkpt lon="7.873067669570446" lat="48.10608177445829">
        <ele>211.8000030517578</ele>
        <time>2013-09-23T09:21:15.000Z</time>
      </trkpt>
      <trkpt lon="7.873304793611169" lat="48.10608018189669">
        <ele>212.1999969482422</ele>
        <time>2013-09-23T09:21:19.000Z</time>
      </trkpt>
      <trkpt lon="7.873429683968425" lat="48.10615318827331">
        <ele>212.39999389648438</ele>
        <time>2013-09-23T09:21:21.000Z</time>
      </trkpt>
      <trkpt lon="7.87396009080112" lat="48.10653515160084">
        <ele>213.39999389648438</ele>
        <time>2013-09-23T09:21:30.000Z</time>
      </trkpt>
      <trkpt lon="7.874350771307945" lat="48.10680555179715">
        <ele>214.0</ele>
        <time>2013-09-23T09:21:38.000Z</time>
      </trkpt>
      <trkpt lon="7.874612454324961" lat="48.10698199085891">
        <ele>214.0</ele>
        <time>2013-09-23T09:21:44.000Z</time>
      </trkpt>
      <trkpt lon="7.874843459576368" lat="48.107165889814496">
        <ele>213.8000030517578</ele>
        <time>2013-09-23T09:21:50.000Z</time>
      </trkpt>
      <trkpt lon="7.87481177598238" lat="48.10720235109329">
        <ele>213.60000610351562</ele>
        <time>2013-09-23T09:21:57.000Z</time>
      </trkpt>
      <trkpt lon="7.8748059924691916" lat="48.10724115930498">
        <ele>213.60000610351562</ele>
        <time>2013-09-23T09:22:14.000Z</time>
      </trkpt>
      <trkpt lon="7.87480833940208" lat="48.10724928975105">
        <ele>213.60000610351562</ele>
        <time>2013-09-23T09:22:15.000Z</time>
      </trkpt>
      <trkpt lon="7.874765088781714" lat="48.10730746015906">
        <ele>213.1999969482422</ele>
        <time>2013-09-23T09:24:45.000Z</time>
      </trkpt>
      <trkpt lon="7.874890062958002" lat="48.1073989905417">
        <ele>213.1999969482422</ele>
        <time>2013-09-23T09:24:50.000Z</time>
      </trkpt>
      <trkpt lon="7.875101957470179" lat="48.10754785314202">
        <ele>212.8000030517578</ele>
        <time>2013-09-23T09:24:56.000Z</time>
      </trkpt>
      <trkpt lon="7.875382751226425" lat="48.10780408792198">
        <ele>212.39999389648438</ele>
        <time>2013-09-23T09:25:03.000Z</time>
      </trkpt>
      <trkpt lon="7.875711154192686" lat="48.10812335461378">
        <ele>212.60000610351562</ele>
        <time>2013-09-23T09:25:10.000Z</time>
      </trkpt>
      <trkpt lon="7.876077443361282" lat="48.10854588635266">
        <ele>212.39999389648438</ele>
        <time>2013-09-23T09:25:17.000Z</time>
      </trkpt>
      <trkpt lon="7.876392854377627" lat="48.10898534953594">
        <ele>211.8000030517578</ele>
        <time>2013-09-23T09:25:23.000Z</time>
      </trkpt>
      <trkpt lon="7.876637186855078" lat="48.10947686433792">
        <ele>211.60000610351562</ele>
        <time>2013-09-23T09:25:29.000Z</time>
      </trkpt>
      <trkpt lon="7.876809434965253" lat="48.110032165423036">
        <ele>211.39999389648438</ele>
        <time>2013-09-23T09:25:36.000Z</time>
      </trkpt>
      <trkpt lon="7.876868862658739" lat="48.11052585951984">
        <ele>213.0</ele>
        <time>2013-09-23T09:25:43.000Z</time>
      </trkpt>
      <trkpt lon="7.876877998933196" lat="48.11099365353584">
        <ele>214.0</ele>
        <time>2013-09-23T09:25:50.000Z</time>
      </trkpt>
      <trkpt lon="7.876828294247389" lat="48.111696895211935">
        <ele>213.60000610351562</ele>
        <time>2013-09-23T09:26:01.000Z</time>
      </trkpt>
      <trkpt lon="7.876766351982951" lat="48.11225915327668">
        <ele>212.8000030517578</ele>
        <time>2013-09-23T09:26:10.000Z</time>
      </trkpt>
      <trkpt lon="7.876697788015008" lat="48.112894082441926">
        <ele>213.39999389648438</ele>
        <time>2013-09-23T09:26:20.000Z</time>
      </trkpt>
      <trkpt lon="7.876627463847399" lat="48.11345977708697">
        <ele>215.1999969482422</ele>
        <time>2013-09-23T09:26:29.000Z</time>
      </trkpt>
      <trkpt lon="7.876600474119186" lat="48.11369958333671">
        <ele>215.60000610351562</ele>
        <time>2013-09-23T09:26:33.000Z</time>
      </trkpt>
      <trkpt lon="7.876718742772937" lat="48.11385146342218">
        <ele>216.39999389648438</ele>
        <time>2013-09-23T09:26:37.000Z</time>
      </trkpt>
      <trkpt lon="7.876784540712833" lat="48.11385263688862">
        <ele>216.8000030517578</ele>
        <time>2013-09-23T09:26:38.000Z</time>
      </trkpt>
      <trkpt lon="7.877413351088762" lat="48.11386378481984">
        <ele>219.8000030517578</ele>
        <time>2013-09-23T09:26:47.000Z</time>
      </trkpt>
      <trkpt lon="7.877882989123464" lat="48.11387166380882">
        <ele>222.0</ele>
        <time>2013-09-23T09:26:54.000Z</time>
      </trkpt>
      <trkpt lon="7.8782985638827085" lat="48.11388373374939">
        <ele>224.0</ele>
        <time>2013-09-23T09:27:01.000Z</time>
      </trkpt>
      <trkpt lon="7.8787123784422874" lat="48.11388968490064">
        <ele>226.60000610351562</ele>
        <time>2013-09-23T09:27:10.000Z</time>
      </trkpt>
      <trkpt lon="7.878949251025915" lat="48.11387937515974">
        <ele>228.1999969482422</ele>
        <time>2013-09-23T09:27:17.000Z</time>
      </trkpt>
      <trkpt lon="7.8792486526072025" lat="48.113828245550394">
        <ele>230.39999389648438</ele>
        <time>2013-09-23T09:27:24.000Z</time>
      </trkpt>
      <trkpt lon="7.879544198513031" lat="48.11378264799714">
        <ele>233.39999389648438</ele>
        <time>2013-09-23T09:27:32.000Z</time>
      </trkpt>
      <trkpt lon="7.879803450778127" lat="48.11372506432235">
        <ele>235.8000030517578</ele>
        <time>2013-09-23T09:27:39.000Z</time>
      </trkpt>
      <trkpt lon="7.8802561573684216" lat="48.11361878179014">
        <ele>239.60000610351562</ele>
        <time>2013-09-23T09:27:50.000Z</time>
      </trkpt>
      <trkpt lon="7.880678353831172" lat="48.11352616176009">
        <ele>243.1999969482422</ele>
        <time>2013-09-23T09:28:00.000Z</time>
      </trkpt>
      <trkpt lon="7.881070543080568" lat="48.11347126029432">
        <ele>246.1999969482422</ele>
        <time>2013-09-23T09:28:10.000Z</time>
      </trkpt>
      <trkpt lon="7.881341362372041" lat="48.11341987922788">
        <ele>248.0</ele>
        <time>2013-09-23T09:28:17.000Z</time>
      </trkpt>
      <trkpt lon="7.881693989038467" lat="48.113333377987146">
        <ele>250.0</ele>
        <time>2013-09-23T09:28:26.000Z</time>
      </trkpt>
      <trkpt lon="7.881981739774346" lat="48.113313261419535">
        <ele>251.0</ele>
        <time>2013-09-23T09:28:32.000Z</time>
      </trkpt>
      <trkpt lon="7.882124148309231" lat="48.113339664414525">
        <ele>251.60000610351562</ele>
        <time>2013-09-23T09:28:35.000Z</time>
      </trkpt>
      <trkpt lon="7.882186258211732" lat="48.113427171483636">
        <ele>252.1999969482422</ele>
        <time>2013-09-23T09:28:39.000Z</time>
      </trkpt>
      <trkpt lon="7.882250547409058" lat="48.11367804184556">
        <ele>254.0</ele>
        <time>2013-09-23T09:28:47.000Z</time>
      </trkpt>
      <trkpt lon="7.882335959002376" lat="48.11391809955239">
        <ele>255.60000610351562</ele>
        <time>2013-09-23T09:28:55.000Z</time>
      </trkpt>
      <trkpt lon="7.882474260404706" lat="48.114132257178426">
        <ele>257.6000061035156</ele>
        <time>2013-09-23T09:29:03.000Z</time>
      </trkpt>
      <trkpt lon="7.882660757750273" lat="48.11433275230229">
        <ele>258.20001220703125</ele>
        <time>2013-09-23T09:29:10.000Z</time>
      </trkpt>
      <trkpt lon="7.882896456867456" lat="48.11458404175937">
        <ele>259.0</ele>
        <time>2013-09-23T09:29:18.000Z</time>
      </trkpt>
      <trkpt lon="7.883197199553251" lat="48.11492744833231">
        <ele>260.3999938964844</ele>
        <time>2013-09-23T09:29:28.000Z</time>
      </trkpt>
      <trkpt lon="7.883433233946562" lat="48.11524763703346">
        <ele>260.6000061035156</ele>
        <time>2013-09-23T09:29:37.000Z</time>
      </trkpt>
      <trkpt lon="7.883448153734207" lat="48.11536883935332">
        <ele>260.6000061035156</ele>
        <time>2013-09-23T09:29:40.000Z</time>
      </trkpt>
      <trkpt lon="7.883238438516855" lat="48.115726076066494">
        <ele>260.79998779296875</ele>
        <time>2013-09-23T09:29:48.000Z</time>
      </trkpt>
      <trkpt lon="7.883136263117194" lat="48.116193199530244">
        <ele>260.3999938964844</ele>
        <time>2013-09-23T09:29:56.000Z</time>
      </trkpt>
      <trkpt lon="7.883060239255428" lat="48.11652294360101">
        <ele>260.0</ele>
        <time>2013-09-23T09:30:02.000Z</time>
      </trkpt>
      <trkpt lon="7.8828472550958395" lat="48.11688235960901">
        <ele>259.79998779296875</ele>
        <time>2013-09-23T09:30:08.000Z</time>
      </trkpt>
      <trkpt lon="7.882621698081493" lat="48.117037089541554">
        <ele>260.3999938964844</ele>
        <time>2013-09-23T09:30:11.000Z</time>
      </trkpt>
      <trkpt lon="7.882533436641097" lat="48.11720774509013">
        <ele>261.0</ele>
        <time>2013-09-23T09:30:14.000Z</time>
      </trkpt>
      <trkpt lon="7.882534693926573" lat="48.117437744513154">
        <ele>261.6000061035156</ele>
        <time>2013-09-23T09:30:18.000Z</time>
      </trkpt>
      <trkpt lon="7.88259856402874" lat="48.11767436563969">
        <ele>261.79998779296875</ele>
        <time>2013-09-23T09:30:23.000Z</time>
      </trkpt>
      <trkpt lon="7.882745582610369" lat="48.11795406974852">
        <ele>261.6000061035156</ele>
        <time>2013-09-23T09:30:29.000Z</time>
      </trkpt>
      <trkpt lon="7.88291179575026" lat="48.11836386099458">
        <ele>262.0</ele>
        <time>2013-09-23T09:30:37.000Z</time>
      </trkpt>
      <trkpt lon="7.883116062730551" lat="48.1187547929585">
        <ele>263.0</ele>
        <time>2013-09-23T09:30:45.000Z</time>
      </trkpt>
      <trkpt lon="7.883320162072778" lat="48.11911487951875">
        <ele>265.3999938964844</ele>
        <time>2013-09-23T09:30:53.000Z</time>
      </trkpt>
      <trkpt lon="7.8833811823278666" lat="48.119414364919066">
        <ele>266.79998779296875</ele>
        <time>2013-09-23T09:31:00.000Z</time>
      </trkpt>
      <trkpt lon="7.883396688848734" lat="48.11961435712874">
        <ele>267.6000061035156</ele>
        <time>2013-09-23T09:31:04.000Z</time>
      </trkpt>
      <trkpt lon="7.88341018371284" lat="48.119870172813535">
        <ele>268.3999938964844</ele>
        <time>2013-09-23T09:31:10.000Z</time>
      </trkpt>
      <trkpt lon="7.883435664698482" lat="48.11995357275009">
        <ele>268.79998779296875</ele>
        <time>2013-09-23T09:31:12.000Z</time>
      </trkpt>
      <trkpt lon="7.8835587948560715" lat="48.12038088217378">
        <ele>270.3999938964844</ele>
        <time>2013-09-23T09:31:21.000Z</time>
      </trkpt>
      <trkpt lon="7.88370187394321" lat="48.120800480246544">
        <ele>270.79998779296875</ele>
        <time>2013-09-23T09:31:29.000Z</time>
      </trkpt>
      <trkpt lon="7.883868087083101" lat="48.121263748034835">
        <ele>275.20001220703125</ele>
        <time>2013-09-23T09:31:38.000Z</time>
      </trkpt>
      <trkpt lon="7.8838936518877745" lat="48.121351255103946">
        <ele>276.20001220703125</ele>
        <time>2013-09-23T09:31:40.000Z</time>
      </trkpt>
      <trkpt lon="7.883904967457056" lat="48.12163037247956">
        <ele>280.0</ele>
        <time>2013-09-23T09:31:47.000Z</time>
      </trkpt>
      <trkpt lon="7.883855262771249" lat="48.12194159254432">
        <ele>284.20001220703125</ele>
        <time>2013-09-23T09:31:55.000Z</time>
      </trkpt>
      <trkpt lon="7.883804049342871" lat="48.12219187617302">
        <ele>287.3999938964844</ele>
        <time>2013-09-23T09:32:02.000Z</time>
      </trkpt>
      <trkpt lon="7.883817460387945" lat="48.12231056392193">
        <ele>288.79998779296875</ele>
        <time>2013-09-23T09:32:06.000Z</time>
      </trkpt>
      <trkpt lon="7.883851742371917" lat="48.12258465215564">
        <ele>291.79998779296875</ele>
        <time>2013-09-23T09:32:13.000Z</time>
      </trkpt>
      <trkpt lon="7.883924162015319" lat="48.122824374586344">
        <ele>294.79998779296875</ele>
        <time>2013-09-23T09:32:19.000Z</time>
      </trkpt>
      <trkpt lon="7.8840146865695715" lat="48.123012548312545">
        <ele>297.20001220703125</ele>
        <time>2013-09-23T09:32:25.000Z</time>
      </trkpt>
      <trkpt lon="7.8840868547558784" lat="48.12309745699167">
        <ele>298.6000061035156</ele>
        <time>2013-09-23T09:32:30.000Z</time>
      </trkpt>
      <trkpt lon="7.884113593026996" lat="48.123181192204356">
        <ele>299.6000061035156</ele>
        <time>2013-09-23T09:32:34.000Z</time>
      </trkpt>
      <trkpt lon="7.884121052920818" lat="48.123239278793335">
        <ele>300.3999938964844</ele>
        <time>2013-09-23T09:32:36.000Z</time>
      </trkpt>
      <trkpt lon="7.884206799790263" lat="48.123384956270456">
        <ele>302.3999938964844</ele>
        <time>2013-09-23T09:32:42.000Z</time>
      </trkpt>
      <trkpt lon="7.884266981855035" lat="48.12347657047212">
        <ele>303.3999938964844</ele>
        <time>2013-09-23T09:32:46.000Z</time>
      </trkpt>
      <trkpt lon="7.884363876655698" lat="48.12363004311919">
        <ele>305.0</ele>
        <time>2013-09-23T09:32:51.000Z</time>
      </trkpt>
      <trkpt lon="7.884384663775563" lat="48.12383137643337">
        <ele>307.6000061035156</ele>
        <time>2013-09-23T09:32:57.000Z</time>
      </trkpt>
      <trkpt lon="7.8843907825648785" lat="48.12406003475189">
        <ele>310.3999938964844</ele>
        <time>2013-09-23T09:33:03.000Z</time>
      </trkpt>
      <trkpt lon="7.884400673210621" lat="48.124227337539196">
        <ele>311.79998779296875</ele>
        <time>2013-09-23T09:33:08.000Z</time>
      </trkpt>
      <trkpt lon="7.884411150589585" lat="48.124418864026666">
        <ele>312.20001220703125</ele>
        <time>2013-09-23T09:33:13.000Z</time>
      </trkpt>
      <trkpt lon="7.884446773678064" lat="48.1246068701148">
        <ele>312.79998779296875</ele>
        <time>2013-09-23T09:33:19.000Z</time>
      </trkpt>
      <trkpt lon="7.88444216363132" lat="48.12475053593516">
        <ele>313.0</ele>
        <time>2013-09-23T09:33:24.000Z</time>
      </trkpt>
      <trkpt lon="7.884481139481068" lat="48.12494155950844">
        <ele>313.6000061035156</ele>
        <time>2013-09-23T09:33:29.000Z</time>
      </trkpt>
      <trkpt lon="7.884526485577226" lat="48.12520198523998">
        <ele>309.0</ele>
        <time>2013-09-23T09:33:35.000Z</time>
      </trkpt>
      <trkpt lon="7.884524390101433" lat="48.1252564676106">
        <ele>307.79998779296875</ele>
        <time>2013-09-23T09:33:36.000Z</time>
      </trkpt>
      <trkpt lon="7.88439279422164" lat="48.12559878453612">
        <ele>300.79998779296875</ele>
        <time>2013-09-23T09:33:41.000Z</time>
      </trkpt>
      <trkpt lon="7.8841368947178125" lat="48.1260421872139">
        <ele>295.79998779296875</ele>
        <time>2013-09-23T09:33:46.000Z</time>
      </trkpt>
      <trkpt lon="7.884023990482092" lat="48.12633295543492">
        <ele>294.0</ele>
        <time>2013-09-23T09:33:49.000Z</time>
      </trkpt>
      <trkpt lon="7.884023990482092" lat="48.12633295543492">
        <ele>294.0</ele>
        <time>2013-09-23T09:33:49.000Z</time>
      </trkpt>
      <trkpt lon="7.883996665477753" lat="48.126431945711374">
        <ele>293.3999938964844</ele>
        <time>2013-09-23T09:33:50.000Z</time>
      </trkpt>
      <trkpt lon="7.883805055171251" lat="48.12701256014407">
        <ele>291.79998779296875</ele>
        <time>2013-09-23T09:33:56.000Z</time>
      </trkpt>
      <trkpt lon="7.883772365748882" lat="48.127116076648235">
        <ele>291.6000061035156</ele>
        <time>2013-09-23T09:33:57.000Z</time>
      </trkpt>
      <trkpt lon="7.883839085698128" lat="48.12761438079178">
        <ele>288.6000061035156</ele>
        <time>2013-09-23T09:34:02.000Z</time>
      </trkpt>
      <trkpt lon="7.883982751518488" lat="48.12792845070362">
        <ele>286.79998779296875</ele>
        <time>2013-09-23T09:34:06.000Z</time>
      </trkpt>
      <trkpt lon="7.884204536676407" lat="48.12812936492264">
        <ele>285.79998779296875</ele>
        <time>2013-09-23T09:34:10.000Z</time>
      </trkpt>
      <trkpt lon="7.884275196120143" lat="48.12817353755236">
        <ele>285.3999938964844</ele>
        <time>2013-09-23T09:34:11.000Z</time>
      </trkpt>
      <trkpt lon="7.884515840560198" lat="48.128387946635485">
        <ele>284.3999938964844</ele>
        <time>2013-09-23T09:34:15.000Z</time>
      </trkpt>
      <trkpt lon="7.884817337617278" lat="48.128543766215444">
        <ele>283.0</ele>
        <time>2013-09-23T09:34:19.000Z</time>
      </trkpt>
      <trkpt lon="7.884985478594899" lat="48.1285925488919">
        <ele>282.6000061035156</ele>
        <time>2013-09-23T09:34:21.000Z</time>
      </trkpt>
      <trkpt lon="7.885260572656989" lat="48.12875088304281">
        <ele>282.20001220703125</ele>
        <time>2013-09-23T09:34:25.000Z</time>
      </trkpt>
      <trkpt lon="7.885066699236631" lat="48.12893989495933">
        <ele>282.20001220703125</ele>
        <time>2013-09-23T09:34:28.000Z</time>
      </trkpt>
      <trkpt lon="7.884812895208597" lat="48.12901717610657">
        <ele>281.79998779296875</ele>
        <time>2013-09-23T09:34:30.000Z</time>
      </trkpt>
      <trkpt lon="7.884185090661049" lat="48.129232842475176">
        <ele>280.0</ele>
        <time>2013-09-23T09:34:35.000Z</time>
      </trkpt>
      <trkpt lon="7.883954755961895" lat="48.12945865094662">
        <ele>280.6000061035156</ele>
        <time>2013-09-23T09:34:39.000Z</time>
      </trkpt>
      <trkpt lon="7.883982080966234" lat="48.12970658764243">
        <ele>281.3999938964844</ele>
        <time>2013-09-23T09:34:42.000Z</time>
      </trkpt>
      <trkpt lon="7.884148461744189" lat="48.12994245439768">
        <ele>281.79998779296875</ele>
        <time>2013-09-23T09:34:46.000Z</time>
      </trkpt>
      <trkpt lon="7.8844172693789005" lat="48.13000665977597">
        <ele>281.3999938964844</ele>
        <time>2013-09-23T09:34:49.000Z</time>
      </trkpt>
      <trkpt lon="7.884524893015623" lat="48.12999735586345">
        <ele>281.0</ele>
        <time>2013-09-23T09:34:50.000Z</time>
      </trkpt>
      <trkpt lon="7.88507885299623" lat="48.13002895563841">
        <ele>279.6000061035156</ele>
        <time>2013-09-23T09:34:55.000Z</time>
      </trkpt>
      <trkpt lon="7.88530508056283" lat="48.13011713325977">
        <ele>279.0</ele>
        <time>2013-09-23T09:34:57.000Z</time>
      </trkpt>
      <trkpt lon="7.885923832654953" lat="48.13060127198696">
        <ele>276.20001220703125</ele>
        <time>2013-09-23T09:35:04.000Z</time>
      </trkpt>
      <trkpt lon="7.886469662189484" lat="48.13116344623268">
        <ele>274.79998779296875</ele>
        <time>2013-09-23T09:35:11.000Z</time>
      </trkpt>
      <trkpt lon="7.886921865865588" lat="48.13173693604767">
        <ele>273.79998779296875</ele>
        <time>2013-09-23T09:35:18.000Z</time>
      </trkpt>
      <trkpt lon="7.887124791741371" lat="48.13219165429473">
        <ele>273.0</ele>
        <time>2013-09-23T09:35:23.000Z</time>
      </trkpt>
      <trkpt lon="7.88728698156774" lat="48.13267386518419">
        <ele>271.3999938964844</ele>
        <time>2013-09-23T09:35:28.000Z</time>
      </trkpt>
      <trkpt lon="7.887675147503614" lat="48.133093882352114">
        <ele>271.3999938964844</ele>
        <time>2013-09-23T09:35:33.000Z</time>
      </trkpt>
      <trkpt lon="7.8877760656178" lat="48.13315909355879">
        <ele>271.6000061035156</ele>
        <time>2013-09-23T09:35:34.000Z</time>
      </trkpt>
      <trkpt lon="7.8884505573660135" lat="48.133505852892995">
        <ele>275.0</ele>
        <time>2013-09-23T09:35:41.000Z</time>
      </trkpt>
      <trkpt lon="7.88923854008317" lat="48.1338216830045">
        <ele>278.79998779296875</ele>
        <time>2013-09-23T09:35:49.000Z</time>
      </trkpt>
      <trkpt lon="7.88960063830018" lat="48.13387205824256">
        <ele>279.79998779296875</ele>
        <time>2013-09-23T09:35:52.000Z</time>
      </trkpt>
      <trkpt lon="7.890407145023346" lat="48.13393626362085">
        <ele>281.0</ele>
        <time>2013-09-23T09:35:58.000Z</time>
      </trkpt>
      <trkpt lon="7.8913502767682076" lat="48.134025279432535">
        <ele>281.79998779296875</ele>
        <time>2013-09-23T09:36:05.000Z</time>
      </trkpt>
      <trkpt lon="7.891928292810917" lat="48.13399049453437">
        <ele>282.6000061035156</ele>
        <time>2013-09-23T09:36:10.000Z</time>
      </trkpt>
      <trkpt lon="7.892565233632922" lat="48.133822437375784">
        <ele>282.79998779296875</ele>
        <time>2013-09-23T09:36:16.000Z</time>
      </trkpt>
      <trkpt lon="7.89324039593339" lat="48.1336731556803">
        <ele>278.79998779296875</ele>
        <time>2013-09-23T09:36:22.000Z</time>
      </trkpt>
      <trkpt lon="7.893949756398797" lat="48.13344458118081">
        <ele>273.6000061035156</ele>
        <time>2013-09-23T09:36:29.000Z</time>
      </trkpt>
      <trkpt lon="7.894592061638832" lat="48.13314786180854">
        <ele>270.20001220703125</ele>
        <time>2013-09-23T09:36:36.000Z</time>
      </trkpt>
      <trkpt lon="7.895095897838473" lat="48.132852064445615">
        <ele>263.79998779296875</ele>
        <time>2013-09-23T09:36:42.000Z</time>
      </trkpt>
      <trkpt lon="7.895569643005729" lat="48.13261577859521">
        <ele>258.20001220703125</ele>
        <time>2013-09-23T09:36:47.000Z</time>
      </trkpt>
      <trkpt lon="7.896406659856439" lat="48.13227823935449">
        <ele>254.0</ele>
        <time>2013-09-23T09:36:54.000Z</time>
      </trkpt>
      <trkpt lon="7.896536663174629" lat="48.132256865501404">
        <ele>253.8000030517578</ele>
        <time>2013-09-23T09:36:56.000Z</time>
      </trkpt>
      <trkpt lon="7.896856684237719" lat="48.13230506144464">
        <ele>253.60000610351562</ele>
        <time>2013-09-23T09:37:00.000Z</time>
      </trkpt>
      <trkpt lon="7.896978976204991" lat="48.13241989351809">
        <ele>254.0</ele>
        <time>2013-09-23T09:37:02.000Z</time>
      </trkpt>
      <trkpt lon="7.897181063890457" lat="48.13275785185397">
        <ele>258.0</ele>
        <time>2013-09-23T09:37:07.000Z</time>
      </trkpt>
      <trkpt lon="7.89739765226841" lat="48.133255150169134">
        <ele>263.3999938964844</ele>
        <time>2013-09-23T09:37:14.000Z</time>
      </trkpt>
      <trkpt lon="7.897718762978911" lat="48.13377139158547">
        <ele>267.20001220703125</ele>
        <time>2013-09-23T09:37:22.000Z</time>
      </trkpt>
      <trkpt lon="7.898162165656686" lat="48.13448335044086">
        <ele>269.79998779296875</ele>
        <time>2013-09-23T09:37:33.000Z</time>
      </trkpt>
      <trkpt lon="7.898525269702077" lat="48.13498307950795">
        <ele>270.79998779296875</ele>
        <time>2013-09-23T09:37:41.000Z</time>
      </trkpt>
      <trkpt lon="7.898977976292372" lat="48.13536143861711">
        <ele>270.6000061035156</ele>
        <time>2013-09-23T09:37:48.000Z</time>
      </trkpt>
      <trkpt lon="7.8996374644339085" lat="48.13581305555999">
        <ele>269.20001220703125</ele>
        <time>2013-09-23T09:37:57.000Z</time>
      </trkpt>
      <trkpt lon="7.900045579299331" lat="48.13610055483878">
        <ele>268.6000061035156</ele>
        <time>2013-09-23T09:38:03.000Z</time>
      </trkpt>
      <trkpt lon="7.900660978630185" lat="48.136555943638086">
        <ele>268.79998779296875</ele>
        <time>2013-09-23T09:38:12.000Z</time>
      </trkpt>
      <trkpt lon="7.901242263615131" lat="48.136928686872125">
        <ele>267.0</ele>
        <time>2013-09-23T09:38:20.000Z</time>
      </trkpt>
      <trkpt lon="7.901477962732315" lat="48.13706983812153">
        <ele>264.79998779296875</ele>
        <time>2013-09-23T09:38:23.000Z</time>
      </trkpt>
      <trkpt lon="7.901887251064181" lat="48.137192633002996">
        <ele>259.79998779296875</ele>
        <time>2013-09-23T09:38:27.000Z</time>
      </trkpt>
      <trkpt lon="7.902909591794014" lat="48.13737074844539">
        <ele>253.0</ele>
        <time>2013-09-23T09:38:36.000Z</time>
      </trkpt>
      <trkpt lon="7.9036701656877995" lat="48.13749706372619">
        <ele>255.0</ele>
        <time>2013-09-23T09:38:44.000Z</time>
      </trkpt>
      <trkpt lon="7.9039075411856174" lat="48.13753033988178">
        <ele>257.0</ele>
        <time>2013-09-23T09:38:47.000Z</time>
      </trkpt>
      <trkpt lon="7.904549594968557" lat="48.13757166266441">
        <ele>262.79998779296875</ele>
        <time>2013-09-23T09:38:55.000Z</time>
      </trkpt>
      <trkpt lon="7.9053146950900555" lat="48.137598149478436">
        <ele>269.0</ele>
        <time>2013-09-23T09:39:04.000Z</time>
      </trkpt>
      <trkpt lon="7.905474537983537" lat="48.137604938820004">
        <ele>270.0</ele>
        <time>2013-09-23T09:39:06.000Z</time>
      </trkpt>
      <trkpt lon="7.9063268937170506" lat="48.13766629435122">
        <ele>272.20001220703125</ele>
        <time>2013-09-23T09:39:16.000Z</time>
      </trkpt>
      <trkpt lon="7.907088892534375" lat="48.137756986543536">
        <ele>273.3999938964844</ele>
        <time>2013-09-23T09:39:25.000Z</time>
      </trkpt>
      <trkpt lon="7.907648049294949" lat="48.137906938791275">
        <ele>275.6000061035156</ele>
        <time>2013-09-23T09:39:32.000Z</time>
      </trkpt>
      <trkpt lon="7.908336287364364" lat="48.138152277097106">
        <ele>274.3999938964844</ele>
        <time>2013-09-23T09:39:41.000Z</time>
      </trkpt>
      <trkpt lon="7.908607944846153" lat="48.13826886937022">
        <ele>273.79998779296875</ele>
        <time>2013-09-23T09:39:45.000Z</time>
      </trkpt>
      <trkpt lon="7.90879687294364" lat="48.138366686180234">
        <ele>273.79998779296875</ele>
        <time>2013-09-23T09:39:48.000Z</time>
      </trkpt>
      <trkpt lon="7.908912040293217" lat="48.13843457959592">
        <ele>275.0</ele>
        <time>2013-09-23T09:39:50.000Z</time>
      </trkpt>
      <trkpt lon="7.909291656687856" lat="48.138590985909104">
        <ele>276.3999938964844</ele>
        <time>2013-09-23T09:39:55.000Z</time>
      </trkpt>
      <trkpt lon="7.909291656687856" lat="48.138590985909104">
        <ele>276.3999938964844</ele>
        <time>2013-09-23T09:39:55.000Z</time>
      </trkpt>
      <trkpt lon="7.909437837079167" lat="48.13865586183965">
        <ele>276.79998779296875</ele>
        <time>2013-09-23T09:39:57.000Z</time>
      </trkpt>
      <trkpt lon="7.910201596096158" lat="48.139045871794224">
        <ele>272.0</ele>
        <time>2013-09-23T09:40:08.000Z</time>
      </trkpt>
      <trkpt lon="7.910890253260732" lat="48.13948097638786">
        <ele>267.3999938964844</ele>
        <time>2013-09-23T09:40:19.000Z</time>
      </trkpt>
      <trkpt lon="7.911577736958861" lat="48.13999076373875">
        <ele>267.79998779296875</ele>
        <time>2013-09-23T09:40:31.000Z</time>
      </trkpt>
      <trkpt lon="7.911961041390896" lat="48.14038739539683">
        <ele>270.20001220703125</ele>
        <time>2013-09-23T09:40:39.000Z</time>
      </trkpt>
      <trkpt lon="7.912463452666998" lat="48.140821577981114">
        <ele>268.3999938964844</ele>
        <time>2013-09-23T09:40:48.000Z</time>
      </trkpt>
      <trkpt lon="7.913085892796516" lat="48.14129347912967">
        <ele>270.0</ele>
        <time>2013-09-23T09:40:58.000Z</time>
      </trkpt>
      <trkpt lon="7.913522589951754" lat="48.141520293429494">
        <ele>272.0</ele>
        <time>2013-09-23T09:41:03.000Z</time>
      </trkpt>
      <trkpt lon="7.914451053366065" lat="48.14196386374533">
        <ele>282.20001220703125</ele>
        <time>2013-09-23T09:41:13.000Z</time>
      </trkpt>
      <trkpt lon="7.915285639464855" lat="48.14240827225149">
        <ele>284.6000061035156</ele>
        <time>2013-09-23T09:41:23.000Z</time>
      </trkpt>
      <trkpt lon="7.915946552529931" lat="48.142768861725926">
        <ele>284.79998779296875</ele>
        <time>2013-09-23T09:41:31.000Z</time>
      </trkpt>
      <trkpt lon="7.916565556079149" lat="48.14315157942474">
        <ele>286.0</ele>
        <time>2013-09-23T09:41:39.000Z</time>
      </trkpt>
      <trkpt lon="7.916892450302839" lat="48.14352038316429">
        <ele>288.20001220703125</ele>
        <time>2013-09-23T09:41:45.000Z</time>
      </trkpt>
      <trkpt lon="7.9171995632350445" lat="48.143945345655084">
        <ele>289.79998779296875</ele>
        <time>2013-09-23T09:41:52.000Z</time>
      </trkpt>
      <trkpt lon="7.91725505143404" lat="48.14399748109281">
        <ele>289.0</ele>
        <time>2013-09-23T09:41:53.000Z</time>
      </trkpt>
      <trkpt lon="7.917644139379263" lat="48.14418347552419">
        <ele>281.0</ele>
        <time>2013-09-23T09:41:58.000Z</time>
      </trkpt>
      <trkpt lon="7.918043872341514" lat="48.14419688656926">
        <ele>274.6000061035156</ele>
        <time>2013-09-23T09:42:02.000Z</time>
      </trkpt>
      <trkpt lon="7.918321983888745" lat="48.144139386713505">
        <ele>270.0</ele>
        <time>2013-09-23T09:42:05.000Z</time>
      </trkpt>
      <trkpt lon="7.918925061821938" lat="48.1439115665853">
        <ele>270.79998779296875</ele>
        <time>2013-09-23T09:42:13.000Z</time>
      </trkpt>
      <trkpt lon="7.919346084818244" lat="48.14378726296127">
        <ele>272.20001220703125</ele>
        <time>2013-09-23T09:42:19.000Z</time>
      </trkpt>
      <trkpt lon="7.919409032911062" lat="48.143759183585644">
        <ele>272.6000061035156</ele>
        <time>2013-09-23T09:42:20.000Z</time>
      </trkpt>
      <trkpt lon="7.919810861349106" lat="48.14372976310551">
        <ele>274.6000061035156</ele>
        <time>2013-09-23T09:42:24.000Z</time>
      </trkpt>
      <trkpt lon="7.920258454978466" lat="48.14381584525108">
        <ele>276.0</ele>
        <time>2013-09-23T09:42:29.000Z</time>
      </trkpt>
      <trkpt lon="7.920627677813172" lat="48.14408649690449">
        <ele>275.79998779296875</ele>
        <time>2013-09-23T09:42:35.000Z</time>
      </trkpt>
      <trkpt lon="7.920553749427199" lat="48.14427408389747">
        <ele>275.79998779296875</ele>
        <time>2013-09-23T09:42:38.000Z</time>
      </trkpt>
      <trkpt lon="7.9204267635941505" lat="48.14437215216458">
        <ele>275.79998779296875</ele>
        <time>2013-09-23T09:42:40.000Z</time>
      </trkpt>
      <trkpt lon="7.9203004483133554" lat="48.14448128454387">
        <ele>275.3999938964844</ele>
        <time>2013-09-23T09:42:42.000Z</time>
      </trkpt>
      <trkpt lon="7.920234650373459" lat="48.14471019431949">
        <ele>275.3999938964844</ele>
        <time>2013-09-23T09:42:46.000Z</time>
      </trkpt>
      <trkpt lon="7.9203360714018345" lat="48.1450532656163">
        <ele>277.20001220703125</ele>
        <time>2013-09-23T09:42:53.000Z</time>
      </trkpt>
      <trkpt lon="7.92039206251502" lat="48.14530933275819">
        <ele>277.6000061035156</ele>
        <time>2013-09-23T09:42:58.000Z</time>
      </trkpt>
      <trkpt lon="7.9205121751874685" lat="48.145703533664346">
        <ele>278.20001220703125</ele>
        <time>2013-09-23T09:43:05.000Z</time>
      </trkpt>
      <trkpt lon="7.920714933425188" lat="48.14626956358552">
        <ele>280.3999938964844</ele>
        <time>2013-09-23T09:43:14.000Z</time>
      </trkpt>
      <trkpt lon="7.920852983370423" lat="48.146697878837585">
        <ele>282.3999938964844</ele>
        <time>2013-09-23T09:43:21.000Z</time>
      </trkpt>
      <trkpt lon="7.920853151008487" lat="48.14675814472139">
        <ele>282.3999938964844</ele>
        <time>2013-09-23T09:43:22.000Z</time>
      </trkpt>
      <trkpt lon="7.920758770778775" lat="48.147008595988154">
        <ele>281.79998779296875</ele>
        <time>2013-09-23T09:43:26.000Z</time>
      </trkpt>
      <trkpt lon="7.920671766623855" lat="48.147525088861585">
        <ele>281.79998779296875</ele>
        <time>2013-09-23T09:43:34.000Z</time>
      </trkpt>
      <trkpt lon="7.920763548463583" lat="48.147925240918994">
        <ele>281.6000061035156</ele>
        <time>2013-09-23T09:43:40.000Z</time>
      </trkpt>
      <trkpt lon="7.920931354165077" lat="48.148372834548354">
        <ele>283.0</ele>
        <time>2013-09-23T09:43:47.000Z</time>
      </trkpt>
      <trkpt lon="7.921109385788441" lat="48.14873359166086">
        <ele>285.79998779296875</ele>
        <time>2013-09-23T09:43:53.000Z</time>
      </trkpt>
      <trkpt lon="7.921305187046528" lat="48.14908848144114">
        <ele>288.20001220703125</ele>
        <time>2013-09-23T09:43:59.000Z</time>
      </trkpt>
      <trkpt lon="7.9214375372976065" lat="48.149462984874845">
        <ele>287.6000061035156</ele>
        <time>2013-09-23T09:44:05.000Z</time>
      </trkpt>
      <trkpt lon="7.921487158164382" lat="48.149709245190024">
        <ele>286.20001220703125</ele>
        <time>2013-09-23T09:44:09.000Z</time>
      </trkpt>
      <trkpt lon="7.921492271125317" lat="48.150107972323895">
        <ele>283.6000061035156</ele>
        <time>2013-09-23T09:44:15.000Z</time>
      </trkpt>
      <trkpt lon="7.921445751562715" lat="48.15036579966545">
        <ele>282.79998779296875</ele>
        <time>2013-09-23T09:44:19.000Z</time>
      </trkpt>
      <trkpt lon="7.921522194519639" lat="48.15068833529949">
        <ele>283.0</ele>
        <time>2013-09-23T09:44:24.000Z</time>
      </trkpt>
      <trkpt lon="7.9216136410832405" lat="48.15081775188446">
        <ele>283.6000061035156</ele>
        <time>2013-09-23T09:44:26.000Z</time>
      </trkpt>
      <trkpt lon="7.922022677958012" lat="48.15114456228912">
        <ele>289.20001220703125</ele>
        <time>2013-09-23T09:44:33.000Z</time>
      </trkpt>
      <trkpt lon="7.92223465628922" lat="48.15141395665705">
        <ele>292.6000061035156</ele>
        <time>2013-09-23T09:44:38.000Z</time>
      </trkpt>
      <trkpt lon="7.922356277704239" lat="48.15177446231246">
        <ele>294.20001220703125</ele>
        <time>2013-09-23T09:44:45.000Z</time>
      </trkpt>
      <trkpt lon="7.922413358464837" lat="48.15190555527806">
        <ele>295.0</ele>
        <time>2013-09-23T09:44:48.000Z</time>
      </trkpt>
      <trkpt lon="7.922484269365668" lat="48.15218634903431">
        <ele>295.3999938964844</ele>
        <time>2013-09-23T09:44:54.000Z</time>
      </trkpt>
      <trkpt lon="7.922493238002062" lat="48.15223756246269">
        <ele>295.3999938964844</ele>
        <time>2013-09-23T09:44:55.000Z</time>
      </trkpt>
      <trkpt lon="7.9225619696080685" lat="48.15241928212345">
        <ele>296.79998779296875</ele>
        <time>2013-09-23T09:44:59.000Z</time>
      </trkpt>
      <trkpt lon="7.922608656808734" lat="48.15251626074314">
        <ele>297.79998779296875</ele>
        <time>2013-09-23T09:45:01.000Z</time>
      </trkpt>
      <trkpt lon="7.9227053839713335" lat="48.15263679251075">
        <ele>299.0</ele>
        <time>2013-09-23T09:45:04.000Z</time>
      </trkpt>
      <trkpt lon="7.922832369804382" lat="48.15267845056951">
        <ele>301.79998779296875</ele>
        <time>2013-09-23T09:45:07.000Z</time>
      </trkpt>
      <trkpt lon="7.923010736703873" lat="48.1528240442276">
        <ele>304.6000061035156</ele>
        <time>2013-09-23T09:45:11.000Z</time>
      </trkpt>
      <trkpt lon="7.923119282349944" lat="48.15301347523928">
        <ele>304.6000061035156</ele>
        <time>2013-09-23T09:45:15.000Z</time>
      </trkpt>
      <trkpt lon="7.923169154673815" lat="48.15310265868902">
        <ele>304.6000061035156</ele>
        <time>2013-09-23T09:45:17.000Z</time>
      </trkpt>
      <trkpt lon="7.92326956987381" lat="48.15346643328667">
        <ele>302.20001220703125</ele>
        <time>2013-09-23T09:45:23.000Z</time>
      </trkpt>
      <trkpt lon="7.923287255689502" lat="48.15351446159184">
        <ele>302.20001220703125</ele>
        <time>2013-09-23T09:45:24.000Z</time>
      </trkpt>
      <trkpt lon="7.923364033922553" lat="48.15379785373807">
        <ele>301.0</ele>
        <time>2013-09-23T09:45:30.000Z</time>
      </trkpt>
      <trkpt lon="7.923393789678812" lat="48.1541314534843">
        <ele>298.20001220703125</ele>
        <time>2013-09-23T09:45:37.000Z</time>
      </trkpt>
      <trkpt lon="7.923440393060446" lat="48.15441937185824">
        <ele>298.6000061035156</ele>
        <time>2013-09-23T09:45:43.000Z</time>
      </trkpt>
      <trkpt lon="7.92351046577096" lat="48.154700165614486">
        <ele>299.6000061035156</ele>
        <time>2013-09-23T09:45:49.000Z</time>
      </trkpt>
      <trkpt lon="7.923634937033057" lat="48.15498565323651">
        <ele>301.20001220703125</ele>
        <time>2013-09-23T09:45:58.000Z</time>
      </trkpt>
      <trkpt lon="7.923626052215695" lat="48.15499437041581">
        <ele>301.20001220703125</ele>
        <time>2013-09-23T09:46:01.000Z</time>
      </trkpt>
      <trkpt lon="7.923563187941909" lat="48.15498976036906">
        <ele>300.20001220703125</ele>
        <time>2013-09-23T09:46:30.000Z</time>
      </trkpt>
      <trkpt lon="7.923532845452428" lat="48.15505228936672">
        <ele>299.6000061035156</ele>
        <time>2013-09-23T09:46:35.000Z</time>
      </trkpt>
      <trkpt lon="7.92358866892755" lat="48.15519545227289">
        <ele>299.79998779296875</ele>
        <time>2013-09-23T09:46:40.000Z</time>
      </trkpt>
      <trkpt lon="7.92368489317596" lat="48.15543048083782">
        <ele>300.0</ele>
        <time>2013-09-23T09:46:46.000Z</time>
      </trkpt>
      <trkpt lon="7.923700734972954" lat="48.15577673725784">
        <ele>298.6000061035156</ele>
        <time>2013-09-23T09:46:53.000Z</time>
      </trkpt>
      <trkpt lon="7.923659076914191" lat="48.156002378091216">
        <ele>297.3999938964844</ele>
        <time>2013-09-23T09:46:57.000Z</time>
      </trkpt>
      <trkpt lon="7.923652790486813" lat="48.15613296814263">
        <ele>297.0</ele>
        <time>2013-09-23T09:46:59.000Z</time>
      </trkpt>
      <trkpt lon="7.923766449093819" lat="48.15646715462208">
        <ele>297.20001220703125</ele>
        <time>2013-09-23T09:47:04.000Z</time>
      </trkpt>
      <trkpt lon="7.923940792679787" lat="48.1566524785012">
        <ele>298.0</ele>
        <time>2013-09-23T09:47:07.000Z</time>
      </trkpt>
      <trkpt lon="7.924383692443371" lat="48.1568821426481">
        <ele>301.6000061035156</ele>
        <time>2013-09-23T09:47:12.000Z</time>
      </trkpt>
      <trkpt lon="7.924678064882755" lat="48.156992867589">
        <ele>303.6000061035156</ele>
        <time>2013-09-23T09:47:15.000Z</time>
      </trkpt>
      <trkpt lon="7.9249071422964334" lat="48.15722454339266">
        <ele>303.20001220703125</ele>
        <time>2013-09-23T09:47:19.000Z</time>
      </trkpt>
      <trkpt lon="7.924902951344848" lat="48.157433588057756">
        <ele>301.20001220703125</ele>
        <time>2013-09-23T09:47:22.000Z</time>
      </trkpt>
      <trkpt lon="7.924762638285756" lat="48.15761128440499">
        <ele>300.79998779296875</ele>
        <time>2013-09-23T09:47:25.000Z</time>
      </trkpt>
      <trkpt lon="7.924520066007972" lat="48.15773785114288">
        <ele>300.20001220703125</ele>
        <time>2013-09-23T09:47:28.000Z</time>
      </trkpt>
      <trkpt lon="7.9241422936320305" lat="48.158022249117494">
        <ele>297.79998779296875</ele>
        <time>2013-09-23T09:47:34.000Z</time>
      </trkpt>
      <trkpt lon="7.9242288786917925" lat="48.158207572996616">
        <ele>298.6000061035156</ele>
        <time>2013-09-23T09:47:37.000Z</time>
      </trkpt>
      <trkpt lon="7.924287635833025" lat="48.15826297737658">
        <ele>299.3999938964844</ele>
        <time>2013-09-23T09:47:38.000Z</time>
      </trkpt>
      <trkpt lon="7.924629366025329" lat="48.15868215635419">
        <ele>302.79998779296875</ele>
        <time>2013-09-23T09:47:45.000Z</time>
      </trkpt>
      <trkpt lon="7.924800356850028" lat="48.159257071092725">
        <ele>304.0</ele>
        <time>2013-09-23T09:47:54.000Z</time>
      </trkpt>
      <trkpt lon="7.924877554178238" lat="48.15952135249972">
        <ele>305.3999938964844</ele>
        <time>2013-09-23T09:47:58.000Z</time>
      </trkpt>
      <trkpt lon="7.924894234165549" lat="48.15958706662059">
        <ele>305.79998779296875</ele>
        <time>2013-09-23T09:47:59.000Z</time>
      </trkpt>
      <trkpt lon="7.924894234165549" lat="48.15958706662059">
        <ele>305.79998779296875</ele>
        <time>2013-09-23T09:47:59.000Z</time>
      </trkpt>
      <trkpt lon="7.924859365448356" lat="48.15977725200355">
        <ele>305.6000061035156</ele>
        <time>2013-09-23T09:48:02.000Z</time>
      </trkpt>
      <trkpt lon="7.924823239445686" lat="48.159841960296035">
        <ele>305.20001220703125</ele>
        <time>2013-09-23T09:48:03.000Z</time>
      </trkpt>
      <trkpt lon="7.924409341067076" lat="48.16049055196345">
        <ele>303.20001220703125</ele>
        <time>2013-09-23T09:48:13.000Z</time>
      </trkpt>
      <trkpt lon="7.923948671668768" lat="48.16120997071266">
        <ele>305.79998779296875</ele>
        <time>2013-09-23T09:48:24.000Z</time>
      </trkpt>
      <trkpt lon="7.923608953133225" lat="48.161780862137675">
        <ele>307.0</ele>
        <time>2013-09-23T09:48:33.000Z</time>
      </trkpt>
      <trkpt lon="7.923445589840412" lat="48.16215796396136">
        <ele>307.0</ele>
        <time>2013-09-23T09:48:40.000Z</time>
      </trkpt>
      <trkpt lon="7.923305947333574" lat="48.16253699362278">
        <ele>307.20001220703125</ele>
        <time>2013-09-23T09:48:48.000Z</time>
      </trkpt>
      <trkpt lon="7.923144344240427" lat="48.162936642766">
        <ele>311.20001220703125</ele>
        <time>2013-09-23T09:48:56.000Z</time>
      </trkpt>
      <trkpt lon="7.9230281710624695" lat="48.1632421631366">
        <ele>313.79998779296875</ele>
        <time>2013-09-23T09:49:02.000Z</time>
      </trkpt>
      <trkpt lon="7.922912165522575" lat="48.163522370159626">
        <ele>317.0</ele>
        <time>2013-09-23T09:49:07.000Z</time>
      </trkpt>
      <trkpt lon="7.922630365937948" lat="48.16383593715727">
        <ele>319.79998779296875</ele>
        <time>2013-09-23T09:49:13.000Z</time>
      </trkpt>
      <trkpt lon="7.9224485624581575" lat="48.163977256044745">
        <ele>320.6000061035156</ele>
        <time>2013-09-23T09:49:16.000Z</time>
      </trkpt>
      <trkpt lon="7.921950090676546" lat="48.164288057014346">
        <ele>319.6000061035156</ele>
        <time>2013-09-23T09:49:23.000Z</time>
      </trkpt>
      <trkpt lon="7.9216416366398335" lat="48.16447304561734">
        <ele>317.6000061035156</ele>
        <time>2013-09-23T09:49:27.000Z</time>
      </trkpt>
      <trkpt lon="7.921414654701948" lat="48.164626182988286">
        <ele>317.20001220703125</ele>
        <time>2013-09-23T09:49:30.000Z</time>
      </trkpt>
      <trkpt lon="7.921241484582424" lat="48.16480379551649">
        <ele>316.79998779296875</ele>
        <time>2013-09-23T09:49:33.000Z</time>
      </trkpt>
      <trkpt lon="7.921044258400798" lat="48.16510017961264">
        <ele>315.20001220703125</ele>
        <time>2013-09-23T09:49:38.000Z</time>
      </trkpt>
      <trkpt lon="7.920937053859234" lat="48.16520377993584">
        <ele>313.79998779296875</ele>
        <time>2013-09-23T09:49:40.000Z</time>
      </trkpt>
      <trkpt lon="7.920487867668271" lat="48.16555615514517">
        <ele>311.79998779296875</ele>
        <time>2013-09-23T09:49:47.000Z</time>
      </trkpt>
      <trkpt lon="7.92033045552671" lat="48.1658585742116">
        <ele>310.3999938964844</ele>
        <time>2013-09-23T09:49:52.000Z</time>
      </trkpt>
      <trkpt lon="7.9202512465417385" lat="48.166026044636965">
        <ele>310.3999938964844</ele>
        <time>2013-09-23T09:49:56.000Z</time>
      </trkpt>
      <trkpt lon="7.919983360916376" lat="48.16634254530072">
        <ele>309.6000061035156</ele>
        <time>2013-09-23T09:50:03.000Z</time>
      </trkpt>
      <trkpt lon="7.919689742848277" lat="48.16669324412942">
        <ele>312.79998779296875</ele>
        <time>2013-09-23T09:50:10.000Z</time>
      </trkpt>
      <trkpt lon="7.919262852519751" lat="48.167129857465625">
        <ele>315.79998779296875</ele>
        <time>2013-09-23T09:50:19.000Z</time>
      </trkpt>
      <trkpt lon="7.918953141197562" lat="48.16736748442054">
        <ele>315.3999938964844</ele>
        <time>2013-09-23T09:50:25.000Z</time>
      </trkpt>
      <trkpt lon="7.918596658855677" lat="48.167546689510345">
        <ele>314.79998779296875</ele>
        <time>2013-09-23T09:50:31.000Z</time>
      </trkpt>
      <trkpt lon="7.918126098811626" lat="48.1676818896085">
        <ele>319.3999938964844</ele>
        <time>2013-09-23T09:50:38.000Z</time>
      </trkpt>
      <trkpt lon="7.9174192529171705" lat="48.167770486325026">
        <ele>327.20001220703125</ele>
        <time>2013-09-23T09:50:48.000Z</time>
      </trkpt>
      <trkpt lon="7.917349934577942" lat="48.1677698995918">
        <ele>327.6000061035156</ele>
        <time>2013-09-23T09:50:49.000Z</time>
      </trkpt>
      <trkpt lon="7.916582738980651" lat="48.167915157973766">
        <ele>338.0</ele>
        <time>2013-09-23T09:50:59.000Z</time>
      </trkpt>
      <trkpt lon="7.915823338553309" lat="48.16805354319513">
        <ele>342.79998779296875</ele>
        <time>2013-09-23T09:51:08.000Z</time>
      </trkpt>
      <trkpt lon="7.914986154064536" lat="48.1681689620018">
        <ele>338.6000061035156</ele>
        <time>2013-09-23T09:51:17.000Z</time>
      </trkpt>
      <trkpt lon="7.914885655045509" lat="48.168178936466575">
        <ele>337.3999938964844</ele>
        <time>2013-09-23T09:51:18.000Z</time>
      </trkpt>
      <trkpt lon="7.914373856037855" lat="48.16830885596573">
        <ele>332.0</ele>
        <time>2013-09-23T09:51:24.000Z</time>
      </trkpt>
      <trkpt lon="7.913615796715021" lat="48.1685524340719">
        <ele>328.79998779296875</ele>
        <time>2013-09-23T09:51:34.000Z</time>
      </trkpt>
      <trkpt lon="7.913143057376146" lat="48.16867757588625">
        <ele>329.79998779296875</ele>
        <time>2013-09-23T09:51:41.000Z</time>
      </trkpt>
      <trkpt lon="7.912682052701712" lat="48.16872954368591">
        <ele>336.79998779296875</ele>
        <time>2013-09-23T09:51:48.000Z</time>
      </trkpt>
      <trkpt lon="7.9124111495912075" lat="48.16871579736471">
        <ele>341.3999938964844</ele>
        <time>2013-09-23T09:51:52.000Z</time>
      </trkpt>
      <trkpt lon="7.912183664739132" lat="48.16873566247523">
        <ele>346.3999938964844</ele>
        <time>2013-09-23T09:51:55.000Z</time>
      </trkpt>
      <trkpt lon="7.911919886246324" lat="48.168827863410115">
        <ele>350.79998779296875</ele>
        <time>2013-09-23T09:51:59.000Z</time>
      </trkpt>
      <trkpt lon="7.9118537530303" lat="48.16905735991895">
        <ele>348.79998779296875</ele>
        <time>2013-09-23T09:52:05.000Z</time>
      </trkpt>
      <trkpt lon="7.912053242325783" lat="48.169195745140314">
        <ele>345.3999938964844</ele>
        <time>2013-09-23T09:52:09.000Z</time>
      </trkpt>
      <trkpt lon="7.91216254234314" lat="48.169245198369026">
        <ele>345.20001220703125</ele>
        <time>2013-09-23T09:52:11.000Z</time>
      </trkpt>
      <trkpt lon="7.9125115647912025" lat="48.169406382367015">
        <ele>344.0</ele>
        <time>2013-09-23T09:52:19.000Z</time>
      </trkpt>
      <trkpt lon="7.912750281393528" lat="48.169537894427776">
        <ele>344.20001220703125</ele>
        <time>2013-09-23T09:52:25.000Z</time>
      </trkpt>
      <trkpt lon="7.912901155650616" lat="48.16968474537134">
        <ele>345.0</ele>
        <time>2013-09-23T09:52:30.000Z</time>
      </trkpt>
      <trkpt lon="7.912996290251613" lat="48.16989295184612">
        <ele>347.20001220703125</ele>
        <time>2013-09-23T09:52:37.000Z</time>
      </trkpt>
      <trkpt lon="7.913015568628907" lat="48.170273154973984">
        <ele>352.0</ele>
        <time>2013-09-23T09:52:46.000Z</time>
      </trkpt>
      <trkpt lon="7.913058986887336" lat="48.17056559957564">
        <ele>354.3999938964844</ele>
        <time>2013-09-23T09:52:54.000Z</time>
      </trkpt>
      <trkpt lon="7.913089245557785" lat="48.17084505222738">
        <ele>356.6000061035156</ele>
        <time>2013-09-23T09:53:01.000Z</time>
      </trkpt>
      <trkpt lon="7.9131238628178835" lat="48.171116542071104">
        <ele>358.6000061035156</ele>
        <time>2013-09-23T09:53:08.000Z</time>
      </trkpt>
      <trkpt lon="7.913131657987833" lat="48.17140177823603">
        <ele>361.6000061035156</ele>
        <time>2013-09-23T09:53:15.000Z</time>
      </trkpt>
      <trkpt lon="7.913119252771139" lat="48.171756165102124">
        <ele>365.3999938964844</ele>
        <time>2013-09-23T09:53:23.000Z</time>
      </trkpt>
      <trkpt lon="7.913169963285327" lat="48.17199915647507">
        <ele>364.79998779296875</ele>
        <time>2013-09-23T09:53:28.000Z</time>
      </trkpt>
      <trkpt lon="7.913242047652602" lat="48.17237223498523">
        <ele>363.6000061035156</ele>
        <time>2013-09-23T09:53:35.000Z</time>
      </trkpt>
      <trkpt lon="7.913340870290995" lat="48.17275285720825">
        <ele>359.20001220703125</ele>
        <time>2013-09-23T09:53:43.000Z</time>
      </trkpt>
      <trkpt lon="7.913434160873294" lat="48.17305318079889">
        <ele>358.0</ele>
        <time>2013-09-23T09:53:51.000Z</time>
      </trkpt>
      <trkpt lon="7.913454864174128" lat="48.173367250710726">
        <ele>356.3999938964844</ele>
        <time>2013-09-23T09:53:59.000Z</time>
      </trkpt>
      <trkpt lon="7.91355418972671" lat="48.17366438917816">
        <ele>361.6000061035156</ele>
        <time>2013-09-23T09:54:06.000Z</time>
      </trkpt>
      <trkpt lon="7.913581179454923" lat="48.17376765422523">
        <ele>363.0</ele>
        <time>2013-09-23T09:54:08.000Z</time>
      </trkpt>
      <trkpt lon="7.9136719554662704" lat="48.17412614822388">
        <ele>367.20001220703125</ele>
        <time>2013-09-23T09:54:15.000Z</time>
      </trkpt>
      <trkpt lon="7.913876054808497" lat="48.17467315122485">
        <ele>366.3999938964844</ele>
        <time>2013-09-23T09:54:26.000Z</time>
      </trkpt>
      <trkpt lon="7.913990551605821" lat="48.17495645955205">
        <ele>363.20001220703125</ele>
        <time>2013-09-23T09:54:33.000Z</time>
      </trkpt>
      <trkpt lon="7.914106976240873" lat="48.17538485862315">
        <ele>360.0</ele>
        <time>2013-09-23T09:54:43.000Z</time>
      </trkpt>
      <trkpt lon="7.91418207809329" lat="48.17557915113866">
        <ele>358.6000061035156</ele>
        <time>2013-09-23T09:54:48.000Z</time>
      </trkpt>
      <trkpt lon="7.9142247419804335" lat="48.175718458369374">
        <ele>360.0</ele>
        <time>2013-09-23T09:54:52.000Z</time>
      </trkpt>
      <trkpt lon="7.914402270689607" lat="48.17596455104649">
        <ele>365.3999938964844</ele>
        <time>2013-09-23T09:54:59.000Z</time>
      </trkpt>
      <trkpt lon="7.914573261514306" lat="48.17611877806485">
        <ele>369.20001220703125</ele>
        <time>2013-09-23T09:55:04.000Z</time>
      </trkpt>
      <trkpt lon="7.914684237912297" lat="48.17631893791258">
        <ele>371.0</ele>
        <time>2013-09-23T09:55:10.000Z</time>
      </trkpt>
      <trkpt lon="7.9148337710648775" lat="48.17656846717">
        <ele>371.3999938964844</ele>
        <time>2013-09-23T09:55:17.000Z</time>
      </trkpt>
      <trkpt lon="7.914856234565377" lat="48.1767566408962">
        <ele>371.3999938964844</ele>
        <time>2013-09-23T09:55:22.000Z</time>
      </trkpt>
      <trkpt lon="7.914869645610452" lat="48.176854541525245">
        <ele>371.6000061035156</ele>
        <time>2013-09-23T09:55:24.000Z</time>
      </trkpt>
      <trkpt lon="7.914945334196091" lat="48.17706945352256">
        <ele>371.6000061035156</ele>
        <time>2013-09-23T09:55:28.000Z</time>
      </trkpt>
      <trkpt lon="7.914951536804438" lat="48.17719308659434">
        <ele>371.6000061035156</ele>
        <time>2013-09-23T09:55:30.000Z</time>
      </trkpt>
      <trkpt lon="7.914909962564707" lat="48.17766264081001">
        <ele>374.3999938964844</ele>
        <time>2013-09-23T09:55:35.000Z</time>
      </trkpt>
      <trkpt lon="7.914980286732316" lat="48.17792105488479">
        <ele>375.0</ele>
        <time>2013-09-23T09:55:39.000Z</time>
      </trkpt>
      <trkpt lon="7.9150705598294735" lat="48.17802608013153">
        <ele>375.6000061035156</ele>
        <time>2013-09-23T09:55:42.000Z</time>
      </trkpt>
      <trkpt lon="7.915439447388053" lat="48.178270161151886">
        <ele>375.20001220703125</ele>
        <time>2013-09-23T09:55:49.000Z</time>
      </trkpt>
      <trkpt lon="7.915557799860835" lat="48.178330762311816">
        <ele>374.0</ele>
        <time>2013-09-23T09:55:51.000Z</time>
      </trkpt>
      <trkpt lon="7.915658885613084" lat="48.178399577736855">
        <ele>373.79998779296875</ele>
        <time>2013-09-23T09:55:53.000Z</time>
      </trkpt>
      <trkpt lon="7.915766844525933" lat="48.17846244201064">
        <ele>373.6000061035156</ele>
        <time>2013-09-23T09:55:55.000Z</time>
      </trkpt>
      <trkpt lon="7.91605937294662" lat="48.178647849708796">
        <ele>376.3999938964844</ele>
        <time>2013-09-23T09:56:01.000Z</time>
      </trkpt>
      <trkpt lon="7.916304040700197" lat="48.178829653188586">
        <ele>377.79998779296875</ele>
        <time>2013-09-23T09:56:06.000Z</time>
      </trkpt>
      <trkpt lon="7.916563376784325" lat="48.17905227653682">
        <ele>377.20001220703125</ele>
        <time>2013-09-23T09:56:12.000Z</time>
      </trkpt>
      <trkpt lon="7.91676789522171" lat="48.17930046468973">
        <ele>377.6000061035156</ele>
        <time>2013-09-23T09:56:18.000Z</time>
      </trkpt>
      <trkpt lon="7.91712655685842" lat="48.1796476431191">
        <ele>378.0</ele>
        <time>2013-09-23T09:56:26.000Z</time>
      </trkpt>
      <trkpt lon="7.9173918440938" lat="48.18016044795513">
        <ele>374.20001220703125</ele>
        <time>2013-09-23T09:56:34.000Z</time>
      </trkpt>
      <trkpt lon="7.917680265381932" lat="48.18066076375544">
        <ele>378.20001220703125</ele>
        <time>2013-09-23T09:56:43.000Z</time>
      </trkpt>
      <trkpt lon="7.9177994560450315" lat="48.18080107681453">
        <ele>378.6000061035156</ele>
        <time>2013-09-23T09:56:46.000Z</time>
      </trkpt>
      <trkpt lon="7.9177994560450315" lat="48.18080107681453">
        <ele>378.6000061035156</ele>
        <time>2013-09-23T09:56:46.000Z</time>
      </trkpt>
      <trkpt lon="7.9179570358246565" lat="48.18099436350167">
        <ele>378.79998779296875</ele>
        <time>2013-09-23T09:56:50.000Z</time>
      </trkpt>
      <trkpt lon="7.918104054406285" lat="48.18116686306894">
        <ele>378.6000061035156</ele>
        <time>2013-09-23T09:56:54.000Z</time>
      </trkpt>
      <trkpt lon="7.918312344700098" lat="48.181526781991124">
        <ele>377.79998779296875</ele>
        <time>2013-09-23T09:57:01.000Z</time>
      </trkpt>
      <trkpt lon="7.91834176518023" lat="48.181567350402474">
        <ele>377.6000061035156</ele>
        <time>2013-09-23T09:57:02.000Z</time>
      </trkpt>
      <trkpt lon="7.9184800665825605" lat="48.181896256282926">
        <ele>380.79998779296875</ele>
        <time>2013-09-23T09:57:08.000Z</time>
      </trkpt>
      <trkpt lon="7.918721968308091" lat="48.18221225403249">
        <ele>383.6000061035156</ele>
        <time>2013-09-23T09:57:15.000Z</time>
      </trkpt>
      <trkpt lon="7.919064788147807" lat="48.18259379826486">
        <ele>386.3999938964844</ele>
        <time>2013-09-23T09:57:24.000Z</time>
      </trkpt>
      <trkpt lon="7.919313479214907" lat="48.18271885626018">
        <ele>387.79998779296875</ele>
        <time>2013-09-23T09:57:28.000Z</time>
      </trkpt>
      <trkpt lon="7.919999370351434" lat="48.18295723758638">
        <ele>389.6000061035156</ele>
        <time>2013-09-23T09:57:38.000Z</time>
      </trkpt>
      <trkpt lon="7.92012476362288" lat="48.18300744518638">
        <ele>390.6000061035156</ele>
        <time>2013-09-23T09:57:40.000Z</time>
      </trkpt>
      <trkpt lon="7.920336490496993" lat="48.1830595806241">
        <ele>391.20001220703125</ele>
        <time>2013-09-23T09:57:44.000Z</time>
      </trkpt>
      <trkpt lon="7.920770673081279" lat="48.18309855647385">
        <ele>390.3999938964844</ele>
        <time>2013-09-23T09:57:53.000Z</time>
      </trkpt>
      <trkpt lon="7.9208876844495535" lat="48.18314935080707">
        <ele>390.79998779296875</ele>
        <time>2013-09-23T09:57:56.000Z</time>
      </trkpt>
      <trkpt lon="7.920810151845217" lat="48.18327457644045">
        <ele>393.20001220703125</ele>
        <time>2013-09-23T09:58:00.000Z</time>
      </trkpt>
      <trkpt lon="7.920678975060582" lat="48.183299554511905">
        <ele>394.3999938964844</ele>
        <time>2013-09-23T09:58:02.000Z</time>
      </trkpt>
      <trkpt lon="7.92026306502521" lat="48.183321598917246">
        <ele>397.79998779296875</ele>
        <time>2013-09-23T09:58:09.000Z</time>
      </trkpt>
      <trkpt lon="7.9199788346886635" lat="48.18331095390022">
        <ele>399.3999938964844</ele>
        <time>2013-09-23T09:58:15.000Z</time>
      </trkpt>
      <trkpt lon="7.919758055359125" lat="48.183283964172006">
        <ele>400.20001220703125</ele>
        <time>2013-09-23T09:58:20.000Z</time>
      </trkpt>
      <trkpt lon="7.919436190277338" lat="48.183221938088536">
        <ele>400.79998779296875</ele>
        <time>2013-09-23T09:58:28.000Z</time>
      </trkpt>
      <trkpt lon="7.919096639379859" lat="48.18320886231959">
        <ele>402.79998779296875</ele>
        <time>2013-09-23T09:58:35.000Z</time>
      </trkpt>
      <trkpt lon="7.918800674378872" lat="48.18314725533128">
        <ele>402.3999938964844</ele>
        <time>2013-09-23T09:58:42.000Z</time>
      </trkpt>
      <trkpt lon="7.918460955843329" lat="48.183014737442136">
        <ele>401.0</ele>
        <time>2013-09-23T09:58:50.000Z</time>
      </trkpt>
      <trkpt lon="7.918170774355531" lat="48.18299847654998">
        <ele>402.6000061035156</ele>
        <time>2013-09-23T09:58:57.000Z</time>
      </trkpt>
      <trkpt lon="7.917762156575918" lat="48.18302186205983">
        <ele>405.79998779296875</ele>
        <time>2013-09-23T09:59:06.000Z</time>
      </trkpt>
      <trkpt lon="7.917436771094799" lat="48.18293049931526">
        <ele>407.0</ele>
        <time>2013-09-23T09:59:13.000Z</time>
      </trkpt>
      <trkpt lon="7.917050952091813" lat="48.182773254811764">
        <ele>408.0</ele>
        <time>2013-09-23T09:59:22.000Z</time>
      </trkpt>
      <trkpt lon="7.916609980165958" lat="48.18266403861344">
        <ele>409.79998779296875</ele>
        <time>2013-09-23T09:59:32.000Z</time>
      </trkpt>
      <trkpt lon="7.91617663577199" lat="48.18264023400843">
        <ele>410.79998779296875</ele>
        <time>2013-09-23T09:59:41.000Z</time>
      </trkpt>
      <trkpt lon="7.915737675502896" lat="48.1826660502702">
        <ele>412.3999938964844</ele>
        <time>2013-09-23T09:59:50.000Z</time>
      </trkpt>
      <trkpt lon="7.915350263938308" lat="48.18273385986686">
        <ele>413.79998779296875</ele>
        <time>2013-09-23T09:59:59.000Z</time>
      </trkpt>
      <trkpt lon="7.914907783269882" lat="48.18280049599707">
        <ele>415.79998779296875</ele>
        <time>2013-09-23T10:00:09.000Z</time>
      </trkpt>
      <trkpt lon="7.91453973390162" lat="48.18280326202512">
        <ele>418.20001220703125</ele>
        <time>2013-09-23T10:00:17.000Z</time>
      </trkpt>
      <trkpt lon="7.914161961525679" lat="48.18268499337137">
        <ele>419.3999938964844</ele>
        <time>2013-09-23T10:00:25.000Z</time>
      </trkpt>
      <trkpt lon="7.913747560232878" lat="48.18249757401645">
        <ele>421.3999938964844</ele>
        <time>2013-09-23T10:00:35.000Z</time>
      </trkpt>
      <trkpt lon="7.913374649360776" lat="48.18230386823416">
        <ele>423.6000061035156</ele>
        <time>2013-09-23T10:00:44.000Z</time>
      </trkpt>
      <trkpt lon="7.912868382409215" lat="48.182078981772065">
        <ele>426.6000061035156</ele>
        <time>2013-09-23T10:00:56.000Z</time>
      </trkpt>
      <trkpt lon="7.912535956129432" lat="48.18201804533601">
        <ele>428.79998779296875</ele>
        <time>2013-09-23T10:01:05.000Z</time>
      </trkpt>
      <trkpt lon="7.912248959764838" lat="48.18199323490262">
        <ele>429.79998779296875</ele>
        <time>2013-09-23T10:01:12.000Z</time>
      </trkpt>
      <trkpt lon="7.911868169903755" lat="48.181935735046864">
        <ele>431.0</ele>
        <time>2013-09-23T10:01:21.000Z</time>
      </trkpt>
      <trkpt lon="7.911522081121802" lat="48.181907488033175">
        <ele>431.3999938964844</ele>
        <time>2013-09-23T10:01:28.000Z</time>
      </trkpt>
      <trkpt lon="7.911334661766887" lat="48.18197135813534">
        <ele>430.3999938964844</ele>
        <time>2013-09-23T10:01:32.000Z</time>
      </trkpt>
      <trkpt lon="7.911308091133833" lat="48.18200698122382">
        <ele>430.0</ele>
        <time>2013-09-23T10:01:33.000Z</time>
      </trkpt>
      <trkpt lon="7.911354694515467" lat="48.18214955739677">
        <ele>429.0</ele>
        <time>2013-09-23T10:01:37.000Z</time>
      </trkpt>
      <trkpt lon="7.911642277613282" lat="48.18231618963182">
        <ele>429.6000061035156</ele>
        <time>2013-09-23T10:01:42.000Z</time>
      </trkpt>
      <trkpt lon="7.912059361115098" lat="48.18257418461144">
        <ele>429.20001220703125</ele>
        <time>2013-09-23T10:01:48.000Z</time>
      </trkpt>
      <trkpt lon="7.912618853151798" lat="48.18292748183012">
        <ele>428.0</ele>
        <time>2013-09-23T10:01:55.000Z</time>
      </trkpt>
      <trkpt lon="7.913430891931057" lat="48.18344037048519">
        <ele>426.3999938964844</ele>
        <time>2013-09-23T10:02:05.000Z</time>
      </trkpt>
      <trkpt lon="7.914268244057894" lat="48.18390816450119">
        <ele>426.79998779296875</ele>
        <time>2013-09-23T10:02:16.000Z</time>
      </trkpt>
      <trkpt lon="7.914875261485577" lat="48.18421485833824">
        <ele>427.6000061035156</ele>
        <time>2013-09-23T10:02:24.000Z</time>
      </trkpt>
      <trkpt lon="7.915666764602065" lat="48.18453018553555">
        <ele>427.6000061035156</ele>
        <time>2013-09-23T10:02:34.000Z</time>
      </trkpt>
      <trkpt lon="7.916566394269466" lat="48.184875352308154">
        <ele>428.6000061035156</ele>
        <time>2013-09-23T10:02:45.000Z</time>
      </trkpt>
      <trkpt lon="7.917120773345232" lat="48.18515715189278">
        <ele>428.20001220703125</ele>
        <time>2013-09-23T10:02:52.000Z</time>
      </trkpt>
      <trkpt lon="7.917624861001968" lat="48.18549754098058">
        <ele>428.3999938964844</ele>
        <time>2013-09-23T10:03:00.000Z</time>
      </trkpt>
      <trkpt lon="7.91808326728642" lat="48.18581043742597">
        <ele>431.20001220703125</ele>
        <time>2013-09-23T10:03:08.000Z</time>
      </trkpt>
      <trkpt lon="7.918531866744161" lat="48.18612224422395">
        <ele>433.79998779296875</ele>
        <time>2013-09-23T10:03:17.000Z</time>
      </trkpt>
      <trkpt lon="7.918938472867012" lat="48.18640898913145">
        <ele>438.0</ele>
        <time>2013-09-23T10:03:26.000Z</time>
      </trkpt>
      <trkpt lon="7.919358070939779" lat="48.186697494238615">
        <ele>441.79998779296875</ele>
        <time>2013-09-23T10:03:36.000Z</time>
      </trkpt>
      <trkpt lon="7.919719247147441" lat="48.186938893049955">
        <ele>441.6000061035156</ele>
        <time>2013-09-23T10:03:45.000Z</time>
      </trkpt>
      <trkpt lon="7.920162566006184" lat="48.18718196824193">
        <ele>443.0</ele>
        <time>2013-09-23T10:03:55.000Z</time>
      </trkpt>
      <trkpt lon="7.920647542923689" lat="48.18746586330235">
        <ele>444.6000061035156</ele>
        <time>2013-09-23T10:04:06.000Z</time>
      </trkpt>
      <trkpt lon="7.92079514823854" lat="48.187675746157765">
        <ele>446.0</ele>
        <time>2013-09-23T10:04:12.000Z</time>
      </trkpt>
      <trkpt lon="7.9208246525377035" lat="48.18794606253505">
        <ele>447.0</ele>
        <time>2013-09-23T10:04:19.000Z</time>
      </trkpt>
      <trkpt lon="7.920741587877274" lat="48.18821646273136">
        <ele>447.20001220703125</ele>
        <time>2013-09-23T10:04:26.000Z</time>
      </trkpt>
      <trkpt lon="7.920711748301983" lat="48.188591469079256">
        <ele>448.79998779296875</ele>
        <time>2013-09-23T10:04:35.000Z</time>
      </trkpt>
      <trkpt lon="7.920803194865584" lat="48.18875399418175">
        <ele>450.20001220703125</ele>
        <time>2013-09-23T10:04:39.000Z</time>
      </trkpt>
      <trkpt lon="7.920869244262576" lat="48.18882909603417">
        <ele>451.0</ele>
        <time>2013-09-23T10:04:41.000Z</time>
      </trkpt>
      <trkpt lon="7.921240562573075" lat="48.18903596140444">
        <ele>453.6000061035156</ele>
        <time>2013-09-23T10:04:48.000Z</time>
      </trkpt>
      <trkpt lon="7.921478943899274" lat="48.189135789871216">
        <ele>454.3999938964844</ele>
        <time>2013-09-23T10:04:52.000Z</time>
      </trkpt>
      <trkpt lon="7.921672565862536" lat="48.189349276944995">
        <ele>455.6000061035156</ele>
        <time>2013-09-23T10:04:57.000Z</time>
      </trkpt>
      <trkpt lon="7.921597464010119" lat="48.189563769847155">
        <ele>456.0</ele>
        <time>2013-09-23T10:05:01.000Z</time>
      </trkpt>
      <trkpt lon="7.921339385211468" lat="48.18975009955466">
        <ele>454.79998779296875</ele>
        <time>2013-09-23T10:05:06.000Z</time>
      </trkpt>
      <trkpt lon="7.9209003411233425" lat="48.190003568306565">
        <ele>451.3999938964844</ele>
        <time>2013-09-23T10:05:14.000Z</time>
      </trkpt>
      <trkpt lon="7.920580739155412" lat="48.19035619497299">
        <ele>451.0</ele>
        <time>2013-09-23T10:05:23.000Z</time>
      </trkpt>
      <trkpt lon="7.9204055573791265" lat="48.1906923931092">
        <ele>451.3999938964844</ele>
        <time>2013-09-23T10:05:31.000Z</time>
      </trkpt>
      <trkpt lon="7.920378735288978" lat="48.19109036587179">
        <ele>452.6000061035156</ele>
        <time>2013-09-23T10:05:40.000Z</time>
      </trkpt>
      <trkpt lon="7.920478563755751" lat="48.191434778273106">
        <ele>454.6000061035156</ele>
        <time>2013-09-23T10:05:48.000Z</time>
      </trkpt>
      <trkpt lon="7.9206508956849575" lat="48.191767958924174">
        <ele>457.0</ele>
        <time>2013-09-23T10:05:56.000Z</time>
      </trkpt>
      <trkpt lon="7.921010898426175" lat="48.19218747317791">
        <ele>462.3999938964844</ele>
        <time>2013-09-23T10:06:06.000Z</time>
      </trkpt>
      <trkpt lon="7.921384982764721" lat="48.192624086514115">
        <ele>468.0</ele>
        <time>2013-09-23T10:06:16.000Z</time>
      </trkpt>
      <trkpt lon="7.921559577807784" lat="48.192836567759514">
        <ele>469.79998779296875</ele>
        <time>2013-09-23T10:06:21.000Z</time>
      </trkpt>
      <trkpt lon="7.921796953305602" lat="48.19307235069573">
        <ele>471.20001220703125</ele>
        <time>2013-09-23T10:06:27.000Z</time>
      </trkpt>
      <trkpt lon="7.9218395333737135" lat="48.193113170564175">
        <ele>471.3999938964844</ele>
        <time>2013-09-23T10:06:28.000Z</time>
      </trkpt>
      <trkpt lon="7.922009434551001" lat="48.19330628961325">
        <ele>471.20001220703125</ele>
        <time>2013-09-23T10:06:33.000Z</time>
      </trkpt>
      <trkpt lon="7.922427272424102" lat="48.19360946305096">
        <ele>471.3999938964844</ele>
        <time>2013-09-23T10:06:41.000Z</time>
      </trkpt>
      <trkpt lon="7.922847541049123" lat="48.19381414912641">
        <ele>473.20001220703125</ele>
        <time>2013-09-23T10:06:48.000Z</time>
      </trkpt>
      <trkpt lon="7.923043258488178" lat="48.19386494345963">
        <ele>474.3999938964844</ele>
        <time>2013-09-23T10:06:51.000Z</time>
      </trkpt>
      <trkpt lon="7.923175441101193" lat="48.19388506002724">
        <ele>475.3999938964844</ele>
        <time>2013-09-23T10:06:53.000Z</time>
      </trkpt>
      <trkpt lon="7.923303097486496" lat="48.19391515105963">
        <ele>476.20001220703125</ele>
        <time>2013-09-23T10:06:55.000Z</time>
      </trkpt>
      <trkpt lon="7.923517087474465" lat="48.19394373334944">
        <ele>476.6000061035156</ele>
        <time>2013-09-23T10:06:59.000Z</time>
      </trkpt>
      <trkpt lon="7.9239078518003225" lat="48.19401598535478">
        <ele>476.6000061035156</ele>
        <time>2013-09-23T10:07:06.000Z</time>
      </trkpt>
      <trkpt lon="7.924041543155909" lat="48.19403459317982">
        <ele>476.6000061035156</ele>
        <time>2013-09-23T10:07:08.000Z</time>
      </trkpt>
      <trkpt lon="7.924041543155909" lat="48.19403459317982">
        <ele>476.6000061035156</ele>
        <time>2013-09-23T10:07:08.000Z</time>
      </trkpt>
      <trkpt lon="7.924151849001646" lat="48.194053368642926">
        <ele>476.6000061035156</ele>
        <time>2013-09-23T10:07:10.000Z</time>
      </trkpt>
      <trkpt lon="7.92431278154254" lat="48.19407373666763">
        <ele>475.20001220703125</ele>
        <time>2013-09-23T10:07:13.000Z</time>
      </trkpt>
      <trkpt lon="7.924522161483765" lat="48.194052362814546">
        <ele>474.0</ele>
        <time>2013-09-23T10:07:16.000Z</time>
      </trkpt>
      <trkpt lon="7.925009150058031" lat="48.19396276026964">
        <ele>472.6000061035156</ele>
        <time>2013-09-23T10:07:22.000Z</time>
      </trkpt>
      <trkpt lon="7.925558751448989" lat="48.19385999813676">
        <ele>472.6000061035156</ele>
        <time>2013-09-23T10:07:28.000Z</time>
      </trkpt>
      <trkpt lon="7.9260000586509705" lat="48.19381657987833">
        <ele>473.20001220703125</ele>
        <time>2013-09-23T10:07:33.000Z</time>
      </trkpt>
      <trkpt lon="7.926436755806208" lat="48.19392546080053">
        <ele>473.6000061035156</ele>
        <time>2013-09-23T10:07:39.000Z</time>
      </trkpt>
      <trkpt lon="7.926571536809206" lat="48.19410718046129">
        <ele>471.79998779296875</ele>
        <time>2013-09-23T10:07:43.000Z</time>
      </trkpt>
      <trkpt lon="7.926588887348771" lat="48.19420709274709">
        <ele>470.79998779296875</ele>
        <time>2013-09-23T10:07:45.000Z</time>
      </trkpt>
      <trkpt lon="7.926616379991174" lat="48.19449928589165">
        <ele>467.3999938964844</ele>
        <time>2013-09-23T10:07:51.000Z</time>
      </trkpt>
      <trkpt lon="7.926811762154102" lat="48.19471159949899">
        <ele>466.3999938964844</ele>
        <time>2013-09-23T10:07:56.000Z</time>
      </trkpt>
      <trkpt lon="7.927084760740399" lat="48.19477974437177">
        <ele>467.3999938964844</ele>
        <time>2013-09-23T10:08:00.000Z</time>
      </trkpt>
      <trkpt lon="7.927299672737718" lat="48.194748647511005">
        <ele>469.20001220703125</ele>
        <time>2013-09-23T10:08:03.000Z</time>
      </trkpt>
      <trkpt lon="7.92756806127727" lat="48.194684190675616">
        <ele>472.20001220703125</ele>
        <time>2013-09-23T10:08:07.000Z</time>
      </trkpt>
      <trkpt lon="7.927934266626835" lat="48.19471025839448">
        <ele>476.0</ele>
        <time>2013-09-23T10:08:12.000Z</time>
      </trkpt>
      <trkpt lon="7.928419662639499" lat="48.19486523978412">
        <ele>478.79998779296875</ele>
        <time>2013-09-23T10:08:19.000Z</time>
      </trkpt>
      <trkpt lon="7.928638346493244" lat="48.195009576156735">
        <ele>478.79998779296875</ele>
        <time>2013-09-23T10:08:23.000Z</time>
      </trkpt>
      <trkpt lon="7.9287598840892315" lat="48.195134634152055">
        <ele>480.6000061035156</ele>
        <time>2013-09-23T10:08:26.000Z</time>
      </trkpt>
      <trkpt lon="7.928817383944988" lat="48.195326160639524">
        <ele>482.20001220703125</ele>
        <time>2013-09-23T10:08:30.000Z</time>
      </trkpt>
      <trkpt lon="7.928729876875877" lat="48.195577869191766">
        <ele>482.3999938964844</ele>
        <time>2013-09-23T10:08:35.000Z</time>
      </trkpt>
      <trkpt lon="7.928694253787398" lat="48.19562413729727">
        <ele>482.20001220703125</ele>
        <time>2013-09-23T10:08:36.000Z</time>
      </trkpt>
      <trkpt lon="7.92831514030695" lat="48.19597433321178">
        <ele>481.79998779296875</ele>
        <time>2013-09-23T10:08:44.000Z</time>
      </trkpt>
      <trkpt lon="7.928266189992428" lat="48.19601766765118">
        <ele>482.20001220703125</ele>
        <time>2013-09-23T10:08:45.000Z</time>
      </trkpt>
      <trkpt lon="7.927930494770408" lat="48.196336179971695">
        <ele>482.79998779296875</ele>
        <time>2013-09-23T10:08:52.000Z</time>
      </trkpt>
      <trkpt lon="7.927645090967417" lat="48.196764243766665">
        <ele>482.0</ele>
        <time>2013-09-23T10:09:00.000Z</time>
      </trkpt>
      <trkpt lon="7.927557835355401" lat="48.19710463285446">
        <ele>482.79998779296875</ele>
        <time>2013-09-23T10:09:06.000Z</time>
      </trkpt>
      <trkpt lon="7.92756219394505" lat="48.19753403775394">
        <ele>486.20001220703125</ele>
        <time>2013-09-23T10:09:13.000Z</time>
      </trkpt>
      <trkpt lon="7.927639055997133" lat="48.197953971102834">
        <ele>485.6000061035156</ele>
        <time>2013-09-23T10:09:19.000Z</time>
      </trkpt>
      <trkpt lon="7.927672751247883" lat="48.197996048256755">
        <ele>486.0</ele>
        <time>2013-09-23T10:09:20.000Z</time>
      </trkpt>
      <trkpt lon="7.927856734022498" lat="48.19820383563638">
        <ele>487.20001220703125</ele>
        <time>2013-09-23T10:09:24.000Z</time>
      </trkpt>
      <trkpt lon="7.928048260509968" lat="48.198426961898804">
        <ele>486.6000061035156</ele>
        <time>2013-09-23T10:09:29.000Z</time>
      </trkpt>
      <trkpt lon="7.928316565230489" lat="48.19863826967776">
        <ele>485.79998779296875</ele>
        <time>2013-09-23T10:09:34.000Z</time>
      </trkpt>
      <trkpt lon="7.928696684539318" lat="48.19897069595754">
        <ele>486.0</ele>
        <time>2013-09-23T10:09:40.000Z</time>
      </trkpt>
      <trkpt lon="7.928773043677211" lat="48.19902526214719">
        <ele>486.20001220703125</ele>
        <time>2013-09-23T10:09:41.000Z</time>
      </trkpt>
      <trkpt lon="7.9290449526160955" lat="48.199248891323805">
        <ele>485.6000061035156</ele>
        <time>2013-09-23T10:09:45.000Z</time>
      </trkpt>
      <trkpt lon="7.929209237918258" lat="48.19934394210577">
        <ele>485.3999938964844</ele>
        <time>2013-09-23T10:09:47.000Z</time>
      </trkpt>
      <trkpt lon="7.929562199860811" lat="48.19948433898389">
        <ele>485.0</ele>
        <time>2013-09-23T10:09:51.000Z</time>
      </trkpt>
      <trkpt lon="7.929739058017731" lat="48.199537144973874">
        <ele>485.20001220703125</ele>
        <time>2013-09-23T10:09:53.000Z</time>
      </trkpt>
      <trkpt lon="7.93011624366045" lat="48.199616856873035">
        <ele>486.6000061035156</ele>
        <time>2013-09-23T10:09:57.000Z</time>
      </trkpt>
      <trkpt lon="7.930886037647724" lat="48.19969413802028">
        <ele>491.6000061035156</ele>
        <time>2013-09-23T10:10:05.000Z</time>
      </trkpt>
      <trkpt lon="7.931458353996277" lat="48.19969925098121">
        <ele>489.79998779296875</ele>
        <time>2013-09-23T10:10:11.000Z</time>
      </trkpt>
      <trkpt lon="7.931858757510781" lat="48.19967083632946">
        <ele>487.0</ele>
        <time>2013-09-23T10:10:15.000Z</time>
      </trkpt>
      <trkpt lon="7.931954897940159" lat="48.19965776056051">
        <ele>485.79998779296875</ele>
        <time>2013-09-23T10:10:16.000Z</time>
      </trkpt>
      <trkpt lon="7.9323281440883875" lat="48.19955877028406">
        <ele>482.3999938964844</ele>
        <time>2013-09-23T10:10:21.000Z</time>
      </trkpt>
      <trkpt lon="7.932388242334127" lat="48.19953639060259">
        <ele>482.0</ele>
        <time>2013-09-23T10:10:22.000Z</time>
      </trkpt>
      <trkpt lon="7.932824352756143" lat="48.19924025796354">
        <ele>482.0</ele>
        <time>2013-09-23T10:10:29.000Z</time>
      </trkpt>
      <trkpt lon="7.933148983865976" lat="48.19910044781864">
        <ele>478.6000061035156</ele>
        <time>2013-09-23T10:10:33.000Z</time>
      </trkpt>
      <trkpt lon="7.933651395142078" lat="48.199029956012964">
        <ele>476.0</ele>
        <time>2013-09-23T10:10:38.000Z</time>
      </trkpt>
      <trkpt lon="7.934023132547736" lat="48.19910975173116">
        <ele>474.20001220703125</ele>
        <time>2013-09-23T10:10:42.000Z</time>
      </trkpt>
      <trkpt lon="7.934170737862587" lat="48.199185859411955">
        <ele>472.79998779296875</ele>
        <time>2013-09-23T10:10:44.000Z</time>
      </trkpt>
      <trkpt lon="7.934632496908307" lat="48.19949883967638">
        <ele>476.20001220703125</ele>
        <time>2013-09-23T10:10:51.000Z</time>
      </trkpt>
      <trkpt lon="7.934869788587093" lat="48.19976219907403">
        <ele>478.0</ele>
        <time>2013-09-23T10:10:56.000Z</time>
      </trkpt>
      <trkpt lon="7.934919157996774" lat="48.20008045993745">
        <ele>478.0</ele>
        <time>2013-09-23T10:11:02.000Z</time>
      </trkpt>
      <trkpt lon="7.934714052826166" lat="48.200460160151124">
        <ele>476.6000061035156</ele>
        <time>2013-09-23T10:11:09.000Z</time>
      </trkpt>
      <trkpt lon="7.934385063126683" lat="48.20094119757414">
        <ele>474.79998779296875</ele>
        <time>2013-09-23T10:11:18.000Z</time>
      </trkpt>
      <trkpt lon="7.934125559404492" lat="48.20146523416042">
        <ele>475.20001220703125</ele>
        <time>2013-09-23T10:11:27.000Z</time>
      </trkpt>
      <trkpt lon="7.933988096192479" lat="48.201880138367414">
        <ele>474.6000061035156</ele>
        <time>2013-09-23T10:11:34.000Z</time>
      </trkpt>
      <trkpt lon="7.934093791991472" lat="48.20216805674136">
        <ele>473.6000061035156</ele>
        <time>2013-09-23T10:11:39.000Z</time>
      </trkpt>
      <trkpt lon="7.934269057586789" lat="48.20229705423117">
        <ele>474.0</ele>
        <time>2013-09-23T10:11:42.000Z</time>
      </trkpt>
      <trkpt lon="7.934851599857211" lat="48.20248296484351">
        <ele>477.0</ele>
        <time>2013-09-23T10:11:50.000Z</time>
      </trkpt>
      <trkpt lon="7.93563237413764" lat="48.202694691717625">
        <ele>477.6000061035156</ele>
        <time>2013-09-23T10:12:01.000Z</time>
      </trkpt>
      <trkpt lon="7.936233356595039" lat="48.20280399173498">
        <ele>475.3999938964844</ele>
        <time>2013-09-23T10:12:09.000Z</time>
      </trkpt>
      <trkpt lon="7.936391942203045" lat="48.20281027816236">
        <ele>475.0</ele>
        <time>2013-09-23T10:12:11.000Z</time>
      </trkpt>
      <trkpt lon="7.936678854748607" lat="48.20273567922413">
        <ele>476.20001220703125</ele>
        <time>2013-09-23T10:12:15.000Z</time>
      </trkpt>
      <trkpt lon="7.936958055943251" lat="48.202484557405114">
        <ele>476.79998779296875</ele>
        <time>2013-09-23T10:12:21.000Z</time>
      </trkpt>
      <trkpt lon="7.936979681253433" lat="48.20242965593934">
        <ele>477.20001220703125</ele>
        <time>2013-09-23T10:12:22.000Z</time>
      </trkpt>
      <trkpt lon="7.937151845544577" lat="48.20180956274271">
        <ele>482.6000061035156</ele>
        <time>2013-09-23T10:12:33.000Z</time>
      </trkpt>
      <trkpt lon="7.937299953773618" lat="48.20139675401151">
        <ele>487.0</ele>
        <time>2013-09-23T10:12:41.000Z</time>
      </trkpt>
      <trkpt lon="7.937340438365936" lat="48.201348055154085">
        <ele>487.6000061035156</ele>
        <time>2013-09-23T10:12:42.000Z</time>
      </trkpt>
      <trkpt lon="7.937688454985619" lat="48.201142782345414">
        <ele>488.6000061035156</ele>
        <time>2013-09-23T10:12:48.000Z</time>
      </trkpt>
      <trkpt lon="7.938365042209625" lat="48.200928792357445">
        <ele>488.79998779296875</ele>
        <time>2013-09-23T10:12:58.000Z</time>
      </trkpt>
      <trkpt lon="7.93856025673449" lat="48.20077557116747">
        <ele>491.79998779296875</ele>
        <time>2013-09-23T10:13:02.000Z</time>
      </trkpt>
      <trkpt lon="7.9388167429715395" lat="48.20046929642558">
        <ele>500.79998779296875</ele>
        <time>2013-09-23T10:13:09.000Z</time>
      </trkpt>
      <trkpt lon="7.939126957207918" lat="48.200325798243284">
        <ele>503.20001220703125</ele>
        <time>2013-09-23T10:13:14.000Z</time>
      </trkpt>
      <trkpt lon="7.9394222516566515" lat="48.200342478230596">
        <ele>503.6000061035156</ele>
        <time>2013-09-23T10:13:18.000Z</time>
      </trkpt>
      <trkpt lon="7.939747888594866" lat="48.200460663065314">
        <ele>501.0</ele>
        <time>2013-09-23T10:13:23.000Z</time>
      </trkpt>
      <trkpt lon="7.939804969355464" lat="48.20049569942057">
        <ele>500.0</ele>
        <time>2013-09-23T10:13:24.000Z</time>
      </trkpt>
      <trkpt lon="7.940002782270312" lat="48.20065696723759">
        <ele>495.3999938964844</ele>
        <time>2013-09-23T10:13:28.000Z</time>
      </trkpt>
      <trkpt lon="7.940223393961787" lat="48.20105066522956">
        <ele>491.20001220703125</ele>
        <time>2013-09-23T10:13:36.000Z</time>
      </trkpt>
      <trkpt lon="7.940356163308024" lat="48.201442854478955">
        <ele>489.6000061035156</ele>
        <time>2013-09-23T10:13:44.000Z</time>
      </trkpt>
      <trkpt lon="7.940501840785146" lat="48.201896734535694">
        <ele>488.3999938964844</ele>
        <time>2013-09-23T10:13:53.000Z</time>
      </trkpt>
      <trkpt lon="7.94057484716177" lat="48.20204023271799">
        <ele>488.6000061035156</ele>
        <time>2013-09-23T10:13:56.000Z</time>
      </trkpt>
      <trkpt lon="7.940740892663598" lat="48.202208457514644">
        <ele>490.79998779296875</ele>
        <time>2013-09-23T10:14:00.000Z</time>
      </trkpt>
      <trkpt lon="7.94089687988162" lat="48.20232169702649">
        <ele>492.0</ele>
        <time>2013-09-23T10:14:03.000Z</time>
      </trkpt>
      <trkpt lon="7.941151186823845" lat="48.20242085494101">
        <ele>492.0</ele>
        <time>2013-09-23T10:14:07.000Z</time>
      </trkpt>
      <trkpt lon="7.94142016209662" lat="48.20237676613033">
        <ele>494.0</ele>
        <time>2013-09-23T10:14:11.000Z</time>
      </trkpt>
      <trkpt lon="7.941515883430839" lat="48.20232798345387">
        <ele>495.79998779296875</ele>
        <time>2013-09-23T10:14:13.000Z</time>
      </trkpt>
      <trkpt lon="7.941665081307292" lat="48.20222916081548">
        <ele>499.3999938964844</ele>
        <time>2013-09-23T10:14:16.000Z</time>
      </trkpt>
      <trkpt lon="7.941930368542671" lat="48.20205397903919">
        <ele>502.20001220703125</ele>
        <time>2013-09-23T10:14:21.000Z</time>
      </trkpt>
      <trkpt lon="7.94225768186152" lat="48.20186278782785">
        <ele>504.6000061035156</ele>
        <time>2013-09-23T10:14:27.000Z</time>
      </trkpt>
      <trkpt lon="7.942422637715936" lat="48.20169079117477">
        <ele>508.0</ele>
        <time>2013-09-23T10:14:32.000Z</time>
      </trkpt>
      <trkpt lon="7.942569991573691" lat="48.20154285058379">
        <ele>510.20001220703125</ele>
        <time>2013-09-23T10:14:36.000Z</time>
      </trkpt>
      <trkpt lon="7.942643333226442" lat="48.20145869627595">
        <ele>511.3999938964844</ele>
        <time>2013-09-23T10:14:38.000Z</time>
      </trkpt>
      <trkpt lon="7.9427457600831985" lat="48.20132969878614">
        <ele>513.4000244140625</ele>
        <time>2013-09-23T10:14:41.000Z</time>
      </trkpt>
      <trkpt lon="7.942895796149969" lat="48.201183434575796">
        <ele>514.7999877929688</ele>
        <time>2013-09-23T10:14:45.000Z</time>
      </trkpt>
      <trkpt lon="7.942993864417076" lat="48.20108494721353">
        <ele>516.0</ele>
        <time>2013-09-23T10:14:47.000Z</time>
      </trkpt>
      <trkpt lon="7.943320088088512" lat="48.20092996582389">
        <ele>514.4000244140625</ele>
        <time>2013-09-23T10:14:53.000Z</time>
      </trkpt>
      <trkpt lon="7.94357405975461" lat="48.200933150947094">
        <ele>512.5999755859375</ele>
        <time>2013-09-23T10:14:56.000Z</time>
      </trkpt>
      <trkpt lon="7.943896260112524" lat="48.201053850352764">
        <ele>508.79998779296875</ele>
        <time>2013-09-23T10:15:00.000Z</time>
      </trkpt>
      <trkpt lon="7.944095833227038" lat="48.20122919976711">
        <ele>506.0</ele>
        <time>2013-09-23T10:15:04.000Z</time>
      </trkpt>
      <trkpt lon="7.944386266171932" lat="48.20166296325624">
        <ele>504.79998779296875</ele>
        <time>2013-09-23T10:15:13.000Z</time>
      </trkpt>
      <trkpt lon="7.944501433521509" lat="48.201960353180766">
        <ele>507.20001220703125</ele>
        <time>2013-09-23T10:15:19.000Z</time>
      </trkpt>
      <trkpt lon="7.9445157665759325" lat="48.20200729183853">
        <ele>507.6000061035156</ele>
        <time>2013-09-23T10:15:20.000Z</time>
      </trkpt>
      <trkpt lon="7.9445157665759325" lat="48.20200729183853">
        <ele>507.6000061035156</ele>
        <time>2013-09-23T10:15:20.000Z</time>
      </trkpt>
      <trkpt lon="7.944552395492792" lat="48.20210125297308">
        <ele>508.3999938964844</ele>
        <time>2013-09-23T10:15:22.000Z</time>
      </trkpt>
      <trkpt lon="7.94464853592217" lat="48.202264280989766">
        <ele>510.0</ele>
        <time>2013-09-23T10:15:25.000Z</time>
      </trkpt>
      <trkpt lon="7.944736965000629" lat="48.20261925458908">
        <ele>510.79998779296875</ele>
        <time>2013-09-23T10:15:32.000Z</time>
      </trkpt>
      <trkpt lon="7.944782562553883" lat="48.20284397341311">
        <ele>509.6000061035156</ele>
        <time>2013-09-23T10:15:37.000Z</time>
      </trkpt>
      <trkpt lon="7.944807289168239" lat="48.20301446132362">
        <ele>508.3999938964844</ele>
        <time>2013-09-23T10:15:40.000Z</time>
      </trkpt>
      <trkpt lon="7.94483033940196" lat="48.203135496005416">
        <ele>507.6000061035156</ele>
        <time>2013-09-23T10:15:42.000Z</time>
      </trkpt>
      <trkpt lon="7.944904435425997" lat="48.203466748818755">
        <ele>506.3999938964844</ele>
        <time>2013-09-23T10:15:48.000Z</time>
      </trkpt>
      <trkpt lon="7.944985991343856" lat="48.203967651352286">
        <ele>506.79998779296875</ele>
        <time>2013-09-23T10:15:57.000Z</time>
      </trkpt>
      <trkpt lon="7.945002252236009" lat="48.20423059165478">
        <ele>507.0</ele>
        <time>2013-09-23T10:16:02.000Z</time>
      </trkpt>
      <trkpt lon="7.944835284724832" lat="48.20447266101837">
        <ele>505.79998779296875</ele>
        <time>2013-09-23T10:16:07.000Z</time>
      </trkpt>
      <trkpt lon="7.944556167349219" lat="48.20457559078932">
        <ele>504.0</ele>
        <time>2013-09-23T10:16:11.000Z</time>
      </trkpt>
      <trkpt lon="7.9439888801425695" lat="48.20466075092554">
        <ele>501.0</ele>
        <time>2013-09-23T10:16:18.000Z</time>
      </trkpt>
      <trkpt lon="7.943492084741592" lat="48.20480676367879">
        <ele>500.20001220703125</ele>
        <time>2013-09-23T10:16:24.000Z</time>
      </trkpt>
      <trkpt lon="7.943337941542268" lat="48.20486937649548">
        <ele>500.20001220703125</ele>
        <time>2013-09-23T10:16:26.000Z</time>
      </trkpt>
      <trkpt lon="7.943004257977009" lat="48.20513089187443">
        <ele>497.6000061035156</ele>
        <time>2013-09-23T10:16:32.000Z</time>
      </trkpt>
      <trkpt lon="7.942772246897221" lat="48.20558066479862">
        <ele>494.6000061035156</ele>
        <time>2013-09-23T10:16:40.000Z</time>
      </trkpt>
      <trkpt lon="7.942485753446817" lat="48.20601459592581">
        <ele>493.0</ele>
        <time>2013-09-23T10:16:47.000Z</time>
      </trkpt>
      <trkpt lon="7.942011756822467" lat="48.20629555732012">
        <ele>497.6000061035156</ele>
        <time>2013-09-23T10:16:53.000Z</time>
      </trkpt>
      <trkpt lon="7.941605653613806" lat="48.206396559253335">
        <ele>503.20001220703125</ele>
        <time>2013-09-23T10:16:57.000Z</time>
      </trkpt>
      <trkpt lon="7.941319495439529" lat="48.20640024729073">
        <ele>505.79998779296875</ele>
        <time>2013-09-23T10:17:00.000Z</time>
      </trkpt>
      <trkpt lon="7.940550036728382" lat="48.206346267834306">
        <ele>506.6000061035156</ele>
        <time>2013-09-23T10:17:08.000Z</time>
      </trkpt>
      <trkpt lon="7.94028215110302" lat="48.206338891759515">
        <ele>505.20001220703125</ele>
        <time>2013-09-23T10:17:11.000Z</time>
      </trkpt>
      <trkpt lon="7.939892392605543" lat="48.20639287121594">
        <ele>505.20001220703125</ele>
        <time>2013-09-23T10:17:15.000Z</time>
      </trkpt>
      <trkpt lon="7.939470363780856" lat="48.206558246165514">
        <ele>507.79998779296875</ele>
        <time>2013-09-23T10:17:20.000Z</time>
      </trkpt>
      <trkpt lon="7.939048251137137" lat="48.206707863137126">
        <ele>509.3999938964844</ele>
        <time>2013-09-23T10:17:25.000Z</time>
      </trkpt>
      <trkpt lon="7.938509294763207" lat="48.206897461786866">
        <ele>510.0</ele>
        <time>2013-09-23T10:17:31.000Z</time>
      </trkpt>
      <trkpt lon="7.938082655891776" lat="48.20718395523727">
        <ele>509.79998779296875</ele>
        <time>2013-09-23T10:17:36.000Z</time>
      </trkpt>
      <trkpt lon="7.937821978703141" lat="48.207558961585164">
        <ele>511.0</ele>
        <time>2013-09-23T10:17:41.000Z</time>
      </trkpt>
      <trkpt lon="7.937732795253396" lat="48.207713440060616">
        <ele>509.20001220703125</ele>
        <time>2013-09-23T10:17:43.000Z</time>
      </trkpt>
      <trkpt lon="7.937640594318509" lat="48.20820906199515">
        <ele>505.79998779296875</ele>
        <time>2013-09-23T10:17:49.000Z</time>
      </trkpt>
      <trkpt lon="7.9376195557415485" lat="48.208714574575424">
        <ele>502.0</ele>
        <time>2013-09-23T10:17:55.000Z</time>
      </trkpt>
      <trkpt lon="7.937625255435705" lat="48.20898556150496">
        <ele>500.20001220703125</ele>
        <time>2013-09-23T10:17:58.000Z</time>
      </trkpt>
      <trkpt lon="7.937599187716842" lat="48.20951605215669">
        <ele>494.20001220703125</ele>
        <time>2013-09-23T10:18:04.000Z</time>
      </trkpt>
      <trkpt lon="7.937569180503488" lat="48.20968377403915">
        <ele>492.0</ele>
        <time>2013-09-23T10:18:06.000Z</time>
      </trkpt>
      <trkpt lon="7.937328033149242" lat="48.210059283301234">
        <ele>488.0</ele>
        <time>2013-09-23T10:18:11.000Z</time>
      </trkpt>
      <trkpt lon="7.937055034562945" lat="48.21045926772058">
        <ele>487.3999938964844</ele>
        <time>2013-09-23T10:18:17.000Z</time>
      </trkpt>
      <trkpt lon="7.93672394938767" lat="48.21099285967648">
        <ele>490.0</ele>
        <time>2013-09-23T10:18:25.000Z</time>
      </trkpt>
      <trkpt lon="7.93664968572557" lat="48.21121338754892">
        <ele>490.6000061035156</ele>
        <time>2013-09-23T10:18:28.000Z</time>
      </trkpt>
      <trkpt lon="7.936647841706872" lat="48.2114392798394">
        <ele>490.3999938964844</ele>
        <time>2013-09-23T10:18:31.000Z</time>
      </trkpt>
      <trkpt lon="7.936602579429746" lat="48.211813950911164">
        <ele>491.3999938964844</ele>
        <time>2013-09-23T10:18:36.000Z</time>
      </trkpt>
      <trkpt lon="7.936591682955623" lat="48.21220127865672">
        <ele>493.20001220703125</ele>
        <time>2013-09-23T10:18:41.000Z</time>
      </trkpt>
      <trkpt lon="7.93663015589118" lat="48.21274367161095">
        <ele>494.79998779296875</ele>
        <time>2013-09-23T10:18:48.000Z</time>
      </trkpt>
      <trkpt lon="7.936635939404368" lat="48.21282036602497">
        <ele>495.0</ele>
        <time>2013-09-23T10:18:49.000Z</time>
      </trkpt>
      <trkpt lon="7.936670556664467" lat="48.213278856128454">
        <ele>495.79998779296875</ele>
        <time>2013-09-23T10:18:55.000Z</time>
      </trkpt>
      <trkpt lon="7.936699641868472" lat="48.21367339231074">
        <ele>495.20001220703125</ele>
        <time>2013-09-23T10:19:00.000Z</time>
      </trkpt>
      <trkpt lon="7.936766864731908" lat="48.2140707783401">
        <ele>493.79998779296875</ele>
        <time>2013-09-23T10:19:05.000Z</time>
      </trkpt>
      <trkpt lon="7.936905333772302" lat="48.21460629813373">
        <ele>496.20001220703125</ele>
        <time>2013-09-23T10:19:12.000Z</time>
      </trkpt>
      <trkpt lon="7.9370679426938295" lat="48.21497024036944">
        <ele>497.79998779296875</ele>
        <time>2013-09-23T10:19:17.000Z</time>
      </trkpt>
      <trkpt lon="7.937203645706177" lat="48.21524005383253">
        <ele>497.20001220703125</ele>
        <time>2013-09-23T10:19:21.000Z</time>
      </trkpt>
      <trkpt lon="7.937322165817022" lat="48.21544826030731">
        <ele>497.0</ele>
        <time>2013-09-23T10:19:24.000Z</time>
      </trkpt>
      <trkpt lon="7.937508160248399" lat="48.2158927526325">
        <ele>497.6000061035156</ele>
        <time>2013-09-23T10:19:30.000Z</time>
      </trkpt>
      <trkpt lon="7.937578065320849" lat="48.216046057641506">
        <ele>496.20001220703125</ele>
        <time>2013-09-23T10:19:32.000Z</time>
      </trkpt>
      <trkpt lon="7.937709074467421" lat="48.21622375398874">
        <ele>494.20001220703125</ele>
        <time>2013-09-23T10:19:35.000Z</time>
      </trkpt>
      <trkpt lon="7.937922477722168" lat="48.21657596156001">
        <ele>493.0</ele>
        <time>2013-09-23T10:19:40.000Z</time>
      </trkpt>
      <trkpt lon="7.9381246492266655" lat="48.21688525378704">
        <ele>491.20001220703125</ele>
        <time>2013-09-23T10:19:44.000Z</time>
      </trkpt>
      <trkpt lon="7.9382512997835875" lat="48.21711575612426">
        <ele>490.3999938964844</ele>
        <time>2013-09-23T10:19:47.000Z</time>
      </trkpt>
      <trkpt lon="7.938191285356879" lat="48.21739185601473">
        <ele>489.6000061035156</ele>
        <time>2013-09-23T10:19:51.000Z</time>
      </trkpt>
      <trkpt lon="7.937984336167574" lat="48.21745455265045">
        <ele>488.3999938964844</ele>
        <time>2013-09-23T10:19:53.000Z</time>
      </trkpt>
      <trkpt lon="7.9375965893268585" lat="48.21744558401406">
        <ele>487.0</ele>
        <time>2013-09-23T10:19:56.000Z</time>
      </trkpt>
      <trkpt lon="7.937341863289475" lat="48.21740644052625">
        <ele>486.6000061035156</ele>
        <time>2013-09-23T10:19:58.000Z</time>
      </trkpt>
      <trkpt lon="7.936580870300531" lat="48.2172379642725">
        <ele>485.79998779296875</ele>
        <time>2013-09-23T10:20:04.000Z</time>
      </trkpt>
      <trkpt lon="7.936194464564323" lat="48.217149367555976">
        <ele>484.3999938964844</ele>
        <time>2013-09-23T10:20:07.000Z</time>
      </trkpt>
      <trkpt lon="7.935406565666199" lat="48.21696194820106">
        <ele>481.3999938964844</ele>
        <time>2013-09-23T10:20:13.000Z</time>
      </trkpt>
      <trkpt lon="7.934705084189773" lat="48.21683865040541">
        <ele>477.6000061035156</ele>
        <time>2013-09-23T10:20:18.000Z</time>
      </trkpt>
      <trkpt lon="7.933900253847241" lat="48.216776959598064">
        <ele>470.20001220703125</ele>
        <time>2013-09-23T10:20:23.000Z</time>
      </trkpt>
      <trkpt lon="7.9331141989678144" lat="48.21682029403746">
        <ele>461.6000061035156</ele>
        <time>2013-09-23T10:20:28.000Z</time>
      </trkpt>
      <trkpt lon="7.932803146541119" lat="48.21683504618704">
        <ele>459.6000061035156</ele>
        <time>2013-09-23T10:20:30.000Z</time>
      </trkpt>
      <trkpt lon="7.932245833799243" lat="48.21698156185448">
        <ele>457.3999938964844</ele>
        <time>2013-09-23T10:20:34.000Z</time>
      </trkpt>
      <trkpt lon="7.932023545727134" lat="48.21712765842676">
        <ele>457.0</ele>
        <time>2013-09-23T10:20:36.000Z</time>
      </trkpt>
      <trkpt lon="7.931843250989914" lat="48.21730116382241">
        <ele>456.3999938964844</ele>
        <time>2013-09-23T10:20:38.000Z</time>
      </trkpt>
      <trkpt lon="7.931740153580904" lat="48.21756837889552">
        <ele>456.3999938964844</ele>
        <time>2013-09-23T10:20:41.000Z</time>
      </trkpt>
      <trkpt lon="7.931859847158194" lat="48.217744482681155">
        <ele>457.6000061035156</ele>
        <time>2013-09-23T10:20:43.000Z</time>
      </trkpt>
      <trkpt lon="7.932123960927129" lat="48.21806224063039">
        <ele>459.0</ele>
        <time>2013-09-23T10:20:47.000Z</time>
      </trkpt>
      <trkpt lon="7.93220417574048" lat="48.21825619786978">
        <ele>460.20001220703125</ele>
        <time>2013-09-23T10:20:49.000Z</time>
      </trkpt>
      <trkpt lon="7.93239863589406" lat="48.218714855611324">
        <ele>462.79998779296875</ele>
        <time>2013-09-23T10:20:54.000Z</time>
      </trkpt>
      <trkpt lon="7.932658977806568" lat="48.21922967210412">
        <ele>463.0</ele>
        <time>2013-09-23T10:20:59.000Z</time>
      </trkpt>
      <trkpt lon="7.932809684425592" lat="48.21952756494284">
        <ele>458.3999938964844</ele>
        <time>2013-09-23T10:21:02.000Z</time>
      </trkpt>
      <trkpt lon="7.932871291413903" lat="48.219964262098074">
        <ele>454.0</ele>
        <time>2013-09-23T10:21:06.000Z</time>
      </trkpt>
      <trkpt lon="7.9327089339494705" lat="48.22046893648803">
        <ele>451.20001220703125</ele>
        <time>2013-09-23T10:21:11.000Z</time>
      </trkpt>
      <trkpt lon="7.932688985019922" lat="48.22056599892676">
        <ele>450.20001220703125</ele>
        <time>2013-09-23T10:21:12.000Z</time>
      </trkpt>
      <trkpt lon="7.932693678885698" lat="48.220766158774495">
        <ele>447.6000061035156</ele>
        <time>2013-09-23T10:21:14.000Z</time>
      </trkpt>
      <trkpt lon="7.932693678885698" lat="48.220766158774495">
        <ele>447.6000061035156</ele>
        <time>2013-09-23T10:21:14.000Z</time>
      </trkpt>
      <trkpt lon="7.932793842628598" lat="48.22095978073776">
        <ele>446.79998779296875</ele>
        <time>2013-09-23T10:21:16.000Z</time>
      </trkpt>
      <trkpt lon="7.9330352414399385" lat="48.221102859824896">
        <ele>445.79998779296875</ele>
        <time>2013-09-23T10:21:18.000Z</time>
      </trkpt>
      <trkpt lon="7.9333924781531096" lat="48.22113236412406">
        <ele>443.0</ele>
        <time>2013-09-23T10:21:20.000Z</time>
      </trkpt>
      <trkpt lon="7.933580484241247" lat="48.221117947250605">
        <ele>441.3999938964844</ele>
        <time>2013-09-23T10:21:21.000Z</time>
      </trkpt>
      <trkpt lon="7.934461757540703" lat="48.22120604105294">
        <ele>433.6000061035156</ele>
        <time>2013-09-23T10:21:26.000Z</time>
      </trkpt>
      <trkpt lon="7.935152594000101" lat="48.221323639154434">
        <ele>424.79998779296875</ele>
        <time>2013-09-23T10:21:30.000Z</time>
      </trkpt>
      <trkpt lon="7.935832953080535" lat="48.22150225751102">
        <ele>419.20001220703125</ele>
        <time>2013-09-23T10:21:34.000Z</time>
      </trkpt>
      <trkpt lon="7.9364026710391045" lat="48.22177399881184">
        <ele>417.79998779296875</ele>
        <time>2013-09-23T10:21:38.000Z</time>
      </trkpt>
      <trkpt lon="7.936751861125231" lat="48.2220352627337">
        <ele>417.0</ele>
        <time>2013-09-23T10:21:41.000Z</time>
      </trkpt>
      <trkpt lon="7.937057465314865" lat="48.22233005426824">
        <ele>414.0</ele>
        <time>2013-09-23T10:21:44.000Z</time>
      </trkpt>
      <trkpt lon="7.937205573543906" lat="48.22253365069628">
        <ele>413.0</ele>
        <time>2013-09-23T10:21:46.000Z</time>
      </trkpt>
      <trkpt lon="7.937339683994651" lat="48.22283556684852">
        <ele>411.0</ele>
        <time>2013-09-23T10:21:49.000Z</time>
      </trkpt>
      <trkpt lon="7.937386790290475" lat="48.2234338670969">
        <ele>415.6000061035156</ele>
        <time>2013-09-23T10:21:54.000Z</time>
      </trkpt>
      <trkpt lon="7.9374955873936415" lat="48.2236291654408">
        <ele>418.0</ele>
        <time>2013-09-23T10:21:56.000Z</time>
      </trkpt>
      <trkpt lon="7.937810160219669" lat="48.22368113324046">
        <ele>412.20001220703125</ele>
        <time>2013-09-23T10:21:59.000Z</time>
      </trkpt>
      <trkpt lon="7.937913592904806" lat="48.223505364730954">
        <ele>405.3999938964844</ele>
        <time>2013-09-23T10:22:02.000Z</time>
      </trkpt>
      <trkpt lon="7.937943851575255" lat="48.22343956679106">
        <ele>403.0</ele>
        <time>2013-09-23T10:22:03.000Z</time>
      </trkpt>
      <trkpt lon="7.9376996867358685" lat="48.223231276497245">
        <ele>405.0</ele>
        <time>2013-09-23T10:22:07.000Z</time>
      </trkpt>
      <trkpt lon="7.937665153294802" lat="48.22312549687922">
        <ele>404.79998779296875</ele>
        <time>2013-09-23T10:22:08.000Z</time>
      </trkpt>
      <trkpt lon="7.937539089471102" lat="48.22273666039109">
        <ele>404.6000061035156</ele>
        <time>2013-09-23T10:22:12.000Z</time>
      </trkpt>
      <trkpt lon="7.937579993158579" lat="48.22227573953569">
        <ele>397.20001220703125</ele>
        <time>2013-09-23T10:22:16.000Z</time>
      </trkpt>
      <trkpt lon="7.937439763918519" lat="48.22184323333204">
        <ele>393.79998779296875</ele>
        <time>2013-09-23T10:22:20.000Z</time>
      </trkpt>
      <trkpt lon="7.937049167230725" lat="48.22132573463023">
        <ele>394.79998779296875</ele>
        <time>2013-09-23T10:22:25.000Z</time>
      </trkpt>
      <trkpt lon="7.936532674357295" lat="48.22099607437849">
        <ele>393.79998779296875</ele>
        <time>2013-09-23T10:22:29.000Z</time>
      </trkpt>
      <trkpt lon="7.936350367963314" lat="48.22079909965396">
        <ele>392.6000061035156</ele>
        <time>2013-09-23T10:22:32.000Z</time>
      </trkpt>
      <trkpt lon="7.9358734376728535" lat="48.22048335336149">
        <ele>403.0</ele>
        <time>2013-09-23T10:22:38.000Z</time>
      </trkpt>
      <trkpt lon="7.935931775718927" lat="48.22048477828503">
        <ele>402.3999938964844</ele>
        <time>2013-09-23T10:22:40.000Z</time>
      </trkpt>
      <trkpt lon="7.936193542554975" lat="48.22066725231707">
        <ele>397.20001220703125</ele>
        <time>2013-09-23T10:22:44.000Z</time>
      </trkpt>
      <trkpt lon="7.936608949676156" lat="48.220800859853625">
        <ele>388.6000061035156</ele>
        <time>2013-09-23T10:22:47.000Z</time>
      </trkpt>
      <trkpt lon="7.937010861933231" lat="48.22105323895812">
        <ele>390.0</ele>
        <time>2013-09-23T10:22:51.000Z</time>
      </trkpt>
      <trkpt lon="7.937599690631032" lat="48.22136538103223">
        <ele>385.20001220703125</ele>
        <time>2013-09-23T10:22:56.000Z</time>
      </trkpt>
      <trkpt lon="7.938104448840022" lat="48.221591943874955">
        <ele>372.6000061035156</ele>
        <time>2013-09-23T10:23:00.000Z</time>
      </trkpt>
      <trkpt lon="7.93925897218287" lat="48.22153855115175">
        <ele>356.79998779296875</ele>
        <time>2013-09-23T10:23:04.000Z</time>
      </trkpt>
      <trkpt lon="7.940524639561772" lat="48.22172856889665">
        <ele>347.0</ele>
        <time>2013-09-23T10:23:11.000Z</time>
      </trkpt>
      <trkpt lon="7.941366853192449" lat="48.221800066530704">
        <ele>344.20001220703125</ele>
        <time>2013-09-23T10:23:16.000Z</time>
      </trkpt>
      <trkpt lon="7.941709673032165" lat="48.221791768446565">
        <ele>343.0</ele>
        <time>2013-09-23T10:23:18.000Z</time>
      </trkpt>
      <trkpt lon="7.942551048472524" lat="48.22164575569332">
        <ele>339.79998779296875</ele>
        <time>2013-09-23T10:23:23.000Z</time>
      </trkpt>
      <trkpt lon="7.943283459171653" lat="48.22148566134274">
        <ele>335.20001220703125</ele>
        <time>2013-09-23T10:23:28.000Z</time>
      </trkpt>
      <trkpt lon="7.943407595157623" lat="48.221472166478634">
        <ele>334.79998779296875</ele>
        <time>2013-09-23T10:23:29.000Z</time>
      </trkpt>
      <trkpt lon="7.943741697818041" lat="48.22157207876444">
        <ele>334.20001220703125</ele>
        <time>2013-09-23T10:23:33.000Z</time>
      </trkpt>
      <trkpt lon="7.943726945668459" lat="48.221706273034215">
        <ele>333.79998779296875</ele>
        <time>2013-09-23T10:23:35.000Z</time>
      </trkpt>
      <trkpt lon="7.943696938455105" lat="48.22177525609732">
        <ele>333.6000061035156</ele>
        <time>2013-09-23T10:23:36.000Z</time>
      </trkpt>
      <trkpt lon="7.943440955132246" lat="48.22234723716974">
        <ele>330.3999938964844</ele>
        <time>2013-09-23T10:23:44.000Z</time>
      </trkpt>
      <trkpt lon="7.9433115385472775" lat="48.222894156351686">
        <ele>327.0</ele>
        <time>2013-09-23T10:23:51.000Z</time>
      </trkpt>
      <trkpt lon="7.9432714730501175" lat="48.223626650869846">
        <ele>323.79998779296875</ele>
        <time>2013-09-23T10:24:00.000Z</time>
      </trkpt>
      <trkpt lon="7.943371133878827" lat="48.22438437491655">
        <ele>322.0</ele>
        <time>2013-09-23T10:24:09.000Z</time>
      </trkpt>
      <trkpt lon="7.943528043106198" lat="48.22514293715358">
        <ele>323.0</ele>
        <time>2013-09-23T10:24:18.000Z</time>
      </trkpt>
      <trkpt lon="7.9436213336884975" lat="48.22569765150547">
        <ele>323.3999938964844</ele>
        <time>2013-09-23T10:24:25.000Z</time>
      </trkpt>
      <trkpt lon="7.943595852702856" lat="48.22634465061128">
        <ele>318.79998779296875</ele>
        <time>2013-09-23T10:24:33.000Z</time>
      </trkpt>
      <trkpt lon="7.943426454439759" lat="48.22708234190941">
        <ele>314.20001220703125</ele>
        <time>2013-09-23T10:24:43.000Z</time>
      </trkpt>
      <trkpt lon="7.943263174965978" lat="48.227676786482334">
        <ele>314.3999938964844</ele>
        <time>2013-09-23T10:24:51.000Z</time>
      </trkpt>
      <trkpt lon="7.9431929346174" lat="48.228271985426545">
        <ele>315.3999938964844</ele>
        <time>2013-09-23T10:24:59.000Z</time>
      </trkpt>
      <trkpt lon="7.943301647901535" lat="48.22867398150265">
        <ele>315.6000061035156</ele>
        <time>2013-09-23T10:25:05.000Z</time>
      </trkpt>
      <trkpt lon="7.943533156067133" lat="48.22916599921882">
        <ele>314.79998779296875</ele>
        <time>2013-09-23T10:25:13.000Z</time>
      </trkpt>
      <trkpt lon="7.943954095244408" lat="48.22987016290426">
        <ele>312.6000061035156</ele>
        <time>2013-09-23T10:25:25.000Z</time>
      </trkpt>
      <trkpt lon="7.944364054128528" lat="48.23044465854764">
        <ele>312.20001220703125</ele>
        <time>2013-09-23T10:25:35.000Z</time>
      </trkpt>
      <trkpt lon="7.944779880344868" lat="48.23097204789519">
        <ele>313.20001220703125</ele>
        <time>2013-09-23T10:25:44.000Z</time>
      </trkpt>
      <trkpt lon="7.945363763719797" lat="48.231691466644406">
        <ele>311.0</ele>
        <time>2013-09-23T10:25:56.000Z</time>
      </trkpt>
      <trkpt lon="7.945747235789895" lat="48.23218943551183">
        <ele>309.0</ele>
        <time>2013-09-23T10:26:04.000Z</time>
      </trkpt>
      <trkpt lon="7.94618577696383" lat="48.2328989636153">
        <ele>307.20001220703125</ele>
        <time>2013-09-23T10:26:14.000Z</time>
      </trkpt>
      <trkpt lon="7.946446286514401" lat="48.23331395164132">
        <ele>303.3999938964844</ele>
        <time>2013-09-23T10:26:20.000Z</time>
      </trkpt>
      <trkpt lon="7.9466774594038725" lat="48.23389045894146">
        <ele>303.20001220703125</ele>
        <time>2013-09-23T10:26:28.000Z</time>
      </trkpt>
      <trkpt lon="7.9466774594038725" lat="48.23389045894146">
        <ele>303.20001220703125</ele>
        <time>2013-09-23T10:26:28.000Z</time>
      </trkpt>
      <trkpt lon="7.946696653962135" lat="48.233964554965496">
        <ele>303.79998779296875</ele>
        <time>2013-09-23T10:26:29.000Z</time>
      </trkpt>
      <trkpt lon="7.946820789948106" lat="48.23456386104226">
        <ele>306.79998779296875</ele>
        <time>2013-09-23T10:26:37.000Z</time>
      </trkpt>
      <trkpt lon="7.946924138814211" lat="48.235077587887645">
        <ele>307.0</ele>
        <time>2013-09-23T10:26:44.000Z</time>
      </trkpt>
      <trkpt lon="7.947110468521714" lat="48.23580253869295">
        <ele>302.6000061035156</ele>
        <time>2013-09-23T10:26:54.000Z</time>
      </trkpt>
      <trkpt lon="7.94737609103322" lat="48.23642564937472">
        <ele>301.0</ele>
        <time>2013-09-23T10:27:03.000Z</time>
      </trkpt>
      <trkpt lon="7.947721676900983" lat="48.23700685054064">
        <ele>303.20001220703125</ele>
        <time>2013-09-23T10:27:11.000Z</time>
      </trkpt>
      <trkpt lon="7.9479361698031425" lat="48.23726484552026">
        <ele>304.79998779296875</ele>
        <time>2013-09-23T10:27:15.000Z</time>
      </trkpt>
      <trkpt lon="7.948255352675915" lat="48.23770858347416">
        <ele>303.6000061035156</ele>
        <time>2013-09-23T10:27:21.000Z</time>
      </trkpt>
      <trkpt lon="7.948558945208788" lat="48.23813823983073">
        <ele>301.79998779296875</ele>
        <time>2013-09-23T10:27:27.000Z</time>
      </trkpt>
      <trkpt lon="7.94877109117806" lat="48.238503355532885">
        <ele>298.79998779296875</ele>
        <time>2013-09-23T10:27:32.000Z</time>
      </trkpt>
      <trkpt lon="7.9489893559366465" lat="48.239049185067415">
        <ele>292.3999938964844</ele>
        <time>2013-09-23T10:27:39.000Z</time>
      </trkpt>
      <trkpt lon="7.94913025572896" lat="48.23978276923299">
        <ele>287.20001220703125</ele>
        <time>2013-09-23T10:27:48.000Z</time>
      </trkpt>
      <trkpt lon="7.94930568896234" lat="48.240518448874354">
        <ele>286.0</ele>
        <time>2013-09-23T10:27:57.000Z</time>
      </trkpt>
      <trkpt lon="7.949548596516252" lat="48.24094056151807">
        <ele>286.20001220703125</ele>
        <time>2013-09-23T10:28:03.000Z</time>
      </trkpt>
      <trkpt lon="7.949878256767988" lat="48.24134205467999">
        <ele>286.0</ele>
        <time>2013-09-23T10:28:09.000Z</time>
      </trkpt>
      <trkpt lon="7.950084367766976" lat="48.24161765165627">
        <ele>284.79998779296875</ele>
        <time>2013-09-23T10:28:13.000Z</time>
      </trkpt>
      <trkpt lon="7.950400365516543" lat="48.24219357222319">
        <ele>286.20001220703125</ele>
        <time>2013-09-23T10:28:21.000Z</time>
      </trkpt>
      <trkpt lon="7.950708149001002" lat="48.24263948947191">
        <ele>285.20001220703125</ele>
        <time>2013-09-23T10:28:27.000Z</time>
      </trkpt>
      <trkpt lon="7.951221037656069" lat="48.24313988909125">
        <ele>285.0</ele>
        <time>2013-09-23T10:28:34.000Z</time>
      </trkpt>
      <trkpt lon="7.951736776158214" lat="48.243623273447156">
        <ele>283.3999938964844</ele>
        <time>2013-09-23T10:28:41.000Z</time>
      </trkpt>
      <trkpt lon="7.952047660946846" lat="48.24401043355465">
        <ele>283.0</ele>
        <time>2013-09-23T10:28:47.000Z</time>
      </trkpt>
      <trkpt lon="7.9524521715939045" lat="48.24450387619436">
        <ele>280.3999938964844</ele>
        <time>2013-09-23T10:28:55.000Z</time>
      </trkpt>
      <trkpt lon="7.952800188213587" lat="48.24479456059635">
        <ele>280.20001220703125</ele>
        <time>2013-09-23T10:29:00.000Z</time>
      </trkpt>
      <trkpt lon="7.953345850110054" lat="48.245160933583975">
        <ele>280.3999938964844</ele>
        <time>2013-09-23T10:29:07.000Z</time>
      </trkpt>
      <trkpt lon="7.9539373610168695" lat="48.245579190552235">
        <ele>282.79998779296875</ele>
        <time>2013-09-23T10:29:15.000Z</time>
      </trkpt>
      <trkpt lon="7.9540433920919895" lat="48.24569519609213">
        <ele>282.6000061035156</ele>
        <time>2013-09-23T10:29:17.000Z</time>
      </trkpt>
      <trkpt lon="7.95420465990901" lat="48.245997447520494">
        <ele>281.6000061035156</ele>
        <time>2013-09-23T10:29:23.000Z</time>
      </trkpt>
      <trkpt lon="7.954252436757088" lat="48.246456775814295">
        <ele>279.79998779296875</ele>
        <time>2013-09-23T10:29:30.000Z</time>
      </trkpt>
      <trkpt lon="7.954126792028546" lat="48.24695583432913">
        <ele>278.6000061035156</ele>
        <time>2013-09-23T10:29:37.000Z</time>
      </trkpt>
      <trkpt lon="7.954013468697667" lat="48.247161861509085">
        <ele>278.79998779296875</ele>
        <time>2013-09-23T10:29:40.000Z</time>
      </trkpt>
      <trkpt lon="7.953982036560774" lat="48.247648598626256">
        <ele>279.20001220703125</ele>
        <time>2013-09-23T10:29:47.000Z</time>
      </trkpt>
      <trkpt lon="7.953881537541747" lat="48.248083451762795">
        <ele>278.6000061035156</ele>
        <time>2013-09-23T10:29:54.000Z</time>
      </trkpt>
      <trkpt lon="7.9538840521126986" lat="48.24856884777546">
        <ele>278.0</ele>
        <time>2013-09-23T10:30:01.000Z</time>
      </trkpt>
      <trkpt lon="7.954053869470954" lat="48.2490158546716">
        <ele>276.20001220703125</ele>
        <time>2013-09-23T10:30:07.000Z</time>
      </trkpt>
      <trkpt lon="7.954376237466931" lat="48.249452551826835">
        <ele>274.6000061035156</ele>
        <time>2013-09-23T10:30:13.000Z</time>
      </trkpt>
      <trkpt lon="7.954835565760732" lat="48.249986143782735">
        <ele>275.20001220703125</ele>
        <time>2013-09-23T10:30:21.000Z</time>
      </trkpt>
      <trkpt lon="7.955062799155712" lat="48.25027364306152">
        <ele>276.6000061035156</ele>
        <time>2013-09-23T10:30:26.000Z</time>
      </trkpt>
      <trkpt lon="7.955206464976072" lat="48.250599363818765">
        <ele>278.20001220703125</ele>
        <time>2013-09-23T10:30:31.000Z</time>
      </trkpt>
      <trkpt lon="7.955305455252528" lat="48.250839756801724">
        <ele>279.0</ele>
        <time>2013-09-23T10:30:35.000Z</time>
      </trkpt>
      <trkpt lon="7.955401595681906" lat="48.25141618028283">
        <ele>278.0</ele>
        <time>2013-09-23T10:30:43.000Z</time>
      </trkpt>
      <trkpt lon="7.955387765541673" lat="48.25203359127045">
        <ele>275.20001220703125</ele>
        <time>2013-09-23T10:30:51.000Z</time>
      </trkpt>
      <trkpt lon="7.955385586246848" lat="48.2526024710387">
        <ele>272.6000061035156</ele>
        <time>2013-09-23T10:30:59.000Z</time>
      </trkpt>
      <trkpt lon="7.955494550988078" lat="48.253123154863715">
        <ele>272.0</ele>
        <time>2013-09-23T10:31:07.000Z</time>
      </trkpt>
      <trkpt lon="7.955593876540661" lat="48.253691950812936">
        <ele>271.0</ele>
        <time>2013-09-23T10:31:16.000Z</time>
      </trkpt>
      <trkpt lon="7.955592535436153" lat="48.254174161702394">
        <ele>269.79998779296875</ele>
        <time>2013-09-23T10:31:23.000Z</time>
      </trkpt>
      <trkpt lon="7.955510392785072" lat="48.25458839535713">
        <ele>268.6000061035156</ele>
        <time>2013-09-23T10:31:29.000Z</time>
      </trkpt>
      <trkpt lon="7.955305790528655" lat="48.25507806614041">
        <ele>266.3999938964844</ele>
        <time>2013-09-23T10:31:36.000Z</time>
      </trkpt>
      <trkpt lon="7.955019967630506" lat="48.255659099668264">
        <ele>263.20001220703125</ele>
        <time>2013-09-23T10:31:44.000Z</time>
      </trkpt>
      <trkpt lon="7.954881750047207" lat="48.256224542856216">
        <ele>262.79998779296875</ele>
        <time>2013-09-23T10:31:51.000Z</time>
      </trkpt>
      <trkpt lon="7.9549086559563875" lat="48.25672745704651">
        <ele>262.6000061035156</ele>
        <time>2013-09-23T10:31:57.000Z</time>
      </trkpt>
      <trkpt lon="7.955094650387764" lat="48.25720698572695">
        <ele>261.20001220703125</ele>
        <time>2013-09-23T10:32:03.000Z</time>
      </trkpt>
      <trkpt lon="7.955391872674227" lat="48.257920453324914">
        <ele>259.3999938964844</ele>
        <time>2013-09-23T10:32:12.000Z</time>
      </trkpt>
      <trkpt lon="7.955595972016454" lat="48.258431078866124">
        <ele>257.20001220703125</ele>
        <time>2013-09-23T10:32:19.000Z</time>
      </trkpt>
      <trkpt lon="7.95586796477437" lat="48.25905787758529">
        <ele>256.0</ele>
        <time>2013-09-23T10:32:28.000Z</time>
      </trkpt>
      <trkpt lon="7.955931834876537" lat="48.259194334968925">
        <ele>256.0</ele>
        <time>2013-09-23T10:32:30.000Z</time>
      </trkpt>
      <trkpt lon="7.955931834876537" lat="48.259194334968925">
        <ele>256.0</ele>
        <time>2013-09-23T10:32:30.000Z</time>
      </trkpt>
      <trkpt lon="7.956132832914591" lat="48.25968308374286">
        <ele>255.0</ele>
        <time>2013-09-23T10:32:37.000Z</time>
      </trkpt>
      <trkpt lon="7.956393342465162" lat="48.2604163326323">
        <ele>253.0</ele>
        <time>2013-09-23T10:32:47.000Z</time>
      </trkpt>
      <trkpt lon="7.9564498364925385" lat="48.260945063084364">
        <ele>252.39999389648438</ele>
        <time>2013-09-23T10:32:54.000Z</time>
      </trkpt>
      <trkpt lon="7.956369034945965" lat="48.261547135189176">
        <ele>252.60000610351562</ele>
        <time>2013-09-23T10:33:02.000Z</time>
      </trkpt>
      <trkpt lon="7.956332238391042" lat="48.2621656358242">
        <ele>251.60000610351562</ele>
        <time>2013-09-23T10:33:10.000Z</time>
      </trkpt>
      <trkpt lon="7.95645235106349" lat="48.26276008039713">
        <ele>250.1999969482422</ele>
        <time>2013-09-23T10:33:18.000Z</time>
      </trkpt>
      <trkpt lon="7.956648487597704" lat="48.26345577836037">
        <ele>249.0</ele>
        <time>2013-09-23T10:33:28.000Z</time>
      </trkpt>
      <trkpt lon="7.956741359084845" lat="48.264067489653826">
        <ele>249.0</ele>
        <time>2013-09-23T10:33:37.000Z</time>
      </trkpt>
      <trkpt lon="7.956657875329256" lat="48.2645626924932">
        <ele>248.0</ele>
        <time>2013-09-23T10:33:44.000Z</time>
      </trkpt>
      <trkpt lon="7.9563764948397875" lat="48.26512495055795">
        <ele>247.39999389648438</ele>
        <time>2013-09-23T10:33:52.000Z</time>
      </trkpt>
      <trkpt lon="7.955955471843481" lat="48.265684358775616">
        <ele>247.8000030517578</ele>
        <time>2013-09-23T10:34:00.000Z</time>
      </trkpt>
      <trkpt lon="7.955752378329635" lat="48.26611996628344">
        <ele>247.1999969482422</ele>
        <time>2013-09-23T10:34:06.000Z</time>
      </trkpt>
      <trkpt lon="7.955745756626129" lat="48.26650653965771">
        <ele>246.1999969482422</ele>
        <time>2013-09-23T10:34:11.000Z</time>
      </trkpt>
      <trkpt lon="7.955754138529301" lat="48.26658859848976">
        <ele>246.0</ele>
        <time>2013-09-23T10:34:12.000Z</time>
      </trkpt>
      <trkpt lon="7.955866372212768" lat="48.266883892938495">
        <ele>246.0</ele>
        <time>2013-09-23T10:34:16.000Z</time>
      </trkpt>
      <trkpt lon="7.956279935315251" lat="48.267388651147485">
        <ele>247.1999969482422</ele>
        <time>2013-09-23T10:34:24.000Z</time>
      </trkpt>
      <trkpt lon="7.956847054883838" lat="48.26792215928435">
        <ele>247.8000030517578</ele>
        <time>2013-09-23T10:34:33.000Z</time>
      </trkpt>
      <trkpt lon="7.956900279968977" lat="48.26798569411039">
        <ele>248.0</ele>
        <time>2013-09-23T10:34:34.000Z</time>
      </trkpt>
      <trkpt lon="7.95700253918767" lat="48.26833304017782">
        <ele>248.0</ele>
        <time>2013-09-23T10:34:39.000Z</time>
      </trkpt>
      <trkpt lon="7.956984853371978" lat="48.26840336434543">
        <ele>248.0</ele>
        <time>2013-09-23T10:34:40.000Z</time>
      </trkpt>
      <trkpt lon="7.956868764013052" lat="48.26881365850568">
        <ele>248.1999969482422</ele>
        <time>2013-09-23T10:34:46.000Z</time>
      </trkpt>
      <trkpt lon="7.956853760406375" lat="48.269122866913676">
        <ele>248.8000030517578</ele>
        <time>2013-09-23T10:34:51.000Z</time>
      </trkpt>
      <trkpt lon="7.956784861162305" lat="48.269460992887616">
        <ele>248.60000610351562</ele>
        <time>2013-09-23T10:34:56.000Z</time>
      </trkpt>
      <trkpt lon="7.9567366652190685" lat="48.26966743916273">
        <ele>248.0</ele>
        <time>2013-09-23T10:34:59.000Z</time>
      </trkpt>
      <trkpt lon="7.956503480672836" lat="48.2700574491173">
        <ele>246.39999389648438</ele>
        <time>2013-09-23T10:35:05.000Z</time>
      </trkpt>
      <trkpt lon="7.956113386899233" lat="48.27043538913131">
        <ele>244.8000030517578</ele>
        <time>2013-09-23T10:35:12.000Z</time>
      </trkpt>
      <trkpt lon="7.955718599259853" lat="48.270792961120605">
        <ele>244.0</ele>
        <time>2013-09-23T10:35:18.000Z</time>
      </trkpt>
      <trkpt lon="7.955453563481569" lat="48.27122806571424">
        <ele>243.1999969482422</ele>
        <time>2013-09-23T10:35:24.000Z</time>
      </trkpt>
      <trkpt lon="7.955310735851526" lat="48.271732069551945">
        <ele>241.60000610351562</ele>
        <time>2013-09-23T10:35:30.000Z</time>
      </trkpt>
      <trkpt lon="7.9552938882261515" lat="48.27224629931152">
        <ele>239.1999969482422</ele>
        <time>2013-09-23T10:35:36.000Z</time>
      </trkpt>
      <trkpt lon="7.955339066684246" lat="48.27305716462433">
        <ele>238.1999969482422</ele>
        <time>2013-09-23T10:35:46.000Z</time>
      </trkpt>
      <trkpt lon="7.955468650907278" lat="48.27367918565869">
        <ele>238.60000610351562</ele>
        <time>2013-09-23T10:35:54.000Z</time>
      </trkpt>
      <trkpt lon="7.9557933658361435" lat="48.27434403821826">
        <ele>238.39999389648438</ele>
        <time>2013-09-23T10:36:03.000Z</time>
      </trkpt>
      <trkpt lon="7.95596226118505" lat="48.27489037066698">
        <ele>237.0</ele>
        <time>2013-09-23T10:36:10.000Z</time>
      </trkpt>
      <trkpt lon="7.955938037484884" lat="48.27537015080452">
        <ele>236.39999389648438</ele>
        <time>2013-09-23T10:36:16.000Z</time>
      </trkpt>
      <trkpt lon="7.955872658640146" lat="48.275891756638885">
        <ele>235.8000030517578</ele>
        <time>2013-09-23T10:36:23.000Z</time>
      </trkpt>
      <trkpt lon="7.955931667238474" lat="48.276472790166736">
        <ele>233.8000030517578</ele>
        <time>2013-09-23T10:36:31.000Z</time>
      </trkpt>
      <trkpt lon="7.955898893997073" lat="48.27710637822747">
        <ele>232.60000610351562</ele>
        <time>2013-09-23T10:36:40.000Z</time>
      </trkpt>
      <trkpt lon="7.955794958397746" lat="48.27763795852661">
        <ele>232.0</ele>
        <time>2013-09-23T10:36:48.000Z</time>
      </trkpt>
      <trkpt lon="7.955572083592415" lat="48.27825486660004">
        <ele>232.0</ele>
        <time>2013-09-23T10:36:57.000Z</time>
      </trkpt>
      <trkpt lon="7.955231862142682" lat="48.27903597615659">
        <ele>232.60000610351562</ele>
        <time>2013-09-23T10:37:08.000Z</time>
      </trkpt>
      <trkpt lon="7.954985853284597" lat="48.27971013262868">
        <ele>232.1999969482422</ele>
        <time>2013-09-23T10:37:17.000Z</time>
      </trkpt>
      <trkpt lon="7.95487504452467" lat="48.28017205931246">
        <ele>231.60000610351562</ele>
        <time>2013-09-23T10:37:23.000Z</time>
      </trkpt>
      <trkpt lon="7.954816035926342" lat="48.28073674812913">
        <ele>230.8000030517578</ele>
        <time>2013-09-23T10:37:30.000Z</time>
      </trkpt>
      <trkpt lon="7.95487504452467" lat="48.281277883797884">
        <ele>230.1999969482422</ele>
        <time>2013-09-23T10:37:37.000Z</time>
      </trkpt>
      <trkpt lon="7.955046454444528" lat="48.281845673918724">
        <ele>229.60000610351562</ele>
        <time>2013-09-23T10:37:45.000Z</time>
      </trkpt>
      <trkpt lon="7.955232365056872" lat="48.28247775323689">
        <ele>228.1999969482422</ele>
        <time>2013-09-23T10:37:54.000Z</time>
      </trkpt>
      <trkpt lon="7.9553174413740635" lat="48.28314654529095">
        <ele>230.1999969482422</ele>
        <time>2013-09-23T10:38:03.000Z</time>
      </trkpt>
      <trkpt lon="7.955389861017466" lat="48.283534375950694">
        <ele>230.39999389648438</ele>
        <time>2013-09-23T10:38:09.000Z</time>
      </trkpt>
      <trkpt lon="7.955566551536322" lat="48.28398079611361">
        <ele>230.1999969482422</ele>
        <time>2013-09-23T10:38:16.000Z</time>
      </trkpt>
      <trkpt lon="7.955694459378719" lat="48.28456115908921">
        <ele>229.8000030517578</ele>
        <time>2013-09-23T10:38:25.000Z</time>
      </trkpt>
      <trkpt lon="7.955605862662196" lat="48.28499525785446">
        <ele>228.8000030517578</ele>
        <time>2013-09-23T10:38:32.000Z</time>
      </trkpt>
      <trkpt lon="7.955492036417127" lat="48.28528636135161">
        <ele>228.39999389648438</ele>
        <time>2013-09-23T10:38:37.000Z</time>
      </trkpt>
      <trkpt lon="7.955492036417127" lat="48.28528636135161">
        <ele>228.39999389648438</ele>
        <time>2013-09-23T10:38:37.000Z</time>
      </trkpt>
      <trkpt lon="7.955434788018465" lat="48.2853991817683">
        <ele>228.1999969482422</ele>
        <time>2013-09-23T10:38:39.000Z</time>
      </trkpt>
      <trkpt lon="7.955175451934338" lat="48.28578634187579">
        <ele>227.39999389648438</ele>
        <time>2013-09-23T10:38:46.000Z</time>
      </trkpt>
      <trkpt lon="7.954723667353392" lat="48.28630275093019">
        <ele>226.39999389648438</ele>
        <time>2013-09-23T10:38:55.000Z</time>
      </trkpt>
      <trkpt lon="7.954175658524036" lat="48.286936674267054">
        <ele>226.1999969482422</ele>
        <time>2013-09-23T10:39:05.000Z</time>
      </trkpt>
      <trkpt lon="7.953733680769801" lat="48.2875491399318">
        <ele>226.0</ele>
        <time>2013-09-23T10:39:14.000Z</time>
      </trkpt>
      <trkpt lon="7.953313663601875" lat="48.28816973604262">
        <ele>225.60000610351562</ele>
        <time>2013-09-23T10:39:23.000Z</time>
      </trkpt>
      <trkpt lon="7.952779987826943" lat="48.28889108262956">
        <ele>224.60000610351562</ele>
        <time>2013-09-23T10:39:33.000Z</time>
      </trkpt>
      <trkpt lon="7.952533978968859" lat="48.289289055392146">
        <ele>224.1999969482422</ele>
        <time>2013-09-23T10:39:40.000Z</time>
      </trkpt>
      <trkpt lon="7.9521046578884125" lat="48.28984343446791">
        <ele>223.8000030517578</ele>
        <time>2013-09-23T10:39:49.000Z</time>
      </trkpt>
      <trkpt lon="7.951648095622659" lat="48.29022045247257">
        <ele>224.0</ele>
        <time>2013-09-23T10:39:55.000Z</time>
      </trkpt>
      <trkpt lon="7.951138559728861" lat="48.290524296462536">
        <ele>225.39999389648438</ele>
        <time>2013-09-23T10:40:01.000Z</time>
      </trkpt>
      <trkpt lon="7.951060272753239" lat="48.290576096624136">
        <ele>225.60000610351562</ele>
        <time>2013-09-23T10:40:02.000Z</time>
      </trkpt>
      <trkpt lon="7.950897496193647" lat="48.290788577869534">
        <ele>226.0</ele>
        <time>2013-09-23T10:40:06.000Z</time>
      </trkpt>
      <trkpt lon="7.950814682990313" lat="48.29095336608589">
        <ele>226.0</ele>
        <time>2013-09-23T10:40:08.000Z</time>
      </trkpt>
      <trkpt lon="7.95079356059432" lat="48.29145275987685">
        <ele>226.60000610351562</ele>
        <time>2013-09-23T10:40:15.000Z</time>
      </trkpt>
      <trkpt lon="7.9508002661168575" lat="48.29151118174195">
        <ele>226.60000610351562</ele>
        <time>2013-09-23T10:40:16.000Z</time>
      </trkpt>
      <trkpt lon="7.950772773474455" lat="48.29209196381271">
        <ele>227.60000610351562</ele>
        <time>2013-09-23T10:40:25.000Z</time>
      </trkpt>
      <trkpt lon="7.950719380751252" lat="48.29248356632888">
        <ele>228.1999969482422</ele>
        <time>2013-09-23T10:40:31.000Z</time>
      </trkpt>
      <trkpt lon="7.950688451528549" lat="48.29278925433755">
        <ele>228.60000610351562</ele>
        <time>2013-09-23T10:40:36.000Z</time>
      </trkpt>
      <trkpt lon="7.950521567836404" lat="48.29324715770781">
        <ele>227.8000030517578</ele>
        <time>2013-09-23T10:40:43.000Z</time>
      </trkpt>
      <trkpt lon="7.950459290295839" lat="48.29337456263602">
        <ele>227.60000610351562</ele>
        <time>2013-09-23T10:40:45.000Z</time>
      </trkpt>
      <trkpt lon="7.950106076896191" lat="48.29367815516889">
        <ele>226.0</ele>
        <time>2013-09-23T10:40:50.000Z</time>
      </trkpt>
      <trkpt lon="7.949631493538618" lat="48.293983759358525">
        <ele>224.0</ele>
        <time>2013-09-23T10:40:56.000Z</time>
      </trkpt>
      <trkpt lon="7.949354890733957" lat="48.29429087229073">
        <ele>223.1999969482422</ele>
        <time>2013-09-23T10:41:01.000Z</time>
      </trkpt>
      <trkpt lon="7.9491327702999115" lat="48.29480015672743">
        <ele>223.60000610351562</ele>
        <time>2013-09-23T10:41:08.000Z</time>
      </trkpt>
      <trkpt lon="7.94879799708724" lat="48.295420752838254">
        <ele>223.39999389648438</ele>
        <time>2013-09-23T10:41:16.000Z</time>
      </trkpt>
      <trkpt lon="7.9483941569924355" lat="48.29589248634875">
        <ele>222.1999969482422</ele>
        <time>2013-09-23T10:41:23.000Z</time>
      </trkpt>
      <trkpt lon="7.947694854810834" lat="48.29649556428194">
        <ele>221.60000610351562</ele>
        <time>2013-09-23T10:41:33.000Z</time>
      </trkpt>
      <trkpt lon="7.946989769116044" lat="48.29712437465787">
        <ele>219.0</ele>
        <time>2013-09-23T10:41:43.000Z</time>
      </trkpt>
      <trkpt lon="7.946375794708729" lat="48.297738432884216">
        <ele>219.0</ele>
        <time>2013-09-23T10:41:53.000Z</time>
      </trkpt>
      <trkpt lon="7.945791492238641" lat="48.29834025353193">
        <ele>219.60000610351562</ele>
        <time>2013-09-23T10:42:03.000Z</time>
      </trkpt>
      <trkpt lon="7.945176679641008" lat="48.299016170203686">
        <ele>219.0</ele>
        <time>2013-09-23T10:42:14.000Z</time>
      </trkpt>
      <trkpt lon="7.944689355790615" lat="48.2995939347893">
        <ele>218.60000610351562</ele>
        <time>2013-09-23T10:42:24.000Z</time>
      </trkpt>
      <trkpt lon="7.944335639476776" lat="48.3000807557255">
        <ele>220.0</ele>
        <time>2013-09-23T10:42:32.000Z</time>
      </trkpt>
      <trkpt lon="7.944048559293151" lat="48.30052264966071">
        <ele>221.60000610351562</ele>
        <time>2013-09-23T10:42:39.000Z</time>
      </trkpt>
      <trkpt lon="7.943722754716873" lat="48.30106814391911">
        <ele>223.1999969482422</ele>
        <time>2013-09-23T10:42:48.000Z</time>
      </trkpt>
      <trkpt lon="7.943472387269139" lat="48.301633168011904">
        <ele>224.8000030517578</ele>
        <time>2013-09-23T10:42:57.000Z</time>
      </trkpt>
      <trkpt lon="7.943325033411384" lat="48.302167765796185">
        <ele>224.39999389648438</ele>
        <time>2013-09-23T10:43:05.000Z</time>
      </trkpt>
      <trkpt lon="7.943245489150286" lat="48.3026831690222">
        <ele>224.39999389648438</ele>
        <time>2013-09-23T10:43:12.000Z</time>
      </trkpt>
      <trkpt lon="7.943206932395697" lat="48.30324366688728">
        <ele>225.39999389648438</ele>
        <time>2013-09-23T10:43:19.000Z</time>
      </trkpt>
      <trkpt lon="7.943194191902876" lat="48.30348188057542">
        <ele>225.39999389648438</ele>
        <time>2013-09-23T10:43:22.000Z</time>
      </trkpt>
      <trkpt lon="7.943097548559308" lat="48.30389485694468">
        <ele>224.1999969482422</ele>
        <time>2013-09-23T10:43:28.000Z</time>
      </trkpt>
      <trkpt lon="7.942906441166997" lat="48.30460086464882">
        <ele>223.39999389648438</ele>
        <time>2013-09-23T10:43:39.000Z</time>
      </trkpt>
      <trkpt lon="7.942787669599056" lat="48.305105874314904">
        <ele>223.0</ele>
        <time>2013-09-23T10:43:47.000Z</time>
      </trkpt>
      <trkpt lon="7.942619947716594" lat="48.30551139079034">
        <ele>222.0</ele>
        <time>2013-09-23T10:43:54.000Z</time>
      </trkpt>
      <trkpt lon="7.942397994920611" lat="48.30582655034959">
        <ele>220.1999969482422</ele>
        <time>2013-09-23T10:43:59.000Z</time>
      </trkpt>
      <trkpt lon="7.942155841737986" lat="48.30634379759431">
        <ele>219.60000610351562</ele>
        <time>2013-09-23T10:44:06.000Z</time>
      </trkpt>
      <trkpt lon="7.942137233912945" lat="48.30641998909414">
        <ele>219.60000610351562</ele>
        <time>2013-09-23T10:44:07.000Z</time>
      </trkpt>
      <trkpt lon="7.942021396011114" lat="48.30699046142399">
        <ele>220.0</ele>
        <time>2013-09-23T10:44:15.000Z</time>
      </trkpt>
      <trkpt lon="7.941881669685245" lat="48.30752816051245">
        <ele>219.60000610351562</ele>
        <time>2013-09-23T10:44:23.000Z</time>
      </trkpt>
      <trkpt lon="7.941778153181076" lat="48.30792596563697">
        <ele>218.39999389648438</ele>
        <time>2013-09-23T10:44:29.000Z</time>
      </trkpt>
      <trkpt lon="7.941586961969733" lat="48.30844639800489">
        <ele>216.0</ele>
        <time>2013-09-23T10:44:36.000Z</time>
      </trkpt>
      <trkpt lon="7.94136987067759" lat="48.3087323885411">
        <ele>214.39999389648438</ele>
        <time>2013-09-23T10:44:40.000Z</time>
      </trkpt>
      <trkpt lon="7.941176248714328" lat="48.309067161753774">
        <ele>214.0</ele>
        <time>2013-09-23T10:44:45.000Z</time>
      </trkpt>
      <trkpt lon="7.941084550693631" lat="48.30917998217046">
        <ele>213.8000030517578</ele>
        <time>2013-09-23T10:44:48.000Z</time>
      </trkpt>
      <trkpt lon="7.941068289801478" lat="48.30920219421387">
        <ele>213.8000030517578</ele>
        <time>2013-09-23T10:44:52.000Z</time>
      </trkpt>
      <trkpt lon="7.941077593713999" lat="48.30923756584525">
        <ele>213.8000030517578</ele>
        <time>2013-09-23T10:45:03.000Z</time>
      </trkpt>
      <trkpt lon="7.9410019889473915" lat="48.3093505539">
        <ele>213.8000030517578</ele>
        <time>2013-09-23T10:45:06.000Z</time>
      </trkpt>
      <trkpt lon="7.940933844074607" lat="48.309578876942396">
        <ele>214.1999969482422</ele>
        <time>2013-09-23T10:45:11.000Z</time>
      </trkpt>
      <trkpt lon="7.940945578739047" lat="48.3096925355494">
        <ele>214.39999389648438</ele>
        <time>2013-09-23T10:45:13.000Z</time>
      </trkpt>
      <trkpt lon="7.941012633964419" lat="48.30988934263587">
        <ele>215.0</ele>
        <time>2013-09-23T10:45:17.000Z</time>
      </trkpt>
      <trkpt lon="7.941012633964419" lat="48.30988934263587">
        <ele>215.0</ele>
        <time>2013-09-23T10:45:17.000Z</time>
      </trkpt>
      <trkpt lon="7.94106007553637" lat="48.310030745342374">
        <ele>215.1999969482422</ele>
        <time>2013-09-23T10:45:20.000Z</time>
      </trkpt>
      <trkpt lon="7.941071055829525" lat="48.31007734872401">
        <ele>215.39999389648438</ele>
        <time>2013-09-23T10:45:21.000Z</time>
      </trkpt>
      <trkpt lon="7.941029733046889" lat="48.31032754853368">
        <ele>216.1999969482422</ele>
        <time>2013-09-23T10:45:27.000Z</time>
      </trkpt>
      <trkpt lon="7.940979357808828" lat="48.31041203811765">
        <ele>216.1999969482422</ele>
        <time>2013-09-23T10:45:29.000Z</time>
      </trkpt>
      <trkpt lon="7.940846169367433" lat="48.310507256537676">
        <ele>216.1999969482422</ele>
        <time>2013-09-23T10:45:34.000Z</time>
      </trkpt>
      <trkpt lon="7.9408214427530766" lat="48.310578586533666">
        <ele>216.1999969482422</ele>
        <time>2013-09-23T10:45:39.000Z</time>
      </trkpt>
      <trkpt lon="7.940738797187805" lat="48.31067405641079">
        <ele>216.0</ele>
        <time>2013-09-23T10:45:42.000Z</time>
      </trkpt>
      <trkpt lon="7.940587252378464" lat="48.310911851003766">
        <ele>216.0</ele>
        <time>2013-09-23T10:45:48.000Z</time>
      </trkpt>
      <trkpt lon="7.940545259043574" lat="48.31095518544316">
        <ele>216.0</ele>
        <time>2013-09-23T10:45:49.000Z</time>
      </trkpt>
      <trkpt lon="7.940501254051924" lat="48.31105853430927">
        <ele>216.1999969482422</ele>
        <time>2013-09-23T10:45:51.000Z</time>
      </trkpt>
      <trkpt lon="7.940298663452268" lat="48.3113091532141">
        <ele>215.8000030517578</ele>
        <time>2013-09-23T10:45:57.000Z</time>
      </trkpt>
      <trkpt lon="7.940138569101691" lat="48.31155356951058">
        <ele>215.60000610351562</ele>
        <time>2013-09-23T10:46:02.000Z</time>
      </trkpt>
      <trkpt lon="7.939936481416225" lat="48.311937963590026">
        <ele>214.1999969482422</ele>
        <time>2013-09-23T10:46:08.000Z</time>
      </trkpt>
      <trkpt lon="7.939723078161478" lat="48.31242637708783">
        <ele>212.60000610351562</ele>
        <time>2013-09-23T10:46:15.000Z</time>
      </trkpt>
      <trkpt lon="7.939512860029936" lat="48.3127510920167">
        <ele>211.60000610351562</ele>
        <time>2013-09-23T10:46:21.000Z</time>
      </trkpt>
      <trkpt lon="7.939315382391214" lat="48.313014786690474">
        <ele>210.60000610351562</ele>
        <time>2013-09-23T10:46:26.000Z</time>
      </trkpt>
      <trkpt lon="7.939242459833622" lat="48.313064659014344">
        <ele>210.1999969482422</ele>
        <time>2013-09-23T10:46:29.000Z</time>
      </trkpt>
      <trkpt lon="7.939200634136796" lat="48.31306197680533">
        <ele>210.0</ele>
        <time>2013-09-23T10:46:33.000Z</time>
      </trkpt>
      <trkpt lon="7.939213961362839" lat="48.313064742833376">
        <ele>210.1999969482422</ele>
        <time>2013-09-23T10:46:36.000Z</time>
      </trkpt>
      <trkpt lon="7.939202645793557" lat="48.3130703587085">
        <ele>210.0</ele>
        <time>2013-09-23T10:46:37.000Z</time>
      </trkpt>
      <trkpt lon="7.939251260831952" lat="48.31307454966009">
        <ele>210.39999389648438</ele>
        <time>2013-09-23T10:46:45.000Z</time>
      </trkpt>
      <trkpt lon="7.939193258062005" lat="48.313125260174274">
        <ele>210.0</ele>
        <time>2013-09-23T10:46:51.000Z</time>
      </trkpt>
      <trkpt lon="7.9391848761588335" lat="48.31313095986843">
        <ele>210.0</ele>
        <time>2013-09-23T10:46:53.000Z</time>
      </trkpt>
      <trkpt lon="7.939097536727786" lat="48.31318116746843">
        <ele>209.60000610351562</ele>
        <time>2013-09-23T10:47:05.000Z</time>
      </trkpt>
      <trkpt lon="7.939089657738805" lat="48.313185358420014">
        <ele>209.60000610351562</ele>
        <time>2013-09-23T10:47:06.000Z</time>
      </trkpt>
      <trkpt lon="7.9390673618763685" lat="48.31314655020833">
        <ele>209.60000610351562</ele>
        <time>2013-09-23T10:47:11.000Z</time>
      </trkpt>
      <trkpt lon="7.939033834263682" lat="48.31314604729414">
        <ele>209.39999389648438</ele>
        <time>2013-09-23T10:47:15.000Z</time>
      </trkpt>
      <trkpt lon="7.939012963324785" lat="48.31314914859831">
        <ele>209.39999389648438</ele>
        <time>2013-09-23T10:47:18.000Z</time>
      </trkpt>
      <trkpt lon="7.939005335792899" lat="48.313149651512504">
        <ele>209.39999389648438</ele>
        <time>2013-09-23T10:47:19.000Z</time>
      </trkpt>
      <trkpt lon="7.939023356884718" lat="48.31312886439264">
        <ele>209.39999389648438</ele>
        <time>2013-09-23T10:47:21.000Z</time>
      </trkpt>
      <trkpt lon="7.939005251973867" lat="48.3130877930671">
        <ele>209.39999389648438</ele>
        <time>2013-09-23T10:47:35.000Z</time>
      </trkpt>
      <trkpt lon="7.9389280546456575" lat="48.31305527128279">
        <ele>209.0</ele>
        <time>2013-09-23T10:47:42.000Z</time>
      </trkpt>
      <trkpt lon="7.938916739076376" lat="48.31306683830917">
        <ele>209.0</ele>
        <time>2013-09-23T10:47:45.000Z</time>
      </trkpt>
      <trkpt lon="7.938994858413935" lat="48.3130325563252">
        <ele>209.1999969482422</ele>
        <time>2013-09-23T10:47:51.000Z</time>
      </trkpt>
      <trkpt lon="7.938946075737476" lat="48.31306063570082">
        <ele>209.1999969482422</ele>
        <time>2013-09-23T10:49:46.000Z</time>
      </trkpt>
      <trkpt lon="7.938935263082385" lat="48.313099360093474">
        <ele>209.0</ele>
        <time>2013-09-23T10:49:50.000Z</time>
      </trkpt>
      <trkpt lon="7.938956553116441" lat="48.313117967918515">
        <ele>209.1999969482422</ele>
        <time>2013-09-23T10:50:30.000Z</time>
      </trkpt>
      <trkpt lon="7.939020674675703" lat="48.313117465004325">
        <ele>209.39999389648438</ele>
        <time>2013-09-23T10:50:34.000Z</time>
      </trkpt>
      <trkpt lon="7.939129555597901" lat="48.313050493597984">
        <ele>209.8000030517578</ele>
        <time>2013-09-23T10:51:50.000Z</time>
      </trkpt>
      <trkpt lon="7.939128549769521" lat="48.31305116415024">
        <ele>209.8000030517578</ele>
        <time>2013-09-23T10:51:51.000Z</time>
      </trkpt>
      <trkpt lon="7.939162747934461" lat="48.31304797902703">
        <ele>209.8000030517578</ele>
        <time>2013-09-23T10:52:18.000Z</time>
      </trkpt>
      <trkpt lon="7.939135171473026" lat="48.313046554103494">
        <ele>209.8000030517578</ele>
        <time>2013-09-23T10:52:20.000Z</time>
      </trkpt>
      <trkpt lon="7.939045652747154" lat="48.313046637922525">
        <ele>209.39999389648438</ele>
        <time>2013-09-23T10:52:32.000Z</time>
      </trkpt>
      <trkpt lon="7.938960995525122" lat="48.3130098413676">
        <ele>209.1999969482422</ele>
        <time>2013-09-23T10:52:38.000Z</time>
      </trkpt>
      <trkpt lon="7.939222259446979" lat="48.31296709366143">
        <ele>210.1999969482422</ele>
        <time>2013-09-23T10:54:22.000Z</time>
      </trkpt>
      <trkpt lon="7.939221672713757" lat="48.313004560768604">
        <ele>210.1999969482422</ele>
        <time>2013-09-23T10:54:29.000Z</time>
      </trkpt>
      <trkpt lon="7.93923944234848" lat="48.31304387189448">
        <ele>210.1999969482422</ele>
        <time>2013-09-23T10:54:34.000Z</time>
      </trkpt>
      <trkpt lon="7.939239861443639" lat="48.31309223547578">
        <ele>210.1999969482422</ele>
        <time>2013-09-23T10:54:39.000Z</time>
      </trkpt>
      <trkpt lon="7.939075995236635" lat="48.31313146278262">
        <ele>209.60000610351562</ele>
        <time>2013-09-23T10:54:56.000Z</time>
      </trkpt>
      <trkpt lon="7.93903224170208" lat="48.313032472506166">
        <ele>209.39999389648438</ele>
        <time>2013-09-23T10:55:03.000Z</time>
      </trkpt>
      <trkpt lon="7.939042383804917" lat="48.313032891601324">
        <ele>209.39999389648438</ele>
        <time>2013-09-23T10:55:04.000Z</time>
      </trkpt>
      <trkpt lon="7.939040372148156" lat="48.31301914528012">
        <ele>209.39999389648438</ele>
        <time>2013-09-23T10:55:10.000Z</time>
      </trkpt>
      <trkpt lon="7.939013885334134" lat="48.313013864681125">
        <ele>209.39999389648438</ele>
        <time>2013-09-23T10:55:12.000Z</time>
      </trkpt>
      <trkpt lon="7.938961163163185" lat="48.31299249082804">
        <ele>209.1999969482422</ele>
        <time>2013-09-23T10:55:16.000Z</time>
      </trkpt>
      <trkpt lon="7.938911458477378" lat="48.31297664903104">
        <ele>209.0</ele>
        <time>2013-09-23T10:55:21.000Z</time>
      </trkpt>
      <trkpt lon="7.938892683014274" lat="48.31296273507178">
        <ele>209.0</ele>
        <time>2013-09-23T10:55:25.000Z</time>
      </trkpt>
      <trkpt lon="7.938831076025963" lat="48.31293415278196">
        <ele>208.60000610351562</ele>
        <time>2013-09-23T10:55:32.000Z</time>
      </trkpt>
      <trkpt lon="7.938813976943493" lat="48.31292116083205">
        <ele>208.60000610351562</ele>
        <time>2013-09-23T10:55:36.000Z</time>
      </trkpt>
      <trkpt lon="7.938772737979889" lat="48.31291135400534">
        <ele>208.39999389648438</ele>
        <time>2013-09-23T10:55:42.000Z</time>
      </trkpt>
      <trkpt lon="7.938785646110773" lat="48.312917556613684">
        <ele>208.60000610351562</ele>
        <time>2013-09-23T10:55:46.000Z</time>
      </trkpt>
      <trkpt lon="7.938771648332477" lat="48.3129323925823">
        <ele>208.39999389648438</ele>
        <time>2013-09-23T10:55:51.000Z</time>
      </trkpt>
      <trkpt lon="7.93877718038857" lat="48.31295586191118">
        <ele>208.39999389648438</ele>
        <time>2013-09-23T10:55:54.000Z</time>
      </trkpt>
      <trkpt lon="7.93882068246603" lat="48.31301109865308">
        <ele>208.60000610351562</ele>
        <time>2013-09-23T10:56:03.000Z</time>
      </trkpt>
      <trkpt lon="7.938997456803918" lat="48.313011936843395">
        <ele>209.1999969482422</ele>
        <time>2013-09-23T10:56:12.000Z</time>
      </trkpt>
      <trkpt lon="7.939178589731455" lat="48.31312299706042">
        <ele>210.0</ele>
        <time>2013-09-23T10:56:26.000Z</time>
      </trkpt>
      <trkpt lon="7.939187558367848" lat="48.31312517635524">
        <ele>210.0</ele>
        <time>2013-09-23T10:56:29.000Z</time>
      </trkpt>
      <trkpt lon="7.939195353537798" lat="48.313128277659416">
        <ele>210.0</ele>
        <time>2013-09-23T10:56:30.000Z</time>
      </trkpt>
      <trkpt lon="7.93919543735683" lat="48.31313154660165">
        <ele>210.0</ele>
        <time>2013-09-23T10:56:31.000Z</time>
      </trkpt>
      <trkpt lon="7.939113965258002" lat="48.31302928738296">
        <ele>209.8000030517578</ele>
        <time>2013-09-23T11:02:41.000Z</time>
      </trkpt>
      <trkpt lon="7.939099045470357" lat="48.313028533011675">
        <ele>209.60000610351562</ele>
        <time>2013-09-23T11:02:42.000Z</time>
      </trkpt>
      <trkpt lon="7.9391103610396385" lat="48.312995843589306">
        <ele>209.60000610351562</ele>
        <time>2013-09-23T11:05:11.000Z</time>
      </trkpt>
      <trkpt lon="7.939068786799908" lat="48.31301864236593">
        <ele>209.60000610351562</ele>
        <time>2013-09-23T11:05:15.000Z</time>
      </trkpt>
      <trkpt lon="7.939048754051328" lat="48.312969440594316">
        <ele>209.39999389648438</ele>
        <time>2013-09-23T11:06:01.000Z</time>
      </trkpt>
      <trkpt lon="7.939065098762512" lat="48.31295125186443">
        <ele>209.60000610351562</ele>
        <time>2013-09-23T11:06:04.000Z</time>
      </trkpt>
      <trkpt lon="7.9391704592853785" lat="48.3130100928247">
        <ele>210.0</ele>
        <time>2013-09-23T11:07:39.000Z</time>
      </trkpt>
      <trkpt lon="7.939132070168853" lat="48.31314445473254">
        <ele>209.8000030517578</ele>
        <time>2013-09-23T11:07:43.000Z</time>
      </trkpt>
      <trkpt lon="7.938999133184552" lat="48.31355617381632">
        <ele>209.0</ele>
        <time>2013-09-23T11:07:51.000Z</time>
      </trkpt>
      <trkpt lon="7.938853958621621" lat="48.31389136612415">
        <ele>208.1999969482422</ele>
        <time>2013-09-23T11:07:56.000Z</time>
      </trkpt>
      <trkpt lon="7.938722362741828" lat="48.314273580908775">
        <ele>207.1999969482422</ele>
        <time>2013-09-23T11:08:02.000Z</time>
      </trkpt>
      <trkpt lon="7.938623456284404" lat="48.314745565876365">
        <ele>206.60000610351562</ele>
        <time>2013-09-23T11:08:09.000Z</time>
      </trkpt>
      <trkpt lon="7.938592862337828" lat="48.315237583592534">
        <ele>206.0</ele>
        <time>2013-09-23T11:08:16.000Z</time>
      </trkpt>
      <trkpt lon="7.93856805190444" lat="48.315831860527396">
        <ele>205.8000030517578</ele>
        <time>2013-09-23T11:08:24.000Z</time>
      </trkpt>
      <trkpt lon="7.93839605525136" lat="48.3163532987237">
        <ele>204.0</ele>
        <time>2013-09-23T11:08:31.000Z</time>
      </trkpt>
      <trkpt lon="7.938201678916812" lat="48.316898457705975">
        <ele>202.0</ele>
        <time>2013-09-23T11:08:38.000Z</time>
      </trkpt>
      <trkpt lon="7.938105035573244" lat="48.31735325977206">
        <ele>201.1999969482422</ele>
        <time>2013-09-23T11:08:44.000Z</time>
      </trkpt>
      <trkpt lon="7.9380127508193254" lat="48.31768585368991">
        <ele>200.8000030517578</ele>
        <time>2013-09-23T11:08:48.000Z</time>
      </trkpt>
      <trkpt lon="7.937849890440702" lat="48.31817166879773">
        <ele>200.39999389648438</ele>
        <time>2013-09-23T11:08:55.000Z</time>
      </trkpt>
      <trkpt lon="7.937767747789621" lat="48.31862856633961">
        <ele>199.8000030517578</ele>
        <time>2013-09-23T11:09:02.000Z</time>
      </trkpt>
      <trkpt lon="7.937617292627692" lat="48.31916945055127">
        <ele>198.39999389648438</ele>
        <time>2013-09-23T11:09:10.000Z</time>
      </trkpt>
      <trkpt lon="7.937560463324189" lat="48.319416381418705">
        <ele>198.39999389648438</ele>
        <time>2013-09-23T11:09:14.000Z</time>
      </trkpt>
      <trkpt lon="7.937574880197644" lat="48.319683177396655">
        <ele>198.8000030517578</ele>
        <time>2013-09-23T11:09:19.000Z</time>
      </trkpt>
      <trkpt lon="7.937374049797654" lat="48.31971846520901">
        <ele>198.1999969482422</ele>
        <time>2013-09-23T11:09:22.000Z</time>
      </trkpt>
      <trkpt lon="7.937169950455427" lat="48.319621151313186">
        <ele>197.8000030517578</ele>
        <time>2013-09-23T11:09:25.000Z</time>
      </trkpt>
      <trkpt lon="7.937094094231725" lat="48.31959013827145">
        <ele>197.60000610351562</ele>
        <time>2013-09-23T11:09:26.000Z</time>
      </trkpt>
      <trkpt lon="7.9366688802838326" lat="48.31945829093456">
        <ele>197.1999969482422</ele>
        <time>2013-09-23T11:09:31.000Z</time>
      </trkpt>
      <trkpt lon="7.936505684629083" lat="48.31942744553089">
        <ele>197.0</ele>
        <time>2013-09-23T11:09:33.000Z</time>
      </trkpt>
      <trkpt lon="7.936176443472505" lat="48.319273637607694">
        <ele>197.0</ele>
        <time>2013-09-23T11:09:38.000Z</time>
      </trkpt>
      <trkpt lon="7.936117937788367" lat="48.31923474557698">
        <ele>197.0</ele>
        <time>2013-09-23T11:09:39.000Z</time>
      </trkpt>
      <trkpt lon="7.935899589210749" lat="48.319034753367305">
        <ele>196.8000030517578</ele>
        <time>2013-09-23T11:09:45.000Z</time>
      </trkpt>
      <trkpt lon="7.935772938653827" lat="48.319042548537254">
        <ele>196.8000030517578</ele>
        <time>2013-09-23T11:09:49.000Z</time>
      </trkpt>
      <trkpt lon="7.935737567022443" lat="48.31909853965044">
        <ele>196.8000030517578</ele>
        <time>2013-09-23T11:09:51.000Z</time>
      </trkpt>
      <trkpt lon="7.935484182089567" lat="48.3194097597152">
        <ele>196.0</ele>
        <time>2013-09-23T11:09:59.000Z</time>
      </trkpt>
      <trkpt lon="7.9353253450244665" lat="48.319602543488145">
        <ele>195.0</ele>
        <time>2013-09-23T11:10:03.000Z</time>
      </trkpt>
      <trkpt lon="7.935336492955685" lat="48.31975459121168">
        <ele>194.39999389648438</ele>
        <time>2013-09-23T11:10:07.000Z</time>
      </trkpt>
      <trkpt lon="7.935434142127633" lat="48.31978057511151">
        <ele>194.39999389648438</ele>
        <time>2013-09-23T11:10:09.000Z</time>
      </trkpt>
      <trkpt lon="7.935769837349653" lat="48.319864477962255">
        <ele>194.39999389648438</ele>
        <time>2013-09-23T11:10:14.000Z</time>
      </trkpt>
      <trkpt lon="7.935949293896556" lat="48.32002934999764">
        <ele>194.1999969482422</ele>
        <time>2013-09-23T11:10:18.000Z</time>
      </trkpt>
      <trkpt lon="7.935936637222767" lat="48.32008374854922">
        <ele>194.1999969482422</ele>
        <time>2013-09-23T11:10:19.000Z</time>
      </trkpt>
      <trkpt lon="7.935713678598404" lat="48.32067475654185">
        <ele>194.60000610351562</ele>
        <time>2013-09-23T11:10:29.000Z</time>
      </trkpt>
      <trkpt lon="7.935527432709932" lat="48.3211709652096">
        <ele>194.8000030517578</ele>
        <time>2013-09-23T11:10:37.000Z</time>
      </trkpt>
      <trkpt lon="7.935278741642833" lat="48.3218118455261">
        <ele>195.8000030517578</ele>
        <time>2013-09-23T11:10:47.000Z</time>
      </trkpt>
      <trkpt lon="7.935178577899933" lat="48.32207294180989">
        <ele>196.0</ele>
        <time>2013-09-23T11:10:51.000Z</time>
      </trkpt>
      <trkpt lon="7.934868950396776" lat="48.322430262342095">
        <ele>195.60000610351562</ele>
        <time>2013-09-23T11:10:57.000Z</time>
      </trkpt>
      <trkpt lon="7.934394534677267" lat="48.32284499891102">
        <ele>194.60000610351562</ele>
        <time>2013-09-23T11:11:05.000Z</time>
      </trkpt>
      <trkpt lon="7.933878377079964" lat="48.323230063542724">
        <ele>193.1999969482422</ele>
        <time>2013-09-23T11:11:13.000Z</time>
      </trkpt>
      <trkpt lon="7.9332879558205605" lat="48.32362418062985">
        <ele>192.60000610351562</ele>
        <time>2013-09-23T11:11:21.000Z</time>
      </trkpt>
      <trkpt lon="7.9328935872763395" lat="48.32373574376106">
        <ele>192.8000030517578</ele>
        <time>2013-09-23T11:11:25.000Z</time>
      </trkpt>
      <trkpt lon="7.932785460725427" lat="48.3237527590245">
        <ele>193.0</ele>
        <time>2013-09-23T11:11:26.000Z</time>
      </trkpt>
      <trkpt lon="7.932434091344476" lat="48.32391059026122">
        <ele>193.1999969482422</ele>
        <time>2013-09-23T11:11:30.000Z</time>
      </trkpt>
      <trkpt lon="7.931835539638996" lat="48.324271347373724">
        <ele>193.8000030517578</ele>
        <time>2013-09-23T11:11:38.000Z</time>
      </trkpt>
      <trkpt lon="7.931080078706145" lat="48.32467149943113">
        <ele>193.39999389648438</ele>
        <time>2013-09-23T11:11:47.000Z</time>
      </trkpt>
      <trkpt lon="7.9301658645272255" lat="48.32518673501909">
        <ele>192.60000610351562</ele>
        <time>2013-09-23T11:11:58.000Z</time>
      </trkpt>
      <trkpt lon="7.929642163217068" lat="48.3254312351346">
        <ele>191.8000030517578</ele>
        <time>2013-09-23T11:12:04.000Z</time>
      </trkpt>
      <trkpt lon="7.92902609333396" lat="48.32571395672858">
        <ele>191.1999969482422</ele>
        <time>2013-09-23T11:12:11.000Z</time>
      </trkpt>
      <trkpt lon="7.928742282092571" lat="48.325840439647436">
        <ele>190.8000030517578</ele>
        <time>2013-09-23T11:12:14.000Z</time>
      </trkpt>
      <trkpt lon="7.928239954635501" lat="48.3259526733309">
        <ele>190.60000610351562</ele>
        <time>2013-09-23T11:12:19.000Z</time>
      </trkpt>
      <trkpt lon="7.9279550537467" lat="48.32599198445678">
        <ele>189.8000030517578</ele>
        <time>2013-09-23T11:12:22.000Z</time>
      </trkpt>
      <trkpt lon="7.927577784284949" lat="48.32614218816161">
        <ele>189.0</ele>
        <time>2013-09-23T11:12:27.000Z</time>
      </trkpt>
      <trkpt lon="7.926895665004849" lat="48.32659707404673">
        <ele>187.60000610351562</ele>
        <time>2013-09-23T11:12:36.000Z</time>
      </trkpt>
      <trkpt lon="7.926092762500048" lat="48.327144579961896">
        <ele>187.39999389648438</ele>
        <time>2013-09-23T11:12:47.000Z</time>
      </trkpt>
      <trkpt lon="7.925453977659345" lat="48.327528554946184">
        <ele>185.60000610351562</ele>
        <time>2013-09-23T11:12:55.000Z</time>
      </trkpt>
      <trkpt lon="7.924669850617647" lat="48.32795687019825">
        <ele>188.0</ele>
        <time>2013-09-23T11:13:04.000Z</time>
      </trkpt>
      <trkpt lon="7.924110358580947" lat="48.328254763036966">
        <ele>188.60000610351562</ele>
        <time>2013-09-23T11:13:11.000Z</time>
      </trkpt>
      <trkpt lon="7.923502838239074" lat="48.32846883684397">
        <ele>188.8000030517578</ele>
        <time>2013-09-23T11:13:18.000Z</time>
      </trkpt>
      <trkpt lon="7.9227059707045555" lat="48.32875415682793">
        <ele>187.1999969482422</ele>
        <time>2013-09-23T11:13:27.000Z</time>
      </trkpt>
      <trkpt lon="7.922194171696901" lat="48.32898625172675">
        <ele>186.8000030517578</ele>
        <time>2013-09-23T11:13:33.000Z</time>
      </trkpt>
      <trkpt lon="7.9215046763420105" lat="48.32925606518984">
        <ele>186.60000610351562</ele>
        <time>2013-09-23T11:13:41.000Z</time>
      </trkpt>
      <trkpt lon="7.921060351654887" lat="48.329553455114365">
        <ele>185.8000030517578</ele>
        <time>2013-09-23T11:13:47.000Z</time>
      </trkpt>
      <trkpt lon="7.920766482129693" lat="48.329750346019864">
        <ele>185.39999389648438</ele>
        <time>2013-09-23T11:13:51.000Z</time>
      </trkpt>
      <trkpt lon="7.920268680900335" lat="48.329907758161426">
        <ele>186.1999969482422</ele>
        <time>2013-09-23T11:13:56.000Z</time>
      </trkpt>
      <trkpt lon="7.919807592406869" lat="48.33005025051534">
        <ele>186.60000610351562</ele>
        <time>2013-09-23T11:14:01.000Z</time>
      </trkpt>
      <trkpt lon="7.9191995691508055" lat="48.33033808507025">
        <ele>188.0</ele>
        <time>2013-09-23T11:14:08.000Z</time>
      </trkpt>
      <trkpt lon="7.919037463143468" lat="48.33043095655739">
        <ele>189.39999389648438</ele>
        <time>2013-09-23T11:14:10.000Z</time>
      </trkpt>
      <trkpt lon="7.918810648843646" lat="48.33072985522449">
        <ele>189.0</ele>
        <time>2013-09-23T11:14:15.000Z</time>
      </trkpt>
      <trkpt lon="7.918833699077368" lat="48.33093328401446">
        <ele>187.60000610351562</ele>
        <time>2013-09-23T11:14:18.000Z</time>
      </trkpt>
      <trkpt lon="7.918950458988547" lat="48.331174766644835">
        <ele>187.0</ele>
        <time>2013-09-23T11:14:22.000Z</time>
      </trkpt>
      <trkpt lon="7.918915757909417" lat="48.33133276551962">
        <ele>186.8000030517578</ele>
        <time>2013-09-23T11:14:26.000Z</time>
      </trkpt>
      <trkpt lon="7.918803356587887" lat="48.33142085932195">
        <ele>186.8000030517578</ele>
        <time>2013-09-23T11:14:29.000Z</time>
      </trkpt>
      <trkpt lon="7.918809978291392" lat="48.33154038526118">
        <ele>186.60000610351562</ele>
        <time>2013-09-23T11:14:32.000Z</time>
      </trkpt>
      <trkpt lon="7.918672850355506" lat="48.331674663349986">
        <ele>186.39999389648438</ele>
        <time>2013-09-23T11:14:35.000Z</time>
      </trkpt>
      <trkpt lon="7.918503871187568" lat="48.331727553159">
        <ele>186.60000610351562</ele>
        <time>2013-09-23T11:14:37.000Z</time>
      </trkpt>
      <trkpt lon="7.918414352461696" lat="48.331748340278864">
        <ele>186.8000030517578</ele>
        <time>2013-09-23T11:14:38.000Z</time>
      </trkpt>
      <trkpt lon="7.918414352461696" lat="48.331748340278864">
        <ele>186.8000030517578</ele>
        <time>2013-09-23T11:14:38.000Z</time>
      </trkpt>
      <trkpt lon="7.9177832789719105" lat="48.331965766847134">
        <ele>185.60000610351562</ele>
        <time>2013-09-23T11:14:45.000Z</time>
      </trkpt>
      <trkpt lon="7.917418163269758" lat="48.332216469570994">
        <ele>185.39999389648438</ele>
        <time>2013-09-23T11:14:50.000Z</time>
      </trkpt>
      <trkpt lon="7.917186990380287" lat="48.33245535381138">
        <ele>184.8000030517578</ele>
        <time>2013-09-23T11:14:54.000Z</time>
      </trkpt>
      <trkpt lon="7.917067967355251" lat="48.33263556472957">
        <ele>184.39999389648438</ele>
        <time>2013-09-23T11:14:57.000Z</time>
      </trkpt>
      <trkpt lon="7.916812738403678" lat="48.33283036015928">
        <ele>184.0</ele>
        <time>2013-09-23T11:15:02.000Z</time>
      </trkpt>
      <trkpt lon="7.916286857798696" lat="48.33297478035092">
        <ele>184.0</ele>
        <time>2013-09-23T11:15:08.000Z</time>
      </trkpt>
      <trkpt lon="7.916181664913893" lat="48.33298685029149">
        <ele>184.0</ele>
        <time>2013-09-23T11:15:09.000Z</time>
      </trkpt>
      <trkpt lon="7.915880586951971" lat="48.3330587670207">
        <ele>184.1999969482422</ele>
        <time>2013-09-23T11:15:12.000Z</time>
      </trkpt>
      <trkpt lon="7.915598284453154" lat="48.3332712482661">
        <ele>184.1999969482422</ele>
        <time>2013-09-23T11:15:17.000Z</time>
      </trkpt>
      <trkpt lon="7.915536845102906" lat="48.333318857476115">
        <ele>184.1999969482422</ele>
        <time>2013-09-23T11:15:18.000Z</time>
      </trkpt>
      <trkpt lon="7.9150234535336494" lat="48.33355514332652">
        <ele>183.39999389648438</ele>
        <time>2013-09-23T11:15:24.000Z</time>
      </trkpt>
      <trkpt lon="7.914473433047533" lat="48.3337445743382">
        <ele>182.0</ele>
        <time>2013-09-23T11:15:30.000Z</time>
      </trkpt>
      <trkpt lon="7.9140241630375385" lat="48.33390357904136">
        <ele>181.0</ele>
        <time>2013-09-23T11:15:35.000Z</time>
      </trkpt>
      <trkpt lon="7.9133756551891565" lat="48.33415428176522">
        <ele>181.0</ele>
        <time>2013-09-23T11:15:42.000Z</time>
      </trkpt>
      <trkpt lon="7.9127701465040445" lat="48.33446055650711">
        <ele>180.39999389648438</ele>
        <time>2013-09-23T11:15:49.000Z</time>
      </trkpt>
      <trkpt lon="7.912695966660976" lat="48.33451218903065">
        <ele>180.39999389648438</ele>
        <time>2013-09-23T11:15:50.000Z</time>
      </trkpt>
      <trkpt lon="7.912366557866335" lat="48.3348635584116">
        <ele>180.8000030517578</ele>
        <time>2013-09-23T11:15:56.000Z</time>
      </trkpt>
      <trkpt lon="7.912246864289045" lat="48.335043266415596">
        <ele>181.1999969482422</ele>
        <time>2013-09-23T11:15:59.000Z</time>
      </trkpt>
      <trkpt lon="7.912019966170192" lat="48.335259184241295">
        <ele>181.1999969482422</ele>
        <time>2013-09-23T11:16:03.000Z</time>
      </trkpt>
      <trkpt lon="7.911411272361875" lat="48.33555405959487">
        <ele>181.39999389648438</ele>
        <time>2013-09-23T11:16:10.000Z</time>
      </trkpt>
      <trkpt lon="7.910949932411313" lat="48.33568439818919">
        <ele>181.8000030517578</ele>
        <time>2013-09-23T11:16:15.000Z</time>
      </trkpt>
      <trkpt lon="7.910353560000658" lat="48.33583367988467">
        <ele>182.0</ele>
        <time>2013-09-23T11:16:21.000Z</time>
      </trkpt>
      <trkpt lon="7.90987579151988" lat="48.33594507537782">
        <ele>182.0</ele>
        <time>2013-09-23T11:16:26.000Z</time>
      </trkpt>
      <trkpt lon="7.909567253664136" lat="48.33600995130837">
        <ele>181.8000030517578</ele>
        <time>2013-09-23T11:16:29.000Z</time>
      </trkpt>
      <trkpt lon="7.908875495195389" lat="48.33613886497915">
        <ele>182.0</ele>
        <time>2013-09-23T11:16:35.000Z</time>
      </trkpt>
      <trkpt lon="7.908777678385377" lat="48.33614925853908">
        <ele>182.0</ele>
        <time>2013-09-23T11:16:36.000Z</time>
      </trkpt>
      <trkpt lon="7.90805515833199" lat="48.33603199571371">
        <ele>180.8000030517578</ele>
        <time>2013-09-23T11:16:43.000Z</time>
      </trkpt>
      <trkpt lon="7.9074672516435385" lat="48.33600173704326">
        <ele>179.39999389648438</ele>
        <time>2013-09-23T11:16:49.000Z</time>
      </trkpt>
      <trkpt lon="7.907072464004159" lat="48.33603945560753">
        <ele>179.39999389648438</ele>
        <time>2013-09-23T11:16:53.000Z</time>
      </trkpt>
      <trkpt lon="7.90664104744792" lat="48.33614489994943">
        <ele>179.60000610351562</ele>
        <time>2013-09-23T11:16:59.000Z</time>
      </trkpt>
      <trkpt lon="7.90639135055244" lat="48.336100559681654">
        <ele>179.8000030517578</ele>
        <time>2013-09-23T11:17:04.000Z</time>
      </trkpt>
      <trkpt lon="7.906130086630583" lat="48.335860250517726">
        <ele>179.60000610351562</ele>
        <time>2013-09-23T11:17:10.000Z</time>
      </trkpt>
      <trkpt lon="7.906045094132423" lat="48.33576335571706">
        <ele>180.60000610351562</ele>
        <time>2013-09-23T11:17:12.000Z</time>
      </trkpt>
      <trkpt lon="7.905953982844949" lat="48.33567786030471">
        <ele>182.0</ele>
        <time>2013-09-23T11:17:14.000Z</time>
      </trkpt>
      <trkpt lon="7.905759857967496" lat="48.33549505099654">
        <ele>186.39999389648438</ele>
        <time>2013-09-23T11:17:19.000Z</time>
      </trkpt>
      <trkpt lon="7.905555758625269" lat="48.335447357967496">
        <ele>190.0</ele>
        <time>2013-09-23T11:17:23.000Z</time>
      </trkpt>
      <trkpt lon="7.905497085303068" lat="48.33546127192676">
        <ele>190.60000610351562</ele>
        <time>2013-09-23T11:17:24.000Z</time>
      </trkpt>
      <trkpt lon="7.905151583254337" lat="48.33553595468402">
        <ele>192.8000030517578</ele>
        <time>2013-09-23T11:17:29.000Z</time>
      </trkpt>
      <trkpt lon="7.905002469196916" lat="48.33557199686766">
        <ele>193.39999389648438</ele>
        <time>2013-09-23T11:17:31.000Z</time>
      </trkpt>
      <trkpt lon="7.904680436477065" lat="48.33571423776448">
        <ele>191.8000030517578</ele>
        <time>2013-09-23T11:17:35.000Z</time>
      </trkpt>
      <trkpt lon="7.904238877817988" lat="48.336027385666966">
        <ele>189.0</ele>
        <time>2013-09-23T11:17:41.000Z</time>
      </trkpt>
      <trkpt lon="7.90396336466074" lat="48.33621706813574">
        <ele>190.1999969482422</ele>
        <time>2013-09-23T11:17:45.000Z</time>
      </trkpt>
      <trkpt lon="7.903493894264102" lat="48.336466094478965">
        <ele>190.39999389648438</ele>
        <time>2013-09-23T11:17:51.000Z</time>
      </trkpt>
      <trkpt lon="7.903024759143591" lat="48.33671445026994">
        <ele>189.39999389648438</ele>
        <time>2013-09-23T11:17:58.000Z</time>
      </trkpt>
      <trkpt lon="7.9027212504297495" lat="48.33687387406826">
        <ele>190.1999969482422</ele>
        <time>2013-09-23T11:18:02.000Z</time>
      </trkpt>
      <trkpt lon="7.902376586571336" lat="48.33701955154538">
        <ele>190.0</ele>
        <time>2013-09-23T11:18:06.000Z</time>
      </trkpt>
      <trkpt lon="7.9021478444337845" lat="48.33708099089563">
        <ele>190.39999389648438</ele>
        <time>2013-09-23T11:18:09.000Z</time>
      </trkpt>
      <trkpt lon="7.9017555713653564" lat="48.337222980335355">
        <ele>190.1999969482422</ele>
        <time>2013-09-23T11:18:14.000Z</time>
      </trkpt>
      <trkpt lon="7.901422893628478" lat="48.33736136555672">
        <ele>188.1999969482422</ele>
        <time>2013-09-23T11:18:18.000Z</time>
      </trkpt>
      <trkpt lon="7.900762734934688" lat="48.33752414211631">
        <ele>186.1999969482422</ele>
        <time>2013-09-23T11:18:26.000Z</time>
      </trkpt>
      <trkpt lon="7.900691656395793" lat="48.337541073560715">
        <ele>186.39999389648438</ele>
        <time>2013-09-23T11:18:27.000Z</time>
      </trkpt>
      <trkpt lon="7.900364845991135" lat="48.33758465945721">
        <ele>187.8000030517578</ele>
        <time>2013-09-23T11:18:31.000Z</time>
      </trkpt>
      <trkpt lon="7.900208691135049" lat="48.33760586567223">
        <ele>188.60000610351562</ele>
        <time>2013-09-23T11:18:33.000Z</time>
      </trkpt>
      <trkpt lon="7.900037365034223" lat="48.337632939219475">
        <ele>189.1999969482422</ele>
        <time>2013-09-23T11:18:35.000Z</time>
      </trkpt>
      <trkpt lon="7.899564793333411" lat="48.33772245794535">
        <ele>189.0</ele>
        <time>2013-09-23T11:18:41.000Z</time>
      </trkpt>
      <trkpt lon="7.89916355162859" lat="48.33775967359543">
        <ele>189.39999389648438</ele>
        <time>2013-09-23T11:18:46.000Z</time>
      </trkpt>
      <trkpt lon="7.898544380441308" lat="48.33781549707055">
        <ele>188.0</ele>
        <time>2013-09-23T11:18:53.000Z</time>
      </trkpt>
      <trkpt lon="7.897891262546182" lat="48.33779135718942">
        <ele>187.1999969482422</ele>
        <time>2013-09-23T11:19:00.000Z</time>
      </trkpt>
      <trkpt lon="7.897352976724505" lat="48.33773226477206">
        <ele>187.0</ele>
        <time>2013-09-23T11:19:06.000Z</time>
      </trkpt>
      <trkpt lon="7.896931869909167" lat="48.337643248960376">
        <ele>187.0</ele>
        <time>2013-09-23T11:19:11.000Z</time>
      </trkpt>
      <trkpt lon="7.8965250961482525" lat="48.33761885762215">
        <ele>187.1999969482422</ele>
        <time>2013-09-23T11:19:16.000Z</time>
      </trkpt>
      <trkpt lon="7.896108850836754" lat="48.33768775686622">
        <ele>187.60000610351562</ele>
        <time>2013-09-23T11:19:21.000Z</time>
      </trkpt>
      <trkpt lon="7.8957057651132345" lat="48.33773595280945">
        <ele>187.60000610351562</ele>
        <time>2013-09-23T11:19:25.000Z</time>
      </trkpt>
      <trkpt lon="7.89532296359539" lat="48.33776428364217">
        <ele>187.1999969482422</ele>
        <time>2013-09-23T11:19:29.000Z</time>
      </trkpt>
      <trkpt lon="7.894705887883902" lat="48.337765792384744">
        <ele>186.39999389648438</ele>
        <time>2013-09-23T11:19:36.000Z</time>
      </trkpt>
      <trkpt lon="7.894395757466555" lat="48.337762439623475">
        <ele>185.60000610351562</ele>
        <time>2013-09-23T11:19:40.000Z</time>
      </trkpt>
      <trkpt lon="7.894224179908633" lat="48.33769027143717">
        <ele>186.0</ele>
        <time>2013-09-23T11:19:45.000Z</time>
      </trkpt>
      <trkpt lon="7.894274890422821" lat="48.33766537718475">
        <ele>186.39999389648438</ele>
        <time>2013-09-23T11:19:47.000Z</time>
      </trkpt>
      <trkpt lon="7.8944735415279865" lat="48.33763059228659">
        <ele>187.60000610351562</ele>
        <time>2013-09-23T11:19:53.000Z</time>
      </trkpt>
      <trkpt lon="7.894641263410449" lat="48.33758826367557">
        <ele>188.8000030517578</ele>
        <time>2013-09-23T11:19:57.000Z</time>
      </trkpt>
      <trkpt lon="7.89478006772697" lat="48.33751785568893">
        <ele>190.60000610351562</ele>
        <time>2013-09-23T11:20:02.000Z</time>
      </trkpt>
      <trkpt lon="7.894822144880891" lat="48.337350552901626">
        <ele>192.39999389648438</ele>
        <time>2013-09-23T11:20:08.000Z</time>
      </trkpt>
      <trkpt lon="7.894766489043832" lat="48.337205378338695">
        <ele>193.39999389648438</ele>
        <time>2013-09-23T11:20:14.000Z</time>
      </trkpt>
      <trkpt lon="7.894651992246509" lat="48.33701846189797">
        <ele>194.39999389648438</ele>
        <time>2013-09-23T11:20:22.000Z</time>
      </trkpt>
      <trkpt lon="7.894552750512958" lat="48.33685878664255">
        <ele>195.0</ele>
        <time>2013-09-23T11:20:29.000Z</time>
      </trkpt>
      <trkpt lon="7.894471446052194" lat="48.336738338693976">
        <ele>195.60000610351562</ele>
        <time>2013-09-23T11:20:35.000Z</time>
      </trkpt>
      <trkpt lon="7.894390057772398" lat="48.33656558766961">
        <ele>197.0</ele>
        <time>2013-09-23T11:20:42.000Z</time>
      </trkpt>
      <trkpt lon="7.894306238740683" lat="48.336371043697">
        <ele>199.1999969482422</ele>
        <time>2013-09-23T11:20:50.000Z</time>
      </trkpt>
      <trkpt lon="7.8942470625042915" lat="48.336161160841584">
        <ele>201.8000030517578</ele>
        <time>2013-09-23T11:20:58.000Z</time>
      </trkpt>
      <trkpt lon="7.894202554598451" lat="48.33594935014844">
        <ele>204.60000610351562</ele>
        <time>2013-09-23T11:21:06.000Z</time>
      </trkpt>
      <trkpt lon="7.89417615160346" lat="48.335753632709384">
        <ele>208.0</ele>
        <time>2013-09-23T11:21:13.000Z</time>
      </trkpt>
      <trkpt lon="7.894150335341692" lat="48.33561164326966">
        <ele>211.1999969482422</ele>
        <time>2013-09-23T11:21:19.000Z</time>
      </trkpt>
      <trkpt lon="7.894134158268571" lat="48.33551944233477">
        <ele>213.39999389648438</ele>
        <time>2013-09-23T11:21:23.000Z</time>
      </trkpt>
      <trkpt lon="7.8941213339567184" lat="48.33535046316683">
        <ele>217.39999389648438</ele>
        <time>2013-09-23T11:21:29.000Z</time>
      </trkpt>
      <trkpt lon="7.894140863791108" lat="48.3351637981832">
        <ele>222.39999389648438</ele>
        <time>2013-09-23T11:21:36.000Z</time>
      </trkpt>
      <trkpt lon="7.894185790792108" lat="48.33499507047236">
        <ele>227.1999969482422</ele>
        <time>2013-09-23T11:21:44.000Z</time>
      </trkpt>
      <trkpt lon="7.894217474386096" lat="48.334842855110765">
        <ele>228.60000610351562</ele>
        <time>2013-09-23T11:21:50.000Z</time>
      </trkpt>
      <trkpt lon="7.894266340881586" lat="48.33470597863197">
        <ele>230.1999969482422</ele>
        <time>2013-09-23T11:21:56.000Z</time>
      </trkpt>
      <trkpt lon="7.894330462440848" lat="48.33456608466804">
        <ele>232.0</ele>
        <time>2013-09-23T11:22:02.000Z</time>
      </trkpt>
      <trkpt lon="7.8943489864468575" lat="48.33438813686371">
        <ele>233.60000610351562</ele>
        <time>2013-09-23T11:22:10.000Z</time>
      </trkpt>
      <trkpt lon="7.894373880699277" lat="48.334190072491765">
        <ele>235.39999389648438</ele>
        <time>2013-09-23T11:22:18.000Z</time>
      </trkpt>
      <trkpt lon="7.894427860155702" lat="48.33406275138259">
        <ele>237.0</ele>
        <time>2013-09-23T11:22:24.000Z</time>
      </trkpt>
      <trkpt lon="7.89444194175303" lat="48.33398379385471">
        <ele>237.8000030517578</ele>
        <time>2013-09-23T11:22:27.000Z</time>
      </trkpt>
      <trkpt lon="7.894466333091259" lat="48.33388203755021">
        <ele>238.8000030517578</ele>
        <time>2013-09-23T11:22:32.000Z</time>
      </trkpt>
      <trkpt lon="7.89450497366488" lat="48.33381053991616">
        <ele>239.8000030517578</ele>
        <time>2013-09-23T11:22:36.000Z</time>
      </trkpt>
      <trkpt lon="7.894532382488251" lat="48.33371473476291">
        <ele>240.8000030517578</ele>
        <time>2013-09-23T11:22:40.000Z</time>
      </trkpt>
      <trkpt lon="7.894542692229152" lat="48.333592945709825">
        <ele>241.60000610351562</ele>
        <time>2013-09-23T11:22:45.000Z</time>
      </trkpt>
      <trkpt lon="7.8946048859506845" lat="48.33342606201768">
        <ele>243.60000610351562</ele>
        <time>2013-09-23T11:22:51.000Z</time>
      </trkpt>
      <trkpt lon="7.89461494423449" lat="48.333296896889806">
        <ele>244.1999969482422</ele>
        <time>2013-09-23T11:22:57.000Z</time>
      </trkpt>
      <trkpt lon="7.89463447406888" lat="48.333173179998994">
        <ele>244.39999389648438</ele>
        <time>2013-09-23T11:23:02.000Z</time>
      </trkpt>
      <trkpt lon="7.894638748839498" lat="48.3330138400197">
        <ele>244.60000610351562</ele>
        <time>2013-09-23T11:23:08.000Z</time>
      </trkpt>
      <trkpt lon="7.894677137956023" lat="48.332860451191664">
        <ele>244.8000030517578</ele>
        <time>2013-09-23T11:23:14.000Z</time>
      </trkpt>
      <trkpt lon="7.8946770541369915" lat="48.33282516337931">
        <ele>244.8000030517578</ele>
        <time>2013-09-23T11:23:16.000Z</time>
      </trkpt>
      <trkpt lon="7.894697589799762" lat="48.33267814479768">
        <ele>245.0</ele>
        <time>2013-09-23T11:23:23.000Z</time>
      </trkpt>
      <trkpt lon="7.894703960046172" lat="48.33265408873558">
        <ele>245.1999969482422</ele>
        <time>2013-09-23T11:23:24.000Z</time>
      </trkpt>
      <trkpt lon="7.89474687539041" lat="48.33247144706547">
        <ele>245.60000610351562</ele>
        <time>2013-09-23T11:23:31.000Z</time>
      </trkpt>
      <trkpt lon="7.894742852076888" lat="48.33240045234561">
        <ele>246.1999969482422</ele>
        <time>2013-09-23T11:23:34.000Z</time>
      </trkpt>
      <trkpt lon="7.894776798784733" lat="48.33222275599837">
        <ele>248.0</ele>
        <time>2013-09-23T11:23:41.000Z</time>
      </trkpt>
      <trkpt lon="7.894801776856184" lat="48.33207976073027">
        <ele>249.39999389648438</ele>
        <time>2013-09-23T11:23:46.000Z</time>
      </trkpt>
      <trkpt lon="7.894809152930975" lat="48.33192653954029">
        <ele>250.8000030517578</ele>
        <time>2013-09-23T11:23:51.000Z</time>
      </trkpt>
      <trkpt lon="7.89484653621912" lat="48.33179787732661">
        <ele>252.1999969482422</ele>
        <time>2013-09-23T11:23:56.000Z</time>
      </trkpt>
      <trkpt lon="7.894868580624461" lat="48.33173794671893">
        <ele>252.8000030517578</ele>
        <time>2013-09-23T11:23:59.000Z</time>
      </trkpt>
      <trkpt lon="7.894884254783392" lat="48.33159679546952">
        <ele>253.8000030517578</ele>
        <time>2013-09-23T11:24:04.000Z</time>
      </trkpt>
      <trkpt lon="7.894892552867532" lat="48.3314907643944">
        <ele>254.1999969482422</ele>
        <time>2013-09-23T11:24:08.000Z</time>
      </trkpt>
      <trkpt lon="7.894903952255845" lat="48.33137056790292">
        <ele>254.60000610351562</ele>
        <time>2013-09-23T11:24:13.000Z</time>
      </trkpt>
      <trkpt lon="7.894901856780052" lat="48.33131273277104">
        <ele>254.8000030517578</ele>
        <time>2013-09-23T11:24:15.000Z</time>
      </trkpt>
      <trkpt lon="7.894908562302589" lat="48.3311643730849">
        <ele>255.39999389648438</ele>
        <time>2013-09-23T11:24:21.000Z</time>
      </trkpt>
      <trkpt lon="7.894903952255845" lat="48.331130761653185">
        <ele>255.39999389648438</ele>
        <time>2013-09-23T11:24:22.000Z</time>
      </trkpt>
      <trkpt lon="7.894947789609432" lat="48.330960189923644">
        <ele>256.20001220703125</ele>
        <time>2013-09-23T11:24:28.000Z</time>
      </trkpt>
      <trkpt lon="7.894982658326626" lat="48.330794060602784">
        <ele>257.20001220703125</ele>
        <time>2013-09-23T11:24:33.000Z</time>
      </trkpt>
      <trkpt lon="7.895017359405756" lat="48.33062533289194">
        <ele>259.0</ele>
        <time>2013-09-23T11:24:38.000Z</time>
      </trkpt>
      <trkpt lon="7.8950216341763735" lat="48.330598175525665">
        <ele>259.20001220703125</ele>
        <time>2013-09-23T11:24:39.000Z</time>
      </trkpt>
      <trkpt lon="7.895063292235136" lat="48.33051829598844">
        <ele>260.79998779296875</ele>
        <time>2013-09-23T11:24:43.000Z</time>
      </trkpt>
      <trkpt lon="7.8950634598731995" lat="48.33035669289529">
        <ele>262.0</ele>
        <time>2013-09-23T11:24:48.000Z</time>
      </trkpt>
      <trkpt lon="7.89507276378572" lat="48.33032425493002">
        <ele>262.6000061035156</ele>
        <time>2013-09-23T11:24:49.000Z</time>
      </trkpt>
      <trkpt lon="7.895104866474867" lat="48.330132560804486">
        <ele>264.79998779296875</ele>
        <time>2013-09-23T11:24:56.000Z</time>
      </trkpt>
      <trkpt lon="7.895106375217438" lat="48.32998017780483">
        <ele>266.0</ele>
        <time>2013-09-23T11:25:01.000Z</time>
      </trkpt>
      <trkpt lon="7.895113164559007" lat="48.32992686890066">
        <ele>266.3999938964844</ele>
        <time>2013-09-23T11:25:03.000Z</time>
      </trkpt>
      <trkpt lon="7.895113164559007" lat="48.32992686890066">
        <ele>266.3999938964844</ele>
        <time>2013-09-23T11:25:03.000Z</time>
      </trkpt>
      <trkpt lon="7.895143758505583" lat="48.32987238653004">
        <ele>267.0</ele>
        <time>2013-09-23T11:25:06.000Z</time>
      </trkpt>
      <trkpt lon="7.8951735980808735" lat="48.32971187308431">
        <ele>268.20001220703125</ele>
        <time>2013-09-23T11:25:12.000Z</time>
      </trkpt>
      <trkpt lon="7.89521399885416" lat="48.329596957191825">
        <ele>269.20001220703125</ele>
        <time>2013-09-23T11:25:16.000Z</time>
      </trkpt>
      <trkpt lon="7.895248951390386" lat="48.329441640526056">
        <ele>270.20001220703125</ele>
        <time>2013-09-23T11:25:21.000Z</time>
      </trkpt>
      <trkpt lon="7.895259261131287" lat="48.32940869964659">
        <ele>270.6000061035156</ele>
        <time>2013-09-23T11:25:22.000Z</time>
      </trkpt>
      <trkpt lon="7.895283233374357" lat="48.32923603244126">
        <ele>271.3999938964844</ele>
        <time>2013-09-23T11:25:29.000Z</time>
      </trkpt>
      <trkpt lon="7.895306954160333" lat="48.32916026003659">
        <ele>272.0</ele>
        <time>2013-09-23T11:25:34.000Z</time>
      </trkpt>
      <trkpt lon="7.895338386297226" lat="48.32908465526998">
        <ele>273.0</ele>
        <time>2013-09-23T11:25:38.000Z</time>
      </trkpt>
      <trkpt lon="7.895386666059494" lat="48.328916262835264">
        <ele>274.3999938964844</ele>
        <time>2013-09-23T11:25:44.000Z</time>
      </trkpt>
      <trkpt lon="7.895432263612747" lat="48.328796150162816">
        <ele>275.3999938964844</ele>
        <time>2013-09-23T11:25:50.000Z</time>
      </trkpt>
      <trkpt lon="7.895438969135284" lat="48.3286105748266">
        <ele>276.20001220703125</ele>
        <time>2013-09-23T11:25:57.000Z</time>
      </trkpt>
      <trkpt lon="7.895459169521928" lat="48.32845827564597">
        <ele>277.0</ele>
        <time>2013-09-23T11:26:03.000Z</time>
      </trkpt>
      <trkpt lon="7.895510299131274" lat="48.32832584157586">
        <ele>277.79998779296875</ele>
        <time>2013-09-23T11:26:08.000Z</time>
      </trkpt>
      <trkpt lon="7.895513484254479" lat="48.32822936587036">
        <ele>278.6000061035156</ele>
        <time>2013-09-23T11:26:12.000Z</time>
      </trkpt>
      <trkpt lon="7.895495966076851" lat="48.32810388877988">
        <ele>279.20001220703125</ele>
        <time>2013-09-23T11:26:17.000Z</time>
      </trkpt>
      <trkpt lon="7.895511640235782" lat="48.32796139642596">
        <ele>280.3999938964844</ele>
        <time>2013-09-23T11:26:22.000Z</time>
      </trkpt>
      <trkpt lon="7.895527398213744" lat="48.32794236950576">
        <ele>280.79998779296875</ele>
        <time>2013-09-23T11:26:23.000Z</time>
      </trkpt>
      <trkpt lon="7.895510550588369" lat="48.32783164456487">
        <ele>281.3999938964844</ele>
        <time>2013-09-23T11:26:28.000Z</time>
      </trkpt>
      <trkpt lon="7.895505269989371" lat="48.32775838673115">
        <ele>281.79998779296875</ele>
        <time>2013-09-23T11:26:31.000Z</time>
      </trkpt>
      <trkpt lon="7.895502084866166" lat="48.32761287689209">
        <ele>282.79998779296875</ele>
        <time>2013-09-23T11:26:37.000Z</time>
      </trkpt>
      <trkpt lon="7.895483057945967" lat="48.32749896682799">
        <ele>283.20001220703125</ele>
        <time>2013-09-23T11:26:41.000Z</time>
      </trkpt>
      <trkpt lon="7.895428156480193" lat="48.327324371784925">
        <ele>285.6000061035156</ele>
        <time>2013-09-23T11:26:47.000Z</time>
      </trkpt>
      <trkpt lon="7.895376356318593" lat="48.32714784890413">
        <ele>287.79998779296875</ele>
        <time>2013-09-23T11:26:53.000Z</time>
      </trkpt>
      <trkpt lon="7.895363783463836" lat="48.326987754553556">
        <ele>290.20001220703125</ele>
        <time>2013-09-23T11:26:59.000Z</time>
      </trkpt>
      <trkpt lon="7.895359760150313" lat="48.326963782310486">
        <ele>290.6000061035156</ele>
        <time>2013-09-23T11:27:00.000Z</time>
      </trkpt>
      <trkpt lon="7.895359173417091" lat="48.32684786058962">
        <ele>292.3999938964844</ele>
        <time>2013-09-23T11:27:06.000Z</time>
      </trkpt>
      <trkpt lon="7.8953290823847055" lat="48.32676714286208">
        <ele>293.3999938964844</ele>
        <time>2013-09-23T11:27:09.000Z</time>
      </trkpt>
      <trkpt lon="7.895345678552985" lat="48.3266194537282">
        <ele>295.3999938964844</ele>
        <time>2013-09-23T11:27:17.000Z</time>
      </trkpt>
      <trkpt lon="7.8953605983406305" lat="48.32649934105575">
        <ele>296.0</ele>
        <time>2013-09-23T11:27:22.000Z</time>
      </trkpt>
      <trkpt lon="7.895388258621097" lat="48.32635483704507">
        <ele>297.0</ele>
        <time>2013-09-23T11:27:27.000Z</time>
      </trkpt>
      <trkpt lon="7.895397981628776" lat="48.32620865665376">
        <ele>297.79998779296875</ele>
        <time>2013-09-23T11:27:32.000Z</time>
      </trkpt>
      <trkpt lon="7.895377445966005" lat="48.326020650565624">
        <ele>298.0</ele>
        <time>2013-09-23T11:27:38.000Z</time>
      </trkpt>
      <trkpt lon="7.8954053577035666" lat="48.325856951996684">
        <ele>299.0</ele>
        <time>2013-09-23T11:27:44.000Z</time>
      </trkpt>
      <trkpt lon="7.895400747656822" lat="48.325833482667804">
        <ele>299.0</ele>
        <time>2013-09-23T11:27:45.000Z</time>
      </trkpt>
      <trkpt lon="7.89544215425849" lat="48.32574639469385">
        <ele>299.6000061035156</ele>
        <time>2013-09-23T11:27:49.000Z</time>
      </trkpt>
      <trkpt lon="7.895497474819422" lat="48.32562225870788">
        <ele>300.20001220703125</ele>
        <time>2013-09-23T11:27:54.000Z</time>
      </trkpt>
      <trkpt lon="7.895526392385364" lat="48.32551019266248">
        <ele>300.20001220703125</ele>
        <time>2013-09-23T11:27:58.000Z</time>
      </trkpt>
      <trkpt lon="7.895564194768667" lat="48.32528715021908">
        <ele>300.0</ele>
        <time>2013-09-23T11:28:05.000Z</time>
      </trkpt>
      <trkpt lon="7.895603841170669" lat="48.32514775916934">
        <ele>300.20001220703125</ele>
        <time>2013-09-23T11:28:11.000Z</time>
      </trkpt>
      <trkpt lon="7.895667459815741" lat="48.32502169534564">
        <ele>300.79998779296875</ele>
        <time>2013-09-23T11:28:17.000Z</time>
      </trkpt>
      <trkpt lon="7.895727474242449" lat="48.32488196901977">
        <ele>301.79998779296875</ele>
        <time>2013-09-23T11:28:22.000Z</time>
      </trkpt>
      <trkpt lon="7.895751865580678" lat="48.324713157489896">
        <ele>302.0</ele>
        <time>2013-09-23T11:28:29.000Z</time>
      </trkpt>
      <trkpt lon="7.895818250253797" lat="48.32456345669925">
        <ele>303.0</ele>
        <time>2013-09-23T11:28:35.000Z</time>
      </trkpt>
      <trkpt lon="7.895870972424746" lat="48.324418533593416">
        <ele>304.0</ele>
        <time>2013-09-23T11:28:41.000Z</time>
      </trkpt>
      <trkpt lon="7.895962670445442" lat="48.32421694882214">
        <ele>305.79998779296875</ele>
        <time>2013-09-23T11:28:48.000Z</time>
      </trkpt>
      <trkpt lon="7.896055458113551" lat="48.324030535295606">
        <ele>307.3999938964844</ele>
        <time>2013-09-23T11:28:55.000Z</time>
      </trkpt>
      <trkpt lon="7.896115556359291" lat="48.32390044815838">
        <ele>308.3999938964844</ele>
        <time>2013-09-23T11:29:00.000Z</time>
      </trkpt>
      <trkpt lon="7.8962464816868305" lat="48.32375317811966">
        <ele>310.6000061035156</ele>
        <time>2013-09-23T11:29:07.000Z</time>
      </trkpt>
      <trkpt lon="7.896345052868128" lat="48.323626946657896">
        <ele>312.0</ele>
        <time>2013-09-23T11:29:13.000Z</time>
      </trkpt>
      <trkpt lon="7.896521994844079" lat="48.32338479347527">
        <ele>313.79998779296875</ele>
        <time>2013-09-23T11:29:24.000Z</time>
      </trkpt>
      <trkpt lon="7.896622242406011" lat="48.32321824505925">
        <ele>314.79998779296875</ele>
        <time>2013-09-23T11:29:31.000Z</time>
      </trkpt>
      <trkpt lon="7.8967424388974905" lat="48.323001489043236">
        <ele>315.79998779296875</ele>
        <time>2013-09-23T11:29:39.000Z</time>
      </trkpt>
      <trkpt lon="7.896904796361923" lat="48.32278129644692">
        <ele>317.6000061035156</ele>
        <time>2013-09-23T11:29:48.000Z</time>
      </trkpt>
      <trkpt lon="7.897090958431363" lat="48.32254878245294">
        <ele>319.6000061035156</ele>
        <time>2013-09-23T11:29:58.000Z</time>
      </trkpt>
      <trkpt lon="7.897253734990954" lat="48.32235197536647">
        <ele>321.3999938964844</ele>
        <time>2013-09-23T11:30:07.000Z</time>
      </trkpt>
      <trkpt lon="7.897480549290776" lat="48.32210655324161">
        <ele>323.79998779296875</ele>
        <time>2013-09-23T11:30:18.000Z</time>
      </trkpt>
      <trkpt lon="7.897707195952535" lat="48.32192676141858">
        <ele>325.79998779296875</ele>
        <time>2013-09-23T11:30:27.000Z</time>
      </trkpt>
      <trkpt lon="7.897976171225309" lat="48.321773959323764">
        <ele>328.6000061035156</ele>
        <time>2013-09-23T11:30:36.000Z</time>
      </trkpt>
      <trkpt lon="7.898254198953509" lat="48.32164873369038">
        <ele>331.79998779296875</ele>
        <time>2013-09-23T11:30:44.000Z</time>
      </trkpt>
      <trkpt lon="7.898551756516099" lat="48.321544295176864">
        <ele>334.20001220703125</ele>
        <time>2013-09-23T11:30:52.000Z</time>
      </trkpt>
      <trkpt lon="7.89882886223495" lat="48.32143415696919">
        <ele>336.3999938964844</ele>
        <time>2013-09-23T11:31:00.000Z</time>
      </trkpt>
      <trkpt lon="7.898946460336447" lat="48.321286886930466">
        <ele>337.3999938964844</ele>
        <time>2013-09-23T11:31:06.000Z</time>
      </trkpt>
      <trkpt lon="7.898980490863323" lat="48.32104875706136">
        <ele>337.79998779296875</ele>
        <time>2013-09-23T11:31:14.000Z</time>
      </trkpt>
      <trkpt lon="7.898986861109734" lat="48.32080593332648">
        <ele>338.3999938964844</ele>
        <time>2013-09-23T11:31:22.000Z</time>
      </trkpt>
      <trkpt lon="7.899036481976509" lat="48.32052446901798">
        <ele>342.6000061035156</ele>
        <time>2013-09-23T11:31:31.000Z</time>
      </trkpt>
      <trkpt lon="7.899094149470329" lat="48.320302683860064">
        <ele>346.79998779296875</ele>
        <time>2013-09-23T11:31:38.000Z</time>
      </trkpt>
      <trkpt lon="7.899169251322746" lat="48.32013479433954">
        <ele>350.79998779296875</ele>
        <time>2013-09-23T11:31:44.000Z</time>
      </trkpt>
      <trkpt lon="7.899242760613561" lat="48.31994125619531">
        <ele>355.0</ele>
        <time>2013-09-23T11:31:51.000Z</time>
      </trkpt>
      <trkpt lon="7.899302691221237" lat="48.31977965310216">
        <ele>357.79998779296875</ele>
        <time>2013-09-23T11:31:57.000Z</time>
      </trkpt>
      <trkpt lon="7.89933848194778" lat="48.31965979188681">
        <ele>359.79998779296875</ele>
        <time>2013-09-23T11:32:02.000Z</time>
      </trkpt>
      <trkpt lon="7.8993691597133875" lat="48.31956557929516">
        <ele>361.3999938964844</ele>
        <time>2013-09-23T11:32:06.000Z</time>
      </trkpt>
      <trkpt lon="7.899387767538428" lat="48.31941755488515">
        <ele>363.3999938964844</ele>
        <time>2013-09-23T11:32:12.000Z</time>
      </trkpt>
      <trkpt lon="7.899431772530079" lat="48.31931638531387">
        <ele>365.0</ele>
        <time>2013-09-23T11:32:16.000Z</time>
      </trkpt>
      <trkpt lon="7.899446692317724" lat="48.31925285048783">
        <ele>366.0</ele>
        <time>2013-09-23T11:32:18.000Z</time>
      </trkpt>
      <trkpt lon="7.899507964029908" lat="48.31913315691054">
        <ele>367.6000061035156</ele>
        <time>2013-09-23T11:32:25.000Z</time>
      </trkpt>
      <trkpt lon="7.899578791111708" lat="48.318975660949945">
        <ele>368.0</ele>
        <time>2013-09-23T11:32:31.000Z</time>
      </trkpt>
      <trkpt lon="7.899698568508029" lat="48.31877265125513">
        <ele>369.20001220703125</ele>
        <time>2013-09-23T11:32:38.000Z</time>
      </trkpt>
      <trkpt lon="7.89973234757781" lat="48.318717163056135">
        <ele>369.6000061035156</ele>
        <time>2013-09-23T11:32:40.000Z</time>
      </trkpt>
      <trkpt lon="7.899867044761777" lat="48.318571066483855">
        <ele>371.79998779296875</ele>
        <time>2013-09-23T11:32:47.000Z</time>
      </trkpt>
      <trkpt lon="7.8999999817460775" lat="48.31840217113495">
        <ele>374.0</ele>
        <time>2013-09-23T11:32:54.000Z</time>
      </trkpt>
      <trkpt lon="7.900142390280962" lat="48.31824048422277">
        <ele>373.79998779296875</ele>
        <time>2013-09-23T11:33:01.000Z</time>
      </trkpt>
      <trkpt lon="7.9002332501113415" lat="48.318159179762006">
        <ele>373.6000061035156</ele>
        <time>2013-09-23T11:33:06.000Z</time>
      </trkpt>
      <trkpt lon="7.900372473523021" lat="48.31804107874632">
        <ele>373.3999938964844</ele>
        <time>2013-09-23T11:33:12.000Z</time>
      </trkpt>
      <trkpt lon="7.9005342442542315" lat="48.31787159666419">
        <ele>372.6000061035156</ele>
        <time>2013-09-23T11:33:19.000Z</time>
      </trkpt>
      <trkpt lon="7.90068075992167" lat="48.317735558375716">
        <ele>372.20001220703125</ele>
        <time>2013-09-23T11:33:25.000Z</time>
      </trkpt>
      <trkpt lon="7.90082685649395" lat="48.31752517260611">
        <ele>371.20001220703125</ele>
        <time>2013-09-23T11:33:32.000Z</time>
      </trkpt>
      <trkpt lon="7.900926433503628" lat="48.317297687754035">
        <ele>370.20001220703125</ele>
        <time>2013-09-23T11:33:39.000Z</time>
      </trkpt>
      <trkpt lon="7.901017460972071" lat="48.31707037054002">
        <ele>369.6000061035156</ele>
        <time>2013-09-23T11:33:46.000Z</time>
      </trkpt>
      <trkpt lon="7.901118043810129" lat="48.3168160635978">
        <ele>368.79998779296875</ele>
        <time>2013-09-23T11:33:54.000Z</time>
      </trkpt>
      <trkpt lon="7.901265732944012" lat="48.31664314493537">
        <ele>369.0</ele>
        <time>2013-09-23T11:34:01.000Z</time>
      </trkpt>
      <trkpt lon="7.901347288861871" lat="48.316434267908335">
        <ele>370.3999938964844</ele>
        <time>2013-09-23T11:34:09.000Z</time>
      </trkpt>
      <trkpt lon="7.901413757354021" lat="48.31617987714708">
        <ele>371.79998779296875</ele>
        <time>2013-09-23T11:34:18.000Z</time>
      </trkpt>
      <trkpt lon="7.9014713410288095" lat="48.31591995432973">
        <ele>373.0</ele>
        <time>2013-09-23T11:34:27.000Z</time>
      </trkpt>
      <trkpt lon="7.90150704793632" lat="48.31566254608333">
        <ele>374.3999938964844</ele>
        <time>2013-09-23T11:34:36.000Z</time>
      </trkpt>
      <trkpt lon="7.901561949402094" lat="48.31538879312575">
        <ele>376.20001220703125</ele>
        <time>2013-09-23T11:34:45.000Z</time>
      </trkpt>
      <trkpt lon="7.9015744384378195" lat="48.31505175679922">
        <ele>378.20001220703125</ele>
        <time>2013-09-23T11:34:55.000Z</time>
      </trkpt>
      <trkpt lon="7.901570163667202" lat="48.3147488348186">
        <ele>379.20001220703125</ele>
        <time>2013-09-23T11:35:03.000Z</time>
      </trkpt>
      <trkpt lon="7.901591369882226" lat="48.31440484151244">
        <ele>380.6000061035156</ele>
        <time>2013-09-23T11:35:12.000Z</time>
      </trkpt>
      <trkpt lon="7.9016053676605225" lat="48.31401156261563">
        <ele>382.20001220703125</ele>
        <time>2013-09-23T11:35:22.000Z</time>
      </trkpt>
      <trkpt lon="7.901596482843161" lat="48.313619792461395">
        <ele>384.0</ele>
        <time>2013-09-23T11:35:31.000Z</time>
      </trkpt>
      <trkpt lon="7.901564966887236" lat="48.31330538727343">
        <ele>385.0</ele>
        <time>2013-09-23T11:35:38.000Z</time>
      </trkpt>
      <trkpt lon="7.901533450931311" lat="48.312912695109844">
        <ele>386.0</ele>
        <time>2013-09-23T11:35:46.000Z</time>
      </trkpt>
      <trkpt lon="7.901483662426472" lat="48.31258496269584">
        <ele>386.3999938964844</ele>
        <time>2013-09-23T11:35:53.000Z</time>
      </trkpt>
      <trkpt lon="7.901402860879898" lat="48.3122190926224">
        <ele>387.79998779296875</ele>
        <time>2013-09-23T11:36:00.000Z</time>
      </trkpt>
      <trkpt lon="7.901298841461539" lat="48.311851378530264">
        <ele>389.3999938964844</ele>
        <time>2013-09-23T11:36:07.000Z</time>
      </trkpt>
      <trkpt lon="7.901272689923644" lat="48.31174308434129">
        <ele>390.0</ele>
        <time>2013-09-23T11:36:09.000Z</time>
      </trkpt>
      <trkpt lon="7.901040846481919" lat="48.31121879629791">
        <ele>390.6000061035156</ele>
        <time>2013-09-23T11:36:19.000Z</time>
      </trkpt>
      <trkpt lon="7.900782264769077" lat="48.31080707721412">
        <ele>390.79998779296875</ele>
        <time>2013-09-23T11:36:27.000Z</time>
      </trkpt>
      <trkpt lon="7.900457298383117" lat="48.310429975390434">
        <ele>392.79998779296875</ele>
        <time>2013-09-23T11:36:35.000Z</time>
      </trkpt>
      <trkpt lon="7.9000314977020025" lat="48.31004214473069">
        <ele>393.79998779296875</ele>
        <time>2013-09-23T11:36:44.000Z</time>
      </trkpt>
      <trkpt lon="7.8997802920639515" lat="48.30982865765691">
        <ele>393.79998779296875</ele>
        <time>2013-09-23T11:36:49.000Z</time>
      </trkpt>
      <trkpt lon="7.8993782959878445" lat="48.30966789275408">
        <ele>392.0</ele>
        <time>2013-09-23T11:36:55.000Z</time>
      </trkpt>
      <trkpt lon="7.8992928843945265" lat="48.30965858884156">
        <ele>391.20001220703125</ele>
        <time>2013-09-23T11:36:56.000Z</time>
      </trkpt>
      <trkpt lon="7.898603891953826" lat="48.30963956192136">
        <ele>388.3999938964844</ele>
        <time>2013-09-23T11:37:04.000Z</time>
      </trkpt>
      <trkpt lon="7.898023696616292" lat="48.30974827520549">
        <ele>386.20001220703125</ele>
        <time>2013-09-23T11:37:10.000Z</time>
      </trkpt>
      <trkpt lon="7.897345181554556" lat="48.30995765514672">
        <ele>385.6000061035156</ele>
        <time>2013-09-23T11:37:17.000Z</time>
      </trkpt>
      <trkpt lon="7.896526353433728" lat="48.310183295980096">
        <ele>383.3999938964844</ele>
        <time>2013-09-23T11:37:26.000Z</time>
      </trkpt>
      <trkpt lon="7.8955985605716705" lat="48.310380186885595">
        <ele>382.79998779296875</ele>
        <time>2013-09-23T11:37:35.000Z</time>
      </trkpt>
      <trkpt lon="7.894705887883902" lat="48.31044816412032">
        <ele>382.3999938964844</ele>
        <time>2013-09-23T11:37:43.000Z</time>
      </trkpt>
      <trkpt lon="7.893984289839864" lat="48.310437854379416">
        <ele>380.3999938964844</ele>
        <time>2013-09-23T11:37:49.000Z</time>
      </trkpt>
      <trkpt lon="7.893419768661261" lat="48.310352861881256">
        <ele>377.3999938964844</ele>
        <time>2013-09-23T11:37:53.000Z</time>
      </trkpt>
      <trkpt lon="7.892441852018237" lat="48.31021565012634">
        <ele>370.79998779296875</ele>
        <time>2013-09-23T11:37:59.000Z</time>
      </trkpt>
      <trkpt lon="7.891763169318438" lat="48.31013459712267">
        <ele>365.20001220703125</ele>
        <time>2013-09-23T11:38:03.000Z</time>
      </trkpt>
      <trkpt lon="7.891763169318438" lat="48.31013459712267">
        <ele>365.20001220703125</ele>
        <time>2013-09-23T11:38:03.000Z</time>
      </trkpt>
      <trkpt lon="7.891580946743488" lat="48.31011657603085">
        <ele>364.0</ele>
        <time>2013-09-23T11:38:04.000Z</time>
      </trkpt>
      <trkpt lon="7.8905933909118176" lat="48.3100466709584">
        <ele>357.3999938964844</ele>
        <time>2013-09-23T11:38:09.000Z</time>
      </trkpt>
      <trkpt lon="7.889484046027064" lat="48.31003753468394">
        <ele>350.3999938964844</ele>
        <time>2013-09-23T11:38:14.000Z</time>
      </trkpt>
      <trkpt lon="7.888714335858822" lat="48.31007986329496">
        <ele>344.3999938964844</ele>
        <time>2013-09-23T11:38:18.000Z</time>
      </trkpt>
      <trkpt lon="7.888552565127611" lat="48.31009117886424">
        <ele>342.6000061035156</ele>
        <time>2013-09-23T11:38:19.000Z</time>
      </trkpt>
      <trkpt lon="7.887970190495253" lat="48.310221349820495">
        <ele>336.0</ele>
        <time>2013-09-23T11:38:23.000Z</time>
      </trkpt>
      <trkpt lon="7.887556962668896" lat="48.31045176833868">
        <ele>332.79998779296875</ele>
        <time>2013-09-23T11:38:26.000Z</time>
      </trkpt>
      <trkpt lon="7.886682143434882" lat="48.31104998476803">
        <ele>327.3999938964844</ele>
        <time>2013-09-23T11:38:32.000Z</time>
      </trkpt>
      <trkpt lon="7.8859899658709764" lat="48.31139045767486">
        <ele>324.0</ele>
        <time>2013-09-23T11:38:36.000Z</time>
      </trkpt>
      <trkpt lon="7.885251771658659" lat="48.31159899942577">
        <ele>317.79998779296875</ele>
        <time>2013-09-23T11:38:40.000Z</time>
      </trkpt>
      <trkpt lon="7.884713066741824" lat="48.31165968440473">
        <ele>315.3999938964844</ele>
        <time>2013-09-23T11:38:43.000Z</time>
      </trkpt>
      <trkpt lon="7.884104456752539" lat="48.31156664527953">
        <ele>312.6000061035156</ele>
        <time>2013-09-23T11:38:47.000Z</time>
      </trkpt>
      <trkpt lon="7.883884347975254" lat="48.31138509325683">
        <ele>309.79998779296875</ele>
        <time>2013-09-23T11:38:49.000Z</time>
      </trkpt>
      <trkpt lon="7.883798265829682" lat="48.3112882822752">
        <ele>308.20001220703125</ele>
        <time>2013-09-23T11:38:50.000Z</time>
      </trkpt>
      <trkpt lon="7.883293842896819" lat="48.31062946468592">
        <ele>297.3999938964844</ele>
        <time>2013-09-23T11:38:56.000Z</time>
      </trkpt>
      <trkpt lon="7.8832268714904785" lat="48.31051588989794">
        <ele>294.3999938964844</ele>
        <time>2013-09-23T11:38:57.000Z</time>
      </trkpt>
      <trkpt lon="7.882786653935909" lat="48.310180865228176">
        <ele>288.3999938964844</ele>
        <time>2013-09-23T11:39:01.000Z</time>
      </trkpt>
      <trkpt lon="7.882461855188012" lat="48.31012085080147">
        <ele>289.79998779296875</ele>
        <time>2013-09-23T11:39:03.000Z</time>
      </trkpt>
      <trkpt lon="7.881458457559347" lat="48.30998363904655">
        <ele>287.0</ele>
        <time>2013-09-23T11:39:09.000Z</time>
      </trkpt>
      <trkpt lon="7.880129674449563" lat="48.309738552197814">
        <ele>279.20001220703125</ele>
        <time>2013-09-23T11:39:17.000Z</time>
      </trkpt>
      <trkpt lon="7.878905162215233" lat="48.309466391801834">
        <ele>266.6000061035156</ele>
        <time>2013-09-23T11:39:24.000Z</time>
      </trkpt>
      <trkpt lon="7.877658437937498" lat="48.30912558361888">
        <ele>264.20001220703125</ele>
        <time>2013-09-23T11:39:31.000Z</time>
      </trkpt>
      <trkpt lon="7.876311298459768" lat="48.3087067399174">
        <ele>256.20001220703125</ele>
        <time>2013-09-23T11:39:39.000Z</time>
      </trkpt>
      <trkpt lon="7.875062478706241" lat="48.308270797133446">
        <ele>249.0</ele>
        <time>2013-09-23T11:39:47.000Z</time>
      </trkpt>
      <trkpt lon="7.873954558745027" lat="48.307870058342814">
        <ele>244.8000030517578</ele>
        <time>2013-09-23T11:39:54.000Z</time>
      </trkpt>
      <trkpt lon="7.872990053147078" lat="48.30759705975652">
        <ele>240.1999969482422</ele>
        <time>2013-09-23T11:40:00.000Z</time>
      </trkpt>
      <trkpt lon="7.872482948005199" lat="48.30748658627272">
        <ele>236.39999389648438</ele>
        <time>2013-09-23T11:40:03.000Z</time>
      </trkpt>
      <trkpt lon="7.8716132417321205" lat="48.307431768625975">
        <ele>229.1999969482422</ele>
        <time>2013-09-23T11:40:08.000Z</time>
      </trkpt>
      <trkpt lon="7.870566761121154" lat="48.30747795291245">
        <ele>224.0</ele>
        <time>2013-09-23T11:40:14.000Z</time>
      </trkpt>
      <trkpt lon="7.869513658806682" lat="48.30769445747137">
        <ele>219.39999389648438</ele>
        <time>2013-09-23T11:40:20.000Z</time>
      </trkpt>
      <trkpt lon="7.86870296113193" lat="48.307982459664345">
        <ele>215.1999969482422</ele>
        <time>2013-09-23T11:40:25.000Z</time>
      </trkpt>
      <trkpt lon="7.868108348920941" lat="48.30828429199755">
        <ele>212.1999969482422</ele>
        <time>2013-09-23T11:40:29.000Z</time>
      </trkpt>
      <trkpt lon="7.867562184110284" lat="48.30860665999353">
        <ele>209.8000030517578</ele>
        <time>2013-09-23T11:40:33.000Z</time>
      </trkpt>
      <trkpt lon="7.866872940212488" lat="48.30901276320219">
        <ele>209.8000030517578</ele>
        <time>2013-09-23T11:40:38.000Z</time>
      </trkpt>
      <trkpt lon="7.866576053202152" lat="48.30914796330035">
        <ele>207.60000610351562</ele>
        <time>2013-09-23T11:40:40.000Z</time>
      </trkpt>
      <trkpt lon="7.865449860692024" lat="48.30946018919349">
        <ele>196.60000610351562</ele>
        <time>2013-09-23T11:40:47.000Z</time>
      </trkpt>
      <trkpt lon="7.864661877974868" lat="48.309749867767096">
        <ele>193.0</ele>
        <time>2013-09-23T11:40:52.000Z</time>
      </trkpt>
      <trkpt lon="7.863442394882441" lat="48.3101814519614">
        <ele>182.60000610351562</ele>
        <time>2013-09-23T11:41:00.000Z</time>
      </trkpt>
      <trkpt lon="7.862728843465447" lat="48.31036384217441">
        <ele>181.0</ele>
        <time>2013-09-23T11:41:05.000Z</time>
      </trkpt>
      <trkpt lon="7.862151246517897" lat="48.310533156618476">
        <ele>181.39999389648438</ele>
        <time>2013-09-23T11:41:10.000Z</time>
      </trkpt>
      <trkpt lon="7.8620443772524595" lat="48.310559056699276">
        <ele>181.39999389648438</ele>
        <time>2013-09-23T11:41:11.000Z</time>
      </trkpt>
      <trkpt lon="7.861452950164676" lat="48.31053525209427">
        <ele>181.8000030517578</ele>
        <time>2013-09-23T11:41:16.000Z</time>
      </trkpt>
      <trkpt lon="7.861067885532975" lat="48.31045277416706">
        <ele>182.0</ele>
        <time>2013-09-23T11:41:21.000Z</time>
      </trkpt>
      <trkpt lon="7.861003093421459" lat="48.31037113443017">
        <ele>182.1999969482422</ele>
        <time>2013-09-23T11:41:25.000Z</time>
      </trkpt>
      <trkpt lon="7.861002590507269" lat="48.31032235175371">
        <ele>182.1999969482422</ele>
        <time>2013-09-23T11:41:26.000Z</time>
      </trkpt>
      <trkpt lon="7.861014157533646" lat="48.31005295738578">
        <ele>182.39999389648438</ele>
        <time>2013-09-23T11:41:32.000Z</time>
      </trkpt>
      <trkpt lon="7.860980294644833" lat="48.30979705788195">
        <ele>182.60000610351562</ele>
        <time>2013-09-23T11:41:36.000Z</time>
      </trkpt>
      <trkpt lon="7.86083847284317" lat="48.30956404097378">
        <ele>182.8000030517578</ele>
        <time>2013-09-23T11:41:40.000Z</time>
      </trkpt>
      <trkpt lon="7.860579555854201" lat="48.30929615534842">
        <ele>183.1999969482422</ele>
        <time>2013-09-23T11:41:45.000Z</time>
      </trkpt>
      <trkpt lon="7.860145540907979" lat="48.30907906405628">
        <ele>183.8000030517578</ele>
        <time>2013-09-23T11:41:51.000Z</time>
      </trkpt>
      <trkpt lon="7.859874553978443" lat="48.30899088643491">
        <ele>184.60000610351562</ele>
        <time>2013-09-23T11:41:55.000Z</time>
      </trkpt>
      <trkpt lon="7.859659558162093" lat="48.30888217315078">
        <ele>185.60000610351562</ele>
        <time>2013-09-23T11:41:59.000Z</time>
      </trkpt>
      <trkpt lon="7.8595092706382275" lat="48.308818051591516">
        <ele>186.1999969482422</ele>
        <time>2013-09-23T11:42:01.000Z</time>
      </trkpt>
      <trkpt lon="7.859388571232557" lat="48.30867086537182">
        <ele>186.1999969482422</ele>
        <time>2013-09-23T11:42:04.000Z</time>
      </trkpt>
      <trkpt lon="7.8593540377914906" lat="48.308572797104716">
        <ele>186.1999969482422</ele>
        <time>2013-09-23T11:42:07.000Z</time>
      </trkpt>
      <trkpt lon="7.859296873211861" lat="48.308517476543784">
        <ele>186.1999969482422</ele>
        <time>2013-09-23T11:42:11.000Z</time>
      </trkpt>
      <trkpt lon="7.859314475208521" lat="48.30850155092776">
        <ele>186.0</ele>
        <time>2013-09-23T11:42:14.000Z</time>
      </trkpt>
      <trkpt lon="7.859345152974129" lat="48.30849635414779">
        <ele>186.0</ele>
        <time>2013-09-23T11:46:38.000Z</time>
      </trkpt>
      <trkpt lon="7.859371053054929" lat="48.30847565084696">
        <ele>185.8000030517578</ele>
        <time>2013-09-23T11:46:41.000Z</time>
      </trkpt>
      <trkpt lon="7.859355378895998" lat="48.308598697185516">
        <ele>186.1999969482422</ele>
        <time>2013-09-23T11:54:19.000Z</time>
      </trkpt>
      <trkpt lon="7.859462248161435" lat="48.30862577073276">
        <ele>185.8000030517578</ele>
        <time>2013-09-23T11:54:23.000Z</time>
      </trkpt>
      <trkpt lon="7.859552772715688" lat="48.30866885371506">
        <ele>185.60000610351562</ele>
        <time>2013-09-23T11:54:27.000Z</time>
      </trkpt>
      <trkpt lon="7.8594915848225355" lat="48.308758456259966">
        <ele>186.0</ele>
        <time>2013-09-23T11:54:32.000Z</time>
      </trkpt>
      <trkpt lon="7.859334340319037" lat="48.30886088311672">
        <ele>187.0</ele>
        <time>2013-09-23T11:54:37.000Z</time>
      </trkpt>
      <trkpt lon="7.859161840751767" lat="48.30894587561488">
        <ele>188.1999969482422</ele>
        <time>2013-09-23T11:54:42.000Z</time>
      </trkpt>
      <trkpt lon="7.858890853822231" lat="48.30894243903458">
        <ele>189.1999969482422</ele>
        <time>2013-09-23T11:54:47.000Z</time>
      </trkpt>
      <trkpt lon="7.858628248795867" lat="48.308915281668305">
        <ele>190.0</ele>
        <time>2013-09-23T11:54:52.000Z</time>
      </trkpt>
      <trkpt lon="7.85825508646667" lat="48.308897679671645">
        <ele>191.39999389648438</ele>
        <time>2013-09-23T11:55:00.000Z</time>
      </trkpt>
      <trkpt lon="7.858029277995229" lat="48.30887605436146">
        <ele>192.8000030517578</ele>
        <time>2013-09-23T11:55:05.000Z</time>
      </trkpt>
      <trkpt lon="7.858029277995229" lat="48.30887605436146">
        <ele>192.8000030517578</ele>
        <time>2013-09-23T11:55:05.000Z</time>
      </trkpt>
      <trkpt lon="7.857982339337468" lat="48.308869767934084">
        <ele>193.0</ele>
        <time>2013-09-23T11:55:06.000Z</time>
      </trkpt>
      <trkpt lon="7.857706993818283" lat="48.30886993557215">
        <ele>194.8000030517578</ele>
        <time>2013-09-23T11:55:12.000Z</time>
      </trkpt>
      <trkpt lon="7.857289155945182" lat="48.308921065181494">
        <ele>197.60000610351562</ele>
        <time>2013-09-23T11:55:22.000Z</time>
      </trkpt>
      <trkpt lon="7.856923956423998" lat="48.3088602963835">
        <ele>198.8000030517578</ele>
        <time>2013-09-23T11:55:29.000Z</time>
      </trkpt>
      <trkpt lon="7.8566130716353655" lat="48.308903966099024">
        <ele>200.8000030517578</ele>
        <time>2013-09-23T11:55:37.000Z</time>
      </trkpt>
      <trkpt lon="7.856387849897146" lat="48.30898099578917">
        <ele>202.8000030517578</ele>
        <time>2013-09-23T11:55:45.000Z</time>
      </trkpt>
      <trkpt lon="7.856190288439393" lat="48.30891595222056">
        <ele>203.60000610351562</ele>
        <time>2013-09-23T11:55:52.000Z</time>
      </trkpt>
      <trkpt lon="7.856024745851755" lat="48.30876985564828">
        <ele>204.0</ele>
        <time>2013-09-23T11:55:59.000Z</time>
      </trkpt>
      <trkpt lon="7.8558842651546" lat="48.30868528224528">
        <ele>204.8000030517578</ele>
        <time>2013-09-23T11:56:05.000Z</time>
      </trkpt>
      <trkpt lon="7.85574403591454" lat="48.30857749097049">
        <ele>205.60000610351562</ele>
        <time>2013-09-23T11:56:10.000Z</time>
      </trkpt>
      <trkpt lon="7.855517640709877" lat="48.30850406549871">
        <ele>207.1999969482422</ele>
        <time>2013-09-23T11:56:16.000Z</time>
      </trkpt>
      <trkpt lon="7.855214048177004" lat="48.30841756425798">
        <ele>209.39999389648438</ele>
        <time>2013-09-23T11:56:23.000Z</time>
      </trkpt>
      <trkpt lon="7.854895954951644" lat="48.30838395282626">
        <ele>211.8000030517578</ele>
        <time>2013-09-23T11:56:30.000Z</time>
      </trkpt>
      <trkpt lon="7.854551877826452" lat="48.30833978019655">
        <ele>213.60000610351562</ele>
        <time>2013-09-23T11:56:37.000Z</time>
      </trkpt>
      <trkpt lon="7.854162957519293" lat="48.30831195227802">
        <ele>215.8000030517578</ele>
        <time>2013-09-23T11:56:45.000Z</time>
      </trkpt>
      <trkpt lon="7.853683261200786" lat="48.308274736627936">
        <ele>217.1999969482422</ele>
        <time>2013-09-23T11:56:54.000Z</time>
      </trkpt>
      <trkpt lon="7.853194177150726" lat="48.308199886232615">
        <ele>218.60000610351562</ele>
        <time>2013-09-23T11:57:02.000Z</time>
      </trkpt>
      <trkpt lon="7.852848256006837" lat="48.308136854320765">
        <ele>219.1999969482422</ele>
        <time>2013-09-23T11:57:07.000Z</time>
      </trkpt>
      <trkpt lon="7.8523388877511024" lat="48.30804389901459">
        <ele>219.0</ele>
        <time>2013-09-23T11:57:14.000Z</time>
      </trkpt>
      <trkpt lon="7.851900598034263" lat="48.307907776907086">
        <ele>217.0</ele>
        <time>2013-09-23T11:57:19.000Z</time>
      </trkpt>
      <trkpt lon="7.85131067968905" lat="48.30776385962963">
        <ele>213.39999389648438</ele>
        <time>2013-09-23T11:57:24.000Z</time>
      </trkpt>
      <trkpt lon="7.850573658943176" lat="48.30765078775585">
        <ele>208.8000030517578</ele>
        <time>2013-09-23T11:57:29.000Z</time>
      </trkpt>
      <trkpt lon="7.849911572411656" lat="48.307644836604595">
        <ele>206.39999389648438</ele>
        <time>2013-09-23T11:57:33.000Z</time>
      </trkpt>
      <trkpt lon="7.848884453997016" lat="48.30773754045367">
        <ele>203.39999389648438</ele>
        <time>2013-09-23T11:57:39.000Z</time>
      </trkpt>
      <trkpt lon="7.847888683900237" lat="48.307929150760174">
        <ele>200.0</ele>
        <time>2013-09-23T11:57:45.000Z</time>
      </trkpt>
      <trkpt lon="7.8469284530729055" lat="48.308207681402564">
        <ele>194.0</ele>
        <time>2013-09-23T11:57:51.000Z</time>
      </trkpt>
      <trkpt lon="7.8460877481848" lat="48.308485792949796">
        <ele>188.8000030517578</ele>
        <time>2013-09-23T11:57:57.000Z</time>
      </trkpt>
      <trkpt lon="7.845358857885003" lat="48.30875233747065">
        <ele>188.39999389648438</ele>
        <time>2013-09-23T11:58:03.000Z</time>
      </trkpt>
      <trkpt lon="7.844392256811261" lat="48.30895719118416">
        <ele>189.1999969482422</ele>
        <time>2013-09-23T11:58:11.000Z</time>
      </trkpt>
      <trkpt lon="7.8437035996466875" lat="48.309017876163125">
        <ele>188.8000030517578</ele>
        <time>2013-09-23T11:58:16.000Z</time>
      </trkpt>
      <trkpt lon="7.8427505772560835" lat="48.309009075164795">
        <ele>188.0</ele>
        <time>2013-09-23T11:58:23.000Z</time>
      </trkpt>
      <trkpt lon="7.841827562078834" lat="48.308920143172145">
        <ele>185.1999969482422</ele>
        <time>2013-09-23T11:58:30.000Z</time>
      </trkpt>
      <trkpt lon="7.840650491416454" lat="48.30877999775112">
        <ele>182.39999389648438</ele>
        <time>2013-09-23T11:58:39.000Z</time>
      </trkpt>
      <trkpt lon="7.83982546068728" lat="48.30873725004494">
        <ele>178.60000610351562</ele>
        <time>2013-09-23T11:58:45.000Z</time>
      </trkpt>
      <trkpt lon="7.839023396372795" lat="48.30882526002824">
        <ele>176.39999389648438</ele>
        <time>2013-09-23T11:58:51.000Z</time>
      </trkpt>
      <trkpt lon="7.838275143876672" lat="48.30900404602289">
        <ele>173.1999969482422</ele>
        <time>2013-09-23T11:58:57.000Z</time>
      </trkpt>
      <trkpt lon="7.837556563317776" lat="48.309183586388826">
        <ele>168.39999389648438</ele>
        <time>2013-09-23T11:59:03.000Z</time>
      </trkpt>
      <trkpt lon="7.836531875655055" lat="48.30937444232404">
        <ele>166.39999389648438</ele>
        <time>2013-09-23T11:59:11.000Z</time>
      </trkpt>
      <trkpt lon="7.835737271234393" lat="48.309568064287305">
        <ele>165.1999969482422</ele>
        <time>2013-09-23T11:59:18.000Z</time>
      </trkpt>
      <trkpt lon="7.8352912701666355" lat="48.30971449613571">
        <ele>164.1999969482422</ele>
        <time>2013-09-23T11:59:23.000Z</time>
      </trkpt>
      <trkpt lon="7.835036460310221" lat="48.30984676256776">
        <ele>163.39999389648438</ele>
        <time>2013-09-23T11:59:27.000Z</time>
      </trkpt>
      <trkpt lon="7.834960268810391" lat="48.30986428074539">
        <ele>163.1999969482422</ele>
        <time>2013-09-23T11:59:31.000Z</time>
      </trkpt>
      <trkpt lon="7.834958089515567" lat="48.30986017361283">
        <ele>163.1999969482422</ele>
        <time>2013-09-23T11:59:32.000Z</time>
      </trkpt>
      <trkpt lon="7.834919784218073" lat="48.30986436456442">
        <ele>163.0</ele>
        <time>2013-09-23T11:59:37.000Z</time>
      </trkpt>
      <trkpt lon="7.834887681528926" lat="48.30986578948796">
        <ele>163.0</ele>
        <time>2013-09-23T11:59:38.000Z</time>
      </trkpt>
      <trkpt lon="7.83469095826149" lat="48.30980535596609">
        <ele>162.60000610351562</ele>
        <time>2013-09-23T11:59:41.000Z</time>
      </trkpt>
      <trkpt lon="7.834554836153984" lat="48.309639478102326">
        <ele>162.60000610351562</ele>
        <time>2013-09-23T11:59:45.000Z</time>
      </trkpt>
      <trkpt lon="7.8342981822788715" lat="48.30926229245961">
        <ele>163.0</ele>
        <time>2013-09-23T11:59:53.000Z</time>
      </trkpt>
      <trkpt lon="7.834138674661517" lat="48.30902315676212">
        <ele>162.8000030517578</ele>
        <time>2013-09-23T11:59:58.000Z</time>
      </trkpt>
      <trkpt lon="7.833861485123634" lat="48.308798437938094">
        <ele>162.1999969482422</ele>
        <time>2013-09-23T12:00:03.000Z</time>
      </trkpt>
      <trkpt lon="7.833657385781407" lat="48.30852326005697">
        <ele>161.60000610351562</ele>
        <time>2013-09-23T12:00:08.000Z</time>
      </trkpt>
      <trkpt lon="7.833492262288928" lat="48.308431981131434">
        <ele>161.1999969482422</ele>
        <time>2013-09-23T12:00:12.000Z</time>
      </trkpt>
      <trkpt lon="7.833477761596441" lat="48.30842594616115">
        <ele>161.1999969482422</ele>
        <time>2013-09-23T12:00:15.000Z</time>
      </trkpt>
      <trkpt lon="7.8335583955049515" lat="48.308413457125425">
        <ele>161.39999389648438</ele>
        <time>2013-09-23T12:00:24.000Z</time>
      </trkpt>
      <trkpt lon="7.833758136257529" lat="48.30835226923227">
        <ele>162.0</ele>
        <time>2013-09-23T12:00:29.000Z</time>
      </trkpt>
      <trkpt lon="7.833957877010107" lat="48.308242466300726">
        <ele>162.39999389648438</ele>
        <time>2013-09-23T12:00:34.000Z</time>
      </trkpt>
      <trkpt lon="7.833816055208445" lat="48.30808396451175">
        <ele>162.1999969482422</ele>
        <time>2013-09-23T12:00:38.000Z</time>
      </trkpt>
      <trkpt lon="7.8334912564605474" lat="48.30780208110809">
        <ele>161.8000030517578</ele>
        <time>2013-09-23T12:00:44.000Z</time>
      </trkpt>
      <trkpt lon="7.83307945355773" lat="48.30733344890177">
        <ele>161.8000030517578</ele>
        <time>2013-09-23T12:00:52.000Z</time>
      </trkpt>
      <trkpt lon="7.832612078636885" lat="48.30681603401899">
        <ele>162.60000610351562</ele>
        <time>2013-09-23T12:01:01.000Z</time>
      </trkpt>
      <trkpt lon="7.832150151953101" lat="48.30631605349481">
        <ele>163.39999389648438</ele>
        <time>2013-09-23T12:01:10.000Z</time>
      </trkpt>
      <trkpt lon="7.83179584890604" lat="48.30589008517563">
        <ele>163.8000030517578</ele>
        <time>2013-09-23T12:01:18.000Z</time>
      </trkpt>
      <trkpt lon="7.831410365179181" lat="48.30537065863609">
        <ele>163.1999969482422</ele>
        <time>2013-09-23T12:01:27.000Z</time>
      </trkpt>
      <trkpt lon="7.8310830518603325" lat="48.30494427122176">
        <ele>162.60000610351562</ele>
        <time>2013-09-23T12:01:34.000Z</time>
      </trkpt>
      <trkpt lon="7.830780548974872" lat="48.30453238449991">
        <ele>163.0</ele>
        <time>2013-09-23T12:01:41.000Z</time>
      </trkpt>
      <trkpt lon="7.830396657809615" lat="48.30402645282447">
        <ele>163.60000610351562</ele>
        <time>2013-09-23T12:01:50.000Z</time>
      </trkpt>
      <trkpt lon="7.8300543408840895" lat="48.30354977399111">
        <ele>163.8000030517578</ele>
        <time>2013-09-23T12:01:58.000Z</time>
      </trkpt>
      <trkpt lon="7.82964245416224" lat="48.30299145542085">
        <ele>162.60000610351562</ele>
        <time>2013-09-23T12:02:07.000Z</time>
      </trkpt>
      <trkpt lon="7.829319080337882" lat="48.30254855565727">
        <ele>161.39999389648438</ele>
        <time>2013-09-23T12:02:14.000Z</time>
      </trkpt>
      <trkpt lon="7.828804850578308" lat="48.301848247647285">
        <ele>162.1999969482422</ele>
        <time>2013-09-23T12:02:25.000Z</time>
      </trkpt>
      <trkpt lon="7.82847267575562" lat="48.301408952102065">
        <ele>162.39999389648438</ele>
        <time>2013-09-23T12:02:32.000Z</time>
      </trkpt>
      <trkpt lon="7.828069757670164" lat="48.30086915753782">
        <ele>162.60000610351562</ele>
        <time>2013-09-23T12:02:41.000Z</time>
      </trkpt>
      <trkpt lon="7.8278519958257675" lat="48.30058048479259">
        <ele>162.60000610351562</ele>
        <time>2013-09-23T12:02:46.000Z</time>
      </trkpt>
      <trkpt lon="7.8278519958257675" lat="48.30058048479259">
        <ele>162.60000610351562</ele>
        <time>2013-09-23T12:02:46.000Z</time>
      </trkpt>
      <trkpt lon="7.827733475714922" lat="48.300420977175236">
        <ele>162.60000610351562</ele>
        <time>2013-09-23T12:02:49.000Z</time>
      </trkpt>
      <trkpt lon="7.827582350000739" lat="48.30018569715321">
        <ele>162.8000030517578</ele>
        <time>2013-09-23T12:02:54.000Z</time>
      </trkpt>
      <trkpt lon="7.8274030610919" lat="48.300083857029676">
        <ele>162.60000610351562</ele>
        <time>2013-09-23T12:02:58.000Z</time>
      </trkpt>
      <trkpt lon="7.827335083857179" lat="48.30010263249278">
        <ele>162.60000610351562</ele>
        <time>2013-09-23T12:03:00.000Z</time>
      </trkpt>
      <trkpt lon="7.827196950092912" lat="48.30014185979962">
        <ele>162.39999389648438</ele>
        <time>2013-09-23T12:03:05.000Z</time>
      </trkpt>
      <trkpt lon="7.82689637504518" lat="48.30008829943836">
        <ele>162.1999969482422</ele>
        <time>2013-09-23T12:03:10.000Z</time>
      </trkpt>
      <trkpt lon="7.8267275635153055" lat="48.30004387535155">
        <ele>162.0</ele>
        <time>2013-09-23T12:03:13.000Z</time>
      </trkpt>
      <trkpt lon="7.826585490256548" lat="48.3000672608614">
        <ele>161.8000030517578</ele>
        <time>2013-09-23T12:03:15.000Z</time>
      </trkpt>
      <trkpt lon="7.825967660173774" lat="48.300297344103456">
        <ele>161.39999389648438</ele>
        <time>2013-09-23T12:03:23.000Z</time>
      </trkpt>
      <trkpt lon="7.825487041845918" lat="48.300573946908116">
        <ele>161.39999389648438</ele>
        <time>2013-09-23T12:03:29.000Z</time>
      </trkpt>
      <trkpt lon="7.825033161789179" lat="48.300947193056345">
        <ele>161.0</ele>
        <time>2013-09-23T12:03:36.000Z</time>
      </trkpt>
      <trkpt lon="7.824681457132101" lat="48.30126939341426">
        <ele>161.1999969482422</ele>
        <time>2013-09-23T12:03:42.000Z</time>
      </trkpt>
      <trkpt lon="7.824312066659331" lat="48.30159335397184">
        <ele>161.0</ele>
        <time>2013-09-23T12:03:48.000Z</time>
      </trkpt>
      <trkpt lon="7.823785850778222" lat="48.30199836753309">
        <ele>160.39999389648438</ele>
        <time>2013-09-23T12:03:56.000Z</time>
      </trkpt>
      <trkpt lon="7.823165254667401" lat="48.302356861531734">
        <ele>159.60000610351562</ele>
        <time>2013-09-23T12:04:04.000Z</time>
      </trkpt>
      <trkpt lon="7.82240635715425" lat="48.30270353704691">
        <ele>160.8000030517578</ele>
        <time>2013-09-23T12:04:13.000Z</time>
      </trkpt>
      <trkpt lon="7.821685178205371" lat="48.30294527113438">
        <ele>161.39999389648438</ele>
        <time>2013-09-23T12:04:21.000Z</time>
      </trkpt>
      <trkpt lon="7.820974560454488" lat="48.303147777915">
        <ele>160.1999969482422</ele>
        <time>2013-09-23T12:04:28.000Z</time>
      </trkpt>
      <trkpt lon="7.82019043341279" lat="48.30336746759713">
        <ele>160.60000610351562</ele>
        <time>2013-09-23T12:04:36.000Z</time>
      </trkpt>
      <trkpt lon="7.8198054526001215" lat="48.30347266048193">
        <ele>161.0</ele>
        <time>2013-09-23T12:04:40.000Z</time>
      </trkpt>
      <trkpt lon="7.819202458485961" lat="48.30352588556707">
        <ele>161.60000610351562</ele>
        <time>2013-09-23T12:04:46.000Z</time>
      </trkpt>
      <trkpt lon="7.818445656448603" lat="48.30348825082183">
        <ele>162.1999969482422</ele>
        <time>2013-09-23T12:04:54.000Z</time>
      </trkpt>
      <trkpt lon="7.817590534687042" lat="48.30335556529462">
        <ele>162.0</ele>
        <time>2013-09-23T12:05:03.000Z</time>
      </trkpt>
      <trkpt lon="7.816856363788247" lat="48.30316613428295">
        <ele>162.39999389648438</ele>
        <time>2013-09-23T12:05:11.000Z</time>
      </trkpt>
      <trkpt lon="7.8162669483572245" lat="48.30296044237912">
        <ele>161.8000030517578</ele>
        <time>2013-09-23T12:05:18.000Z</time>
      </trkpt>
      <trkpt lon="7.815649453550577" lat="48.30267897807062">
        <ele>160.60000610351562</ele>
        <time>2013-09-23T12:05:26.000Z</time>
      </trkpt>
      <trkpt lon="7.815212169662118" lat="48.30245283432305">
        <ele>160.1999969482422</ele>
        <time>2013-09-23T12:05:32.000Z</time>
      </trkpt>
      <trkpt lon="7.81506716273725" lat="48.30238837748766">
        <ele>160.1999969482422</ele>
        <time>2013-09-23T12:05:35.000Z</time>
      </trkpt>
      <trkpt lon="7.815054170787334" lat="48.302375385537744">
        <ele>160.1999969482422</ele>
        <time>2013-09-23T12:05:39.000Z</time>
      </trkpt>
      <trkpt lon="7.815064396709204" lat="48.3023879583925">
        <ele>160.1999969482422</ele>
        <time>2013-09-23T12:05:55.000Z</time>
      </trkpt>
      <trkpt lon="7.815022151917219" lat="48.30231914296746">
        <ele>160.39999389648438</ele>
        <time>2013-09-23T12:05:59.000Z</time>
      </trkpt>
      <trkpt lon="7.8151012770831585" lat="48.30214345827699">
        <ele>160.8000030517578</ele>
        <time>2013-09-23T12:06:04.000Z</time>
      </trkpt>
      <trkpt lon="7.815357260406017" lat="48.30187624320388">
        <ele>161.60000610351562</ele>
        <time>2013-09-23T12:06:10.000Z</time>
      </trkpt>
      <trkpt lon="7.815826563164592" lat="48.30137735232711">
        <ele>161.8000030517578</ele>
        <time>2013-09-23T12:06:20.000Z</time>
      </trkpt>
      <trkpt lon="7.816204251721501" lat="48.30085767433047">
        <ele>162.39999389648438</ele>
        <time>2013-09-23T12:06:29.000Z</time>
      </trkpt>
      <trkpt lon="7.8165060840547085" lat="48.300274293869734">
        <ele>162.0</ele>
        <time>2013-09-23T12:06:38.000Z</time>
      </trkpt>
      <trkpt lon="7.81671529635787" lat="48.29973567277193">
        <ele>161.39999389648438</ele>
        <time>2013-09-23T12:06:46.000Z</time>
      </trkpt>
      <trkpt lon="7.816925346851349" lat="48.299042489379644">
        <ele>160.39999389648438</ele>
        <time>2013-09-23T12:06:56.000Z</time>
      </trkpt>
      <trkpt lon="7.817220892757177" lat="48.298531863838434">
        <ele>160.8000030517578</ele>
        <time>2013-09-23T12:07:04.000Z</time>
      </trkpt>
      <trkpt lon="7.817581063136458" lat="48.29812659882009">
        <ele>161.39999389648438</ele>
        <time>2013-09-23T12:07:11.000Z</time>
      </trkpt>
      <trkpt lon="7.818089677020907" lat="48.29764874652028">
        <ele>162.60000610351562</ele>
        <time>2013-09-23T12:07:20.000Z</time>
      </trkpt>
      <trkpt lon="7.8181282337754965" lat="48.29759744927287">
        <ele>162.8000030517578</ele>
        <time>2013-09-23T12:07:21.000Z</time>
      </trkpt>
      <trkpt lon="7.818149272352457" lat="48.29737516120076">
        <ele>162.8000030517578</ele>
        <time>2013-09-23T12:07:25.000Z</time>
      </trkpt>
      <trkpt lon="7.817937461659312" lat="48.297155890613794">
        <ele>162.60000610351562</ele>
        <time>2013-09-23T12:07:29.000Z</time>
      </trkpt>
      <trkpt lon="7.817128356546164" lat="48.29659145325422">
        <ele>162.0</ele>
        <time>2013-09-23T12:07:39.000Z</time>
      </trkpt>
      <trkpt lon="7.816545898094773" lat="48.29616489820182">
        <ele>162.39999389648438</ele>
        <time>2013-09-23T12:07:47.000Z</time>
      </trkpt>
      <trkpt lon="7.815979951992631" lat="48.29577974975109">
        <ele>162.1999969482422</ele>
        <time>2013-09-23T12:07:55.000Z</time>
      </trkpt>
      <trkpt lon="7.815343849360943" lat="48.29534104093909">
        <ele>163.0</ele>
        <time>2013-09-23T12:08:04.000Z</time>
      </trkpt>
      <trkpt lon="7.814833391457796" lat="48.29499646089971">
        <ele>163.8000030517578</ele>
        <time>2013-09-23T12:08:11.000Z</time>
      </trkpt>
      <trkpt lon="7.814323855563998" lat="48.294648779556155">
        <ele>164.0</ele>
        <time>2013-09-23T12:08:18.000Z</time>
      </trkpt>
      <trkpt lon="7.8138289880007505" lat="48.2943322788924">
        <ele>163.8000030517578</ele>
        <time>2013-09-23T12:08:25.000Z</time>
      </trkpt>
      <trkpt lon="7.813400253653526" lat="48.294035056605935">
        <ele>163.0</ele>
        <time>2013-09-23T12:08:31.000Z</time>
      </trkpt>
      <trkpt lon="7.812835061922669" lat="48.29363909550011">
        <ele>163.1999969482422</ele>
        <time>2013-09-23T12:08:39.000Z</time>
      </trkpt>
      <trkpt lon="7.812407752498984" lat="48.29335419461131">
        <ele>163.8000030517578</ele>
        <time>2013-09-23T12:08:45.000Z</time>
      </trkpt>
      <trkpt lon="7.81186074949801" lat="48.29292009584606">
        <ele>162.39999389648438</ele>
        <time>2013-09-23T12:08:53.000Z</time>
      </trkpt>
      <trkpt lon="7.811437798663974" lat="48.29243738204241">
        <ele>162.1999969482422</ele>
        <time>2013-09-23T12:09:01.000Z</time>
      </trkpt>
      <trkpt lon="7.811169661581516" lat="48.29203664325178">
        <ele>162.8000030517578</ele>
        <time>2013-09-23T12:09:08.000Z</time>
      </trkpt>
      <trkpt lon="7.810959694907069" lat="48.29161603935063">
        <ele>163.0</ele>
        <time>2013-09-23T12:09:14.000Z</time>
      </trkpt>
      <trkpt lon="7.810791889205575" lat="48.291289899498224">
        <ele>163.8000030517578</ele>
        <time>2013-09-23T12:09:19.000Z</time>
      </trkpt>
      <trkpt lon="7.81055468134582" lat="48.29078916460276">
        <ele>165.0</ele>
        <time>2013-09-23T12:09:26.000Z</time>
      </trkpt>
      <trkpt lon="7.810342786833644" lat="48.29040267504752">
        <ele>165.60000610351562</ele>
        <time>2013-09-23T12:09:32.000Z</time>
      </trkpt>
      <trkpt lon="7.8102003782987595" lat="48.289891546592116">
        <ele>166.60000610351562</ele>
        <time>2013-09-23T12:09:39.000Z</time>
      </trkpt>
      <trkpt lon="7.810142543166876" lat="48.289488293230534">
        <ele>167.1999969482422</ele>
        <time>2013-09-23T12:09:45.000Z</time>
      </trkpt>
      <trkpt lon="7.810168694704771" lat="48.28925896435976">
        <ele>167.60000610351562</ele>
        <time>2013-09-23T12:09:48.000Z</time>
      </trkpt>
      <trkpt lon="7.810168191790581" lat="48.288694275543094">
        <ele>167.60000610351562</ele>
        <time>2013-09-23T12:09:56.000Z</time>
      </trkpt>
      <trkpt lon="7.810182189568877" lat="48.288555052131414">
        <ele>167.60000610351562</ele>
        <time>2013-09-23T12:09:58.000Z</time>
      </trkpt>
      <trkpt lon="7.810111697763205" lat="48.28837987035513">
        <ele>167.39999389648438</ele>
        <time>2013-09-23T12:10:02.000Z</time>
      </trkpt>
      <trkpt lon="7.81002645380795" lat="48.28826067969203">
        <ele>167.60000610351562</ele>
        <time>2013-09-23T12:10:04.000Z</time>
      </trkpt>
      <trkpt lon="7.81002645380795" lat="48.28826067969203">
        <ele>167.60000610351562</ele>
        <time>2013-09-23T12:10:04.000Z</time>
      </trkpt>
      <trkpt lon="7.809901898726821" lat="48.288041073828936">
        <ele>168.8000030517578</ele>
        <time>2013-09-23T12:10:07.000Z</time>
      </trkpt>
      <trkpt lon="7.80955983325839" lat="48.28762147575617">
        <ele>169.60000610351562</ele>
        <time>2013-09-23T12:10:13.000Z</time>
      </trkpt>
      <trkpt lon="7.809287253767252" lat="48.28733179718256">
        <ele>168.1999969482422</ele>
        <time>2013-09-23T12:10:18.000Z</time>
      </trkpt>
      <trkpt lon="7.809095475822687" lat="48.28698143362999">
        <ele>166.60000610351562</ele>
        <time>2013-09-23T12:10:23.000Z</time>
      </trkpt>
      <trkpt lon="7.808761456981301" lat="48.28674238175154">
        <ele>166.0</ele>
        <time>2013-09-23T12:10:28.000Z</time>
      </trkpt>
      <trkpt lon="7.808407070115209" lat="48.286472065374255">
        <ele>165.8000030517578</ele>
        <time>2013-09-23T12:10:33.000Z</time>
      </trkpt>
      <trkpt lon="7.80804798938334" lat="48.286179872229695">
        <ele>165.60000610351562</ele>
        <time>2013-09-23T12:10:39.000Z</time>
      </trkpt>
      <trkpt lon="7.807682370766997" lat="48.28579748980701">
        <ele>165.1999969482422</ele>
        <time>2013-09-23T12:10:46.000Z</time>
      </trkpt>
      <trkpt lon="7.807346256449819" lat="48.28552398830652">
        <ele>164.60000610351562</ele>
        <time>2013-09-23T12:10:51.000Z</time>
      </trkpt>
      <trkpt lon="7.807052051648498" lat="48.28528258949518">
        <ele>164.1999969482422</ele>
        <time>2013-09-23T12:10:56.000Z</time>
      </trkpt>
      <trkpt lon="7.8066659811884165" lat="48.284998359158635">
        <ele>164.0</ele>
        <time>2013-09-23T12:11:02.000Z</time>
      </trkpt>
      <trkpt lon="7.806016970425844" lat="48.28448169864714">
        <ele>164.0</ele>
        <time>2013-09-23T12:11:11.000Z</time>
      </trkpt>
      <trkpt lon="7.805933570489287" lat="48.28443626873195">
        <ele>164.0</ele>
        <time>2013-09-23T12:11:12.000Z</time>
      </trkpt>
      <trkpt lon="7.805752772837877" lat="48.28436007723212">
        <ele>163.8000030517578</ele>
        <time>2013-09-23T12:11:14.000Z</time>
      </trkpt>
      <trkpt lon="7.805528473109007" lat="48.28413477167487">
        <ele>163.39999389648438</ele>
        <time>2013-09-23T12:11:18.000Z</time>
      </trkpt>
      <trkpt lon="7.805434679612517" lat="48.28401876613498">
        <ele>163.1999969482422</ele>
        <time>2013-09-23T12:11:20.000Z</time>
      </trkpt>
      <trkpt lon="7.805185653269291" lat="48.283849032595754">
        <ele>162.8000030517578</ele>
        <time>2013-09-23T12:11:24.000Z</time>
      </trkpt>
      <trkpt lon="7.80456405133009" lat="48.28334737569094">
        <ele>163.0</ele>
        <time>2013-09-23T12:11:34.000Z</time>
      </trkpt>
      <trkpt lon="7.804239252582192" lat="48.28309114091098">
        <ele>163.8000030517578</ele>
        <time>2013-09-23T12:11:39.000Z</time>
      </trkpt>
      <trkpt lon="7.8039538487792015" lat="48.28283498995006">
        <ele>164.0</ele>
        <time>2013-09-23T12:11:44.000Z</time>
      </trkpt>
      <trkpt lon="7.8035627491772175" lat="48.28250616788864">
        <ele>164.0</ele>
        <time>2013-09-23T12:11:50.000Z</time>
      </trkpt>
      <trkpt lon="7.802761858329177" lat="48.281846260651946">
        <ele>163.60000610351562</ele>
        <time>2013-09-23T12:12:02.000Z</time>
      </trkpt>
      <trkpt lon="7.801937665790319" lat="48.28114444389939">
        <ele>164.1999969482422</ele>
        <time>2013-09-23T12:12:15.000Z</time>
      </trkpt>
      <trkpt lon="7.801394434645772" lat="48.28067807480693">
        <ele>164.8000030517578</ele>
        <time>2013-09-23T12:12:24.000Z</time>
      </trkpt>
      <trkpt lon="7.801269460469484" lat="48.28059324994683">
        <ele>165.0</ele>
        <time>2013-09-23T12:12:26.000Z</time>
      </trkpt>
      <trkpt lon="7.800790853798389" lat="48.28014104627073">
        <ele>166.39999389648438</ele>
        <time>2013-09-23T12:12:35.000Z</time>
      </trkpt>
      <trkpt lon="7.800422552973032" lat="48.279846254736185">
        <ele>166.8000030517578</ele>
        <time>2013-09-23T12:12:41.000Z</time>
      </trkpt>
      <trkpt lon="7.799973534420133" lat="48.27949907630682">
        <ele>167.39999389648438</ele>
        <time>2013-09-23T12:12:48.000Z</time>
      </trkpt>
      <trkpt lon="7.799716545268893" lat="48.27925248071551">
        <ele>166.8000030517578</ele>
        <time>2013-09-23T12:12:53.000Z</time>
      </trkpt>
      <trkpt lon="7.799401888623834" lat="48.27895475551486">
        <ele>165.8000030517578</ele>
        <time>2013-09-23T12:12:58.000Z</time>
      </trkpt>
      <trkpt lon="7.798950271680951" lat="48.27865024097264">
        <ele>165.60000610351562</ele>
        <time>2013-09-23T12:13:03.000Z</time>
      </trkpt>
      <trkpt lon="7.7985225431621075" lat="48.2783636637032">
        <ele>166.60000610351562</ele>
        <time>2013-09-23T12:13:08.000Z</time>
      </trkpt>
      <trkpt lon="7.798173353075981" lat="48.27807457186282">
        <ele>166.1999969482422</ele>
        <time>2013-09-23T12:13:13.000Z</time>
      </trkpt>
      <trkpt lon="7.7978442795574665" lat="48.27781775034964">
        <ele>165.8000030517578</ele>
        <time>2013-09-23T12:13:18.000Z</time>
      </trkpt>
      <trkpt lon="7.797563653439283" lat="48.27757517807186">
        <ele>165.8000030517578</ele>
        <time>2013-09-23T12:13:23.000Z</time>
      </trkpt>
      <trkpt lon="7.797196861356497" lat="48.27728424221277">
        <ele>166.60000610351562</ele>
        <time>2013-09-23T12:13:30.000Z</time>
      </trkpt>
      <trkpt lon="7.797149168327451" lat="48.27723956666887">
        <ele>166.60000610351562</ele>
        <time>2013-09-23T12:13:31.000Z</time>
      </trkpt>
      <trkpt lon="7.79676016420126" lat="48.276968663558364">
        <ele>167.8000030517578</ele>
        <time>2013-09-23T12:13:37.000Z</time>
      </trkpt>
      <trkpt lon="7.796395551413298" lat="48.276713686063886">
        <ele>168.8000030517578</ele>
        <time>2013-09-23T12:13:42.000Z</time>
      </trkpt>
      <trkpt lon="7.7960798889398575" lat="48.27645778656006">
        <ele>168.60000610351562</ele>
        <time>2013-09-23T12:13:47.000Z</time>
      </trkpt>
      <trkpt lon="7.795569682493806" lat="48.276038356125355">
        <ele>168.0</ele>
        <time>2013-09-23T12:13:55.000Z</time>
      </trkpt>
      <trkpt lon="7.795115048065782" lat="48.275702157989144">
        <ele>166.8000030517578</ele>
        <time>2013-09-23T12:14:02.000Z</time>
      </trkpt>
      <trkpt lon="7.794540552422404" lat="48.27522757463157">
        <ele>165.8000030517578</ele>
        <time>2013-09-23T12:14:11.000Z</time>
      </trkpt>
      <trkpt lon="7.793943760916591" lat="48.27472373843193">
        <ele>166.0</ele>
        <time>2013-09-23T12:14:20.000Z</time>
      </trkpt>
      <trkpt lon="7.793301371857524" lat="48.274170365184546">
        <ele>166.8000030517578</ele>
        <time>2013-09-23T12:14:30.000Z</time>
      </trkpt>
      <trkpt lon="7.792862998321652" lat="48.273800387978554">
        <ele>166.1999969482422</ele>
        <time>2013-09-23T12:14:37.000Z</time>
      </trkpt>
      <trkpt lon="7.792420852929354" lat="48.273414485156536">
        <ele>166.0</ele>
        <time>2013-09-23T12:14:44.000Z</time>
      </trkpt>
      <trkpt lon="7.791936965659261" lat="48.272917438298464">
        <ele>166.0</ele>
        <time>2013-09-23T12:14:53.000Z</time>
      </trkpt>
      <trkpt lon="7.79171266593039" lat="48.272506557404995">
        <ele>165.8000030517578</ele>
        <time>2013-09-23T12:15:00.000Z</time>
      </trkpt>
      <trkpt lon="7.791603785008192" lat="48.27204253524542">
        <ele>165.39999389648438</ele>
        <time>2013-09-23T12:15:07.000Z</time>
      </trkpt>
      <trkpt lon="7.791545195505023" lat="48.27139754779637">
        <ele>165.0</ele>
        <time>2013-09-23T12:15:16.000Z</time>
      </trkpt>
      <trkpt lon="7.7915403340011835" lat="48.270810563117266">
        <ele>164.8000030517578</ele>
        <time>2013-09-23T12:15:24.000Z</time>
      </trkpt>
      <trkpt lon="7.791566234081984" lat="48.27018837444484">
        <ele>164.1999969482422</ele>
        <time>2013-09-23T12:15:33.000Z</time>
      </trkpt>
      <trkpt lon="7.791708055883646" lat="48.269783360883594">
        <ele>164.1999969482422</ele>
        <time>2013-09-23T12:15:39.000Z</time>
      </trkpt>
      <trkpt lon="7.791862199082971" lat="48.26945738866925">
        <ele>164.1999969482422</ele>
        <time>2013-09-23T12:15:44.000Z</time>
      </trkpt>
      <trkpt lon="7.79182355850935" lat="48.269199058413506">
        <ele>164.39999389648438</ele>
        <time>2013-09-23T12:15:48.000Z</time>
      </trkpt>
      <trkpt lon="7.791623147204518" lat="48.2690750900656">
        <ele>165.0</ele>
        <time>2013-09-23T12:15:51.000Z</time>
      </trkpt>
      <trkpt lon="7.79154603369534" lat="48.26905136927962">
        <ele>165.0</ele>
        <time>2013-09-23T12:15:52.000Z</time>
      </trkpt>
      <trkpt lon="7.791168177500367" lat="48.26903024688363">
        <ele>165.0</ele>
        <time>2013-09-23T12:15:58.000Z</time>
      </trkpt>
      <trkpt lon="7.791102463379502" lat="48.26905673369765">
        <ele>165.0</ele>
        <time>2013-09-23T12:16:03.000Z</time>
      </trkpt>
      <trkpt lon="7.7910499926656485" lat="48.26904525049031">
        <ele>165.0</ele>
        <time>2013-09-23T12:16:07.000Z</time>
      </trkpt>
      <trkpt lon="7.790891155600548" lat="48.2689574919641">
        <ele>165.1999969482422</ele>
        <time>2013-09-23T12:16:11.000Z</time>
      </trkpt>
      <trkpt lon="7.790759559720755" lat="48.268836457282305">
        <ele>165.39999389648438</ele>
        <time>2013-09-23T12:16:15.000Z</time>
      </trkpt>
      <trkpt lon="7.790635088458657" lat="48.26884123496711">
        <ele>165.39999389648438</ele>
        <time>2013-09-23T12:16:18.000Z</time>
      </trkpt>
      <trkpt lon="7.790603656321764" lat="48.268908290192485">
        <ele>165.39999389648438</ele>
        <time>2013-09-23T12:16:20.000Z</time>
      </trkpt>
      <trkpt lon="7.790561579167843" lat="48.26925513334572">
        <ele>164.8000030517578</ele>
        <time>2013-09-23T12:16:27.000Z</time>
      </trkpt>
      <trkpt lon="7.790539534762502" lat="48.269361751154065">
        <ele>165.0</ele>
        <time>2013-09-23T12:16:29.000Z</time>
      </trkpt>
      <trkpt lon="7.790371561422944" lat="48.26981596648693">
        <ele>165.39999389648438</ele>
        <time>2013-09-23T12:16:37.000Z</time>
      </trkpt>
      <trkpt lon="7.790136365219951" lat="48.27027194201946">
        <ele>166.8000030517578</ele>
        <time>2013-09-23T12:16:45.000Z</time>
      </trkpt>
      <trkpt lon="7.7899909391999245" lat="48.27059674076736">
        <ele>167.60000610351562</ele>
        <time>2013-09-23T12:16:51.000Z</time>
      </trkpt>
      <trkpt lon="7.789743756875396" lat="48.27106864191592">
        <ele>167.60000610351562</ele>
        <time>2013-09-23T12:17:01.000Z</time>
      </trkpt>
      <trkpt lon="7.789566982537508" lat="48.27135354280472">
        <ele>167.1999969482422</ele>
        <time>2013-09-23T12:17:07.000Z</time>
      </trkpt>
      <trkpt lon="7.789566982537508" lat="48.27135354280472">
        <ele>167.1999969482422</ele>
        <time>2013-09-23T12:17:07.000Z</time>
      </trkpt>
      <trkpt lon="7.789440164342523" lat="48.27154817059636">
        <ele>166.8000030517578</ele>
        <time>2013-09-23T12:17:11.000Z</time>
      </trkpt>
      <trkpt lon="7.789180492982268" lat="48.27197137288749">
        <ele>166.60000610351562</ele>
        <time>2013-09-23T12:17:20.000Z</time>
      </trkpt>
      <trkpt lon="7.788919480517507" lat="48.27229776419699">
        <ele>165.1999969482422</ele>
        <time>2013-09-23T12:17:28.000Z</time>
      </trkpt>
      <trkpt lon="7.788615552708507" lat="48.2726133428514">
        <ele>164.1999969482422</ele>
        <time>2013-09-23T12:17:35.000Z</time>
      </trkpt>
      <trkpt lon="7.788237193599343" lat="48.27305356040597">
        <ele>164.60000610351562</ele>
        <time>2013-09-23T12:17:44.000Z</time>
      </trkpt>
      <trkpt lon="7.78787006624043" lat="48.27344097197056">
        <ele>164.1999969482422</ele>
        <time>2013-09-23T12:17:51.000Z</time>
      </trkpt>
      <trkpt lon="7.787255086004734" lat="48.27402644790709">
        <ele>164.39999389648438</ele>
        <time>2013-09-23T12:18:02.000Z</time>
      </trkpt>
      <trkpt lon="7.786703975871205" lat="48.27448678202927">
        <ele>164.60000610351562</ele>
        <time>2013-09-23T12:18:11.000Z</time>
      </trkpt>
      <trkpt lon="7.786041554063559" lat="48.2749879360199">
        <ele>165.1999969482422</ele>
        <time>2013-09-23T12:18:21.000Z</time>
      </trkpt>
      <trkpt lon="7.785967458039522" lat="48.275034287944436">
        <ele>165.0</ele>
        <time>2013-09-23T12:18:22.000Z</time>
      </trkpt>
      <trkpt lon="7.785663362592459" lat="48.27518465928733">
        <ele>164.60000610351562</ele>
        <time>2013-09-23T12:18:26.000Z</time>
      </trkpt>
      <trkpt lon="7.785396063700318" lat="48.27542966231704">
        <ele>163.8000030517578</ele>
        <time>2013-09-23T12:18:31.000Z</time>
      </trkpt>
      <trkpt lon="7.78505458496511" lat="48.27569805085659">
        <ele>163.0</ele>
        <time>2013-09-23T12:18:36.000Z</time>
      </trkpt>
      <trkpt lon="7.784485956653953" lat="48.276117565110326">
        <ele>162.60000610351562</ele>
        <time>2013-09-23T12:18:44.000Z</time>
      </trkpt>
      <trkpt lon="7.784003159031272" lat="48.27644554898143">
        <ele>163.0</ele>
        <time>2013-09-23T12:18:51.000Z</time>
      </trkpt>
      <trkpt lon="7.78342405334115" lat="48.276789458468556">
        <ele>163.39999389648438</ele>
        <time>2013-09-23T12:18:59.000Z</time>
      </trkpt>
      <trkpt lon="7.782980650663376" lat="48.27708575874567">
        <ele>163.8000030517578</ele>
        <time>2013-09-23T12:19:06.000Z</time>
      </trkpt>
      <trkpt lon="7.782526183873415" lat="48.277364457026124">
        <ele>164.1999969482422</ele>
        <time>2013-09-23T12:19:14.000Z</time>
      </trkpt>
      <trkpt lon="7.782088648527861" lat="48.27762454748154">
        <ele>163.1999969482422</ele>
        <time>2013-09-23T12:19:22.000Z</time>
      </trkpt>
      <trkpt lon="7.781880861148238" lat="48.2777713984251">
        <ele>162.60000610351562</ele>
        <time>2013-09-23T12:19:26.000Z</time>
      </trkpt>
      <trkpt lon="7.781362775713205" lat="48.2781461533159">
        <ele>162.60000610351562</ele>
        <time>2013-09-23T12:19:36.000Z</time>
      </trkpt>
      <trkpt lon="7.7809203788638115" lat="48.27840565703809">
        <ele>163.60000610351562</ele>
        <time>2013-09-23T12:19:43.000Z</time>
      </trkpt>
      <trkpt lon="7.780363652855158" lat="48.27872785739601">
        <ele>162.60000610351562</ele>
        <time>2013-09-23T12:19:51.000Z</time>
      </trkpt>
      <trkpt lon="7.779755545780063" lat="48.27909213490784">
        <ele>163.1999969482422</ele>
        <time>2013-09-23T12:19:59.000Z</time>
      </trkpt>
      <trkpt lon="7.779101338237524" lat="48.2794725894928">
        <ele>163.0</ele>
        <time>2013-09-23T12:20:07.000Z</time>
      </trkpt>
      <trkpt lon="7.778405388817191" lat="48.27978389337659">
        <ele>161.60000610351562</ele>
        <time>2013-09-23T12:20:14.000Z</time>
      </trkpt>
      <trkpt lon="7.777865761891007" lat="48.280014395713806">
        <ele>161.39999389648438</ele>
        <time>2013-09-23T12:20:20.000Z</time>
      </trkpt>
      <trkpt lon="7.7777202520519495" lat="48.280080277472734">
        <ele>161.60000610351562</ele>
        <time>2013-09-23T12:20:22.000Z</time>
      </trkpt>
      <trkpt lon="7.777384975925088" lat="48.28014356084168">
        <ele>162.1999969482422</ele>
        <time>2013-09-23T12:20:27.000Z</time>
      </trkpt>
      <trkpt lon="7.777403499931097" lat="48.280244981870055">
        <ele>162.0</ele>
        <time>2013-09-23T12:20:30.000Z</time>
      </trkpt>
      <trkpt lon="7.777315238490701" lat="48.280388144776225">
        <ele>162.1999969482422</ele>
        <time>2013-09-23T12:20:34.000Z</time>
      </trkpt>
      <trkpt lon="7.777206357568502" lat="48.28045595437288">
        <ele>162.39999389648438</ele>
        <time>2013-09-23T12:20:36.000Z</time>
      </trkpt>
      <trkpt lon="7.776618367061019" lat="48.28071185387671">
        <ele>163.0</ele>
        <time>2013-09-23T12:20:44.000Z</time>
      </trkpt>
      <trkpt lon="7.77614395134151" lat="48.28092425130308">
        <ele>162.8000030517578</ele>
        <time>2013-09-23T12:20:50.000Z</time>
      </trkpt>
      <trkpt lon="7.776021072641015" lat="48.281000358983874">
        <ele>162.8000030517578</ele>
        <time>2013-09-23T12:20:52.000Z</time>
      </trkpt>
      <trkpt lon="7.775759976357222" lat="48.28116045333445">
        <ele>163.0</ele>
        <time>2013-09-23T12:20:56.000Z</time>
      </trkpt>
      <trkpt lon="7.775303162634373" lat="48.28136413358152">
        <ele>164.0</ele>
        <time>2013-09-23T12:21:02.000Z</time>
      </trkpt>
      <trkpt lon="7.774705868214369" lat="48.28159036114812">
        <ele>165.0</ele>
        <time>2013-09-23T12:21:09.000Z</time>
      </trkpt>
      <trkpt lon="7.774308482185006" lat="48.28176193870604">
        <ele>165.60000610351562</ele>
        <time>2013-09-23T12:21:14.000Z</time>
      </trkpt>
      <trkpt lon="7.77377606369555" lat="48.28195438720286">
        <ele>165.0</ele>
        <time>2013-09-23T12:21:20.000Z</time>
      </trkpt>
      <trkpt lon="7.773079946637154" lat="48.28213384374976">
        <ele>164.60000610351562</ele>
        <time>2013-09-23T12:21:27.000Z</time>
      </trkpt>
      <trkpt lon="7.772788172587752" lat="48.282190170139074">
        <ele>165.0</ele>
        <time>2013-09-23T12:21:30.000Z</time>
      </trkpt>
      <trkpt lon="7.772230776026845" lat="48.28232285566628">
        <ele>165.8000030517578</ele>
        <time>2013-09-23T12:21:36.000Z</time>
      </trkpt>
      <trkpt lon="7.771584363654256" lat="48.28245386481285">
        <ele>165.8000030517578</ele>
        <time>2013-09-23T12:21:43.000Z</time>
      </trkpt>
      <trkpt lon="7.7711421344429255" lat="48.282541036605835">
        <ele>165.1999969482422</ele>
        <time>2013-09-23T12:21:49.000Z</time>
      </trkpt>
      <trkpt lon="7.771074743941426" lat="48.282559057697654">
        <ele>165.1999969482422</ele>
        <time>2013-09-23T12:21:50.000Z</time>
      </trkpt>
      <trkpt lon="7.770856395363808" lat="48.282499462366104">
        <ele>165.0</ele>
        <time>2013-09-23T12:21:54.000Z</time>
      </trkpt>
      <trkpt lon="7.770831165835261" lat="48.282464761286974">
        <ele>164.8000030517578</ele>
        <time>2013-09-23T12:21:55.000Z</time>
      </trkpt>
      <trkpt lon="7.770594460889697" lat="48.28218396753073">
        <ele>164.60000610351562</ele>
        <time>2013-09-23T12:22:02.000Z</time>
      </trkpt>
      <trkpt lon="7.770394468680024" lat="48.28189956955612">
        <ele>165.0</ele>
        <time>2013-09-23T12:22:08.000Z</time>
      </trkpt>
      <trkpt lon="7.770248958840966" lat="48.281578458845615">
        <ele>165.39999389648438</ele>
        <time>2013-09-23T12:22:14.000Z</time>
      </trkpt>
      <trkpt lon="7.770103868097067" lat="48.281277967616916">
        <ele>164.8000030517578</ele>
        <time>2013-09-23T12:22:19.000Z</time>
      </trkpt>
      <trkpt lon="7.769920639693737" lat="48.28085996210575">
        <ele>164.1999969482422</ele>
        <time>2013-09-23T12:22:26.000Z</time>
      </trkpt>
      <trkpt lon="7.7697620540857315" lat="48.2805067487061">
        <ele>164.60000610351562</ele>
        <time>2013-09-23T12:22:32.000Z</time>
      </trkpt>
      <trkpt lon="7.769556697458029" lat="48.28005806542933">
        <ele>164.39999389648438</ele>
        <time>2013-09-23T12:22:40.000Z</time>
      </trkpt>
      <trkpt lon="7.769369278103113" lat="48.279665457084775">
        <ele>163.8000030517578</ele>
        <time>2013-09-23T12:22:47.000Z</time>
      </trkpt>
      <trkpt lon="7.769235670566559" lat="48.279353650286794">
        <ele>163.1999969482422</ele>
        <time>2013-09-23T12:22:52.000Z</time>
      </trkpt>
      <trkpt lon="7.76904514990747" lat="48.2789249997586">
        <ele>162.60000610351562</ele>
        <time>2013-09-23T12:22:59.000Z</time>
      </trkpt>
      <trkpt lon="7.768986141309142" lat="48.2788541726768">
        <ele>162.39999389648438</ele>
        <time>2013-09-23T12:23:03.000Z</time>
      </trkpt>
      <trkpt lon="7.768974993377924" lat="48.27883958816528">
        <ele>162.39999389648438</ele>
        <time>2013-09-23T12:41:18.000Z</time>
      </trkpt>
      <trkpt lon="7.768940879032016" lat="48.27876767143607">
        <ele>162.39999389648438</ele>
        <time>2013-09-23T12:41:23.000Z</time>
      </trkpt>
      <trkpt lon="7.768898298963904" lat="48.27867966145277">
        <ele>162.1999969482422</ele>
        <time>2013-09-23T12:41:27.000Z</time>
      </trkpt>
      <trkpt lon="7.768779192119837" lat="48.27841378748417">
        <ele>162.0</ele>
        <time>2013-09-23T12:41:35.000Z</time>
      </trkpt>
      <trkpt lon="7.768603255972266" lat="48.278049090877175">
        <ele>161.60000610351562</ele>
        <time>2013-09-23T12:41:43.000Z</time>
      </trkpt>
      <trkpt lon="7.768399156630039" lat="48.277580458670855">
        <ele>161.8000030517578</ele>
        <time>2013-09-23T12:41:52.000Z</time>
      </trkpt>
      <trkpt lon="7.768169241026044" lat="48.27708223834634">
        <ele>162.39999389648438</ele>
        <time>2013-09-23T12:42:01.000Z</time>
      </trkpt>
      <trkpt lon="7.767879394814372" lat="48.27650237828493">
        <ele>162.1999969482422</ele>
        <time>2013-09-23T12:42:11.000Z</time>
      </trkpt>
      <trkpt lon="7.767773363739252" lat="48.27627405524254">
        <ele>162.60000610351562</ele>
        <time>2013-09-23T12:42:15.000Z</time>
      </trkpt>
      <trkpt lon="7.767582256346941" lat="48.27618319541216">
        <ele>162.60000610351562</ele>
        <time>2013-09-23T12:42:19.000Z</time>
      </trkpt>
      <trkpt lon="7.767450660467148" lat="48.27621655538678">
        <ele>162.39999389648438</ele>
        <time>2013-09-23T12:42:21.000Z</time>
      </trkpt>
      <trkpt lon="7.766717663034797" lat="48.27643884345889">
        <ele>160.1999969482422</ele>
        <time>2013-09-23T12:42:31.000Z</time>
      </trkpt>
      <trkpt lon="7.766020456328988" lat="48.276634560897946">
        <ele>161.39999389648438</ele>
        <time>2013-09-23T12:42:40.000Z</time>
      </trkpt>
      <trkpt lon="7.765571689233184" lat="48.27677386812866">
        <ele>162.1999969482422</ele>
        <time>2013-09-23T12:42:46.000Z</time>
      </trkpt>
      <trkpt lon="7.764815473929048" lat="48.276992635801435">
        <ele>162.60000610351562</ele>
        <time>2013-09-23T12:42:56.000Z</time>
      </trkpt>
      <trkpt lon="7.764239553362131" lat="48.277160190045834">
        <ele>162.0</ele>
        <time>2013-09-23T12:43:04.000Z</time>
      </trkpt>
      <trkpt lon="7.763649299740791" lat="48.27732464298606">
        <ele>162.0</ele>
        <time>2013-09-23T12:43:12.000Z</time>
      </trkpt>
      <trkpt lon="7.763649299740791" lat="48.27732464298606">
        <ele>162.0</ele>
        <time>2013-09-23T12:43:12.000Z</time>
      </trkpt>
      <trkpt lon="7.763492055237293" lat="48.27736345119774">
        <ele>162.0</ele>
        <time>2013-09-23T12:43:14.000Z</time>
      </trkpt>
      <trkpt lon="7.762803984805942" lat="48.27754843980074">
        <ele>162.0</ele>
        <time>2013-09-23T12:43:23.000Z</time>
      </trkpt>
      <trkpt lon="7.761941570788622" lat="48.277778355404735">
        <ele>161.60000610351562</ele>
        <time>2013-09-23T12:43:34.000Z</time>
      </trkpt>
      <trkpt lon="7.761073792353272" lat="48.27800827100873">
        <ele>161.60000610351562</ele>
        <time>2013-09-23T12:43:45.000Z</time>
      </trkpt>
      <trkpt lon="7.761006066575646" lat="48.27802444808185">
        <ele>161.60000610351562</ele>
        <time>2013-09-23T12:43:46.000Z</time>
      </trkpt>
      <trkpt lon="7.760733151808381" lat="48.277898551896214">
        <ele>161.39999389648438</ele>
        <time>2013-09-23T12:43:50.000Z</time>
      </trkpt>
      <trkpt lon="7.760691996663809" lat="48.2778456620872">
        <ele>161.39999389648438</ele>
        <time>2013-09-23T12:43:51.000Z</time>
      </trkpt>
      <trkpt lon="7.760337442159653" lat="48.27730025164783">
        <ele>161.8000030517578</ele>
        <time>2013-09-23T12:44:01.000Z</time>
      </trkpt>
      <trkpt lon="7.75994005613029" lat="48.27675827778876">
        <ele>162.8000030517578</ele>
        <time>2013-09-23T12:44:11.000Z</time>
      </trkpt>
      <trkpt lon="7.759463964030147" lat="48.276118990033865">
        <ele>163.0</ele>
        <time>2013-09-23T12:44:23.000Z</time>
      </trkpt>
      <trkpt lon="7.759357932955027" lat="48.2758426386863">
        <ele>163.0</ele>
        <time>2013-09-23T12:44:28.000Z</time>
      </trkpt>
      <trkpt lon="7.759355250746012" lat="48.2754279859364">
        <ele>162.8000030517578</ele>
        <time>2013-09-23T12:44:35.000Z</time>
      </trkpt>
      <trkpt lon="7.759388275444508" lat="48.27506655827165">
        <ele>162.60000610351562</ele>
        <time>2013-09-23T12:44:42.000Z</time>
      </trkpt>
      <trkpt lon="7.759387269616127" lat="48.27502615749836">
        <ele>162.60000610351562</ele>
        <time>2013-09-23T12:44:43.000Z</time>
      </trkpt>
      <trkpt lon="7.759433453902602" lat="48.27499397099018">
        <ele>162.60000610351562</ele>
        <time>2013-09-23T12:44:47.000Z</time>
      </trkpt>
      <trkpt lon="7.759435465559363" lat="48.27501107007265">
        <ele>162.60000610351562</ele>
        <time>2013-09-23T12:44:48.000Z</time>
      </trkpt>
      <trkpt lon="7.759432699531317" lat="48.27518147416413">
        <ele>162.60000610351562</ele>
        <time>2013-09-23T12:44:54.000Z</time>
      </trkpt>
      <trkpt lon="7.759396741166711" lat="48.275299491360784">
        <ele>162.8000030517578</ele>
        <time>2013-09-23T12:44:57.000Z</time>
      </trkpt>
      <trkpt lon="7.759163975715637" lat="48.27535514719784">
        <ele>163.0</ele>
        <time>2013-09-23T12:45:01.000Z</time>
      </trkpt>
      <trkpt lon="7.758738091215491" lat="48.27544734813273">
        <ele>163.0</ele>
        <time>2013-09-23T12:45:07.000Z</time>
      </trkpt>
      <trkpt lon="7.758216569200158" lat="48.275592271238565">
        <ele>162.8000030517578</ele>
        <time>2013-09-23T12:45:14.000Z</time>
      </trkpt>
      <trkpt lon="7.757316268980503" lat="48.27583425678313">
        <ele>162.0</ele>
        <time>2013-09-23T12:45:25.000Z</time>
      </trkpt>
      <trkpt lon="7.75657975114882" lat="48.276020251214504">
        <ele>162.1999969482422</ele>
        <time>2013-09-23T12:45:34.000Z</time>
      </trkpt>
      <trkpt lon="7.755842646583915" lat="48.27621068805456">
        <ele>162.8000030517578</ele>
        <time>2013-09-23T12:45:43.000Z</time>
      </trkpt>
      <trkpt lon="7.754909740760922" lat="48.276429791003466">
        <ele>163.1999969482422</ele>
        <time>2013-09-23T12:45:53.000Z</time>
      </trkpt>
      <trkpt lon="7.753922268748283" lat="48.27667429111898">
        <ele>163.0</ele>
        <time>2013-09-23T12:46:04.000Z</time>
      </trkpt>
      <trkpt lon="7.7530616987496614" lat="48.27687813900411">
        <ele>163.1999969482422</ele>
        <time>2013-09-23T12:46:14.000Z</time>
      </trkpt>
      <trkpt lon="7.752346638590097" lat="48.2770530693233">
        <ele>163.1999969482422</ele>
        <time>2013-09-23T12:46:22.000Z</time>
      </trkpt>
      <trkpt lon="7.752003064379096" lat="48.27713915146887">
        <ele>162.8000030517578</ele>
        <time>2013-09-23T12:46:26.000Z</time>
      </trkpt>
      <trkpt lon="7.7517561335116625" lat="48.277104534208775">
        <ele>162.60000610351562</ele>
        <time>2013-09-23T12:46:30.000Z</time>
      </trkpt>
      <trkpt lon="7.751662842929363" lat="48.277014596387744">
        <ele>162.39999389648438</ele>
        <time>2013-09-23T12:46:32.000Z</time>
      </trkpt>
      <trkpt lon="7.751326560974121" lat="48.27653716318309">
        <ele>161.60000610351562</ele>
        <time>2013-09-23T12:46:40.000Z</time>
      </trkpt>
      <trkpt lon="7.750930264592171" lat="48.275954285636544">
        <ele>161.8000030517578</ele>
        <time>2013-09-23T12:46:49.000Z</time>
      </trkpt>
      <trkpt lon="7.750648884102702" lat="48.275675754994154">
        <ele>161.8000030517578</ele>
        <time>2013-09-23T12:46:54.000Z</time>
      </trkpt>
      <trkpt lon="7.749968189746141" lat="48.2752072904259">
        <ele>161.8000030517578</ele>
        <time>2013-09-23T12:47:04.000Z</time>
      </trkpt>
      <trkpt lon="7.749237371608615" lat="48.274690294638276">
        <ele>162.0</ele>
        <time>2013-09-23T12:47:15.000Z</time>
      </trkpt>
      <trkpt lon="7.748645357787609" lat="48.27427656389773">
        <ele>162.60000610351562</ele>
        <time>2013-09-23T12:47:24.000Z</time>
      </trkpt>
      <trkpt lon="7.747971955686808" lat="48.27380944043398">
        <ele>162.8000030517578</ele>
        <time>2013-09-23T12:47:34.000Z</time>
      </trkpt>
      <trkpt lon="7.747601140290499" lat="48.27355597168207">
        <ele>163.39999389648438</ele>
        <time>2013-09-23T12:47:40.000Z</time>
      </trkpt>
      <trkpt lon="7.747483793646097" lat="48.273480366915464">
        <ele>163.60000610351562</ele>
        <time>2013-09-23T12:47:42.000Z</time>
      </trkpt>
      <trkpt lon="7.7469385508447886" lat="48.273093961179256">
        <ele>163.8000030517578</ele>
        <time>2013-09-23T12:47:50.000Z</time>
      </trkpt>
      <trkpt lon="7.746441252529621" lat="48.27275709249079">
        <ele>163.0</ele>
        <time>2013-09-23T12:47:57.000Z</time>
      </trkpt>
      <trkpt lon="7.745873797684908" lat="48.27236758545041">
        <ele>162.8000030517578</ele>
        <time>2013-09-23T12:48:05.000Z</time>
      </trkpt>
      <trkpt lon="7.745522176846862" lat="48.27223364263773">
        <ele>163.1999969482422</ele>
        <time>2013-09-23T12:48:09.000Z</time>
      </trkpt>
      <trkpt lon="7.744561694562435" lat="48.271983275189996">
        <ele>163.39999389648438</ele>
        <time>2013-09-23T12:48:19.000Z</time>
      </trkpt>
      <trkpt lon="7.743703136220574" lat="48.271721759811044">
        <ele>162.39999389648438</ele>
        <time>2013-09-23T12:48:28.000Z</time>
      </trkpt>
      <trkpt lon="7.74295337498188" lat="48.271506763994694">
        <ele>162.0</ele>
        <time>2013-09-23T12:48:36.000Z</time>
      </trkpt>
      <trkpt lon="7.742032036185265" lat="48.27123485505581">
        <ele>162.1999969482422</ele>
        <time>2013-09-23T12:48:46.000Z</time>
      </trkpt>
      <trkpt lon="7.740863850340247" lat="48.270877450704575">
        <ele>161.8000030517578</ele>
        <time>2013-09-23T12:48:59.000Z</time>
      </trkpt>
      <trkpt lon="7.739870762452483" lat="48.27059037052095">
        <ele>162.39999389648438</ele>
        <time>2013-09-23T12:49:10.000Z</time>
      </trkpt>
      <trkpt lon="7.738710874691606" lat="48.27026247046888">
        <ele>162.60000610351562</ele>
        <time>2013-09-23T12:49:23.000Z</time>
      </trkpt>
      <trkpt lon="7.737632878124714" lat="48.26995778828859">
        <ele>163.60000610351562</ele>
        <time>2013-09-23T12:49:35.000Z</time>
      </trkpt>
      <trkpt lon="7.736810781061649" lat="48.26973466202617">
        <ele>164.1999969482422</ele>
        <time>2013-09-23T12:49:44.000Z</time>
      </trkpt>
      <trkpt lon="7.736194292083383" lat="48.26953936368227">
        <ele>164.0</ele>
        <time>2013-09-23T12:49:51.000Z</time>
      </trkpt>
      <trkpt lon="7.735499097034335" lat="48.26935236342251">
        <ele>164.60000610351562</ele>
        <time>2013-09-23T12:49:59.000Z</time>
      </trkpt>
      <trkpt lon="7.734969863668084" lat="48.269189251586795">
        <ele>166.0</ele>
        <time>2013-09-23T12:50:05.000Z</time>
      </trkpt>
      <trkpt lon="7.734726537019014" lat="48.26909864321351">
        <ele>166.0</ele>
        <time>2013-09-23T12:50:08.000Z</time>
      </trkpt>
      <trkpt lon="7.733917851001024" lat="48.26886218972504">
        <ele>166.39999389648438</ele>
        <time>2013-09-23T12:50:17.000Z</time>
      </trkpt>
      <trkpt lon="7.733281580731273" lat="48.26868373900652">
        <ele>165.8000030517578</ele>
        <time>2013-09-23T12:50:24.000Z</time>
      </trkpt>
      <trkpt lon="7.732768440619111" lat="48.268551053479314">
        <ele>165.1999969482422</ele>
        <time>2013-09-23T12:50:30.000Z</time>
      </trkpt>
      <trkpt lon="7.732519833371043" lat="48.26849179342389">
        <ele>165.0</ele>
        <time>2013-09-23T12:50:33.000Z</time>
      </trkpt>
      <trkpt lon="7.732519833371043" lat="48.26849179342389">
        <ele>165.0</ele>
        <time>2013-09-23T12:50:33.000Z</time>
      </trkpt>
      <trkpt lon="7.73235647007823" lat="48.26844158582389">
        <ele>164.8000030517578</ele>
        <time>2013-09-23T12:50:36.000Z</time>
      </trkpt>
      <trkpt lon="7.732234094291925" lat="48.26834519393742">
        <ele>164.60000610351562</ele>
        <time>2013-09-23T12:50:40.000Z</time>
      </trkpt>
      <trkpt lon="7.7321214415133" lat="48.26807395555079">
        <ele>165.60000610351562</ele>
        <time>2013-09-23T12:50:46.000Z</time>
      </trkpt>
      <trkpt lon="7.732036532834172" lat="48.26785736717284">
        <ele>166.60000610351562</ele>
        <time>2013-09-23T12:50:50.000Z</time>
      </trkpt>
      <trkpt lon="7.731833858415484" lat="48.26771596446633">
        <ele>167.0</ele>
        <time>2013-09-23T12:50:54.000Z</time>
      </trkpt>
      <trkpt lon="7.731687678024173" lat="48.26774454675615">
        <ele>166.8000030517578</ele>
        <time>2013-09-23T12:50:56.000Z</time>
      </trkpt>
      <trkpt lon="7.73101176135242" lat="48.26790455728769">
        <ele>165.60000610351562</ele>
        <time>2013-09-23T12:51:04.000Z</time>
      </trkpt>
      <trkpt lon="7.730432152748108" lat="48.26808485202491">
        <ele>164.60000610351562</ele>
        <time>2013-09-23T12:51:11.000Z</time>
      </trkpt>
      <trkpt lon="7.730002161115408" lat="48.268284844234586">
        <ele>164.0</ele>
        <time>2013-09-23T12:51:17.000Z</time>
      </trkpt>
      <trkpt lon="7.729455074295402" lat="48.26850604265928">
        <ele>163.8000030517578</ele>
        <time>2013-09-23T12:51:24.000Z</time>
      </trkpt>
      <trkpt lon="7.728837076574564" lat="48.26869538985193">
        <ele>163.60000610351562</ele>
        <time>2013-09-23T12:51:31.000Z</time>
      </trkpt>
      <trkpt lon="7.728338856250048" lat="48.26879664324224">
        <ele>163.8000030517578</ele>
        <time>2013-09-23T12:51:36.000Z</time>
      </trkpt>
      <trkpt lon="7.727699065580964" lat="48.268940057605505">
        <ele>164.1999969482422</ele>
        <time>2013-09-23T12:51:43.000Z</time>
      </trkpt>
      <trkpt lon="7.727301847189665" lat="48.269077353179455">
        <ele>164.0</ele>
        <time>2013-09-23T12:51:48.000Z</time>
      </trkpt>
      <trkpt lon="7.726724166423082" lat="48.2692492660135">
        <ele>163.8000030517578</ele>
        <time>2013-09-23T12:51:55.000Z</time>
      </trkpt>
      <trkpt lon="7.726470194756985" lat="48.26933417469263">
        <ele>163.60000610351562</ele>
        <time>2013-09-23T12:52:00.000Z</time>
      </trkpt>
      <trkpt lon="7.726316638290882" lat="48.269340796396136">
        <ele>163.60000610351562</ele>
        <time>2013-09-23T12:52:05.000Z</time>
      </trkpt>
      <trkpt lon="7.726172050461173" lat="48.26927977614105">
        <ele>163.8000030517578</ele>
        <time>2013-09-23T12:52:08.000Z</time>
      </trkpt>
      <trkpt lon="7.726130476221442" lat="48.26924968510866">
        <ele>163.8000030517578</ele>
        <time>2013-09-23T12:52:09.000Z</time>
      </trkpt>
      <trkpt lon="7.725788075476885" lat="48.268940560519695">
        <ele>164.0</ele>
        <time>2013-09-23T12:52:17.000Z</time>
      </trkpt>
      <trkpt lon="7.7257439866662025" lat="48.268899992108345">
        <ele>164.0</ele>
        <time>2013-09-23T12:52:18.000Z</time>
      </trkpt>
      <trkpt lon="7.72560166195035" lat="48.268628250807524">
        <ele>164.0</ele>
        <time>2013-09-23T12:52:23.000Z</time>
      </trkpt>
      <trkpt lon="7.72560459561646" lat="48.26856547035277">
        <ele>164.0</ele>
        <time>2013-09-23T12:52:24.000Z</time>
      </trkpt>
      <trkpt lon="7.7256188448518515" lat="48.26843907125294">
        <ele>164.1999969482422</ele>
        <time>2013-09-23T12:52:26.000Z</time>
      </trkpt>
      <trkpt lon="7.725641895085573" lat="48.26801226474345">
        <ele>164.1999969482422</ele>
        <time>2013-09-23T12:52:33.000Z</time>
      </trkpt>
      <trkpt lon="7.725533852353692" lat="48.26772107742727">
        <ele>164.1999969482422</ele>
        <time>2013-09-23T12:52:38.000Z</time>
      </trkpt>
      <trkpt lon="7.7254921942949295" lat="48.2676640804857">
        <ele>164.39999389648438</ele>
        <time>2013-09-23T12:52:39.000Z</time>
      </trkpt>
      <trkpt lon="7.725318688899279" lat="48.26746107079089">
        <ele>164.60000610351562</ele>
        <time>2013-09-23T12:52:43.000Z</time>
      </trkpt>
      <trkpt lon="7.725052647292614" lat="48.2670839689672">
        <ele>164.8000030517578</ele>
        <time>2013-09-23T12:52:50.000Z</time>
      </trkpt>
      <trkpt lon="7.7250230591744184" lat="48.26702546328306">
        <ele>164.8000030517578</ele>
        <time>2013-09-23T12:52:51.000Z</time>
      </trkpt>
      <trkpt lon="7.725038146600127" lat="48.26674475334585">
        <ele>164.8000030517578</ele>
        <time>2013-09-23T12:52:56.000Z</time>
      </trkpt>
      <trkpt lon="7.725238893181086" lat="48.266565380617976">
        <ele>165.0</ele>
        <time>2013-09-23T12:53:00.000Z</time>
      </trkpt>
      <trkpt lon="7.725664358586073" lat="48.26616254635155">
        <ele>165.39999389648438</ele>
        <time>2013-09-23T12:53:08.000Z</time>
      </trkpt>
      <trkpt lon="7.725832164287567" lat="48.26585249975324">
        <ele>165.8000030517578</ele>
        <time>2013-09-23T12:53:13.000Z</time>
      </trkpt>
      <trkpt lon="7.725861333310604" lat="48.2657128572464">
        <ele>165.60000610351562</ele>
        <time>2013-09-23T12:53:15.000Z</time>
      </trkpt>
      <trkpt lon="7.725811880081892" lat="48.26543776318431">
        <ele>165.39999389648438</ele>
        <time>2013-09-23T12:53:19.000Z</time>
      </trkpt>
      <trkpt lon="7.725607445463538" lat="48.26501028612256">
        <ele>164.60000610351562</ele>
        <time>2013-09-23T12:53:26.000Z</time>
      </trkpt>
      <trkpt lon="7.725536450743675" lat="48.26483577489853">
        <ele>164.39999389648438</ele>
        <time>2013-09-23T12:53:29.000Z</time>
      </trkpt>
      <trkpt lon="7.725193295627832" lat="48.26446579769254">
        <ele>164.0</ele>
        <time>2013-09-23T12:53:36.000Z</time>
      </trkpt>
      <trkpt lon="7.72474704310298" lat="48.26403647661209">
        <ele>164.0</ele>
        <time>2013-09-23T12:53:44.000Z</time>
      </trkpt>
      <trkpt lon="7.724458035081625" lat="48.26378493569791">
        <ele>163.8000030517578</ele>
        <time>2013-09-23T12:53:50.000Z</time>
      </trkpt>
      <trkpt lon="7.724318141117692" lat="48.26355468481779">
        <ele>163.39999389648438</ele>
        <time>2013-09-23T12:53:54.000Z</time>
      </trkpt>
      <trkpt lon="7.724259551614523" lat="48.26306794770062">
        <ele>163.60000610351562</ele>
        <time>2013-09-23T12:54:01.000Z</time>
      </trkpt>
      <trkpt lon="7.724141450598836" lat="48.26267257332802">
        <ele>164.60000610351562</ele>
        <time>2013-09-23T12:54:07.000Z</time>
      </trkpt>
      <trkpt lon="7.723801480606198" lat="48.262143256142735">
        <ele>166.0</ele>
        <time>2013-09-23T12:54:16.000Z</time>
      </trkpt>
      <trkpt lon="7.723462851718068" lat="48.26162558980286">
        <ele>166.60000610351562</ele>
        <time>2013-09-23T12:54:25.000Z</time>
      </trkpt>
      <trkpt lon="7.723100669682026" lat="48.26109828427434">
        <ele>165.39999389648438</ele>
        <time>2013-09-23T12:54:34.000Z</time>
      </trkpt>
      <trkpt lon="7.722841249778867" lat="48.260738365352154">
        <ele>165.60000610351562</ele>
        <time>2013-09-23T12:54:41.000Z</time>
      </trkpt>
      <trkpt lon="7.7225179597735405" lat="48.260333854705095">
        <ele>166.8000030517578</ele>
        <time>2013-09-23T12:54:49.000Z</time>
      </trkpt>
      <trkpt lon="7.722288463264704" lat="48.26000654138625">
        <ele>167.0</ele>
        <time>2013-09-23T12:54:55.000Z</time>
      </trkpt>
      <trkpt lon="7.722083358094096" lat="48.25969247147441">
        <ele>165.60000610351562</ele>
        <time>2013-09-23T12:55:01.000Z</time>
      </trkpt>
      <trkpt lon="7.721911361441016" lat="48.25951159000397">
        <ele>165.0</ele>
        <time>2013-09-23T12:55:05.000Z</time>
      </trkpt>
      <trkpt lon="7.721636854112148" lat="48.25945249758661">
        <ele>164.8000030517578</ele>
        <time>2013-09-23T12:55:09.000Z</time>
      </trkpt>
      <trkpt lon="7.721484135836363" lat="48.259497256949544">
        <ele>164.60000610351562</ele>
        <time>2013-09-23T12:55:11.000Z</time>
      </trkpt>
      <trkpt lon="7.720876866951585" lat="48.25973689556122">
        <ele>163.0</ele>
        <time>2013-09-23T12:55:18.000Z</time>
      </trkpt>
      <trkpt lon="7.720422735437751" lat="48.25997846201062">
        <ele>162.8000030517578</ele>
        <time>2013-09-23T12:55:24.000Z</time>
      </trkpt>
      <trkpt lon="7.719970364123583" lat="48.260283060371876">
        <ele>162.60000610351562</ele>
        <time>2013-09-23T12:55:31.000Z</time>
      </trkpt>
      <trkpt lon="7.719402490183711" lat="48.2606615871191">
        <ele>162.1999969482422</ele>
        <time>2013-09-23T12:55:39.000Z</time>
      </trkpt>
      <trkpt lon="7.718542842194438" lat="48.26128117740154">
        <ele>162.1999969482422</ele>
        <time>2013-09-23T12:55:51.000Z</time>
      </trkpt>
      <trkpt lon="7.717972034588456" lat="48.26177068054676">
        <ele>161.1999969482422</ele>
        <time>2013-09-23T12:56:00.000Z</time>
      </trkpt>
      <trkpt lon="7.717492254450917" lat="48.262332351878285">
        <ele>159.39999389648438</ele>
        <time>2013-09-23T12:56:10.000Z</time>
      </trkpt>
      <trkpt lon="7.717217663303018" lat="48.262783885002136">
        <ele>159.60000610351562</ele>
        <time>2013-09-23T12:56:18.000Z</time>
      </trkpt>
      <trkpt lon="7.7169944532215595" lat="48.263227539137006">
        <ele>160.1999969482422</ele>
        <time>2013-09-23T12:56:26.000Z</time>
      </trkpt>
      <trkpt lon="7.716808961704373" lat="48.263605143874884">
        <ele>160.39999389648438</ele>
        <time>2013-09-23T12:56:33.000Z</time>
      </trkpt>
      <trkpt lon="7.71677459590137" lat="48.26390697620809">
        <ele>160.60000610351562</ele>
        <time>2013-09-23T12:56:38.000Z</time>
      </trkpt>
      <trkpt lon="7.716799238696694" lat="48.264174442738295">
        <ele>160.8000030517578</ele>
        <time>2013-09-23T12:56:42.000Z</time>
      </trkpt>
      <trkpt lon="7.716615088284016" lat="48.2643763627857">
        <ele>160.60000610351562</ele>
        <time>2013-09-23T12:56:46.000Z</time>
      </trkpt>
      <trkpt lon="7.716369749978185" lat="48.26438918709755">
        <ele>160.8000030517578</ele>
        <time>2013-09-23T12:56:49.000Z</time>
      </trkpt>
      <trkpt lon="7.7161910478025675" lat="48.264285335317254">
        <ele>160.8000030517578</ele>
        <time>2013-09-23T12:56:52.000Z</time>
      </trkpt>
      <trkpt lon="7.715888461098075" lat="48.26412356458604">
        <ele>160.8000030517578</ele>
        <time>2013-09-23T12:56:57.000Z</time>
      </trkpt>
      <trkpt lon="7.715203072875738" lat="48.26399649493396">
        <ele>160.0</ele>
        <time>2013-09-23T12:57:05.000Z</time>
      </trkpt>
      <trkpt lon="7.714707450941205" lat="48.26380044221878">
        <ele>160.0</ele>
        <time>2013-09-23T12:57:11.000Z</time>
      </trkpt>
      <trkpt lon="7.714261198416352" lat="48.26347799040377">
        <ele>159.39999389648438</ele>
        <time>2013-09-23T12:57:18.000Z</time>
      </trkpt>
      <trkpt lon="7.713959366083145" lat="48.26306006871164">
        <ele>159.0</ele>
        <time>2013-09-23T12:57:25.000Z</time>
      </trkpt>
      <trkpt lon="7.713618138805032" lat="48.262634268030524">
        <ele>159.39999389648438</ele>
        <time>2013-09-23T12:57:32.000Z</time>
      </trkpt>
      <trkpt lon="7.713223351165652" lat="48.26214887201786">
        <ele>160.0</ele>
        <time>2013-09-23T12:57:40.000Z</time>
      </trkpt>
      <trkpt lon="7.712857984006405" lat="48.26164964586496">
        <ele>159.8000030517578</ele>
        <time>2013-09-23T12:57:48.000Z</time>
      </trkpt>
      <trkpt lon="7.712704762816429" lat="48.26116475276649">
        <ele>159.1999969482422</ele>
        <time>2013-09-23T12:57:55.000Z</time>
      </trkpt>
      <trkpt lon="7.712610466405749" lat="48.260891251266">
        <ele>159.0</ele>
        <time>2013-09-23T12:57:59.000Z</time>
      </trkpt>
      <trkpt lon="7.712610466405749" lat="48.260891251266">
        <ele>159.0</ele>
        <time>2013-09-23T12:57:59.000Z</time>
      </trkpt>
      <trkpt lon="7.712509045377374" lat="48.26069134287536">
        <ele>159.1999969482422</ele>
        <time>2013-09-23T12:58:02.000Z</time>
      </trkpt>
      <trkpt lon="7.712207464501262" lat="48.260316252708435">
        <ele>160.1999969482422</ele>
        <time>2013-09-23T12:58:08.000Z</time>
      </trkpt>
      <trkpt lon="7.711958773434162" lat="48.260087091475725">
        <ele>160.1999969482422</ele>
        <time>2013-09-23T12:58:12.000Z</time>
      </trkpt>
      <trkpt lon="7.71191225387156" lat="48.259870586916804">
        <ele>160.1999969482422</ele>
        <time>2013-09-23T12:58:16.000Z</time>
      </trkpt>
      <trkpt lon="7.711967155337334" lat="48.259825659915805">
        <ele>160.1999969482422</ele>
        <time>2013-09-23T12:58:17.000Z</time>
      </trkpt>
      <trkpt lon="7.712598061189055" lat="48.25934705324471">
        <ele>161.0</ele>
        <time>2013-09-23T12:58:27.000Z</time>
      </trkpt>
      <trkpt lon="7.713202061131597" lat="48.258928544819355">
        <ele>161.0</ele>
        <time>2013-09-23T12:58:36.000Z</time>
      </trkpt>
      <trkpt lon="7.713728779926896" lat="48.258542558178306">
        <ele>161.1999969482422</ele>
        <time>2013-09-23T12:58:44.000Z</time>
      </trkpt>
      <trkpt lon="7.714315764605999" lat="48.25811675749719">
        <ele>161.60000610351562</ele>
        <time>2013-09-23T12:58:53.000Z</time>
      </trkpt>
      <trkpt lon="7.714756233617663" lat="48.257790952920914">
        <ele>161.1999969482422</ele>
        <time>2013-09-23T12:59:00.000Z</time>
      </trkpt>
      <trkpt lon="7.715389151126146" lat="48.25736406259239">
        <ele>161.60000610351562</ele>
        <time>2013-09-23T12:59:09.000Z</time>
      </trkpt>
      <trkpt lon="7.7160046342760324" lat="48.25691889971495">
        <ele>162.60000610351562</ele>
        <time>2013-09-23T12:59:18.000Z</time>
      </trkpt>
      <trkpt lon="7.716708881780505" lat="48.25641808100045">
        <ele>162.8000030517578</ele>
        <time>2013-09-23T12:59:28.000Z</time>
      </trkpt>
      <trkpt lon="7.71712395362556" lat="48.25608925893903">
        <ele>162.8000030517578</ele>
        <time>2013-09-23T12:59:34.000Z</time>
      </trkpt>
      <trkpt lon="7.71743668243289" lat="48.25585917569697">
        <ele>162.8000030517578</ele>
        <time>2013-09-23T12:59:39.000Z</time>
      </trkpt>
      <trkpt lon="7.717908667400479" lat="48.25554745271802">
        <ele>162.8000030517578</ele>
        <time>2013-09-23T12:59:46.000Z</time>
      </trkpt>
      <trkpt lon="7.718465561047196" lat="48.25515953823924">
        <ele>162.0</ele>
        <time>2013-09-23T12:59:55.000Z</time>
      </trkpt>
      <trkpt lon="7.7185821533203125" lat="48.25506339780986">
        <ele>161.60000610351562</ele>
        <time>2013-09-23T12:59:57.000Z</time>
      </trkpt>
      <trkpt lon="7.7186619490385056" lat="48.25485737062991">
        <ele>161.60000610351562</ele>
        <time>2013-09-23T13:00:01.000Z</time>
      </trkpt>
      <trkpt lon="7.71863236092031" lat="48.25480179861188">
        <ele>161.60000610351562</ele>
        <time>2013-09-23T13:00:02.000Z</time>
      </trkpt>
      <trkpt lon="7.718247044831514" lat="48.25419997796416">
        <ele>162.0</ele>
        <time>2013-09-23T13:00:12.000Z</time>
      </trkpt>
      <trkpt lon="7.717827782034874" lat="48.25353906489909">
        <ele>161.60000610351562</ele>
        <time>2013-09-23T13:00:23.000Z</time>
      </trkpt>
      <trkpt lon="7.717522596940398" lat="48.253070851787925">
        <ele>162.39999389648438</ele>
        <time>2013-09-23T13:00:31.000Z</time>
      </trkpt>
      <trkpt lon="7.717245742678642" lat="48.25259777717292">
        <ele>163.8000030517578</ele>
        <time>2013-09-23T13:00:38.000Z</time>
      </trkpt>
      <trkpt lon="7.717034937813878" lat="48.25198179110885">
        <ele>163.60000610351562</ele>
        <time>2013-09-23T13:00:47.000Z</time>
      </trkpt>
      <trkpt lon="7.716881465166807" lat="48.25139606371522">
        <ele>163.39999389648438</ele>
        <time>2013-09-23T13:00:56.000Z</time>
      </trkpt>
      <trkpt lon="7.716678874567151" lat="48.25059173628688">
        <ele>163.1999969482422</ele>
        <time>2013-09-23T13:01:08.000Z</time>
      </trkpt>
      <trkpt lon="7.716534873470664" lat="48.249872736632824">
        <ele>164.0</ele>
        <time>2013-09-23T13:01:18.000Z</time>
      </trkpt>
      <trkpt lon="7.716371258720756" lat="48.24921006336808">
        <ele>163.39999389648438</ele>
        <time>2013-09-23T13:01:27.000Z</time>
      </trkpt>
      <trkpt lon="7.716188784688711" lat="48.24861226603389">
        <ele>162.0</ele>
        <time>2013-09-23T13:01:35.000Z</time>
      </trkpt>
      <trkpt lon="7.7160449512302876" lat="48.24810516089201">
        <ele>161.39999389648438</ele>
        <time>2013-09-23T13:01:41.000Z</time>
      </trkpt>
      <trkpt lon="7.715902794152498" lat="48.247539633885026">
        <ele>162.0</ele>
        <time>2013-09-23T13:01:48.000Z</time>
      </trkpt>
      <trkpt lon="7.715727696195245" lat="48.24687855318189">
        <ele>163.1999969482422</ele>
        <time>2013-09-23T13:01:56.000Z</time>
      </trkpt>
      <trkpt lon="7.715544970706105" lat="48.246065340936184">
        <ele>163.39999389648438</ele>
        <time>2013-09-23T13:02:06.000Z</time>
      </trkpt>
      <trkpt lon="7.715536756440997" lat="48.24568488635123">
        <ele>164.0</ele>
        <time>2013-09-23T13:02:11.000Z</time>
      </trkpt>
      <trkpt lon="7.715554861351848" lat="48.245474165305495">
        <ele>164.39999389648438</ele>
        <time>2013-09-23T13:02:14.000Z</time>
      </trkpt>
      <trkpt lon="7.715497864410281" lat="48.24498139321804">
        <ele>165.60000610351562</ele>
        <time>2013-09-23T13:02:20.000Z</time>
      </trkpt>
      <trkpt lon="7.715390073135495" lat="48.24444185011089">
        <ele>165.60000610351562</ele>
        <time>2013-09-23T13:02:27.000Z</time>
      </trkpt>
      <trkpt lon="7.715313797816634" lat="48.244251664727926">
        <ele>165.60000610351562</ele>
        <time>2013-09-23T13:02:30.000Z</time>
      </trkpt>
      <trkpt lon="7.715290496125817" lat="48.24407455511391">
        <ele>165.8000030517578</ele>
        <time>2013-09-23T13:02:33.000Z</time>
      </trkpt>
      <trkpt lon="7.715133838355541" lat="48.243783451616764">
        <ele>166.1999969482422</ele>
        <time>2013-09-23T13:02:38.000Z</time>
      </trkpt>
      <trkpt lon="7.7150442358106375" lat="48.243671134114265">
        <ele>166.39999389648438</ele>
        <time>2013-09-23T13:02:40.000Z</time>
      </trkpt>
      <trkpt lon="7.7148545533418655" lat="48.24323393404484">
        <ele>166.8000030517578</ele>
        <time>2013-09-23T13:02:47.000Z</time>
      </trkpt>
      <trkpt lon="7.714673252776265" lat="48.24261736124754">
        <ele>166.60000610351562</ele>
        <time>2013-09-23T13:02:56.000Z</time>
      </trkpt>
      <trkpt lon="7.714563449844718" lat="48.24205585755408">
        <ele>167.0</ele>
        <time>2013-09-23T13:03:04.000Z</time>
      </trkpt>
      <trkpt lon="7.714187353849411" lat="48.241538191214204">
        <ele>167.0</ele>
        <time>2013-09-23T13:03:12.000Z</time>
      </trkpt>
      <trkpt lon="7.71373045630753" lat="48.24104508385062">
        <ele>167.1999969482422</ele>
        <time>2013-09-23T13:03:20.000Z</time>
      </trkpt>
      <trkpt lon="7.713538846001029" lat="48.24086403474212">
        <ele>167.60000610351562</ele>
        <time>2013-09-23T13:03:23.000Z</time>
      </trkpt>
      <trkpt lon="7.713336758315563" lat="48.24051325209439">
        <ele>167.8000030517578</ele>
        <time>2013-09-23T13:03:28.000Z</time>
      </trkpt>
      <trkpt lon="7.713250257074833" lat="48.240116285160184">
        <ele>167.8000030517578</ele>
        <time>2013-09-23T13:03:34.000Z</time>
      </trkpt>
      <trkpt lon="7.713051270693541" lat="48.23975393548608">
        <ele>167.1999969482422</ele>
        <time>2013-09-23T13:03:40.000Z</time>
      </trkpt>
      <trkpt lon="7.712776344269514" lat="48.23926535435021">
        <ele>166.60000610351562</ele>
        <time>2013-09-23T13:03:48.000Z</time>
      </trkpt>
      <trkpt lon="7.712501836940646" lat="48.23862296529114">
        <ele>166.8000030517578</ele>
        <time>2013-09-23T13:03:58.000Z</time>
      </trkpt>
      <trkpt lon="7.712440146133304" lat="48.238175958395004">
        <ele>167.1999969482422</ele>
        <time>2013-09-23T13:04:05.000Z</time>
      </trkpt>
      <trkpt lon="7.712566796690226" lat="48.23773347772658">
        <ele>168.1999969482422</ele>
        <time>2013-09-23T13:04:12.000Z</time>
      </trkpt>
      <trkpt lon="7.712828479707241" lat="48.23724506422877">
        <ele>168.60000610351562</ele>
        <time>2013-09-23T13:04:20.000Z</time>
      </trkpt>
      <trkpt lon="7.713001146912575" lat="48.23671968653798">
        <ele>168.60000610351562</ele>
        <time>2013-09-23T13:04:28.000Z</time>
      </trkpt>
      <trkpt lon="7.713013552129269" lat="48.2365788705647">
        <ele>168.60000610351562</ele>
        <time>2013-09-23T13:04:30.000Z</time>
      </trkpt>
      <trkpt lon="7.713013552129269" lat="48.2365788705647">
        <ele>168.60000610351562</ele>
        <time>2013-09-23T13:04:30.000Z</time>
      </trkpt>
      <trkpt lon="7.712971391156316" lat="48.23640234768391">
        <ele>168.39999389648438</ele>
        <time>2013-09-23T13:04:33.000Z</time>
      </trkpt>
      <trkpt lon="7.712962171062827" lat="48.23634476400912">
        <ele>168.39999389648438</ele>
        <time>2013-09-23T13:04:34.000Z</time>
      </trkpt>
      <trkpt lon="7.71287533454597" lat="48.23611945845187">
        <ele>168.1999969482422</ele>
        <time>2013-09-23T13:04:38.000Z</time>
      </trkpt>
      <trkpt lon="7.71294666454196" lat="48.2359104976058">
        <ele>168.0</ele>
        <time>2013-09-23T13:04:42.000Z</time>
      </trkpt>
      <trkpt lon="7.713094856590033" lat="48.23584059253335">
        <ele>168.0</ele>
        <time>2013-09-23T13:04:44.000Z</time>
      </trkpt>
      <trkpt lon="7.713968753814697" lat="48.235501293092966">
        <ele>167.8000030517578</ele>
        <time>2013-09-23T13:04:54.000Z</time>
      </trkpt>
      <trkpt lon="7.714403355494142" lat="48.235333571210504">
        <ele>168.0</ele>
        <time>2013-09-23T13:04:59.000Z</time>
      </trkpt>
      <trkpt lon="7.714546099305153" lat="48.23525754734874">
        <ele>168.0</ele>
        <time>2013-09-23T13:05:01.000Z</time>
      </trkpt>
      <trkpt lon="7.714691441506147" lat="48.235177248716354">
        <ele>168.0</ele>
        <time>2013-09-23T13:05:03.000Z</time>
      </trkpt>
      <trkpt lon="7.715543964877725" lat="48.23480668477714">
        <ele>167.0</ele>
        <time>2013-09-23T13:05:13.000Z</time>
      </trkpt>
      <trkpt lon="7.716185683384538" lat="48.23457794263959">
        <ele>166.8000030517578</ele>
        <time>2013-09-23T13:05:20.000Z</time>
      </trkpt>
      <trkpt lon="7.716617351397872" lat="48.234412567690015">
        <ele>167.1999969482422</ele>
        <time>2013-09-23T13:05:25.000Z</time>
      </trkpt>
      <trkpt lon="7.717350767925382" lat="48.23413034901023">
        <ele>166.8000030517578</ele>
        <time>2013-09-23T13:05:33.000Z</time>
      </trkpt>
      <trkpt lon="7.7181217353791" lat="48.233845280483365">
        <ele>166.1999969482422</ele>
        <time>2013-09-23T13:05:41.000Z</time>
      </trkpt>
      <trkpt lon="7.718828748911619" lat="48.23354847729206">
        <ele>166.0</ele>
        <time>2013-09-23T13:05:49.000Z</time>
      </trkpt>
      <trkpt lon="7.719538444653153" lat="48.23329928331077">
        <ele>166.0</ele>
        <time>2013-09-23T13:05:57.000Z</time>
      </trkpt>
      <trkpt lon="7.719716057181358" lat="48.23324396274984">
        <ele>166.0</ele>
        <time>2013-09-23T13:05:59.000Z</time>
      </trkpt>
      <trkpt lon="7.7200947515666485" lat="48.23304623365402">
        <ele>166.0</ele>
        <time>2013-09-23T13:06:04.000Z</time>
      </trkpt>
      <trkpt lon="7.7202932350337505" lat="48.23289426974952">
        <ele>166.0</ele>
        <time>2013-09-23T13:06:07.000Z</time>
      </trkpt>
      <trkpt lon="7.720634965226054" lat="48.23253837414086">
        <ele>166.0</ele>
        <time>2013-09-23T13:06:13.000Z</time>
      </trkpt>
      <trkpt lon="7.7207909524440765" lat="48.23227157816291">
        <ele>166.1999969482422</ele>
        <time>2013-09-23T13:06:17.000Z</time>
      </trkpt>
      <trkpt lon="7.721020365133882" lat="48.231578478589654">
        <ele>166.8000030517578</ele>
        <time>2013-09-23T13:06:27.000Z</time>
      </trkpt>
      <trkpt lon="7.721139555796981" lat="48.23095268569887">
        <ele>166.39999389648438</ele>
        <time>2013-09-23T13:06:36.000Z</time>
      </trkpt>
      <trkpt lon="7.721222452819347" lat="48.23043686337769">
        <ele>167.1999969482422</ele>
        <time>2013-09-23T13:06:44.000Z</time>
      </trkpt>
      <trkpt lon="7.721117762848735" lat="48.23021826334298">
        <ele>167.39999389648438</ele>
        <time>2013-09-23T13:06:48.000Z</time>
      </trkpt>
      <trkpt lon="7.721094042062759" lat="48.23012648150325">
        <ele>167.60000610351562</ele>
        <time>2013-09-23T13:06:51.000Z</time>
      </trkpt>
      <trkpt lon="7.721127737313509" lat="48.23008616454899">
        <ele>167.8000030517578</ele>
        <time>2013-09-23T13:06:53.000Z</time>
      </trkpt>
      <trkpt lon="7.721356563270092" lat="48.229916766285896">
        <ele>168.60000610351562</ele>
        <time>2013-09-23T13:06:59.000Z</time>
      </trkpt>
      <trkpt lon="7.721425294876099" lat="48.229908384382725">
        <ele>168.8000030517578</ele>
        <time>2013-09-23T13:07:00.000Z</time>
      </trkpt>
      <trkpt lon="7.72170583717525" lat="48.22988357394934">
        <ele>169.60000610351562</ele>
        <time>2013-09-23T13:07:04.000Z</time>
      </trkpt>
      <trkpt lon="7.721879677847028" lat="48.2297782972455">
        <ele>169.1999969482422</ele>
        <time>2013-09-23T13:07:08.000Z</time>
      </trkpt>
      <trkpt lon="7.721920162439346" lat="48.22968768887222">
        <ele>169.0</ele>
        <time>2013-09-23T13:07:10.000Z</time>
      </trkpt>
      <trkpt lon="7.722091991454363" lat="48.229354759678245">
        <ele>168.60000610351562</ele>
        <time>2013-09-23T13:07:16.000Z</time>
      </trkpt>
      <trkpt lon="7.722352081909776" lat="48.22890263982117">
        <ele>168.39999389648438</ele>
        <time>2013-09-23T13:07:24.000Z</time>
      </trkpt>
      <trkpt lon="7.722490467131138" lat="48.22857415303588">
        <ele>168.1999969482422</ele>
        <time>2013-09-23T13:07:29.000Z</time>
      </trkpt>
      <trkpt lon="7.722788359969854" lat="48.22821599431336">
        <ele>168.1999969482422</ele>
        <time>2013-09-23T13:07:34.000Z</time>
      </trkpt>
      <trkpt lon="7.723436867818236" lat="48.22761073708534">
        <ele>168.1999969482422</ele>
        <time>2013-09-23T13:07:43.000Z</time>
      </trkpt>
      <trkpt lon="7.723559495061636" lat="48.22749523445964">
        <ele>168.1999969482422</ele>
        <time>2013-09-23T13:07:45.000Z</time>
      </trkpt>
      <trkpt lon="7.723766947165132" lat="48.22718158364296">
        <ele>168.60000610351562</ele>
        <time>2013-09-23T13:07:50.000Z</time>
      </trkpt>
      <trkpt lon="7.72390466183424" lat="48.226608680561185">
        <ele>169.1999969482422</ele>
        <time>2013-09-23T13:07:59.000Z</time>
      </trkpt>
      <trkpt lon="7.723933579400182" lat="48.226074334234">
        <ele>168.8000030517578</ele>
        <time>2013-09-23T13:08:07.000Z</time>
      </trkpt>
      <trkpt lon="7.724028378725052" lat="48.22531493380666">
        <ele>168.8000030517578</ele>
        <time>2013-09-23T13:08:18.000Z</time>
      </trkpt>
      <trkpt lon="7.724052183330059" lat="48.22470523416996">
        <ele>168.8000030517578</ele>
        <time>2013-09-23T13:08:27.000Z</time>
      </trkpt>
      <trkpt lon="7.724096942692995" lat="48.22442125529051">
        <ele>168.8000030517578</ele>
        <time>2013-09-23T13:08:31.000Z</time>
      </trkpt>
      <trkpt lon="7.72425745613873" lat="48.224141635000706">
        <ele>169.0</ele>
        <time>2013-09-23T13:08:35.000Z</time>
      </trkpt>
      <trkpt lon="7.724767746403813" lat="48.22361994534731">
        <ele>169.0</ele>
        <time>2013-09-23T13:08:43.000Z</time>
      </trkpt>
      <trkpt lon="7.725144261494279" lat="48.223183834925294">
        <ele>168.8000030517578</ele>
        <time>2013-09-23T13:08:50.000Z</time>
      </trkpt>
      <trkpt lon="7.725180052220821" lat="48.22291988879442">
        <ele>168.8000030517578</ele>
        <time>2013-09-23T13:08:54.000Z</time>
      </trkpt>
      <trkpt lon="7.725147362798452" lat="48.22284956462681">
        <ele>168.8000030517578</ele>
        <time>2013-09-23T13:08:55.000Z</time>
      </trkpt>
      <trkpt lon="7.7247971668839455" lat="48.22227515280247">
        <ele>168.39999389648438</ele>
        <time>2013-09-23T13:09:04.000Z</time>
      </trkpt>
      <trkpt lon="7.724693063646555" lat="48.22202185168862">
        <ele>168.0</ele>
        <time>2013-09-23T13:09:08.000Z</time>
      </trkpt>
      <trkpt lon="7.724728854373097" lat="48.22178506292403">
        <ele>167.8000030517578</ele>
        <time>2013-09-23T13:09:12.000Z</time>
      </trkpt>
      <trkpt lon="7.72485944442451" lat="48.221697472035885">
        <ele>167.8000030517578</ele>
        <time>2013-09-23T13:09:14.000Z</time>
      </trkpt>
      <trkpt lon="7.725377948954701" lat="48.22132875211537">
        <ele>167.39999389648438</ele>
        <time>2013-09-23T13:09:22.000Z</time>
      </trkpt>
      <trkpt lon="7.725733341649175" lat="48.220906890928745">
        <ele>167.0</ele>
        <time>2013-09-23T13:09:29.000Z</time>
      </trkpt>
      <trkpt lon="7.726116478443146" lat="48.22046969085932">
        <ele>167.60000610351562</ele>
        <time>2013-09-23T13:09:36.000Z</time>
      </trkpt>
      <trkpt lon="7.726259557530284" lat="48.2203583791852">
        <ele>167.60000610351562</ele>
        <time>2013-09-23T13:09:38.000Z</time>
      </trkpt>
      <trkpt lon="7.726728860288858" lat="48.22016475722194">
        <ele>168.0</ele>
        <time>2013-09-23T13:09:43.000Z</time>
      </trkpt>
      <trkpt lon="7.727829068899155" lat="48.21980676613748">
        <ele>168.60000610351562</ele>
        <time>2013-09-23T13:09:54.000Z</time>
      </trkpt>
      <trkpt lon="7.72903086617589" lat="48.21943209506571">
        <ele>168.8000030517578</ele>
        <time>2013-09-23T13:10:06.000Z</time>
      </trkpt>
      <trkpt lon="7.72985128685832" lat="48.21916018612683">
        <ele>168.8000030517578</ele>
        <time>2013-09-23T13:10:14.000Z</time>
      </trkpt>
      <trkpt lon="7.730370545759797" lat="48.21897645480931">
        <ele>169.1999969482422</ele>
        <time>2013-09-23T13:10:19.000Z</time>
      </trkpt>
      <trkpt lon="7.730682939291" lat="48.21875768713653">
        <ele>169.1999969482422</ele>
        <time>2013-09-23T13:10:23.000Z</time>
      </trkpt>
      <trkpt lon="7.73124729283154" lat="48.21821085177362">
        <ele>169.8000030517578</ele>
        <time>2013-09-23T13:10:32.000Z</time>
      </trkpt>
      <trkpt lon="7.731704358011484" lat="48.21770366281271">
        <ele>170.0</ele>
        <time>2013-09-23T13:10:40.000Z</time>
      </trkpt>
      <trkpt lon="7.732256641611457" lat="48.21706588380039">
        <ele>168.8000030517578</ele>
        <time>2013-09-23T13:10:50.000Z</time>
      </trkpt>
      <trkpt lon="7.732860138639808" lat="48.21648417972028">
        <ele>168.1999969482422</ele>
        <time>2013-09-23T13:11:00.000Z</time>
      </trkpt>
      <trkpt lon="7.733309492468834" lat="48.21609056554735">
        <ele>167.60000610351562</ele>
        <time>2013-09-23T13:11:07.000Z</time>
      </trkpt>
      <trkpt lon="7.733309492468834" lat="48.21609056554735">
        <ele>167.60000610351562</ele>
        <time>2013-09-23T13:11:07.000Z</time>
      </trkpt>
      <trkpt lon="7.733504958450794" lat="48.215925861150026">
        <ele>167.60000610351562</ele>
        <time>2013-09-23T13:11:10.000Z</time>
      </trkpt>
      <trkpt lon="7.734042154625058" lat="48.21550785563886">
        <ele>168.1999969482422</ele>
        <time>2013-09-23T13:11:18.000Z</time>
      </trkpt>
      <trkpt lon="7.734629474580288" lat="48.21518925949931">
        <ele>169.39999389648438</ele>
        <time>2013-09-23T13:11:25.000Z</time>
      </trkpt>
      <trkpt lon="7.735386360436678" lat="48.214807882905006">
        <ele>169.0</ele>
        <time>2013-09-23T13:11:33.000Z</time>
      </trkpt>
      <trkpt lon="7.735844599083066" lat="48.214444778859615">
        <ele>168.1999969482422</ele>
        <time>2013-09-23T13:11:39.000Z</time>
      </trkpt>
      <trkpt lon="7.736663594841957" lat="48.21368856355548">
        <ele>169.39999389648438</ele>
        <time>2013-09-23T13:11:51.000Z</time>
      </trkpt>
      <trkpt lon="7.73735124617815" lat="48.213055059313774">
        <ele>170.1999969482422</ele>
        <time>2013-09-23T13:12:01.000Z</time>
      </trkpt>
      <trkpt lon="7.737991372123361" lat="48.21247394196689">
        <ele>169.39999389648438</ele>
        <time>2013-09-23T13:12:10.000Z</time>
      </trkpt>
      <trkpt lon="7.738704588264227" lat="48.21182928979397">
        <ele>170.39999389648438</ele>
        <time>2013-09-23T13:12:20.000Z</time>
      </trkpt>
      <trkpt lon="7.739318897947669" lat="48.21127776056528">
        <ele>169.39999389648438</ele>
        <time>2013-09-23T13:12:29.000Z</time>
      </trkpt>
      <trkpt lon="7.739910241216421" lat="48.21071709506214">
        <ele>168.8000030517578</ele>
        <time>2013-09-23T13:12:38.000Z</time>
      </trkpt>
      <trkpt lon="7.740595377981663" lat="48.210091553628445">
        <ele>168.8000030517578</ele>
        <time>2013-09-23T13:12:48.000Z</time>
      </trkpt>
      <trkpt lon="7.741380846127868" lat="48.209394346922636">
        <ele>169.0</ele>
        <time>2013-09-23T13:12:59.000Z</time>
      </trkpt>
      <trkpt lon="7.742294892668724" lat="48.208582140505314">
        <ele>169.1999969482422</ele>
        <time>2013-09-23T13:13:12.000Z</time>
      </trkpt>
      <trkpt lon="7.742963852360845" lat="48.20804494433105">
        <ele>169.1999969482422</ele>
        <time>2013-09-23T13:13:21.000Z</time>
      </trkpt>
      <trkpt lon="7.743589645251632" lat="48.20756558328867">
        <ele>170.0</ele>
        <time>2013-09-23T13:13:30.000Z</time>
      </trkpt>
      <trkpt lon="7.74403128772974" lat="48.207242377102375">
        <ele>169.8000030517578</ele>
        <time>2013-09-23T13:13:37.000Z</time>
      </trkpt>
      <trkpt lon="7.744089290499687" lat="48.20719627663493">
        <ele>169.8000030517578</ele>
        <time>2013-09-23T13:13:38.000Z</time>
      </trkpt>
      <trkpt lon="7.744487849995494" lat="48.20685815066099">
        <ele>170.60000610351562</ele>
        <time>2013-09-23T13:13:45.000Z</time>
      </trkpt>
      <trkpt lon="7.744773086160421" lat="48.2066538836807">
        <ele>171.39999389648438</ele>
        <time>2013-09-23T13:13:50.000Z</time>
      </trkpt>
      <trkpt lon="7.745229145511985" lat="48.206364791840315">
        <ele>171.0</ele>
        <time>2013-09-23T13:13:57.000Z</time>
      </trkpt>
      <trkpt lon="7.745734741911292" lat="48.206103863194585">
        <ele>171.0</ele>
        <time>2013-09-23T13:14:04.000Z</time>
      </trkpt>
      <trkpt lon="7.746167499572039" lat="48.20587235502899">
        <ele>171.1999969482422</ele>
        <time>2013-09-23T13:14:10.000Z</time>
      </trkpt>
      <trkpt lon="7.746511660516262" lat="48.20558904670179">
        <ele>171.39999389648438</ele>
        <time>2013-09-23T13:14:15.000Z</time>
      </trkpt>
      <trkpt lon="7.7468949649482965" lat="48.20509317331016">
        <ele>170.60000610351562</ele>
        <time>2013-09-23T13:14:22.000Z</time>
      </trkpt>
      <trkpt lon="7.747208951041102" lat="48.204671144485474">
        <ele>170.1999969482422</ele>
        <time>2013-09-23T13:14:28.000Z</time>
      </trkpt>
      <trkpt lon="7.747612958773971" lat="48.204150795936584">
        <ele>170.8000030517578</ele>
        <time>2013-09-23T13:14:35.000Z</time>
      </trkpt>
      <trkpt lon="7.748077567666769" lat="48.203495079651475">
        <ele>170.8000030517578</ele>
        <time>2013-09-23T13:14:44.000Z</time>
      </trkpt>
      <trkpt lon="7.748638652265072" lat="48.202890157699585">
        <ele>169.39999389648438</ele>
        <time>2013-09-23T13:14:53.000Z</time>
      </trkpt>
      <trkpt lon="7.7490628603845835" lat="48.20245488546789">
        <ele>169.0</ele>
        <time>2013-09-23T13:15:00.000Z</time>
      </trkpt>
      <trkpt lon="7.749670296907425" lat="48.20191115140915">
        <ele>169.0</ele>
        <time>2013-09-23T13:15:09.000Z</time>
      </trkpt>
      <trkpt lon="7.750506056472659" lat="48.20116013288498">
        <ele>168.60000610351562</ele>
        <time>2013-09-23T13:15:21.000Z</time>
      </trkpt>
      <trkpt lon="7.751411469653249" lat="48.200325043872">
        <ele>169.39999389648438</ele>
        <time>2013-09-23T13:15:34.000Z</time>
      </trkpt>
      <trkpt lon="7.752198865637183" lat="48.19962289184332">
        <ele>169.60000610351562</ele>
        <time>2013-09-23T13:15:45.000Z</time>
      </trkpt>
      <trkpt lon="7.7530410792678595" lat="48.19885334931314">
        <ele>170.39999389648438</ele>
        <time>2013-09-23T13:15:57.000Z</time>
      </trkpt>
      <trkpt lon="7.753635188564658" lat="48.19831003434956">
        <ele>170.0</ele>
        <time>2013-09-23T13:16:06.000Z</time>
      </trkpt>
      <trkpt lon="7.754040453583002" lat="48.19795715622604">
        <ele>170.39999389648438</ele>
        <time>2013-09-23T13:16:12.000Z</time>
      </trkpt>
      <trkpt lon="7.754712179303169" lat="48.19734385237098">
        <ele>170.8000030517578</ele>
        <time>2013-09-23T13:16:22.000Z</time>
      </trkpt>
      <trkpt lon="7.755385749042034" lat="48.1967365834862">
        <ele>170.39999389648438</ele>
        <time>2013-09-23T13:16:32.000Z</time>
      </trkpt>
      <trkpt lon="7.756037190556526" lat="48.19613518193364">
        <ele>172.0</ele>
        <time>2013-09-23T13:16:42.000Z</time>
      </trkpt>
      <trkpt lon="7.756734564900398" lat="48.19555465131998">
        <ele>173.1999969482422</ele>
        <time>2013-09-23T13:16:52.000Z</time>
      </trkpt>
      <trkpt lon="7.757527660578489" lat="48.19505165331066">
        <ele>173.60000610351562</ele>
        <time>2013-09-23T13:17:02.000Z</time>
      </trkpt>
      <trkpt lon="7.75768306106329" lat="48.19494277238846">
        <ele>173.0</ele>
        <time>2013-09-23T13:17:04.000Z</time>
      </trkpt>
      <trkpt lon="7.7578141540288925" lat="48.194818049669266">
        <ele>172.1999969482422</ele>
        <time>2013-09-23T13:17:06.000Z</time>
      </trkpt>
      <trkpt lon="7.7578141540288925" lat="48.194818049669266">
        <ele>172.1999969482422</ele>
        <time>2013-09-23T13:17:06.000Z</time>
      </trkpt>
      <trkpt lon="7.757956143468618" lat="48.1946074962616">
        <ele>171.39999389648438</ele>
        <time>2013-09-23T13:17:09.000Z</time>
      </trkpt>
      <trkpt lon="7.757990257814527" lat="48.1945332325995">
        <ele>171.1999969482422</ele>
        <time>2013-09-23T13:17:10.000Z</time>
      </trkpt>
      <trkpt lon="7.758137192577124" lat="48.19416635669768">
        <ele>170.1999969482422</ele>
        <time>2013-09-23T13:17:15.000Z</time>
      </trkpt>
      <trkpt lon="7.7584546990692616" lat="48.19390224292874">
        <ele>170.1999969482422</ele>
        <time>2013-09-23T13:17:20.000Z</time>
      </trkpt>
      <trkpt lon="7.758788885548711" lat="48.193843653425574">
        <ele>170.39999389648438</ele>
        <time>2013-09-23T13:17:24.000Z</time>
      </trkpt>
      <trkpt lon="7.759109241887927" lat="48.19386494345963">
        <ele>170.60000610351562</ele>
        <time>2013-09-23T13:17:28.000Z</time>
      </trkpt>
      <trkpt lon="7.759350053966045" lat="48.193793781101704">
        <ele>170.39999389648438</ele>
        <time>2013-09-23T13:17:32.000Z</time>
      </trkpt>
      <trkpt lon="7.759324572980404" lat="48.19362706504762">
        <ele>170.39999389648438</ele>
        <time>2013-09-23T13:17:35.000Z</time>
      </trkpt>
      <trkpt lon="7.759307976812124" lat="48.1935056950897">
        <ele>170.1999969482422</ele>
        <time>2013-09-23T13:17:37.000Z</time>
      </trkpt>
      <trkpt lon="7.759423395618796" lat="48.19318525493145">
        <ele>170.1999969482422</ele>
        <time>2013-09-23T13:17:42.000Z</time>
      </trkpt>
      <trkpt lon="7.759764287620783" lat="48.19267454557121">
        <ele>170.60000610351562</ele>
        <time>2013-09-23T13:17:50.000Z</time>
      </trkpt>
      <trkpt lon="7.760115070268512" lat="48.19215386174619">
        <ele>170.39999389648438</ele>
        <time>2013-09-23T13:17:58.000Z</time>
      </trkpt>
      <trkpt lon="7.760371472686529" lat="48.19152966141701">
        <ele>170.0</ele>
        <time>2013-09-23T13:18:07.000Z</time>
      </trkpt>
      <trkpt lon="7.760454285889864" lat="48.190968576818705">
        <ele>170.39999389648438</ele>
        <time>2013-09-23T13:18:15.000Z</time>
      </trkpt>
      <trkpt lon="7.760408353060484" lat="48.190338760614395">
        <ele>170.0</ele>
        <time>2013-09-23T13:18:24.000Z</time>
      </trkpt>
      <trkpt lon="7.760302657261491" lat="48.18954683840275">
        <ele>170.0</ele>
        <time>2013-09-23T13:18:35.000Z</time>
      </trkpt>
      <trkpt lon="7.760141976177692" lat="48.18875885568559">
        <ele>170.8000030517578</ele>
        <time>2013-09-23T13:18:46.000Z</time>
      </trkpt>
      <trkpt lon="7.760047260671854" lat="48.1883941590786">
        <ele>171.8000030517578</ele>
        <time>2013-09-23T13:18:52.000Z</time>
      </trkpt>
      <trkpt lon="7.759981546550989" lat="48.18822325207293">
        <ele>171.8000030517578</ele>
        <time>2013-09-23T13:18:55.000Z</time>
      </trkpt>
      <trkpt lon="7.76000065729022" lat="48.188020661473274">
        <ele>171.60000610351562</ele>
        <time>2013-09-23T13:18:59.000Z</time>
      </trkpt>
      <trkpt lon="7.76000015437603" lat="48.187919575721025">
        <ele>171.39999389648438</ele>
        <time>2013-09-23T13:19:02.000Z</time>
      </trkpt>
      <trkpt lon="7.759743081405759" lat="48.187796948477626">
        <ele>171.1999969482422</ele>
        <time>2013-09-23T13:19:07.000Z</time>
      </trkpt>
      <trkpt lon="7.759468154981732" lat="48.18762654438615">
        <ele>171.0</ele>
        <time>2013-09-23T13:19:11.000Z</time>
      </trkpt>
      <trkpt lon="7.758906735107303" lat="48.18722169846296">
        <ele>170.60000610351562</ele>
        <time>2013-09-23T13:19:18.000Z</time>
      </trkpt>
      <trkpt lon="7.7580544631928205" lat="48.18672263994813">
        <ele>171.0</ele>
        <time>2013-09-23T13:19:28.000Z</time>
      </trkpt>
      <trkpt lon="7.757895542308688" lat="48.18663077428937">
        <ele>170.8000030517578</ele>
        <time>2013-09-23T13:19:30.000Z</time>
      </trkpt>
      <trkpt lon="7.757721450179815" lat="48.18648526445031">
        <ele>170.60000610351562</ele>
        <time>2013-09-23T13:19:33.000Z</time>
      </trkpt>
      <trkpt lon="7.757632937282324" lat="48.18630748428404">
        <ele>170.1999969482422</ele>
        <time>2013-09-23T13:19:37.000Z</time>
      </trkpt>
      <trkpt lon="7.757795043289661" lat="48.18584606051445">
        <ele>169.1999969482422</ele>
        <time>2013-09-23T13:19:45.000Z</time>
      </trkpt>
      <trkpt lon="7.7579643577337265" lat="48.18531397730112">
        <ele>170.0</ele>
        <time>2013-09-23T13:19:53.000Z</time>
      </trkpt>
      <trkpt lon="7.758199889212847" lat="48.184566562995315">
        <ele>171.1999969482422</ele>
        <time>2013-09-23T13:20:04.000Z</time>
      </trkpt>
      <trkpt lon="7.758455453440547" lat="48.18372996523976">
        <ele>171.39999389648438</ele>
        <time>2013-09-23T13:20:16.000Z</time>
      </trkpt>
      <trkpt lon="7.758646477013826" lat="48.18309344351292">
        <ele>171.1999969482422</ele>
        <time>2013-09-23T13:20:25.000Z</time>
      </trkpt>
      <trkpt lon="7.758869770914316" lat="48.182352650910616">
        <ele>171.60000610351562</ele>
        <time>2013-09-23T13:20:35.000Z</time>
      </trkpt>
      <trkpt lon="7.759059956297278" lat="48.18170439451933">
        <ele>171.8000030517578</ele>
        <time>2013-09-23T13:20:44.000Z</time>
      </trkpt>
      <trkpt lon="7.75932876393199" lat="48.1808390468359">
        <ele>172.60000610351562</ele>
        <time>2013-09-23T13:20:56.000Z</time>
      </trkpt>
      <trkpt lon="7.7594931330531836" lat="48.180273938924074">
        <ele>172.60000610351562</ele>
        <time>2013-09-23T13:21:04.000Z</time>
      </trkpt>
      <trkpt lon="7.75972749106586" lat="48.17950087599456">
        <ele>171.60000610351562</ele>
        <time>2013-09-23T13:21:15.000Z</time>
      </trkpt>
      <trkpt lon="7.7599334344267845" lat="48.17879654467106">
        <ele>171.39999389648438</ele>
        <time>2013-09-23T13:21:25.000Z</time>
      </trkpt>
      <trkpt lon="7.760093696415424" lat="48.17824149504304">
        <ele>172.0</ele>
        <time>2013-09-23T13:21:33.000Z</time>
      </trkpt>
      <trkpt lon="7.760223699733615" lat="48.178088860586286">
        <ele>172.0</ele>
        <time>2013-09-23T13:21:36.000Z</time>
      </trkpt>
      <trkpt lon="7.760485885664821" lat="48.17809363827109">
        <ele>172.0</ele>
        <time>2013-09-23T13:21:39.000Z</time>
      </trkpt>
      <trkpt lon="7.761556589975953" lat="48.17825029604137">
        <ele>172.0</ele>
        <time>2013-09-23T13:21:50.000Z</time>
      </trkpt>
      <trkpt lon="7.76174945756793" lat="48.17828449420631">
        <ele>172.0</ele>
        <time>2013-09-23T13:21:52.000Z</time>
      </trkpt>
      <trkpt lon="7.762042572721839" lat="48.17824359051883">
        <ele>172.0</ele>
        <time>2013-09-23T13:21:56.000Z</time>
      </trkpt>
      <trkpt lon="7.76205338537693" lat="48.178135799244046">
        <ele>172.0</ele>
        <time>2013-09-23T13:21:58.000Z</time>
      </trkpt>
      <trkpt lon="7.761971997097135" lat="48.17774998024106">
        <ele>172.0</ele>
        <time>2013-09-23T13:22:04.000Z</time>
      </trkpt>
      <trkpt lon="7.761849369853735" lat="48.17728319205344">
        <ele>172.1999969482422</ele>
        <time>2013-09-23T13:22:11.000Z</time>
      </trkpt>
      <trkpt lon="7.761767897754908" lat="48.1767307408154">
        <ele>172.8000030517578</ele>
        <time>2013-09-23T13:22:19.000Z</time>
      </trkpt>
      <trkpt lon="7.761711236089468" lat="48.176044849678874">
        <ele>173.0</ele>
        <time>2013-09-23T13:22:29.000Z</time>
      </trkpt>
      <trkpt lon="7.761675948277116" lat="48.17583563737571">
        <ele>173.0</ele>
        <time>2013-09-23T13:22:32.000Z</time>
      </trkpt>
      <trkpt lon="7.7613800670951605" lat="48.17537086084485">
        <ele>173.0</ele>
        <time>2013-09-23T13:22:39.000Z</time>
      </trkpt>
      <trkpt lon="7.7607736364007" lat="48.17455815151334">
        <ele>173.39999389648438</ele>
        <time>2013-09-23T13:22:52.000Z</time>
      </trkpt>
      <trkpt lon="7.760640364140272" lat="48.174150455743074">
        <ele>173.60000610351562</ele>
        <time>2013-09-23T13:22:58.000Z</time>
      </trkpt>
      <trkpt lon="7.760681351646781" lat="48.17373965866864">
        <ele>173.1999969482422</ele>
        <time>2013-09-23T13:23:04.000Z</time>
      </trkpt>
      <trkpt lon="7.760684872046113" lat="48.17325493320823">
        <ele>173.0</ele>
        <time>2013-09-23T13:23:11.000Z</time>
      </trkpt>
      <trkpt lon="7.760492758825421" lat="48.172864839434624">
        <ele>173.39999389648438</ele>
        <time>2013-09-23T13:23:17.000Z</time>
      </trkpt>
      <trkpt lon="7.760167792439461" lat="48.17235907539725">
        <ele>173.8000030517578</ele>
        <time>2013-09-23T13:23:25.000Z</time>
      </trkpt>
      <trkpt lon="7.759871073067188" lat="48.17178575322032">
        <ele>173.0</ele>
        <time>2013-09-23T13:23:33.000Z</time>
      </trkpt>
      <trkpt lon="7.759629841893911" lat="48.171263644471765">
        <ele>173.39999389648438</ele>
        <time>2013-09-23T13:23:40.000Z</time>
      </trkpt>
      <trkpt lon="7.759629841893911" lat="48.171263644471765">
        <ele>173.39999389648438</ele>
        <time>2013-09-23T13:23:40.000Z</time>
      </trkpt>
      <trkpt lon="7.759540658444166" lat="48.17105426453054">
        <ele>173.8000030517578</ele>
        <time>2013-09-23T13:23:43.000Z</time>
      </trkpt>
      <trkpt lon="7.759380983188748" lat="48.17060759291053">
        <ele>174.1999969482422</ele>
        <time>2013-09-23T13:23:50.000Z</time>
      </trkpt>
      <trkpt lon="7.759335553273559" lat="48.170481361448765">
        <ele>174.1999969482422</ele>
        <time>2013-09-23T13:23:52.000Z</time>
      </trkpt>
      <trkpt lon="7.759095747023821" lat="48.170187659561634">
        <ele>173.8000030517578</ele>
        <time>2013-09-23T13:23:57.000Z</time>
      </trkpt>
      <trkpt lon="7.758317152038217" lat="48.16964359022677">
        <ele>173.39999389648438</ele>
        <time>2013-09-23T13:24:09.000Z</time>
      </trkpt>
      <trkpt lon="7.757729748263955" lat="48.16909356974065">
        <ele>173.1999969482422</ele>
        <time>2013-09-23T13:24:19.000Z</time>
      </trkpt>
      <trkpt lon="7.757307132706046" lat="48.1687009613961">
        <ele>173.39999389648438</ele>
        <time>2013-09-23T13:24:26.000Z</time>
      </trkpt>
      <trkpt lon="7.757147876545787" lat="48.168441876769066">
        <ele>173.8000030517578</ele>
        <time>2013-09-23T13:24:31.000Z</time>
      </trkpt>
      <trkpt lon="7.756961798295379" lat="48.16833165474236">
        <ele>174.0</ele>
        <time>2013-09-23T13:24:34.000Z</time>
      </trkpt>
      <trkpt lon="7.756883846595883" lat="48.168300557881594">
        <ele>174.0</ele>
        <time>2013-09-23T13:24:35.000Z</time>
      </trkpt>
      <trkpt lon="7.756262579932809" lat="48.16798816435039">
        <ele>174.0</ele>
        <time>2013-09-23T13:24:43.000Z</time>
      </trkpt>
      <trkpt lon="7.7556730806827545" lat="48.16773343831301">
        <ele>174.0</ele>
        <time>2013-09-23T13:24:50.000Z</time>
      </trkpt>
      <trkpt lon="7.755117444321513" lat="48.16757367923856">
        <ele>174.0</ele>
        <time>2013-09-23T13:24:56.000Z</time>
      </trkpt>
      <trkpt lon="7.7545910608023405" lat="48.16748667508364">
        <ele>174.0</ele>
        <time>2013-09-23T13:25:02.000Z</time>
      </trkpt>
      <trkpt lon="7.753913635388017" lat="48.16737444140017">
        <ele>174.39999389648438</ele>
        <time>2013-09-23T13:25:10.000Z</time>
      </trkpt>
      <trkpt lon="7.753398567438126" lat="48.1672262493521">
        <ele>175.1999969482422</ele>
        <time>2013-09-23T13:25:16.000Z</time>
      </trkpt>
      <trkpt lon="7.752957846969366" lat="48.166992058977485">
        <ele>174.8000030517578</ele>
        <time>2013-09-23T13:25:22.000Z</time>
      </trkpt>
      <trkpt lon="7.752605052664876" lat="48.1666355766356">
        <ele>175.0</ele>
        <time>2013-09-23T13:25:28.000Z</time>
      </trkpt>
      <trkpt lon="7.752425596117973" lat="48.16626476123929">
        <ele>174.8000030517578</ele>
        <time>2013-09-23T13:25:33.000Z</time>
      </trkpt>
      <trkpt lon="7.752406653016806" lat="48.16573058255017">
        <ele>175.0</ele>
        <time>2013-09-23T13:25:40.000Z</time>
      </trkpt>
      <trkpt lon="7.752526095137" lat="48.1652039475739">
        <ele>175.60000610351562</ele>
        <time>2013-09-23T13:25:47.000Z</time>
      </trkpt>
      <trkpt lon="7.752700354903936" lat="48.16464353352785">
        <ele>175.0</ele>
        <time>2013-09-23T13:25:54.000Z</time>
      </trkpt>
      <trkpt lon="7.752838572487235" lat="48.1639607436955">
        <ele>174.0</ele>
        <time>2013-09-23T13:26:02.000Z</time>
      </trkpt>
      <trkpt lon="7.7528914622962475" lat="48.16347559913993">
        <ele>174.0</ele>
        <time>2013-09-23T13:26:08.000Z</time>
      </trkpt>
      <trkpt lon="7.75292775593698" lat="48.162682335823774">
        <ele>174.0</ele>
        <time>2013-09-23T13:26:18.000Z</time>
      </trkpt>
      <trkpt lon="7.752965558320284" lat="48.16184657625854">
        <ele>174.0</ele>
        <time>2013-09-23T13:26:29.000Z</time>
      </trkpt>
      <trkpt lon="7.7530233934521675" lat="48.16107225604355">
        <ele>174.0</ele>
        <time>2013-09-23T13:26:39.000Z</time>
      </trkpt>
      <trkpt lon="7.753101764246821" lat="48.16056054085493">
        <ele>174.0</ele>
        <time>2013-09-23T13:26:46.000Z</time>
      </trkpt>
      <trkpt lon="7.753221457824111" lat="48.16005083732307">
        <ele>174.0</ele>
        <time>2013-09-23T13:26:53.000Z</time>
      </trkpt>
      <trkpt lon="7.753461096435785" lat="48.159471647813916">
        <ele>174.0</ele>
        <time>2013-09-23T13:27:01.000Z</time>
      </trkpt>
      <trkpt lon="7.753899386152625" lat="48.15878005698323">
        <ele>175.0</ele>
        <time>2013-09-23T13:27:11.000Z</time>
      </trkpt>
      <trkpt lon="7.754301382228732" lat="48.158308658748865">
        <ele>175.60000610351562</ele>
        <time>2013-09-23T13:27:18.000Z</time>
      </trkpt>
      <trkpt lon="7.754776552319527" lat="48.15801805816591">
        <ele>174.39999389648438</ele>
        <time>2013-09-23T13:27:24.000Z</time>
      </trkpt>
      <trkpt lon="7.755123060196638" lat="48.15775788389146">
        <ele>173.8000030517578</ele>
        <time>2013-09-23T13:27:29.000Z</time>
      </trkpt>
      <trkpt lon="7.755678864195943" lat="48.157234098762274">
        <ele>174.39999389648438</ele>
        <time>2013-09-23T13:27:38.000Z</time>
      </trkpt>
      <trkpt lon="7.7561301458626986" lat="48.15691885538399">
        <ele>175.0</ele>
        <time>2013-09-23T13:27:44.000Z</time>
      </trkpt>
      <trkpt lon="7.756384871900082" lat="48.15677074715495">
        <ele>175.0</ele>
        <time>2013-09-23T13:27:47.000Z</time>
      </trkpt>
      <trkpt lon="7.756626354530454" lat="48.15652105025947">
        <ele>174.8000030517578</ele>
        <time>2013-09-23T13:27:51.000Z</time>
      </trkpt>
      <trkpt lon="7.756737247109413" lat="48.156313095241785">
        <ele>174.39999389648438</ele>
        <time>2013-09-23T13:27:54.000Z</time>
      </trkpt>
      <trkpt lon="7.756779994815588" lat="48.156166998669505">
        <ele>174.1999969482422</ele>
        <time>2013-09-23T13:27:56.000Z</time>
      </trkpt>
      <trkpt lon="7.7567459642887115" lat="48.1557977758348">
        <ele>173.8000030517578</ele>
        <time>2013-09-23T13:28:01.000Z</time>
      </trkpt>
      <trkpt lon="7.756712352856994" lat="48.15572686493397">
        <ele>173.8000030517578</ele>
        <time>2013-09-23T13:28:02.000Z</time>
      </trkpt>
      <trkpt lon="7.7563713770359755" lat="48.15528966486454">
        <ele>174.1999969482422</ele>
        <time>2013-09-23T13:28:08.000Z</time>
      </trkpt>
      <trkpt lon="7.755841976031661" lat="48.15489445813">
        <ele>174.8000030517578</ele>
        <time>2013-09-23T13:28:15.000Z</time>
      </trkpt>
      <trkpt lon="7.755428496748209" lat="48.154629254713655">
        <ele>175.1999969482422</ele>
        <time>2013-09-23T13:28:21.000Z</time>
      </trkpt>
      <trkpt lon="7.755141751840711" lat="48.15439456142485">
        <ele>175.60000610351562</ele>
        <time>2013-09-23T13:28:26.000Z</time>
      </trkpt>
      <trkpt lon="7.754958942532539" lat="48.15429565496743">
        <ele>175.8000030517578</ele>
        <time>2013-09-23T13:28:29.000Z</time>
      </trkpt>
      <trkpt lon="7.754664570093155" lat="48.154198760166764">
        <ele>175.39999389648438</ele>
        <time>2013-09-23T13:28:35.000Z</time>
      </trkpt>
      <trkpt lon="7.754609752446413" lat="48.15412315540016">
        <ele>175.39999389648438</ele>
        <time>2013-09-23T13:28:40.000Z</time>
      </trkpt>
      <trkpt lon="7.754615871235728" lat="48.15407085232437">
        <ele>175.39999389648438</ele>
        <time>2013-09-23T13:28:42.000Z</time>
      </trkpt>
      <trkpt lon="7.754692565649748" lat="48.153771786019206">
        <ele>175.8000030517578</ele>
        <time>2013-09-23T13:28:49.000Z</time>
      </trkpt>
      <trkpt lon="7.754707150161266" lat="48.153611440211535">
        <ele>175.8000030517578</ele>
        <time>2013-09-23T13:28:52.000Z</time>
      </trkpt>
      <trkpt lon="7.754618134349585" lat="48.15340935252607">
        <ele>175.8000030517578</ele>
        <time>2013-09-23T13:28:56.000Z</time>
      </trkpt>
      <trkpt lon="7.75445569306612" lat="48.15313836559653">
        <ele>175.60000610351562</ele>
        <time>2013-09-23T13:29:01.000Z</time>
      </trkpt>
      <trkpt lon="7.754445634782314" lat="48.15275958739221">
        <ele>175.1999969482422</ele>
        <time>2013-09-23T13:29:07.000Z</time>
      </trkpt>
      <trkpt lon="7.75458225980401" lat="48.152235969901085">
        <ele>174.60000610351562</ele>
        <time>2013-09-23T13:29:15.000Z</time>
      </trkpt>
      <trkpt lon="7.754702875390649" lat="48.15174336545169">
        <ele>173.8000030517578</ele>
        <time>2013-09-23T13:29:22.000Z</time>
      </trkpt>
      <trkpt lon="7.754864897578955" lat="48.15109075047076">
        <ele>173.1999969482422</ele>
        <time>2013-09-23T13:29:31.000Z</time>
      </trkpt>
      <trkpt lon="7.7550210524350405" lat="48.150460850447416">
        <ele>173.0</ele>
        <time>2013-09-23T13:29:40.000Z</time>
      </trkpt>
      <trkpt lon="7.755180979147553" lat="48.149970676749945">
        <ele>173.0</ele>
        <time>2013-09-23T13:29:47.000Z</time>
      </trkpt>
      <trkpt lon="7.755431262776256" lat="48.149514365941286">
        <ele>175.1999969482422</ele>
        <time>2013-09-23T13:29:54.000Z</time>
      </trkpt>
      <trkpt lon="7.755603175610304" lat="48.14916266128421">
        <ele>176.8000030517578</ele>
        <time>2013-09-23T13:30:00.000Z</time>
      </trkpt>
      <trkpt lon="7.7555308397859335" lat="48.14902008511126">
        <ele>176.8000030517578</ele>
        <time>2013-09-23T13:30:03.000Z</time>
      </trkpt>
      <trkpt lon="7.7553617767989635" lat="48.149007596075535">
        <ele>176.8000030517578</ele>
        <time>2013-09-23T13:30:05.000Z</time>
      </trkpt>
      <trkpt lon="7.755157761275768" lat="48.14910214394331">
        <ele>176.8000030517578</ele>
        <time>2013-09-23T13:30:08.000Z</time>
      </trkpt>
      <trkpt lon="7.755037061870098" lat="48.149194680154324">
        <ele>176.8000030517578</ele>
        <time>2013-09-23T13:30:10.000Z</time>
      </trkpt>
      <trkpt lon="7.75473078712821" lat="48.14935427159071">
        <ele>176.1999969482422</ele>
        <time>2013-09-23T13:30:14.000Z</time>
      </trkpt>
      <trkpt lon="7.754469942301512" lat="48.14944529905915">
        <ele>176.0</ele>
        <time>2013-09-23T13:30:17.000Z</time>
      </trkpt>
      <trkpt lon="7.754469942301512" lat="48.14944529905915">
        <ele>176.0</ele>
        <time>2013-09-23T13:30:17.000Z</time>
      </trkpt>
      <trkpt lon="7.7541357558220625" lat="48.149538254365325">
        <ele>176.1999969482422</ele>
        <time>2013-09-23T13:30:21.000Z</time>
      </trkpt>
      <trkpt lon="7.753889076411724" lat="48.149445885792375">
        <ele>178.8000030517578</ele>
        <time>2013-09-23T13:30:25.000Z</time>
      </trkpt>
      <trkpt lon="7.753918077796698" lat="48.149326192215085">
        <ele>179.1999969482422</ele>
        <time>2013-09-23T13:30:27.000Z</time>
      </trkpt>
      <trkpt lon="7.754063084721565" lat="48.14906015060842">
        <ele>179.1999969482422</ele>
        <time>2013-09-23T13:30:31.000Z</time>
      </trkpt>
      <trkpt lon="7.754083452746272" lat="48.14891489222646">
        <ele>180.39999389648438</ele>
        <time>2013-09-23T13:30:33.000Z</time>
      </trkpt>
      <trkpt lon="7.754190154373646" lat="48.1482960563153">
        <ele>184.60000610351562</ele>
        <time>2013-09-23T13:30:41.000Z</time>
      </trkpt>
      <trkpt lon="7.7542750630527735" lat="48.14786673523486">
        <ele>182.0</ele>
        <time>2013-09-23T13:30:47.000Z</time>
      </trkpt>
      <trkpt lon="7.75430666282773" lat="48.147619888186455">
        <ele>180.8000030517578</ele>
        <time>2013-09-23T13:30:51.000Z</time>
      </trkpt>
      <trkpt lon="7.7541987877339125" lat="48.147238763049245">
        <ele>179.8000030517578</ele>
        <time>2013-09-23T13:30:57.000Z</time>
      </trkpt>
      <trkpt lon="7.754241032525897" lat="48.14700658433139">
        <ele>179.0</ele>
        <time>2013-09-23T13:31:01.000Z</time>
      </trkpt>
      <trkpt lon="7.754356535151601" lat="48.146926537156105">
        <ele>178.39999389648438</ele>
        <time>2013-09-23T13:31:03.000Z</time>
      </trkpt>
      <trkpt lon="7.754497770220041" lat="48.14686585217714">
        <ele>178.0</ele>
        <time>2013-09-23T13:31:05.000Z</time>
      </trkpt>
      <trkpt lon="7.75465945713222" lat="48.146670050919056">
        <ele>177.39999389648438</ele>
        <time>2013-09-23T13:31:09.000Z</time>
      </trkpt>
      <trkpt lon="7.75465945713222" lat="48.14653258770704">
        <ele>177.39999389648438</ele>
        <time>2013-09-23T13:31:11.000Z</time>
      </trkpt>
      <trkpt lon="7.75475425645709" lat="48.14593177288771">
        <ele>178.0</ele>
        <time>2013-09-23T13:31:19.000Z</time>
      </trkpt>
      <trkpt lon="7.75481628254056" lat="48.14553916454315">
        <ele>177.39999389648438</ele>
        <time>2013-09-23T13:31:24.000Z</time>
      </trkpt>
      <trkpt lon="7.7548920549452305" lat="48.14510338939726">
        <ele>176.39999389648438</ele>
        <time>2013-09-23T13:31:30.000Z</time>
      </trkpt>
      <trkpt lon="7.754912758246064" lat="48.14484287984669">
        <ele>176.0</ele>
        <time>2013-09-23T13:31:34.000Z</time>
      </trkpt>
      <trkpt lon="7.755025662481785" lat="48.144274251535535">
        <ele>176.0</ele>
        <time>2013-09-23T13:31:42.000Z</time>
      </trkpt>
      <trkpt lon="7.755183158442378" lat="48.14365155994892">
        <ele>176.39999389648438</ele>
        <time>2013-09-23T13:31:51.000Z</time>
      </trkpt>
      <trkpt lon="7.755120964720845" lat="48.143404042348266">
        <ele>176.1999969482422</ele>
        <time>2013-09-23T13:31:55.000Z</time>
      </trkpt>
      <trkpt lon="7.7550681587308645" lat="48.143190052360296">
        <ele>176.0</ele>
        <time>2013-09-23T13:31:58.000Z</time>
      </trkpt>
      <trkpt lon="7.75518617592752" lat="48.14242109656334">
        <ele>176.39999389648438</ele>
        <time>2013-09-23T13:32:09.000Z</time>
      </trkpt>
      <trkpt lon="7.7552837412804365" lat="48.14187275245786">
        <ele>176.0</ele>
        <time>2013-09-23T13:32:17.000Z</time>
      </trkpt>
      <trkpt lon="7.755379965528846" lat="48.14130814746022">
        <ele>176.60000610351562</ele>
        <time>2013-09-23T13:32:25.000Z</time>
      </trkpt>
      <trkpt lon="7.7554854936897755" lat="48.14071085304022">
        <ele>177.1999969482422</ele>
        <time>2013-09-23T13:32:33.000Z</time>
      </trkpt>
      <trkpt lon="7.7555676363408566" lat="48.140243981033564">
        <ele>176.39999389648438</ele>
        <time>2013-09-23T13:32:40.000Z</time>
      </trkpt>
      <trkpt lon="7.7556730806827545" lat="48.139614751562476">
        <ele>176.60000610351562</ele>
        <time>2013-09-23T13:32:49.000Z</time>
      </trkpt>
      <trkpt lon="7.7558129746466875" lat="48.138837749138474">
        <ele>176.8000030517578</ele>
        <time>2013-09-23T13:33:00.000Z</time>
      </trkpt>
      <trkpt lon="7.755916072055697" lat="48.13826425932348">
        <ele>177.0</ele>
        <time>2013-09-23T13:33:08.000Z</time>
      </trkpt>
      <trkpt lon="7.75603735819459" lat="48.13755984418094">
        <ele>177.8000030517578</ele>
        <time>2013-09-23T13:33:17.000Z</time>
      </trkpt>
      <trkpt lon="7.756128134205937" lat="48.137045446783304">
        <ele>178.1999969482422</ele>
        <time>2013-09-23T13:33:24.000Z</time>
      </trkpt>
      <trkpt lon="7.756216395646334" lat="48.136546052992344">
        <ele>178.39999389648438</ele>
        <time>2013-09-23T13:33:31.000Z</time>
      </trkpt>
      <trkpt lon="7.756317649036646" lat="48.13596426509321">
        <ele>178.39999389648438</ele>
        <time>2013-09-23T13:33:39.000Z</time>
      </trkpt>
      <trkpt lon="7.756418064236641" lat="48.1353912781924">
        <ele>177.1999969482422</ele>
        <time>2013-09-23T13:33:47.000Z</time>
      </trkpt>
      <trkpt lon="7.756515461951494" lat="48.134816363453865">
        <ele>176.60000610351562</ele>
        <time>2013-09-23T13:33:55.000Z</time>
      </trkpt>
      <trkpt lon="7.75664328597486" lat="48.13409543596208">
        <ele>176.8000030517578</ele>
        <time>2013-09-23T13:34:05.000Z</time>
      </trkpt>
      <trkpt lon="7.756761554628611" lat="48.13344206660986">
        <ele>177.0</ele>
        <time>2013-09-23T13:34:14.000Z</time>
      </trkpt>
      <trkpt lon="7.75688074529171" lat="48.1327819917351">
        <ele>176.39999389648438</ele>
        <time>2013-09-23T13:34:23.000Z</time>
      </trkpt>
      <trkpt lon="7.757008234038949" lat="48.132097693160176">
        <ele>176.39999389648438</ele>
        <time>2013-09-23T13:34:32.000Z</time>
      </trkpt>
      <trkpt lon="7.757122395560145" lat="48.13154616393149">
        <ele>176.60000610351562</ele>
        <time>2013-09-23T13:34:40.000Z</time>
      </trkpt>
      <trkpt lon="7.757077636197209" lat="48.13142705708742">
        <ele>176.60000610351562</ele>
        <time>2013-09-23T13:34:43.000Z</time>
      </trkpt>
      <trkpt lon="7.756894156336784" lat="48.13144247978926">
        <ele>176.1999969482422</ele>
        <time>2013-09-23T13:34:45.000Z</time>
      </trkpt>
      <trkpt lon="7.755882879719138" lat="48.131446754559875">
        <ele>176.1999969482422</ele>
        <time>2013-09-23T13:34:56.000Z</time>
      </trkpt>
      <trkpt lon="7.755788499489427" lat="48.13144063577056">
        <ele>176.1999969482422</ele>
        <time>2013-09-23T13:34:57.000Z</time>
      </trkpt>
      <trkpt lon="7.755497144535184" lat="48.13130476512015">
        <ele>176.60000610351562</ele>
        <time>2013-09-23T13:35:01.000Z</time>
      </trkpt>
      <trkpt lon="7.755473256111145" lat="48.131240056827664">
        <ele>176.60000610351562</ele>
        <time>2013-09-23T13:35:02.000Z</time>
      </trkpt>
      <trkpt lon="7.755322298035026" lat="48.1305992603302">
        <ele>177.0</ele>
        <time>2013-09-23T13:35:11.000Z</time>
      </trkpt>
      <trkpt lon="7.755176285281777" lat="48.130045887082815">
        <ele>177.0</ele>
        <time>2013-09-23T13:35:18.000Z</time>
      </trkpt>
      <trkpt lon="7.754983669146895" lat="48.12924977391958">
        <ele>177.0</ele>
        <time>2013-09-23T13:35:28.000Z</time>
      </trkpt>
      <trkpt lon="7.75482508353889" lat="48.12859456054866">
        <ele>178.1999969482422</ele>
        <time>2013-09-23T13:35:37.000Z</time>
      </trkpt>
      <trkpt lon="7.7546908892691135" lat="48.128010258078575">
        <ele>178.1999969482422</ele>
        <time>2013-09-23T13:35:45.000Z</time>
      </trkpt>
      <trkpt lon="7.754548899829388" lat="48.12726619653404">
        <ele>178.0</ele>
        <time>2013-09-23T13:35:55.000Z</time>
      </trkpt>
      <trkpt lon="7.754470445215702" lat="48.126389449462295">
        <ele>179.39999389648438</ele>
        <time>2013-09-23T13:36:07.000Z</time>
      </trkpt>
      <trkpt lon="7.754408838227391" lat="48.12564949505031">
        <ele>180.60000610351562</ele>
        <time>2013-09-23T13:36:17.000Z</time>
      </trkpt>
      <trkpt lon="7.7543772384524345" lat="48.125174241140485">
        <ele>179.8000030517578</ele>
        <time>2013-09-23T13:36:24.000Z</time>
      </trkpt>
      <trkpt lon="7.754308842122555" lat="48.12445415183902">
        <ele>179.8000030517578</ele>
        <time>2013-09-23T13:36:34.000Z</time>
      </trkpt>
      <trkpt lon="7.754295850172639" lat="48.124308893457055">
        <ele>180.0</ele>
        <time>2013-09-23T13:36:36.000Z</time>
      </trkpt>
      <trkpt lon="7.754295850172639" lat="48.124308893457055">
        <ele>180.0</ele>
        <time>2013-09-23T13:36:36.000Z</time>
      </trkpt>
      <trkpt lon="7.754260394722223" lat="48.12386708334088">
        <ele>180.0</ele>
        <time>2013-09-23T13:36:42.000Z</time>
      </trkpt>
      <trkpt lon="7.754193255677819" lat="48.12306895852089">
        <ele>179.60000610351562</ele>
        <time>2013-09-23T13:36:53.000Z</time>
      </trkpt>
      <trkpt lon="7.754156459122896" lat="48.12249345704913">
        <ele>179.0</ele>
        <time>2013-09-23T13:37:01.000Z</time>
      </trkpt>
      <trkpt lon="7.7541127894073725" lat="48.12184268608689">
        <ele>178.8000030517578</ele>
        <time>2013-09-23T13:37:10.000Z</time>
      </trkpt>
      <trkpt lon="7.754052188247442" lat="48.12105679884553">
        <ele>180.1999969482422</ele>
        <time>2013-09-23T13:37:21.000Z</time>
      </trkpt>
      <trkpt lon="7.7540055848658085" lat="48.12047568149865">
        <ele>180.60000610351562</ele>
        <time>2013-09-23T13:37:29.000Z</time>
      </trkpt>
      <trkpt lon="7.75398513302207" lat="48.120084246620536">
        <ele>180.60000610351562</ele>
        <time>2013-09-23T13:37:35.000Z</time>
      </trkpt>
      <trkpt lon="7.7541357558220625" lat="48.1198909599334">
        <ele>180.60000610351562</ele>
        <time>2013-09-23T13:37:39.000Z</time>
      </trkpt>
      <trkpt lon="7.754366844892502" lat="48.11990705318749">
        <ele>180.39999389648438</ele>
        <time>2013-09-23T13:37:42.000Z</time>
      </trkpt>
      <trkpt lon="7.755110654979944" lat="48.120042672380805">
        <ele>179.8000030517578</ele>
        <time>2013-09-23T13:37:50.000Z</time>
      </trkpt>
      <trkpt lon="7.755871564149857" lat="48.12014166265726">
        <ele>178.0</ele>
        <time>2013-09-23T13:37:57.000Z</time>
      </trkpt>
      <trkpt lon="7.756470451131463" lat="48.120207376778126">
        <ele>178.0</ele>
        <time>2013-09-23T13:38:03.000Z</time>
      </trkpt>
      <trkpt lon="7.757236137986183" lat="48.12028465792537">
        <ele>178.39999389648438</ele>
        <time>2013-09-23T13:38:11.000Z</time>
      </trkpt>
      <trkpt lon="7.757940469309688" lat="48.12030519358814">
        <ele>178.8000030517578</ele>
        <time>2013-09-23T13:38:18.000Z</time>
      </trkpt>
      <trkpt lon="7.75865837931633" lat="48.120320197194815">
        <ele>179.1999969482422</ele>
        <time>2013-09-23T13:38:25.000Z</time>
      </trkpt>
      <trkpt lon="7.7589247561991215" lat="48.12033008784056">
        <ele>179.39999389648438</ele>
        <time>2013-09-23T13:38:28.000Z</time>
      </trkpt>
      <trkpt lon="7.759091472253203" lat="48.120343163609505">
        <ele>179.39999389648438</ele>
        <time>2013-09-23T13:38:30.000Z</time>
      </trkpt>
      <trkpt lon="7.759300852194428" lat="48.12026638537645">
        <ele>179.39999389648438</ele>
        <time>2013-09-23T13:38:34.000Z</time>
      </trkpt>
      <trkpt lon="7.7594024408608675" lat="48.12014744617045">
        <ele>179.39999389648438</ele>
        <time>2013-09-23T13:38:38.000Z</time>
      </trkpt>
      <trkpt lon="7.759678373113275" lat="48.12009464018047">
        <ele>179.1999969482422</ele>
        <time>2013-09-23T13:38:42.000Z</time>
      </trkpt>
      <trkpt lon="7.76023174636066" lat="48.1200497969985">
        <ele>178.60000610351562</ele>
        <time>2013-09-23T13:38:48.000Z</time>
      </trkpt>
      <trkpt lon="7.760880757123232" lat="48.119989447295666">
        <ele>178.0</ele>
        <time>2013-09-23T13:38:54.000Z</time>
      </trkpt>
      <trkpt lon="7.761971158906817" lat="48.11994569376111">
        <ele>178.8000030517578</ele>
        <time>2013-09-23T13:39:04.000Z</time>
      </trkpt>
      <trkpt lon="7.762702563777566" lat="48.11990009620786">
        <ele>179.0</ele>
        <time>2013-09-23T13:39:11.000Z</time>
      </trkpt>
      <trkpt lon="7.764092870056629" lat="48.119817869737744">
        <ele>179.8000030517578</ele>
        <time>2013-09-23T13:39:24.000Z</time>
      </trkpt>
      <trkpt lon="7.765313358977437" lat="48.1197545863688">
        <ele>179.60000610351562</ele>
        <time>2013-09-23T13:39:35.000Z</time>
      </trkpt>
      <trkpt lon="7.766428152099252" lat="48.11972474679351">
        <ele>179.1999969482422</ele>
        <time>2013-09-23T13:39:45.000Z</time>
      </trkpt>
      <trkpt lon="7.767047993838787" lat="48.11968778260052">
        <ele>178.8000030517578</ele>
        <time>2013-09-23T13:39:51.000Z</time>
      </trkpt>
      <trkpt lon="7.7677643951028585" lat="48.11966716311872">
        <ele>179.0</ele>
        <time>2013-09-23T13:39:58.000Z</time>
      </trkpt>
      <trkpt lon="7.768131187185645" lat="48.1196647323668">
        <ele>179.8000030517578</ele>
        <time>2013-09-23T13:40:02.000Z</time>
      </trkpt>
      <trkpt lon="7.768372753635049" lat="48.11957395635545">
        <ele>180.39999389648438</ele>
        <time>2013-09-23T13:40:06.000Z</time>
      </trkpt>
      <trkpt lon="7.768372837454081" lat="48.119473457336426">
        <ele>180.60000610351562</ele>
        <time>2013-09-23T13:40:08.000Z</time>
      </trkpt>
      <trkpt lon="7.768352050334215" lat="48.11936306767166">
        <ele>180.60000610351562</ele>
        <time>2013-09-23T13:40:10.000Z</time>
      </trkpt>
      <trkpt lon="7.768358839675784" lat="48.118878761306405">
        <ele>180.60000610351562</ele>
        <time>2013-09-23T13:40:18.000Z</time>
      </trkpt>
      <trkpt lon="7.768369568511844" lat="48.118344163522124">
        <ele>180.0</ele>
        <time>2013-09-23T13:40:26.000Z</time>
      </trkpt>
      <trkpt lon="7.768376190215349" lat="48.1179032754153">
        <ele>180.0</ele>
        <time>2013-09-23T13:40:33.000Z</time>
      </trkpt>
      <trkpt lon="7.768377447500825" lat="48.117423579096794">
        <ele>180.0</ele>
        <time>2013-09-23T13:40:40.000Z</time>
      </trkpt>
      <trkpt lon="7.768384488299489" lat="48.11671648174524">
        <ele>180.0</ele>
        <time>2013-09-23T13:40:50.000Z</time>
      </trkpt>
      <trkpt lon="7.7683881763368845" lat="48.115760860964656">
        <ele>181.0</ele>
        <time>2013-09-23T13:41:03.000Z</time>
      </trkpt>
      <trkpt lon="7.768393373116851" lat="48.11516004614532">
        <ele>181.8000030517578</ele>
        <time>2013-09-23T13:41:11.000Z</time>
      </trkpt>
      <trkpt lon="7.768404353410006" lat="48.11456744559109">
        <ele>182.0</ele>
        <time>2013-09-23T13:41:19.000Z</time>
      </trkpt>
      <trkpt lon="7.768414244055748" lat="48.11385188251734">
        <ele>182.0</ele>
        <time>2013-09-23T13:41:29.000Z</time>
      </trkpt>
      <trkpt lon="7.768438970670104" lat="48.11320513486862">
        <ele>181.8000030517578</ele>
        <time>2013-09-23T13:41:38.000Z</time>
      </trkpt>
      <trkpt lon="7.768432181328535" lat="48.112556459382176">
        <ele>181.8000030517578</ele>
        <time>2013-09-23T13:41:47.000Z</time>
      </trkpt>
      <trkpt lon="7.768436037003994" lat="48.111821450293064">
        <ele>181.8000030517578</ele>
        <time>2013-09-23T13:41:57.000Z</time>
      </trkpt>
      <trkpt lon="7.768437378108501" lat="48.111005974933505">
        <ele>181.8000030517578</ele>
        <time>2013-09-23T13:42:08.000Z</time>
      </trkpt>
      <trkpt lon="7.768430337309837" lat="48.11042318120599">
        <ele>181.39999389648438</ele>
        <time>2013-09-23T13:42:16.000Z</time>
      </trkpt>
      <trkpt lon="7.7684105560183525" lat="48.109703259542584">
        <ele>181.60000610351562</ele>
        <time>2013-09-23T13:42:26.000Z</time>
      </trkpt>
      <trkpt lon="7.768242582678795" lat="48.10930595733225">
        <ele>182.39999389648438</ele>
        <time>2013-09-23T13:42:32.000Z</time>
      </trkpt>
      <trkpt lon="7.768089361488819" lat="48.108739256858826">
        <ele>181.8000030517578</ele>
        <time>2013-09-23T13:42:40.000Z</time>
      </trkpt>
      <trkpt lon="7.768060863018036" lat="48.10867018997669">
        <ele>181.8000030517578</ele>
        <time>2013-09-23T13:42:41.000Z</time>
      </trkpt>
      <trkpt lon="7.768103862181306" lat="48.108498360961676">
        <ele>181.39999389648438</ele>
        <time>2013-09-23T13:42:44.000Z</time>
      </trkpt>
      <trkpt lon="7.768168989568949" lat="48.108463156968355">
        <ele>181.39999389648438</ele>
        <time>2013-09-23T13:42:45.000Z</time>
      </trkpt>
      <trkpt lon="7.768704844638705" lat="48.10821044258773">
        <ele>181.39999389648438</ele>
        <time>2013-09-23T13:42:52.000Z</time>
      </trkpt>
      <trkpt lon="7.768918499350548" lat="48.10802595689893">
        <ele>182.0</ele>
        <time>2013-09-23T13:42:56.000Z</time>
      </trkpt>
      <trkpt lon="7.769053280353546" lat="48.10779293999076">
        <ele>182.39999389648438</ele>
        <time>2013-09-23T13:43:00.000Z</time>
      </trkpt>
      <trkpt lon="7.769371457397938" lat="48.10751499608159">
        <ele>183.1999969482422</ele>
        <time>2013-09-23T13:43:05.000Z</time>
      </trkpt>
      <trkpt lon="7.769743446260691" lat="48.107464872300625">
        <ele>183.60000610351562</ele>
        <time>2013-09-23T13:43:09.000Z</time>
      </trkpt>
      <trkpt lon="7.769845956936479" lat="48.107480043545365">
        <ele>183.8000030517578</ele>
        <time>2013-09-23T13:43:10.000Z</time>
      </trkpt>
      <trkpt lon="7.769845956936479" lat="48.107480043545365">
        <ele>183.8000030517578</ele>
        <time>2013-09-23T13:43:10.000Z</time>
      </trkpt>
      <trkpt lon="7.770719099789858" lat="48.10763854533434">
        <ele>182.8000030517578</ele>
        <time>2013-09-23T13:43:19.000Z</time>
      </trkpt>
      <trkpt lon="7.771749151870608" lat="48.10776108875871">
        <ele>183.0</ele>
        <time>2013-09-23T13:43:29.000Z</time>
      </trkpt>
      <trkpt lon="7.7727271523326635" lat="48.10782135464251">
        <ele>183.1999969482422</ele>
        <time>2013-09-23T13:43:38.000Z</time>
      </trkpt>
      <trkpt lon="7.7735797595232725" lat="48.10783308930695">
        <ele>184.1999969482422</ele>
        <time>2013-09-23T13:43:46.000Z</time>
      </trkpt>
      <trkpt lon="7.774786837399006" lat="48.107843566685915">
        <ele>183.60000610351562</ele>
        <time>2013-09-23T13:43:57.000Z</time>
      </trkpt>
      <trkpt lon="7.776094079017639" lat="48.10783116146922">
        <ele>183.60000610351562</ele>
        <time>2013-09-23T13:44:09.000Z</time>
      </trkpt>
      <trkpt lon="7.777055483311415" lat="48.10782965272665">
        <ele>184.39999389648438</ele>
        <time>2013-09-23T13:44:18.000Z</time>
      </trkpt>
      <trkpt lon="7.777363434433937" lat="48.10785655863583">
        <ele>184.60000610351562</ele>
        <time>2013-09-23T13:44:21.000Z</time>
      </trkpt>
      <trkpt lon="7.7775464951992035" lat="48.107901653274894">
        <ele>184.39999389648438</ele>
        <time>2013-09-23T13:44:23.000Z</time>
      </trkpt>
      <trkpt lon="7.777794683352113" lat="48.10789184644818">
        <ele>184.39999389648438</ele>
        <time>2013-09-23T13:44:26.000Z</time>
      </trkpt>
      <trkpt lon="7.777844639495015" lat="48.10778715647757">
        <ele>184.60000610351562</ele>
        <time>2013-09-23T13:44:29.000Z</time>
      </trkpt>
      <trkpt lon="7.777844052761793" lat="48.107790760695934">
        <ele>184.60000610351562</ele>
        <time>2013-09-23T13:44:31.000Z</time>
      </trkpt>
      <trkpt lon="7.7778383530676365" lat="48.10778556391597">
        <ele>184.60000610351562</ele>
        <time>2013-09-23T13:44:36.000Z</time>
      </trkpt>
      <trkpt lon="7.777828965336084" lat="48.10766058973968">
        <ele>185.0</ele>
        <time>2013-09-23T13:44:40.000Z</time>
      </trkpt>
      <trkpt lon="7.777858888730407" lat="48.107481971383095">
        <ele>185.60000610351562</ele>
        <time>2013-09-23T13:44:44.000Z</time>
      </trkpt>
      <trkpt lon="7.777921669185162" lat="48.10715616680682">
        <ele>186.1999969482422</ele>
        <time>2013-09-23T13:44:49.000Z</time>
      </trkpt>
      <trkpt lon="7.777973553165793" lat="48.106699185445905">
        <ele>187.1999969482422</ele>
        <time>2013-09-23T13:44:55.000Z</time>
      </trkpt>
      <trkpt lon="7.778166253119707" lat="48.1062332354486">
        <ele>187.39999389648438</ele>
        <time>2013-09-23T13:45:01.000Z</time>
      </trkpt>
      <trkpt lon="7.7782677579671144" lat="48.1057736556977">
        <ele>188.0</ele>
        <time>2013-09-23T13:45:07.000Z</time>
      </trkpt>
      <trkpt lon="7.778430869802833" lat="48.10532966628671">
        <ele>189.0</ele>
        <time>2013-09-23T13:45:13.000Z</time>
      </trkpt>
      <trkpt lon="7.778477976098657" lat="48.10511668212712">
        <ele>189.1999969482422</ele>
        <time>2013-09-23T13:45:16.000Z</time>
      </trkpt>
      <trkpt lon="7.7784553449600935" lat="48.10458376072347">
        <ele>189.60000610351562</ele>
        <time>2013-09-23T13:45:24.000Z</time>
      </trkpt>
      <trkpt lon="7.778617786243558" lat="48.10422744601965">
        <ele>189.1999969482422</ele>
        <time>2013-09-23T13:45:29.000Z</time>
      </trkpt>
      <trkpt lon="7.77880797162652" lat="48.103882698342204">
        <ele>190.1999969482422</ele>
        <time>2013-09-23T13:45:34.000Z</time>
      </trkpt>
      <trkpt lon="7.7788682375103235" lat="48.10360726900399">
        <ele>191.0</ele>
        <time>2013-09-23T13:45:38.000Z</time>
      </trkpt>
      <trkpt lon="7.778768157586455" lat="48.10326394625008">
        <ele>193.39999389648438</ele>
        <time>2013-09-23T13:45:43.000Z</time>
      </trkpt>
      <trkpt lon="7.778591047972441" lat="48.10288969427347">
        <ele>197.0</ele>
        <time>2013-09-23T13:45:48.000Z</time>
      </trkpt>
      <trkpt lon="7.778455847874284" lat="48.10272649861872">
        <ele>199.1999969482422</ele>
        <time>2013-09-23T13:45:51.000Z</time>
      </trkpt>
      <trkpt lon="7.778379153460264" lat="48.10240195132792">
        <ele>201.0</ele>
        <time>2013-09-23T13:45:56.000Z</time>
      </trkpt>
      <trkpt lon="7.778390971943736" lat="48.10217656195164">
        <ele>200.39999389648438</ele>
        <time>2013-09-23T13:45:59.000Z</time>
      </trkpt>
      <trkpt lon="7.7784541714936495" lat="48.10202434659004">
        <ele>199.39999389648438</ele>
        <time>2013-09-23T13:46:01.000Z</time>
      </trkpt>
      <trkpt lon="7.7785619627684355" lat="48.10186634771526">
        <ele>198.1999969482422</ele>
        <time>2013-09-23T13:46:04.000Z</time>
      </trkpt>
      <trkpt lon="7.778597250580788" lat="48.10142135247588">
        <ele>198.39999389648438</ele>
        <time>2013-09-23T13:46:10.000Z</time>
      </trkpt>
      <trkpt lon="7.7785310335457325" lat="48.10085088014603">
        <ele>200.8000030517578</ele>
        <time>2013-09-23T13:46:18.000Z</time>
      </trkpt>
      <trkpt lon="7.778483256697655" lat="48.1005672365427">
        <ele>201.8000030517578</ele>
        <time>2013-09-23T13:46:22.000Z</time>
      </trkpt>
      <trkpt lon="7.778444867581129" lat="48.10026825405657">
        <ele>202.60000610351562</ele>
        <time>2013-09-23T13:46:27.000Z</time>
      </trkpt>
      <trkpt lon="7.778530865907669" lat="48.09995627962053">
        <ele>202.1999969482422</ele>
        <time>2013-09-23T13:46:32.000Z</time>
      </trkpt>
      <trkpt lon="7.778583252802491" lat="48.09968973509967">
        <ele>205.8000030517578</ele>
        <time>2013-09-23T13:46:37.000Z</time>
      </trkpt>
      <trkpt lon="7.778595658019185" lat="48.099642880260944">
        <ele>206.39999389648438</ele>
        <time>2013-09-23T13:46:38.000Z</time>
      </trkpt>
      <trkpt lon="7.778806798160076" lat="48.09935445897281">
        <ele>206.60000610351562</ele>
        <time>2013-09-23T13:46:43.000Z</time>
      </trkpt>
      <trkpt lon="7.778966138139367" lat="48.099177265539765">
        <ele>205.60000610351562</ele>
        <time>2013-09-23T13:46:46.000Z</time>
      </trkpt>
      <trkpt lon="7.779417587444186" lat="48.098728163167834">
        <ele>205.39999389648438</ele>
        <time>2013-09-23T13:46:53.000Z</time>
      </trkpt>
      <trkpt lon="7.779766358435154" lat="48.098333375528455">
        <ele>206.1999969482422</ele>
        <time>2013-09-23T13:46:59.000Z</time>
      </trkpt>
      <trkpt lon="7.779927961528301" lat="48.097982089966536">
        <ele>204.39999389648438</ele>
        <time>2013-09-23T13:47:04.000Z</time>
      </trkpt>
      <trkpt lon="7.779943635687232" lat="48.097590152174234">
        <ele>205.60000610351562</ele>
        <time>2013-09-23T13:47:09.000Z</time>
      </trkpt>
      <trkpt lon="7.7799381874501705" lat="48.09718865901232">
        <ele>204.39999389648438</ele>
        <time>2013-09-23T13:47:15.000Z</time>
      </trkpt>
      <trkpt lon="7.779966350644827" lat="48.097039964050055">
        <ele>203.1999969482422</ele>
        <time>2013-09-23T13:47:17.000Z</time>
      </trkpt>
      <trkpt lon="7.780208671465516" lat="48.09672715142369">
        <ele>199.8000030517578</ele>
        <time>2013-09-23T13:47:22.000Z</time>
      </trkpt>
      <trkpt lon="7.780645368620753" lat="48.096457086503506">
        <ele>198.60000610351562</ele>
        <time>2013-09-23T13:47:27.000Z</time>
      </trkpt>
      <trkpt lon="7.780746957287192" lat="48.09641534462571">
        <ele>198.60000610351562</ele>
        <time>2013-09-23T13:47:28.000Z</time>
      </trkpt>
      <trkpt lon="7.781563857570291" lat="48.096132539212704">
        <ele>196.8000030517578</ele>
        <time>2013-09-23T13:47:36.000Z</time>
      </trkpt>
      <trkpt lon="7.781721856445074" lat="48.096041763201356">
        <ele>196.8000030517578</ele>
        <time>2013-09-23T13:47:38.000Z</time>
      </trkpt>
      <trkpt lon="7.781963758170605" lat="48.095810087397695">
        <ele>196.60000610351562</ele>
        <time>2013-09-23T13:47:42.000Z</time>
      </trkpt>
      <trkpt lon="7.782219657674432" lat="48.0953557882458">
        <ele>196.39999389648438</ele>
        <time>2013-09-23T13:47:48.000Z</time>
      </trkpt>
      <trkpt lon="7.7825722843408585" lat="48.094837199896574">
        <ele>195.8000030517578</ele>
        <time>2013-09-23T13:47:55.000Z</time>
      </trkpt>
      <trkpt lon="7.78298475779593" lat="48.09445624239743">
        <ele>198.39999389648438</ele>
        <time>2013-09-23T13:48:01.000Z</time>
      </trkpt>
      <trkpt lon="7.783210063353181" lat="48.09427125379443">
        <ele>198.39999389648438</ele>
        <time>2013-09-23T13:48:04.000Z</time>
      </trkpt>
      <trkpt lon="7.783663356676698" lat="48.09383145533502">
        <ele>196.0</ele>
        <time>2013-09-23T13:48:11.000Z</time>
      </trkpt>
      <trkpt lon="7.7837196830660105" lat="48.09376926161349">
        <ele>195.39999389648438</ele>
        <time>2013-09-23T13:48:12.000Z</time>
      </trkpt>
      <trkpt lon="7.784149339422584" lat="48.09342384338379">
        <ele>190.1999969482422</ele>
        <time>2013-09-23T13:48:18.000Z</time>
      </trkpt>
      <trkpt lon="7.78468519449234" lat="48.09300717897713">
        <ele>189.39999389648438</ele>
        <time>2013-09-23T13:48:25.000Z</time>
      </trkpt>
      <trkpt lon="7.785459263250232" lat="48.09240418486297">
        <ele>188.60000610351562</ele>
        <time>2013-09-23T13:48:35.000Z</time>
      </trkpt>
      <trkpt lon="7.785820858553052" lat="48.092102855443954">
        <ele>188.8000030517578</ele>
        <time>2013-09-23T13:48:41.000Z</time>
      </trkpt>
      <trkpt lon="7.786008445546031" lat="48.09198617935181">
        <ele>189.1999969482422</ele>
        <time>2013-09-23T13:48:44.000Z</time>
      </trkpt>
      <trkpt lon="7.78600743971765" lat="48.09184695594013">
        <ele>189.60000610351562</ele>
        <time>2013-09-23T13:48:48.000Z</time>
      </trkpt>
      <trkpt lon="7.785859247669578" lat="48.091843351721764">
        <ele>189.39999389648438</ele>
        <time>2013-09-23T13:48:50.000Z</time>
      </trkpt>
      <trkpt lon="7.785411654040217" lat="48.09173505753279">
        <ele>190.1999969482422</ele>
        <time>2013-09-23T13:48:56.000Z</time>
      </trkpt>
      <trkpt lon="7.78516698628664" lat="48.09164134785533">
        <ele>190.8000030517578</ele>
        <time>2013-09-23T13:48:59.000Z</time>
      </trkpt>
      <trkpt lon="7.7848635613918304" lat="48.09152425266802">
        <ele>191.1999969482422</ele>
        <time>2013-09-23T13:49:03.000Z</time>
      </trkpt>
      <trkpt lon="7.784663653001189" lat="48.091377737000585">
        <ele>191.60000610351562</ele>
        <time>2013-09-23T13:49:07.000Z</time>
      </trkpt>
      <trkpt lon="7.784272134304047" lat="48.09124605730176">
        <ele>191.8000030517578</ele>
        <time>2013-09-23T13:49:12.000Z</time>
      </trkpt>
      <trkpt lon="7.784156464040279" lat="48.09120448306203">
        <ele>192.0</ele>
        <time>2013-09-23T13:49:13.000Z</time>
      </trkpt>
      <trkpt lon="7.783913388848305" lat="48.09115167707205">
        <ele>193.1999969482422</ele>
        <time>2013-09-23T13:49:16.000Z</time>
      </trkpt>
      <trkpt lon="7.78368498198688" lat="48.091047992929816">
        <ele>194.0</ele>
        <time>2013-09-23T13:49:20.000Z</time>
      </trkpt>
      <trkpt lon="7.783600576221943" lat="48.0909036565572">
        <ele>194.1999969482422</ele>
        <time>2013-09-23T13:49:23.000Z</time>
      </trkpt>
      <trkpt lon="7.7834095526486635" lat="48.09083919972181">
        <ele>194.60000610351562</ele>
        <time>2013-09-23T13:49:26.000Z</time>
      </trkpt>
      <trkpt lon="7.78302239254117" lat="48.09060165658593">
        <ele>199.8000030517578</ele>
        <time>2013-09-23T13:49:32.000Z</time>
      </trkpt>
      <trkpt lon="7.782908985391259" lat="48.0903510376811">
        <ele>201.60000610351562</ele>
        <time>2013-09-23T13:49:36.000Z</time>
      </trkpt>
      <trkpt lon="7.782889287918806" lat="48.08997217565775">
        <ele>201.8000030517578</ele>
        <time>2013-09-23T13:49:43.000Z</time>
      </trkpt>
      <trkpt lon="7.782796248793602" lat="48.08967185206711">
        <ele>203.60000610351562</ele>
        <time>2013-09-23T13:49:48.000Z</time>
      </trkpt>
      <trkpt lon="7.782701952382922" lat="48.08958853594959">
        <ele>204.8000030517578</ele>
        <time>2013-09-23T13:49:51.000Z</time>
      </trkpt>
      <trkpt lon="7.782701952382922" lat="48.08958853594959">
        <ele>204.8000030517578</ele>
        <time>2013-09-23T13:49:51.000Z</time>
      </trkpt>
      <trkpt lon="7.782674543559551" lat="48.08956925757229">
        <ele>205.1999969482422</ele>
        <time>2013-09-23T13:49:52.000Z</time>
      </trkpt>
      <trkpt lon="7.782585863023996" lat="48.089510332793">
        <ele>206.39999389648438</ele>
        <time>2013-09-23T13:49:54.000Z</time>
      </trkpt>
      <trkpt lon="7.78248393908143" lat="48.08943673968315">
        <ele>207.8000030517578</ele>
        <time>2013-09-23T13:49:56.000Z</time>
      </trkpt>
      <trkpt lon="7.782401377335191" lat="48.08936666697264">
        <ele>208.39999389648438</ele>
        <time>2013-09-23T13:49:58.000Z</time>
      </trkpt>
      <trkpt lon="7.782266847789288" lat="48.08923104777932">
        <ele>209.39999389648438</ele>
        <time>2013-09-23T13:50:02.000Z</time>
      </trkpt>
      <trkpt lon="7.782179340720177" lat="48.08914437890053">
        <ele>209.8000030517578</ele>
        <time>2013-09-23T13:50:04.000Z</time>
      </trkpt>
      <trkpt lon="7.781963758170605" lat="48.088821256533265">
        <ele>211.1999969482422</ele>
        <time>2013-09-23T13:50:11.000Z</time>
      </trkpt>
      <trkpt lon="7.781925452873111" lat="48.088745065033436">
        <ele>211.60000610351562</ele>
        <time>2013-09-23T13:50:13.000Z</time>
      </trkpt>
      <trkpt lon="7.781982868909836" lat="48.088601399213076">
        <ele>211.0</ele>
        <time>2013-09-23T13:50:17.000Z</time>
      </trkpt>
      <trkpt lon="7.7820362616330385" lat="48.08851665817201">
        <ele>210.60000610351562</ele>
        <time>2013-09-23T13:50:19.000Z</time>
      </trkpt>
      <trkpt lon="7.782441861927509" lat="48.08809739537537">
        <ele>207.60000610351562</ele>
        <time>2013-09-23T13:50:27.000Z</time>
      </trkpt>
      <trkpt lon="7.782703377306461" lat="48.087692968547344">
        <ele>207.39999389648438</ele>
        <time>2013-09-23T13:50:35.000Z</time>
      </trkpt>
      <trkpt lon="7.783021470531821" lat="48.08726507239044">
        <ele>204.1999969482422</ele>
        <time>2013-09-23T13:50:42.000Z</time>
      </trkpt>
      <trkpt lon="7.783231269568205" lat="48.08698235079646">
        <ele>201.60000610351562</ele>
        <time>2013-09-23T13:50:46.000Z</time>
      </trkpt>
      <trkpt lon="7.78328038752079" lat="48.08664648793638">
        <ele>201.1999969482422</ele>
        <time>2013-09-23T13:50:50.000Z</time>
      </trkpt>
      <trkpt lon="7.78319145552814" lat="48.08598113246262">
        <ele>197.1999969482422</ele>
        <time>2013-09-23T13:50:57.000Z</time>
      </trkpt>
      <trkpt lon="7.783250045031309" lat="48.0854070559144">
        <ele>195.39999389648438</ele>
        <time>2013-09-23T13:51:03.000Z</time>
      </trkpt>
      <trkpt lon="7.783374264836311" lat="48.08475309982896">
        <ele>195.60000610351562</ele>
        <time>2013-09-23T13:51:10.000Z</time>
      </trkpt>
      <trkpt lon="7.783504854887724" lat="48.08425437659025">
        <ele>197.0</ele>
        <time>2013-09-23T13:51:16.000Z</time>
      </trkpt>
      <trkpt lon="7.783651957288384" lat="48.083918346092105">
        <ele>197.39999389648438</ele>
        <time>2013-09-23T13:51:21.000Z</time>
      </trkpt>
      <trkpt lon="7.783891260623932" lat="48.08352129533887">
        <ele>197.0</ele>
        <time>2013-09-23T13:51:27.000Z</time>
      </trkpt>
      <trkpt lon="7.784243132919073" lat="48.082980159670115">
        <ele>196.8000030517578</ele>
        <time>2013-09-23T13:51:35.000Z</time>
      </trkpt>
      <trkpt lon="7.784387553110719" lat="48.08255888521671">
        <ele>198.8000030517578</ele>
        <time>2013-09-23T13:51:41.000Z</time>
      </trkpt>
      <trkpt lon="7.784434659406543" lat="48.08203384280205">
        <ele>199.39999389648438</ele>
        <time>2013-09-23T13:51:48.000Z</time>
      </trkpt>
      <trkpt lon="7.784377159550786" lat="48.08157476596534">
        <ele>199.39999389648438</ele>
        <time>2013-09-23T13:51:54.000Z</time>
      </trkpt>
      <trkpt lon="7.784230560064316" lat="48.08115843683481">
        <ele>197.1999969482422</ele>
        <time>2013-09-23T13:52:00.000Z</time>
      </trkpt>
      <trkpt lon="7.783963680267334" lat="48.080617133527994">
        <ele>196.60000610351562</ele>
        <time>2013-09-23T13:52:08.000Z</time>
      </trkpt>
      <trkpt lon="7.783807776868343" lat="48.08034094981849">
        <ele>197.1999969482422</ele>
        <time>2013-09-23T13:52:12.000Z</time>
      </trkpt>
      <trkpt lon="7.7838928531855345" lat="48.080157386139035">
        <ele>196.39999389648438</ele>
        <time>2013-09-23T13:52:15.000Z</time>
      </trkpt>
      <trkpt lon="7.7839811984449625" lat="48.08012519963086">
        <ele>196.1999969482422</ele>
        <time>2013-09-23T13:52:16.000Z</time>
      </trkpt>
      <trkpt lon="7.784320749342442" lat="48.07989528402686">
        <ele>196.1999969482422</ele>
        <time>2013-09-23T13:52:21.000Z</time>
      </trkpt>
      <trkpt lon="7.784345978870988" lat="48.07982395403087">
        <ele>196.1999969482422</ele>
        <time>2013-09-23T13:52:22.000Z</time>
      </trkpt>
      <trkpt lon="7.784492494538426" lat="48.07924878783524">
        <ele>195.60000610351562</ele>
        <time>2013-09-23T13:52:30.000Z</time>
      </trkpt>
      <trkpt lon="7.784613948315382" lat="48.078742353245616">
        <ele>196.0</ele>
        <time>2013-09-23T13:52:37.000Z</time>
      </trkpt>
      <trkpt lon="7.784901950508356" lat="48.07808588258922">
        <ele>196.60000610351562</ele>
        <time>2013-09-23T13:52:46.000Z</time>
      </trkpt>
      <trkpt lon="7.785267485305667" lat="48.07762999087572">
        <ele>195.39999389648438</ele>
        <time>2013-09-23T13:52:53.000Z</time>
      </trkpt>
      <trkpt lon="7.785791773349047" lat="48.07714995928109">
        <ele>194.39999389648438</ele>
        <time>2013-09-23T13:53:01.000Z</time>
      </trkpt>
      <trkpt lon="7.786033591255546" lat="48.07698684744537">
        <ele>194.1999969482422</ele>
        <time>2013-09-23T13:53:04.000Z</time>
      </trkpt>
      <trkpt lon="7.786647398024797" lat="48.076751567423344">
        <ele>193.8000030517578</ele>
        <time>2013-09-23T13:53:10.000Z</time>
      </trkpt>
      <trkpt lon="7.787434961646795" lat="48.07653087191284">
        <ele>192.1999969482422</ele>
        <time>2013-09-23T13:53:18.000Z</time>
      </trkpt>
      <trkpt lon="7.788310199975967" lat="48.076273296028376">
        <ele>191.39999389648438</ele>
        <time>2013-09-23T13:53:27.000Z</time>
      </trkpt>
      <trkpt lon="7.789337150752544" lat="48.07585814036429">
        <ele>191.8000030517578</ele>
        <time>2013-09-23T13:53:38.000Z</time>
      </trkpt>
      <trkpt lon="7.789895636960864" lat="48.07554985396564">
        <ele>192.0</ele>
        <time>2013-09-23T13:53:45.000Z</time>
      </trkpt>
      <trkpt lon="7.790551772341132" lat="48.07508893311024">
        <ele>191.8000030517578</ele>
        <time>2013-09-23T13:53:54.000Z</time>
      </trkpt>
      <trkpt lon="7.791096763685346" lat="48.07464016601443">
        <ele>192.60000610351562</ele>
        <time>2013-09-23T13:54:02.000Z</time>
      </trkpt>
      <trkpt lon="7.791716270148754" lat="48.074313858523965">
        <ele>193.8000030517578</ele>
        <time>2013-09-23T13:54:09.000Z</time>
      </trkpt>
      <trkpt lon="7.792470054700971" lat="48.07397556491196">
        <ele>194.8000030517578</ele>
        <time>2013-09-23T13:54:17.000Z</time>
      </trkpt>
      <trkpt lon="7.793283434584737" lat="48.073754869401455">
        <ele>195.39999389648438</ele>
        <time>2013-09-23T13:54:25.000Z</time>
      </trkpt>
      <trkpt lon="7.794276354834437" lat="48.07349905371666">
        <ele>196.39999389648438</ele>
        <time>2013-09-23T13:54:35.000Z</time>
      </trkpt>
      <trkpt lon="7.794965598732233" lat="48.0732380412519">
        <ele>197.39999389648438</ele>
        <time>2013-09-23T13:54:43.000Z</time>
      </trkpt>
      <trkpt lon="7.795430459082127" lat="48.072996055707335">
        <ele>198.1999969482422</ele>
        <time>2013-09-23T13:54:49.000Z</time>
      </trkpt>
      <trkpt lon="7.795869251713157" lat="48.07273395359516">
        <ele>198.8000030517578</ele>
        <time>2013-09-23T13:54:55.000Z</time>
      </trkpt>
      <trkpt lon="7.796351378783584" lat="48.07239775545895">
        <ele>199.39999389648438</ele>
        <time>2013-09-23T13:55:03.000Z</time>
      </trkpt>
      <trkpt lon="7.796525554731488" lat="48.07223858311772">
        <ele>199.39999389648438</ele>
        <time>2013-09-23T13:55:06.000Z</time>
      </trkpt>
      <trkpt lon="7.796863345429301" lat="48.07198226451874">
        <ele>199.0</ele>
        <time>2013-09-23T13:55:11.000Z</time>
      </trkpt>
      <trkpt lon="7.79697373509407" lat="48.07185837998986">
        <ele>198.8000030517578</ele>
        <time>2013-09-23T13:55:13.000Z</time>
      </trkpt>
      <trkpt lon="7.797220246866345" lat="48.07161966338754">
        <ele>198.60000610351562</ele>
        <time>2013-09-23T13:55:18.000Z</time>
      </trkpt>
      <trkpt lon="7.797251846641302" lat="48.07147063314915">
        <ele>198.8000030517578</ele>
        <time>2013-09-23T13:55:22.000Z</time>
      </trkpt>
      <trkpt lon="7.797160064801574" lat="48.07136334478855">
        <ele>199.1999969482422</ele>
        <time>2013-09-23T13:55:25.000Z</time>
      </trkpt>
      <trkpt lon="7.797213373705745" lat="48.07125085964799">
        <ele>199.39999389648438</ele>
        <time>2013-09-23T13:55:28.000Z</time>
      </trkpt>
      <trkpt lon="7.797413533553481" lat="48.07113703340292">
        <ele>199.39999389648438</ele>
        <time>2013-09-23T13:55:33.000Z</time>
      </trkpt>
      <trkpt lon="7.797554433345795" lat="48.0711102951318">
        <ele>199.1999969482422</ele>
        <time>2013-09-23T13:55:35.000Z</time>
      </trkpt>
      <trkpt lon="7.797799771651626" lat="48.07090703397989">
        <ele>199.0</ele>
        <time>2013-09-23T13:55:39.000Z</time>
      </trkpt>
      <trkpt lon="7.797770854085684" lat="48.0707183573395">
        <ele>199.39999389648438</ele>
        <time>2013-09-23T13:55:42.000Z</time>
      </trkpt>
      <trkpt lon="7.79776968061924" lat="48.07062657549977">
        <ele>199.60000610351562</ele>
        <time>2013-09-23T13:55:44.000Z</time>
      </trkpt>
      <trkpt lon="7.7978448662906885" lat="48.07020655833185">
        <ele>200.1999969482422</ele>
        <time>2013-09-23T13:55:52.000Z</time>
      </trkpt>
      <trkpt lon="7.798105459660292" lat="48.06982643902302">
        <ele>200.60000610351562</ele>
        <time>2013-09-23T13:55:59.000Z</time>
      </trkpt>
      <trkpt lon="7.798230852931738" lat="48.06955109350383">
        <ele>201.1999969482422</ele>
        <time>2013-09-23T13:56:04.000Z</time>
      </trkpt>
      <trkpt lon="7.798279887065291" lat="48.06947976350784">
        <ele>201.1999969482422</ele>
        <time>2013-09-23T13:56:06.000Z</time>
      </trkpt>
      <trkpt lon="7.798334453254938" lat="48.0694024823606">
        <ele>201.39999389648438</ele>
        <time>2013-09-23T13:56:08.000Z</time>
      </trkpt>
      <trkpt lon="7.798485243692994" lat="48.06920223869383">
        <ele>201.60000610351562</ele>
        <time>2013-09-23T13:56:13.000Z</time>
      </trkpt>
      <trkpt lon="7.798540983349085" lat="48.06911305524409">
        <ele>201.8000030517578</ele>
        <time>2013-09-23T13:56:15.000Z</time>
      </trkpt>
      <trkpt lon="7.798803839832544" lat="48.06876227259636">
        <ele>202.8000030517578</ele>
        <time>2013-09-23T13:56:23.000Z</time>
      </trkpt>
      <trkpt lon="7.798975165933371" lat="48.068516766652465">
        <ele>203.39999389648438</ele>
        <time>2013-09-23T13:56:27.000Z</time>
      </trkpt>
      <trkpt lon="7.799135595560074" lat="48.068110747262836">
        <ele>203.8000030517578</ele>
        <time>2013-09-23T13:56:33.000Z</time>
      </trkpt>
      <trkpt lon="7.799161579459906" lat="48.068052576854825">
        <ele>203.60000610351562</ele>
        <time>2013-09-23T13:56:34.000Z</time>
      </trkpt>
      <trkpt lon="7.799161579459906" lat="48.068052576854825">
        <ele>203.60000610351562</ele>
        <time>2013-09-23T13:56:34.000Z</time>
      </trkpt>
      <trkpt lon="7.799319745972753" lat="48.067638259381056">
        <ele>202.39999389648438</ele>
        <time>2013-09-23T13:56:40.000Z</time>
      </trkpt>
      <trkpt lon="7.79954488389194" lat="48.067231234163046">
        <ele>201.0</ele>
        <time>2013-09-23T13:56:46.000Z</time>
      </trkpt>
      <trkpt lon="7.7998849377036095" lat="48.066845163702965">
        <ele>199.39999389648438</ele>
        <time>2013-09-23T13:56:52.000Z</time>
      </trkpt>
      <trkpt lon="7.800373937934637" lat="48.0663269944489">
        <ele>198.8000030517578</ele>
        <time>2013-09-23T13:57:00.000Z</time>
      </trkpt>
      <trkpt lon="7.801133254542947" lat="48.06557388044894">
        <ele>198.8000030517578</ele>
        <time>2013-09-23T13:57:11.000Z</time>
      </trkpt>
      <trkpt lon="7.802079236134887" lat="48.06467676535249">
        <ele>199.1999969482422</ele>
        <time>2013-09-23T13:57:24.000Z</time>
      </trkpt>
      <trkpt lon="7.802791865542531" lat="48.06391174905002">
        <ele>200.39999389648438</ele>
        <time>2013-09-23T13:57:35.000Z</time>
      </trkpt>
      <trkpt lon="7.803137954324484" lat="48.063416965305805">
        <ele>201.0</ele>
        <time>2013-09-23T13:57:42.000Z</time>
      </trkpt>
      <trkpt lon="7.8034166526049376" lat="48.062838949263096">
        <ele>200.8000030517578</ele>
        <time>2013-09-23T13:57:50.000Z</time>
      </trkpt>
      <trkpt lon="7.803568365052342" lat="48.06228004395962">
        <ele>201.60000610351562</ele>
        <time>2013-09-23T13:57:58.000Z</time>
      </trkpt>
      <trkpt lon="7.803614968433976" lat="48.06179875507951">
        <ele>202.8000030517578</ele>
        <time>2013-09-23T13:58:05.000Z</time>
      </trkpt>
      <trkpt lon="7.803732650354505" lat="48.06130397133529">
        <ele>203.0</ele>
        <time>2013-09-23T13:58:12.000Z</time>
      </trkpt>
      <trkpt lon="7.803982933983207" lat="48.06094815954566">
        <ele>202.8000030517578</ele>
        <time>2013-09-23T13:58:17.000Z</time>
      </trkpt>
      <trkpt lon="7.8043711837381124" lat="48.060659654438496">
        <ele>202.60000610351562</ele>
        <time>2013-09-23T13:58:22.000Z</time>
      </trkpt>
      <trkpt lon="7.804953055456281" lat="48.06043359450996">
        <ele>201.0</ele>
        <time>2013-09-23T13:58:28.000Z</time>
      </trkpt>
      <trkpt lon="7.805163944140077" lat="48.06039118207991">
        <ele>200.8000030517578</ele>
        <time>2013-09-23T13:58:30.000Z</time>
      </trkpt>
      <trkpt lon="7.805364271625876" lat="48.06025858037174">
        <ele>200.8000030517578</ele>
        <time>2013-09-23T13:58:33.000Z</time>
      </trkpt>
      <trkpt lon="7.805408276617527" lat="48.05998985655606">
        <ele>201.0</ele>
        <time>2013-09-23T13:58:37.000Z</time>
      </trkpt>
      <trkpt lon="7.805554373189807" lat="48.05979556404054">
        <ele>201.1999969482422</ele>
        <time>2013-09-23T13:58:40.000Z</time>
      </trkpt>
      <trkpt lon="7.806380996480584" lat="48.05918485857546">
        <ele>200.60000610351562</ele>
        <time>2013-09-23T13:58:51.000Z</time>
      </trkpt>
      <trkpt lon="7.807251289486885" lat="48.0585197545588">
        <ele>202.0</ele>
        <time>2013-09-23T13:59:03.000Z</time>
      </trkpt>
      <trkpt lon="7.808080678805709" lat="48.05793218314648">
        <ele>203.8000030517578</ele>
        <time>2013-09-23T13:59:14.000Z</time>
      </trkpt>
      <trkpt lon="7.808770257979631" lat="48.05746229365468">
        <ele>205.39999389648438</ele>
        <time>2013-09-23T13:59:23.000Z</time>
      </trkpt>
      <trkpt lon="7.8088977467268705" lat="48.05735223926604">
        <ele>205.60000610351562</ele>
        <time>2013-09-23T13:59:25.000Z</time>
      </trkpt>
      <trkpt lon="7.808933285996318" lat="48.05711628869176">
        <ele>206.1999969482422</ele>
        <time>2013-09-23T13:59:29.000Z</time>
      </trkpt>
      <trkpt lon="7.808895483613014" lat="48.05706046521664">
        <ele>206.1999969482422</ele>
        <time>2013-09-23T13:59:30.000Z</time>
      </trkpt>
      <trkpt lon="7.808551657944918" lat="48.05683775804937">
        <ele>207.1999969482422</ele>
        <time>2013-09-23T13:59:36.000Z</time>
      </trkpt>
      <trkpt lon="7.808497259393334" lat="48.05679836310446">
        <ele>207.39999389648438</ele>
        <time>2013-09-23T13:59:37.000Z</time>
      </trkpt>
      <trkpt lon="7.808412853628397" lat="48.05671043694019">
        <ele>207.60000610351562</ele>
        <time>2013-09-23T13:59:39.000Z</time>
      </trkpt>
      <trkpt lon="7.808209173381329" lat="48.05655344389379">
        <ele>208.60000610351562</ele>
        <time>2013-09-23T13:59:43.000Z</time>
      </trkpt>
      <trkpt lon="7.807892337441444" lat="48.05631774477661">
        <ele>210.60000610351562</ele>
        <time>2013-09-23T13:59:50.000Z</time>
      </trkpt>
      <trkpt lon="7.807546332478523" lat="48.056067461147904">
        <ele>212.8000030517578</ele>
        <time>2013-09-23T13:59:59.000Z</time>
      </trkpt>
      <trkpt lon="7.807259755209088" lat="48.05584944784641">
        <ele>214.1999969482422</ele>
        <time>2013-09-23T14:00:08.000Z</time>
      </trkpt>
      <trkpt lon="7.806997485458851" lat="48.05559178814292">
        <ele>216.60000610351562</ele>
        <time>2013-09-23T14:00:17.000Z</time>
      </trkpt>
      <trkpt lon="7.806702358648181" lat="48.05523765273392">
        <ele>219.8000030517578</ele>
        <time>2013-09-23T14:00:27.000Z</time>
      </trkpt>
      <trkpt lon="7.80646339058876" lat="48.054966162890196">
        <ele>222.60000610351562</ele>
        <time>2013-09-23T14:00:34.000Z</time>
      </trkpt>
      <trkpt lon="7.8061579540371895" lat="48.0547050666064">
        <ele>224.0</ele>
        <time>2013-09-23T14:00:41.000Z</time>
      </trkpt>
      <trkpt lon="7.805722262710333" lat="48.05440289899707">
        <ele>224.60000610351562</ele>
        <time>2013-09-23T14:00:50.000Z</time>
      </trkpt>
      <trkpt lon="7.80535027384758" lat="48.05413333699107">
        <ele>224.1999969482422</ele>
        <time>2013-09-23T14:00:57.000Z</time>
      </trkpt>
      <trkpt lon="7.804948361590505" lat="48.053813399747014">
        <ele>222.1999969482422</ele>
        <time>2013-09-23T14:01:03.000Z</time>
      </trkpt>
      <trkpt lon="7.804397586733103" lat="48.053366392850876">
        <ele>220.0</ele>
        <time>2013-09-23T14:01:10.000Z</time>
      </trkpt>
      <trkpt lon="7.803890146315098" lat="48.05307537317276">
        <ele>218.39999389648438</ele>
        <time>2013-09-23T14:01:15.000Z</time>
      </trkpt>
      <trkpt lon="7.803293354809284" lat="48.05291016586125">
        <ele>217.39999389648438</ele>
        <time>2013-09-23T14:01:20.000Z</time>
      </trkpt>
      <trkpt lon="7.803050363436341" lat="48.052872279658914">
        <ele>217.39999389648438</ele>
        <time>2013-09-23T14:01:22.000Z</time>
      </trkpt>
      <trkpt lon="7.80264426022768" lat="48.05271335877478">
        <ele>216.8000030517578</ele>
        <time>2013-09-23T14:01:26.000Z</time>
      </trkpt>
      <trkpt lon="7.8024038672447205" lat="48.05251839570701">
        <ele>216.0</ele>
        <time>2013-09-23T14:01:29.000Z</time>
      </trkpt>
      <trkpt lon="7.802193146198988" lat="48.052105251699686">
        <ele>214.0</ele>
        <time>2013-09-23T14:01:34.000Z</time>
      </trkpt>
      <trkpt lon="7.802090048789978" lat="48.0514723341912">
        <ele>211.8000030517578</ele>
        <time>2013-09-23T14:01:42.000Z</time>
      </trkpt>
      <trkpt lon="7.802044451236725" lat="48.05086464621127">
        <ele>211.39999389648438</ele>
        <time>2013-09-23T14:01:50.000Z</time>
      </trkpt>
      <trkpt lon="7.801970271393657" lat="48.05031957104802">
        <ele>210.39999389648438</ele>
        <time>2013-09-23T14:01:57.000Z</time>
      </trkpt>
      <trkpt lon="7.801900366321206" lat="48.04984356276691">
        <ele>209.8000030517578</ele>
        <time>2013-09-23T14:02:03.000Z</time>
      </trkpt>
      <trkpt lon="7.802009666338563" lat="48.04965346120298">
        <ele>209.1999969482422</ele>
        <time>2013-09-23T14:02:06.000Z</time>
      </trkpt>
      <trkpt lon="7.802203958854079" lat="48.04949579760432">
        <ele>208.60000610351562</ele>
        <time>2013-09-23T14:02:09.000Z</time>
      </trkpt>
      <trkpt lon="7.802175879478455" lat="48.04930066689849">
        <ele>208.39999389648438</ele>
        <time>2013-09-23T14:02:12.000Z</time>
      </trkpt>
      <trkpt lon="7.802153835073113" lat="48.049236461520195">
        <ele>208.39999389648438</ele>
        <time>2013-09-23T14:02:13.000Z</time>
      </trkpt>
      <trkpt lon="7.801831383258104" lat="48.048488879576325">
        <ele>209.8000030517578</ele>
        <time>2013-09-23T14:02:24.000Z</time>
      </trkpt>
      <trkpt lon="7.801595851778984" lat="48.04798378609121">
        <ele>209.0</ele>
        <time>2013-09-23T14:02:31.000Z</time>
      </trkpt>
      <trkpt lon="7.801584452390671" lat="48.047898039221764">
        <ele>208.8000030517578</ele>
        <time>2013-09-23T14:02:32.000Z</time>
      </trkpt>
      <trkpt lon="7.801700960844755" lat="48.04745698347688">
        <ele>208.0</ele>
        <time>2013-09-23T14:02:38.000Z</time>
      </trkpt>
      <trkpt lon="7.801806489005685" lat="48.047129586339">
        <ele>208.60000610351562</ele>
        <time>2013-09-23T14:02:43.000Z</time>
      </trkpt>
      <trkpt lon="7.801795843988657" lat="48.04709555581212">
        <ele>208.60000610351562</ele>
        <time>2013-09-23T14:02:44.000Z</time>
      </trkpt>
      <trkpt lon="7.801825180649757" lat="48.04694945923984">
        <ele>208.8000030517578</ele>
        <time>2013-09-23T14:02:48.000Z</time>
      </trkpt>
      <trkpt lon="7.801928780972958" lat="48.04657654836774">
        <ele>209.60000610351562</ele>
        <time>2013-09-23T14:02:55.000Z</time>
      </trkpt>
      <trkpt lon="7.80204763635993" lat="48.04620816372335">
        <ele>211.0</ele>
        <time>2013-09-23T14:03:01.000Z</time>
      </trkpt>
      <trkpt lon="7.802080996334553" lat="48.04603574797511">
        <ele>211.60000610351562</ele>
        <time>2013-09-23T14:03:04.000Z</time>
      </trkpt>
      <trkpt lon="7.802212089300156" lat="48.045868864282966">
        <ele>212.1999969482422</ele>
        <time>2013-09-23T14:03:08.000Z</time>
      </trkpt>
      <trkpt lon="7.8024135902523994" lat="48.045877078548074">
        <ele>211.8000030517578</ele>
        <time>2013-09-23T14:03:11.000Z</time>
      </trkpt>
      <trkpt lon="7.802490871399641" lat="48.04588093422353">
        <ele>211.8000030517578</ele>
        <time>2013-09-23T14:03:12.000Z</time>
      </trkpt>
      <trkpt lon="7.8029286582022905" lat="48.045927034690976">
        <ele>211.1999969482422</ele>
        <time>2013-09-23T14:03:17.000Z</time>
      </trkpt>
      <trkpt lon="7.8029286582022905" lat="48.045927034690976">
        <ele>211.1999969482422</ele>
        <time>2013-09-23T14:03:17.000Z</time>
      </trkpt>
      <trkpt lon="7.803201237693429" lat="48.04594723507762">
        <ele>211.0</ele>
        <time>2013-09-23T14:03:20.000Z</time>
      </trkpt>
      <trkpt lon="7.8035868890583515" lat="48.04599258117378">
        <ele>211.0</ele>
        <time>2013-09-23T14:03:25.000Z</time>
      </trkpt>
      <trkpt lon="7.803777996450663" lat="48.04607296362519">
        <ele>211.0</ele>
        <time>2013-09-23T14:03:29.000Z</time>
      </trkpt>
      <trkpt lon="7.803756454959512" lat="48.04622484371066">
        <ele>211.0</ele>
        <time>2013-09-23T14:03:33.000Z</time>
      </trkpt>
      <trkpt lon="7.803704235702753" lat="48.04637915454805">
        <ele>211.0</ele>
        <time>2013-09-23T14:03:37.000Z</time>
      </trkpt>
      <trkpt lon="7.80367037281394" lat="48.04645626805723">
        <ele>211.0</ele>
        <time>2013-09-23T14:03:39.000Z</time>
      </trkpt>
      <trkpt lon="7.803635336458683" lat="48.04647504352033">
        <ele>211.0</ele>
        <time>2013-09-23T14:03:41.000Z</time>
      </trkpt>
      <trkpt lon="7.803626284003258" lat="48.046488454565406">
        <ele>211.0</ele>
        <time>2013-09-23T14:03:44.000Z</time>
      </trkpt>
    </trkseg>
  </trk>
</gpx>
